KU117 / 9K-AOH 7700 Squawk Report (4th of December, 2021)

Aircraft B77W Reg No. 9K-AOH Age 4 years old
Model 777 Jet engines 2 First flight 13-02-17
Registered 08-03-17 Rollout N/A Delivered 08-03-17
Construction No. 62565 Line No. 1475 Series 300(ER)
ADSHEX 70605A Airline name Kuwait Airways Owner N/A
Airfield based Kuwait International~Farwaniya~9K First tracked N/A
Time Lat Lon Altitude Heading Speed Vertical Rate
2021-12-04 12:53:46 GMT 51.473454 -0.447266 0 270 0 0
2021-12-04 12:53:45 GMT 51.473450 -0.447273 0 270 0 0
2021-12-04 12:53:42 GMT 51.473454 -0.447266 0 270 0 0
2021-12-04 12:53:41 GMT 51.473454 -0.447266 0 270 0 0
2021-12-04 12:53:37 GMT 51.473454 -0.447266 0 270 0 0
2021-12-04 12:53:36 GMT 51.473454 -0.447266 0 270 0 0
2021-12-04 12:53:34 GMT 51.473454 -0.447266 0 270 0 0
2021-12-04 12:53:32 GMT 51.473450 -0.447273 0 270 0 0
2021-12-04 12:53:30 GMT 51.473454 -0.447247 0 270 1 0
2021-12-04 12:53:28 GMT 51.473450 -0.447197 0 270 2 0
2021-12-04 12:53:25 GMT 51.473450 -0.447197 0 270 2 0
2021-12-04 12:53:24 GMT 51.473454 -0.447192 0 270 2 0
2021-12-04 12:53:22 GMT 51.473454 -0.447155 0 270 3 0
2021-12-04 12:53:20 GMT 51.473454 -0.447155 0 270 3 0
2021-12-04 12:53:14 GMT 51.473450 -0.447025 0 270 4 0
2021-12-04 12:53:12 GMT 51.473454 -0.446988 0 270 5 0
2021-12-04 12:53:10 GMT 51.473454 -0.446913 0 270 5 0
2021-12-04 12:53:09 GMT 51.473450 -0.446892 0 270 5 0
2021-12-04 12:53:08 GMT 51.473454 -0.446858 0 270 5 0
2021-12-04 12:53:06 GMT 51.473454 -0.446802 0 270 6 0
2021-12-04 12:53:05 GMT 51.473454 -0.446765 0 270 6 0
2021-12-04 12:53:03 GMT 51.473454 -0.446654 0 267 7 0
2021-12-04 12:53:02 GMT 51.473442 -0.446617 0 267 7 0
2021-12-04 12:53:00 GMT 51.473442 -0.446542 0 264 8 0
2021-12-04 12:52:59 GMT 51.473442 -0.446449 0 261 8 0
2021-12-04 12:52:58 GMT 51.473438 -0.446396 0 258 8 0
2021-12-04 12:52:55 GMT 51.473431 -0.446227 0 247 9 0
2021-12-04 12:52:52 GMT 51.473438 -0.446033 0 233 9 0
2021-12-04 12:52:51 GMT 51.473438 -0.445976 0 225 8 0
2021-12-04 12:52:49 GMT 51.473454 -0.445856 0 216 8 0
2021-12-04 12:52:34 GMT 51.473881 -0.445576 0 180 9 0
2021-12-04 12:52:33 GMT 51.473938 -0.445576 0 180 9 0
2021-12-04 12:52:31 GMT 51.474037 -0.445596 0 177 10 0
2021-12-04 12:52:29 GMT 51.474106 -0.445596 0 177 10 0
2021-12-04 12:52:27 GMT 51.474197 -0.445596 0 177 11 0
2021-12-04 12:52:24 GMT 51.474312 -0.445596 0 174 11 0
2021-12-04 12:52:21 GMT 51.474483 -0.445596 0 165 10 0
2021-12-04 12:52:18 GMT 51.474667 -0.445614 0 149 10 0
2021-12-04 12:52:17 GMT 51.474800 -0.445652 0 132 10 0
2021-12-04 12:52:15 GMT 51.474800 -0.445652 0 132 10 0
2021-12-04 12:52:14 GMT 51.474838 -0.445670 0 129 10 0
2021-12-04 12:52:13 GMT 51.474880 -0.445709 0 123 10 0
2021-12-04 12:52:10 GMT 51.474953 -0.445824 0 112 10 0
2021-12-04 12:52:08 GMT 51.474998 -0.445919 0 106 11 0
2021-12-04 12:52:07 GMT 51.475079 -0.446262 0 95 11 0
2021-12-04 12:52:03 GMT 51.475079 -0.446262 0 95 11 0
2021-12-04 12:51:59 GMT 51.475113 -0.446568 0 90 13 0
2021-12-04 12:51:58 GMT 51.475113 -0.446654 0 90 14 0
2021-12-04 12:51:54 GMT 51.475113 -0.447118 0 90 16 0
2021-12-04 12:51:53 GMT 51.475113 -0.447229 0 90 16 0
2021-12-04 12:51:50 GMT 51.475113 -0.447559 0 90 16 0
2021-12-04 12:51:47 GMT 51.475113 -0.447845 0 90 16 0
2021-12-04 12:51:46 GMT 51.475113 -0.448074 0 90 16 0
2021-12-04 12:51:42 GMT 51.475101 -0.448475 0 90 18 0
2021-12-04 12:51:41 GMT 51.475101 -0.448676 0 90 18 0
2021-12-04 12:51:40 GMT 51.475101 -0.448788 0 90 18 0
2021-12-04 12:51:36 GMT 51.475101 -0.449326 0 90 18 0
2021-12-04 12:51:34 GMT 51.475101 -0.449567 0 90 18 0
2021-12-04 12:51:29 GMT 51.475101 -0.450124 0 90 18 0
2021-12-04 12:51:27 GMT 51.475101 -0.450773 0 90 19 0
2021-12-04 12:51:25 GMT 51.475101 -0.450773 0 90 19 0
2021-12-04 12:51:21 GMT 51.475101 -0.451590 0 90 19 0
2021-12-04 12:51:19 GMT 51.475101 -0.451590 0 90 18 0
2021-12-04 12:51:14 GMT 51.475101 -0.452258 0 90 18 0
2021-12-04 12:51:13 GMT 51.475101 -0.452388 0 90 18 0
2021-12-04 12:51:10 GMT 51.475101 -0.452704 0 90 19 0
2021-12-04 12:51:08 GMT 51.475090 -0.452889 0 90 19 0
2021-12-04 12:51:02 GMT 51.475090 -0.453798 0 90 22 0
2021-12-04 12:50:59 GMT 51.475090 -0.454170 0 90 21 0
2021-12-04 12:50:56 GMT 51.475090 -0.454712 0 90 21 0
2021-12-04 12:50:52 GMT 51.475090 -0.455246 0 90 20 0
2021-12-04 12:50:51 GMT 51.475079 -0.455532 0 90 20 0
2021-12-04 12:50:49 GMT 51.475079 -0.455666 0 90 20 0
2021-12-04 12:50:48 GMT 51.475079 -0.455896 0 90 20 0
2021-12-04 12:50:45 GMT 51.475079 -0.456314 0 92 19 0
2021-12-04 12:50:44 GMT 51.475079 -0.456448 0 92 19 0
2021-12-04 12:50:43 GMT 51.475079 -0.456619 0 92 19 0
2021-12-04 12:50:42 GMT 51.475079 -0.456772 0 95 19 0
2021-12-04 12:50:40 GMT 51.475090 -0.457039 0 98 19 0
2021-12-04 12:50:38 GMT 51.475113 -0.457268 0 98 18 0
2021-12-04 12:50:29 GMT 51.475182 -0.458586 0 90 21 0
2021-12-04 12:50:26 GMT 51.475185 -0.458984 0 90 22 0
2021-12-04 12:50:22 GMT 51.475182 -0.459607 0 90 21 0
2021-12-04 12:50:18 GMT 51.475170 -0.460300 0 90 21 0
2021-12-04 12:50:17 GMT 51.475182 -0.460461 0 90 21 0
2021-12-04 12:50:13 GMT 51.475170 -0.461121 0 90 21 0
2021-12-04 12:50:09 GMT 51.475170 -0.461750 0 90 21 0
2021-12-04 12:49:55 GMT 51.475170 -0.463696 0 90 18 0
2021-12-04 12:49:46 GMT 51.475159 -0.464803 0 90 14 0
2021-12-04 12:49:43 GMT 51.475159 -0.465026 0 90 12 0
2021-12-04 12:49:36 GMT 51.475159 -0.465620 0 90 9 0
2021-12-04 12:49:35 GMT 51.475159 -0.465908 0 90 9 0
2021-12-04 12:49:32 GMT 51.475159 -0.465908 0 90 9 0
2021-12-04 12:49:31 GMT 51.475159 -0.465972 0 90 9 0
2021-12-04 12:49:30 GMT 51.475159 -0.466028 0 87 9 0
2021-12-04 12:49:26 GMT 51.475159 -0.466269 0 84 9 0
2021-12-04 12:49:22 GMT 51.475159 -0.466548 0 81 9 0
2021-12-04 12:49:19 GMT 51.475159 -0.466728 0 73 8 0
2021-12-04 12:49:14 GMT 51.475136 -0.467110 0 47 9 0
2021-12-04 12:49:12 GMT 51.475136 -0.467110 0 47 9 0
2021-12-04 12:49:07 GMT 51.475033 -0.467415 0 19 9 0
2021-12-04 12:49:05 GMT 51.474976 -0.467494 0 8 9 0
2021-12-04 12:49:04 GMT 51.474937 -0.467548 0 5 9 0
2021-12-04 12:49:03 GMT 51.474907 -0.467550 0 0 9 0
2021-12-04 12:49:01 GMT 51.474781 -0.467606 0 351 10 0
2021-12-04 12:48:54 GMT 51.474529 -0.467531 0 345 11 0
2021-12-04 12:48:52 GMT 51.474426 -0.467491 0 345 11 0
2021-12-04 12:48:51 GMT 51.474323 -0.467434 0 348 11 0
2021-12-04 12:48:45 GMT 51.474106 -0.467364 0 351 10 0
2021-12-04 12:48:44 GMT 51.474060 -0.467346 0 351 10 0
2021-12-04 12:48:42 GMT 51.473980 -0.467309 0 354 10 0
2021-12-04 12:48:41 GMT 51.473877 -0.467272 0 354 10 0
2021-12-04 12:48:40 GMT 51.473877 -0.467272 0 357 9 0
2021-12-04 12:48:38 GMT 51.473614 -0.467253 0 0 9 0
2021-12-04 12:48:33 GMT 51.473614 -0.467253 0 0 9 0
2021-12-04 12:48:30 GMT 51.473339 -0.467253 0 0 11 0
2021-12-04 12:48:27 GMT 51.473339 -0.467253 0 0 12 0
2021-12-04 12:48:22 GMT 51.473099 -0.467243 0 0 13 0
2021-12-04 12:48:19 GMT 51.472927 -0.467234 0 0 14 0
2021-12-04 12:48:17 GMT 51.472836 -0.467234 0 0 13 0
2021-12-04 12:47:52 GMT 51.471367 -0.467243 0 0 11 0
2021-12-04 12:47:51 GMT 51.471256 -0.467272 0 0 11 0
2021-12-04 12:47:45 GMT 51.471016 -0.467234 0 357 11 0
2021-12-04 12:47:37 GMT 51.470627 -0.467216 0 340 10 0
2021-12-04 12:47:33 GMT 51.470459 -0.467167 0 329 10 0
2021-12-04 12:47:29 GMT 51.470306 -0.467030 0 326 11 0
2021-12-04 12:47:28 GMT 51.470261 -0.466976 0 326 11 0
2021-12-04 12:47:24 GMT 51.470062 -0.466766 0 326 12 0
2021-12-04 12:47:05 GMT 51.469219 -0.465824 0 326 14 0
2021-12-04 12:46:55 GMT 51.468700 -0.465279 0 326 13 0
2021-12-04 12:46:53 GMT 51.468658 -0.465230 0 326 13 0
2021-12-04 12:46:49 GMT 51.468468 -0.465012 0 326 12 0
2021-12-04 12:46:47 GMT 51.468353 -0.464878 0 326 12 0
2021-12-04 12:46:38 GMT 51.467960 -0.464469 0 337 11 0
2021-12-04 12:46:35 GMT 51.467777 -0.464302 0 348 10 0
2021-12-04 12:46:33 GMT 51.467724 -0.464268 0 351 10 0
2021-12-04 12:46:31 GMT 51.467655 -0.464230 0 354 9 0
2021-12-04 12:46:30 GMT 51.467548 -0.464211 0 357 9 0
2021-12-04 12:46:27 GMT 51.467491 -0.464209 0 357 9 0
2021-12-04 12:46:26 GMT 51.467407 -0.464211 0 357 8 0
2021-12-04 12:46:24 GMT 51.467377 -0.464209 0 354 8 0
2021-12-04 12:46:23 GMT 51.467331 -0.464209 0 354 8 0
2021-12-04 12:46:21 GMT 51.467285 -0.464209 0 354 8 0
2021-12-04 12:46:20 GMT 51.467247 -0.464211 0 351 8 0
2021-12-04 12:46:18 GMT 51.467167 -0.464211 0 345 8 0
2021-12-04 12:46:16 GMT 51.467079 -0.464209 0 340 8 0
2021-12-04 12:46:14 GMT 51.467045 -0.464191 0 337 8 0
2021-12-04 12:46:13 GMT 51.466988 -0.464191 0 331 8 0
2021-12-04 12:46:12 GMT 51.466946 -0.464172 0 326 8 0
2021-12-04 12:46:11 GMT 51.466908 -0.464172 0 320 8 0
2021-12-04 12:46:09 GMT 51.466793 -0.464115 0 306 8 0
2021-12-04 12:46:06 GMT 51.466736 -0.464080 0 298 8 0
2021-12-04 12:46:05 GMT 51.466713 -0.464042 0 292 8 0
2021-12-04 12:46:03 GMT 51.466656 -0.463968 0 284 8 0
2021-12-04 12:46:02 GMT 51.466629 -0.463848 0 278 8 0
2021-12-04 12:46:01 GMT 51.466629 -0.463848 0 275 8 0
2021-12-04 12:45:59 GMT 51.466599 -0.463764 0 272 9 0
2021-12-04 12:45:57 GMT 51.466599 -0.463616 0 270 9 0
2021-12-04 12:45:54 GMT 51.466599 -0.463541 0 270 10 0
2021-12-04 12:45:53 GMT 51.466595 -0.463467 0 270 10 0
2021-12-04 12:45:51 GMT 51.466595 -0.463181 0 270 10 0
2021-12-04 12:45:49 GMT 51.466599 -0.463115 0 270 10 0
2021-12-04 12:45:47 GMT 51.466595 -0.463009 0 270 10 0
2021-12-04 12:45:45 GMT 51.466599 -0.462688 0 270 10 0
2021-12-04 12:45:43 GMT 51.466599 -0.462688 0 270 9 0
2021-12-04 12:45:41 GMT 51.466595 -0.462532 0 270 9 0
2021-12-04 12:45:39 GMT 51.466595 -0.462418 0 270 9 0
2021-12-04 12:45:37 GMT 51.466599 -0.462279 0 270 9 0
2021-12-04 12:45:35 GMT 51.466595 -0.462151 0 270 9 0
2021-12-04 12:45:33 GMT 51.466599 -0.462020 0 270 9 0
2021-12-04 12:45:31 GMT 51.466595 -0.461884 0 270 9 0
2021-12-04 12:45:28 GMT 51.466595 -0.461731 0 270 9 0
2021-12-04 12:45:26 GMT 51.466595 -0.461426 0 270 8 0
2021-12-04 12:45:23 GMT 51.466595 -0.461426 0 270 8 0
2021-12-04 12:45:22 GMT 51.466595 -0.461349 0 270 8 0
2021-12-04 12:45:15 GMT 51.466599 -0.460999 0 267 8 0
2021-12-04 12:45:14 GMT 51.466610 -0.460888 0 267 7 0
2021-12-04 12:45:13 GMT 51.466606 -0.460854 0 267 7 0
2021-12-04 12:45:11 GMT 51.466606 -0.460758 0 267 7 0
2021-12-04 12:45:10 GMT 51.466610 -0.460702 0 267 7 0
2021-12-04 12:45:07 GMT 51.466621 -0.460554 0 270 6 0
2021-12-04 12:45:04 GMT 51.466629 -0.460453 0 272 6 0
2021-12-04 12:45:01 GMT 51.466640 -0.460300 1,300 278 6 0
2021-12-04 12:44:55 GMT 51.466652 -0.460091 0 286 6 0
2021-12-04 12:44:48 GMT 51.466644 -0.459793 0 312 6 0
2021-12-04 12:44:47 GMT 51.466606 -0.459671 0 320 6 0
2021-12-04 12:44:44 GMT 51.466606 -0.459671 0 320 6 0
2021-12-04 12:44:43 GMT 51.466595 -0.459633 0 323 5 0
2021-12-04 12:44:39 GMT 51.466537 -0.459538 0 329 10 0
2021-12-04 12:44:37 GMT 51.466461 -0.459477 0 326 11 0
2021-12-04 12:44:33 GMT 51.466278 -0.459292 0 326 11 0
2021-12-04 12:44:32 GMT 51.466244 -0.459251 0 326 11 0
2021-12-04 12:44:30 GMT 51.466152 -0.459156 0 326 11 0
2021-12-04 12:44:29 GMT 51.466118 -0.459106 0 326 11 0
2021-12-04 12:44:27 GMT 51.466061 -0.459050 0 326 11 0
2021-12-04 12:44:26 GMT 51.465992 -0.458976 0 326 11 0
2021-12-04 12:44:25 GMT 51.465981 -0.458958 0 326 11 0
2021-12-04 12:44:23 GMT 51.465923 -0.458902 0 326 11 0
2021-12-04 12:44:22 GMT 51.465866 -0.458846 0 326 12 0
2021-12-04 12:44:18 GMT 51.465569 -0.458546 0 326 14 0
2021-12-04 12:44:15 GMT 51.465569 -0.458546 0 326 14 0
2021-12-04 12:44:10 GMT 51.465302 -0.458279 0 323 14 0
2021-12-04 12:44:05 GMT 51.465054 -0.458030 0 298 13 0
2021-12-04 12:43:56 GMT 51.464870 -0.456982 0 270 40 0
2021-12-04 12:43:50 GMT 51.464893 -0.454893 400 270 74 0
2021-12-04 12:43:48 GMT 51.464893 -0.443649 400 270 98 -192
2021-12-04 12:43:35 GMT 51.464893 -0.443649 450 270 136 -192
2021-12-04 12:43:33 GMT 51.464951 -0.441532 450 270 139 -256
2021-12-04 12:43:30 GMT 51.464951 -0.436410 475 270 138 -640
2021-12-04 12:43:28 GMT 51.464951 -0.436410 475 270 138 -640
2021-12-04 12:43:27 GMT 51.464943 -0.435333 500 270 138 -640
2021-12-04 12:43:25 GMT 51.464943 -0.433121 525 270 137 -704
2021-12-04 12:43:24 GMT 51.464951 -0.430842 575 270 136 -640
2021-12-04 12:43:22 GMT 51.464943 -0.429611 575 270 136 -640
2021-12-04 12:43:21 GMT 51.464951 -0.428689 575 270 136 -640
2021-12-04 12:43:19 GMT 51.464943 -0.425644 625 270 136 -704
2021-12-04 12:43:18 GMT 51.464943 -0.425644 625 270 136 -704
2021-12-04 12:43:17 GMT 51.464951 -0.424533 650 270 136 -768
2021-12-04 12:43:16 GMT 51.464943 -0.424042 650 270 136 -704
2021-12-04 12:43:15 GMT 51.464943 -0.422668 675 270 137 -768
2021-12-04 12:43:13 GMT 51.464943 -0.420685 700 270 137 -768
2021-12-04 12:43:12 GMT 51.464943 -0.419693 700 270 137 -832
2021-12-04 12:43:11 GMT 51.464951 -0.418668 725 270 137 -896
2021-12-04 12:43:09 GMT 51.464996 -0.416441 750 270 138 -896
2021-12-04 12:43:07 GMT 51.464996 -0.414363 775 270 138 -640
2021-12-04 12:43:05 GMT 51.464996 -0.411393 800 270 139 -704
2021-12-04 12:43:03 GMT 51.464996 -0.410354 825 270 140 -704
2021-12-04 12:43:02 GMT 51.464989 -0.409393 825 270 140 -704
2021-12-04 12:43:01 GMT 51.464996 -0.408276 850 270 140 -704
2021-12-04 12:42:58 GMT 51.465034 -0.405350 875 270 141 -704
2021-12-04 12:42:57 GMT 51.465042 -0.404341 900 270 141 -704
2021-12-04 12:42:55 GMT 51.465034 -0.401917 975 270 141 -832
2021-12-04 12:42:52 GMT 51.465042 -0.399665 975 270 141 -832
2021-12-04 12:42:50 GMT 51.465088 -0.396250 1,000 270 140 -768
2021-12-04 12:42:48 GMT 51.465080 -0.394669 1,025 270 140 -832
2021-12-04 12:42:46 GMT 51.465080 -0.392685 1,050 270 140 -768
2021-12-04 12:42:44 GMT 51.465088 -0.391722 1,075 270 140 -704
2021-12-04 12:42:43 GMT 51.465080 -0.390701 1,075 270 140 -704
2021-12-04 12:42:41 GMT 51.465080 -0.388641 1,100 270 140 -768
2021-12-04 12:42:40 GMT 51.465080 -0.387573 1,100 270 140 -768
2021-12-04 12:42:39 GMT 51.465080 -0.386429 1,125 270 140 -768
2021-12-04 12:42:38 GMT 51.465080 -0.385437 1,150 270 141 -704
2021-12-04 12:42:36 GMT 51.465088 -0.383334 1,175 270 141 -640
2021-12-04 12:42:35 GMT 51.465080 -0.382004 1,175 270 141 -640
2021-12-04 12:42:34 GMT 51.465080 -0.381165 1,175 270 141 -640
2021-12-04 12:42:32 GMT 51.465088 -0.379103 1,225 270 143 -768
2021-12-04 12:42:30 GMT 51.465134 -0.375391 1,250 270 144 -768
2021-12-04 12:42:27 GMT 51.465134 -0.373684 1,275 270 144 -832
2021-12-04 12:42:26 GMT 51.465134 -0.372125 1,300 270 144 -768
2021-12-04 12:42:23 GMT 51.465134 -0.369452 1,325 270 145 -832
2021-12-04 12:42:21 GMT 51.465130 -0.367203 1,375 270 146 -832
2021-12-04 12:42:19 GMT 51.465134 -0.364998 1,425 270 149 -768
2021-12-04 12:42:17 GMT 51.465134 -0.360767 1,450 270 149 -768
2021-12-04 12:42:15 GMT 51.465134 -0.360767 1,450 270 149 -768
2021-12-04 12:42:13 GMT 51.465134 -0.358243 1,500 270 150 -832
2021-12-04 12:42:11 GMT 51.465179 -0.356313 1,500 270 150 -832
2021-12-04 12:42:09 GMT 51.465179 -0.353715 1,500 270 151 -704
2021-12-04 12:42:07 GMT 51.465176 -0.351486 1,550 270 154 -768
2021-12-04 12:42:05 GMT 51.465176 -0.349274 1,550 270 155 -832
2021-12-04 12:42:03 GMT 51.465179 -0.344510 1,625 270 157 -1024
2021-12-04 12:42:01 GMT 51.465179 -0.344510 1,625 270 158 -1024
2021-12-04 12:41:59 GMT 51.465179 -0.342209 1,675 270 159 -704
2021-12-04 12:41:57 GMT 51.465176 -0.339890 1,675 270 161 -704
2021-12-04 12:41:55 GMT 51.465221 -0.337982 1,700 270 162 -704
2021-12-04 12:41:54 GMT 51.465221 -0.333328 1,750 270 163 -768
2021-12-04 12:41:52 GMT 51.465221 -0.333328 1,750 270 163 -832
2021-12-04 12:41:51 GMT 51.465225 -0.332559 1,775 270 165 -896
2021-12-04 12:41:49 GMT 51.465221 -0.330734 1,775 270 165 -896
2021-12-04 12:41:48 GMT 51.465225 -0.326324 1,825 270 168 -1088
2021-12-04 12:41:46 GMT 51.465225 -0.326324 1,825 270 168 -1088
2021-12-04 12:41:44 GMT 51.465221 -0.324402 1,875 270 169 -1024
2021-12-04 12:41:43 GMT 51.465225 -0.322983 1,900 270 169 -1024
2021-12-04 12:41:42 GMT 51.465225 -0.321647 1,950 270 170 -1024
2021-12-04 12:41:39 GMT 51.465225 -0.317267 1,950 270 172 -960
2021-12-04 12:41:37 GMT 51.465267 -0.315323 2,025 270 175 -896
2021-12-04 12:41:34 GMT 51.465267 -0.311356 2,025 270 175 -640
2021-12-04 12:41:33 GMT 51.465267 -0.309448 2,025 270 176 -704
2021-12-04 12:41:30 GMT 51.465267 -0.306854 2,075 270 176 -960
2021-12-04 12:41:28 GMT 51.465271 -0.303460 2,125 271 177 -1088
2021-12-04 12:41:26 GMT 51.465267 -0.301056 2,150 271 176 -1088
2021-12-04 12:41:25 GMT 51.465267 -0.299759 2,200 271 176 -1088
2021-12-04 12:41:24 GMT 51.465271 -0.298635 2,200 271 176 -1088
2021-12-04 12:41:23 GMT 51.465267 -0.297012 2,200 270 176 -1024
2021-12-04 12:41:21 GMT 51.465271 -0.294552 2,250 270 176 -960
2021-12-04 12:41:20 GMT 51.465267 -0.292740 2,275 270 176 -1024
2021-12-04 12:41:19 GMT 51.465271 -0.291583 2,275 270 176 -896
2021-12-04 12:41:17 GMT 51.465267 -0.289001 2,300 270 177 -832
2021-12-04 12:41:16 GMT 51.465271 -0.287797 2,325 270 177 -832
2021-12-04 12:41:15 GMT 51.465313 -0.286636 2,325 270 177 -832
2021-12-04 12:41:13 GMT 51.465317 -0.284011 2,350 270 177 -896
2021-12-04 12:41:12 GMT 51.465317 -0.282675 2,375 270 178 -896
2021-12-04 12:41:10 GMT 51.465313 -0.279541 2,400 270 178 -960
2021-12-04 12:41:09 GMT 51.465317 -0.278889 2,425 270 178 -960
2021-12-04 12:41:07 GMT 51.465317 -0.275846 2,450 270 179 -1088
2021-12-04 12:41:05 GMT 51.465317 -0.273619 2,475 270 179 -1152
2021-12-04 12:41:04 GMT 51.465313 -0.272446 2,500 270 179 -1152
2021-12-04 12:41:02 GMT 51.465313 -0.269623 2,550 270 178 -1152
2021-12-04 12:41:01 GMT 51.465313 -0.268326 2,550 270 178 -1152
2021-12-04 12:41:00 GMT 51.465313 -0.267029 2,575 270 178 -1088
2021-12-04 12:40:58 GMT 51.465313 -0.264511 2,625 270 178 -1024
2021-12-04 12:40:56 GMT 51.465363 -0.260162 2,675 270 178 -1024
2021-12-04 12:40:54 GMT 51.465363 -0.258995 2,675 270 178 -1024
2021-12-04 12:40:53 GMT 51.465363 -0.257511 2,700 270 177 -1024
2021-12-04 12:40:52 GMT 51.465363 -0.256119 2,725 270 177 -1024
2021-12-04 12:40:49 GMT 51.465363 -0.252304 2,775 270 177 -1024
2021-12-04 12:40:48 GMT 51.465363 -0.251127 2,800 270 176 -896
2021-12-04 12:40:46 GMT 51.465363 -0.248718 2,825 270 176 -768
2021-12-04 12:40:44 GMT 51.465363 -0.246153 2,825 270 175 -832
2021-12-04 12:40:43 GMT 51.465363 -0.244980 2,850 270 176 -832
2021-12-04 12:40:42 GMT 51.465363 -0.243852 2,850 270 176 -832
2021-12-04 12:40:40 GMT 51.465363 -0.238878 2,900 270 177 -896
2021-12-04 12:40:38 GMT 51.465363 -0.238878 2,900 270 177 -896
2021-12-04 12:40:37 GMT 51.465363 -0.237542 2,925 270 177 -960
2021-12-04 12:40:36 GMT 51.465363 -0.235748 2,950 270 177 -1024
2021-12-04 12:40:34 GMT 51.465408 -0.233014 2,975 270 178 -1152
2021-12-04 12:40:33 GMT 51.465408 -0.231529 3,000 270 178 -1152
2021-12-04 12:40:32 GMT 51.465408 -0.230865 3,025 270 178 -1216
2021-12-04 12:40:30 GMT 51.465408 -0.227585 3,050 270 178 -1216
2021-12-04 12:40:29 GMT 51.465408 -0.226407 3,100 270 178 -1280
2021-12-04 12:40:28 GMT 51.465408 -0.225071 3,125 270 178 -1280
2021-12-04 12:40:25 GMT 51.465408 -0.221285 3,200 270 177 -1152
2021-12-04 12:40:23 GMT 51.465408 -0.218242 3,200 270 177 -1152
2021-12-04 12:40:21 GMT 51.465408 -0.215378 3,250 270 176 -1024
2021-12-04 12:40:20 GMT 51.465408 -0.214233 3,275 270 175 -960
2021-12-04 12:40:18 GMT 51.465408 -0.212155 3,300 270 175 -896
2021-12-04 12:40:17 GMT 51.465408 -0.210800 3,325 270 174 -896
2021-12-04 12:40:16 GMT 51.465408 -0.209274 3,325 270 174 -1024
2021-12-04 12:40:14 GMT 51.465408 -0.206528 3,375 270 174 -1024
2021-12-04 12:40:13 GMT 51.465408 -0.205400 3,400 270 173 -1088
2021-12-04 12:40:11 GMT 51.465408 -0.202208 3,425 270 173 -960
2021-12-04 12:40:09 GMT 51.465408 -0.200424 3,450 270 173 -896
2021-12-04 12:40:08 GMT 51.465408 -0.199127 3,450 270 173 -896
2021-12-04 12:40:07 GMT 51.465408 -0.194785 3,500 270 173 -1024
2021-12-04 12:40:05 GMT 51.465408 -0.194785 3,550 270 173 -1024
2021-12-04 12:40:03 GMT 51.465454 -0.192855 3,550 270 173 -960
2021-12-04 12:40:02 GMT 51.465454 -0.191422 3,550 270 172 -832
2021-12-04 12:40:01 GMT 51.465454 -0.189366 3,600 270 171 -704
2021-12-04 12:39:59 GMT 51.465454 -0.187584 3,600 270 171 -704
2021-12-04 12:39:58 GMT 51.465454 -0.185776 3,625 270 171 -832
2021-12-04 12:39:57 GMT 51.465454 -0.184555 3,625 270 171 -832
2021-12-04 12:39:56 GMT 51.465454 -0.182239 3,650 270 171 -896
2021-12-04 12:39:54 GMT 51.465454 -0.180977 3,675 270 172 -896
2021-12-04 12:39:52 GMT 51.465454 -0.178986 3,700 270 172 -896
2021-12-04 12:39:51 GMT 51.465454 -0.177860 3,700 270 172 -896
2021-12-04 12:39:49 GMT 51.465454 -0.175187 3,750 271 172 -960
2021-12-04 12:39:47 GMT 51.465454 -0.173109 3,750 271 172 -960
2021-12-04 12:39:46 GMT 51.465454 -0.171179 3,775 270 173 -896
2021-12-04 12:39:45 GMT 51.465454 -0.169917 3,800 270 173 -896
2021-12-04 12:39:42 GMT 51.465454 -0.166626 3,850 270 173 -1024
2021-12-04 12:39:41 GMT 51.465454 -0.165463 3,875 270 174 -1024
2021-12-04 12:39:39 GMT 51.465454 -0.162659 3,875 270 174 -1024
2021-12-04 12:39:37 GMT 51.465454 -0.159524 3,925 270 174 -1024
2021-12-04 12:39:36 GMT 51.465454 -0.158263 3,950 270 175 -1024
2021-12-04 12:39:34 GMT 51.465454 -0.155813 3,975 270 175 -1088
2021-12-04 12:39:33 GMT 51.465454 -0.154477 4,000 270 175 -1088
2021-12-04 12:39:32 GMT 51.465454 -0.152027 4,050 270 175 -1152
2021-12-04 12:39:30 GMT 51.465454 -0.150765 4,050 270 175 -1216
2021-12-04 12:39:29 GMT 51.465454 -0.148163 4,075 270 175 -1152
2021-12-04 12:39:26 GMT 51.465454 -0.145493 4,125 270 174 -1152
2021-12-04 12:39:25 GMT 51.465454 -0.143787 4,150 270 174 -1152
2021-12-04 12:39:23 GMT 51.465454 -0.141560 4,175 270 174 -1088
2021-12-04 12:39:21 GMT 51.465454 -0.139160 4,225 270 173 -1152
2021-12-04 12:39:20 GMT 51.465454 -0.137711 4,250 270 173 -1152
2021-12-04 12:39:18 GMT 51.465454 -0.134659 4,275 270 173 -1152
2021-12-04 12:39:16 GMT 51.465454 -0.133098 4,300 270 172 -1088
2021-12-04 12:39:15 GMT 51.465454 -0.132059 4,325 270 172 -1088
2021-12-04 12:39:14 GMT 51.465500 -0.129471 4,350 270 172 -1024
2021-12-04 12:39:12 GMT 51.465500 -0.127085 4,400 270 171 -704
2021-12-04 12:39:11 GMT 51.465500 -0.125580 4,425 270 171 -576
2021-12-04 12:39:09 GMT 51.465500 -0.123299 4,425 270 171 -512
2021-12-04 12:39:07 GMT 51.465500 -0.120998 4,425 270 171 -128
2021-12-04 12:39:05 GMT 51.465500 -0.118326 4,425 270 171 -64
2021-12-04 12:39:02 GMT 51.465500 -0.113525 4,425 270 170 128
2021-12-04 12:39:01 GMT 51.465500 -0.112313 4,425 270 170 128
2021-12-04 12:38:59 GMT 51.465500 -0.109863 4,425 271 170 128
2021-12-04 12:38:57 GMT 51.465500 -0.108750 4,425 271 170 128
2021-12-04 12:38:56 GMT 51.465500 -0.106735 4,425 271 170 128
2021-12-04 12:38:55 GMT 51.465500 -0.105632 4,425 270 169 -64
2021-12-04 12:38:54 GMT 51.465500 -0.104593 4,425 270 169 -64
2021-12-04 12:38:52 GMT 51.465454 -0.101475 4,425 271 169 -64
2021-12-04 12:38:50 GMT 51.465454 -0.098953 4,425 271 169 -64
2021-12-04 12:38:47 GMT 51.465454 -0.095825 4,425 271 169 0
2021-12-04 12:38:45 GMT 51.465454 -0.093231 4,425 270 170 64
2021-12-04 12:38:44 GMT 51.465454 -0.091934 4,425 270 170 0
2021-12-04 12:38:42 GMT 51.465454 -0.089672 4,425 270 170 0
2021-12-04 12:38:40 GMT 51.465454 -0.087148 4,425 270 170 -64
2021-12-04 12:38:39 GMT 51.465454 -0.085678 4,425 270 170 -64
2021-12-04 12:38:38 GMT 51.465454 -0.084381 4,425 270 170 0
2021-12-04 12:38:37 GMT 51.465454 -0.083389 4,425 270 171 128
2021-12-04 12:38:35 GMT 51.465454 -0.080719 4,425 270 171 128
2021-12-04 12:38:34 GMT 51.465454 -0.079727 4,425 270 171 64
2021-12-04 12:38:33 GMT 51.465454 -0.078389 4,425 270 171 64
2021-12-04 12:38:30 GMT 51.465454 -0.074463 4,425 270 172 0
2021-12-04 12:38:28 GMT 51.465454 -0.070223 4,425 270 172 -128
2021-12-04 12:38:26 GMT 51.465454 -0.068970 4,425 270 172 -64
2021-12-04 12:38:24 GMT 51.465500 -0.066910 4,425 270 172 -64
2021-12-04 12:38:23 GMT 51.465500 -0.062866 4,425 270 172 0
2021-12-04 12:38:21 GMT 51.465500 -0.062866 4,425 270 172 64
2021-12-04 12:38:20 GMT 51.465500 -0.060425 4,425 270 171 64
2021-12-04 12:38:18 GMT 51.465500 -0.059163 4,425 270 171 64
2021-12-04 12:38:17 GMT 51.465500 -0.057752 4,425 270 171 64
2021-12-04 12:38:16 GMT 51.465500 -0.056491 4,425 270 170 64
2021-12-04 12:38:14 GMT 51.465500 -0.053940 4,425 270 170 64
2021-12-04 12:38:13 GMT 51.465500 -0.052556 4,425 270 170 64
2021-12-04 12:38:12 GMT 51.465500 -0.051443 4,425 270 170 128
2021-12-04 12:38:09 GMT 51.465500 -0.048325 4,425 270 170 128
2021-12-04 12:38:08 GMT 51.465500 -0.046321 4,425 270 170 128
2021-12-04 12:38:06 GMT 51.465500 -0.043793 4,425 270 170 64
2021-12-04 12:38:05 GMT 51.465500 -0.042386 4,425 270 170 64
2021-12-04 12:38:04 GMT 51.465546 -0.041199 4,400 270 170 64
2021-12-04 12:38:02 GMT 51.465546 -0.038749 4,400 270 171 64
2021-12-04 12:38:01 GMT 51.465546 -0.037155 4,400 270 171 0
2021-12-04 12:38:00 GMT 51.465546 -0.036011 4,400 270 171 -64
2021-12-04 12:37:59 GMT 51.465546 -0.034485 4,400 270 172 -64
2021-12-04 12:37:57 GMT 51.465500 -0.031815 4,400 270 173 -64
2021-12-04 12:37:55 GMT 51.465500 -0.030518 4,425 270 174 64
2021-12-04 12:37:53 GMT 51.465546 -0.026169 4,425 270 175 128
2021-12-04 12:37:52 GMT 51.465546 -0.025016 4,425 270 175 128
2021-12-04 12:37:50 GMT 51.465546 -0.023575 4,425 270 175 64
2021-12-04 12:37:49 GMT 51.465546 -0.022202 4,425 270 175 64
2021-12-04 12:37:48 GMT 51.465546 -0.021527 4,425 270 175 64
2021-12-04 12:37:46 GMT 51.465546 -0.018261 4,425 270 175 0
2021-12-04 12:37:44 GMT 51.465546 -0.016327 4,425 270 175 -64
2021-12-04 12:37:43 GMT 51.465546 -0.015030 4,425 270 174 -64
2021-12-04 12:37:42 GMT 51.465546 -0.013123 4,425 270 174 -64
2021-12-04 12:37:41 GMT 51.465546 -0.011826 4,425 270 174 -64
2021-12-04 12:37:40 GMT 51.465546 -0.010541 4,425 270 174 -64
2021-12-04 12:37:39 GMT 51.465546 -0.008087 4,425 270 175 0
2021-12-04 12:37:37 GMT 51.465546 -0.006943 4,425 270 175 0
2021-12-04 12:37:35 GMT 51.465546 -0.003934 4,425 270 176 0
2021-12-04 12:37:32 GMT 51.465546 -0.000148 4,425 270 179 -64
2021-12-04 12:37:30 GMT 51.465546 0.001678 4,425 270 180 -64
2021-12-04 12:37:29 GMT 51.465546 0.003510 4,425 270 182 0
2021-12-04 12:37:28 GMT 51.465546 0.004899 4,425 270 183 0
2021-12-04 12:37:26 GMT 51.465546 0.007572 4,425 271 184 0
2021-12-04 12:37:25 GMT 51.465546 0.009155 4,425 271 186 -64
2021-12-04 12:37:24 GMT 51.465546 0.010300 4,425 271 187 0
2021-12-04 12:37:22 GMT 51.465546 0.015663 4,425 271 190 -64
2021-12-04 12:37:20 GMT 51.465546 0.015663 4,425 271 191 -64
2021-12-04 12:37:19 GMT 51.465500 0.017471 4,425 271 192 -128
2021-12-04 12:37:17 GMT 51.465500 0.020447 4,425 271 193 -128
2021-12-04 12:37:15 GMT 51.465500 0.022736 4,450 271 195 -448
2021-12-04 12:37:13 GMT 51.465454 0.026093 4,475 271 196 -640
2021-12-04 12:37:12 GMT 51.465454 0.027466 4,475 271 196 -640
2021-12-04 12:37:10 GMT 51.465454 0.030212 4,500 271 197 -640
2021-12-04 12:37:07 GMT 51.465408 0.034889 4,525 272 199 -448
2021-12-04 12:37:06 GMT 51.465363 0.038757 4,525 272 202 -192
2021-12-04 12:37:03 GMT 51.465317 0.040234 4,550 272 202 -128
2021-12-04 12:37:02 GMT 51.465313 0.042191 4,550 272 204 -128
2021-12-04 12:37:00 GMT 51.465271 0.045133 4,550 272 204 -128
2021-12-04 12:36:59 GMT 51.465271 0.046692 4,550 271 205 -320
2021-12-04 12:36:58 GMT 51.465225 0.048325 4,550 271 206 -384
2021-12-04 12:36:57 GMT 51.465221 0.049667 4,550 271 208 -576
2021-12-04 12:36:55 GMT 51.465225 0.051962 4,575 271 208 -576
2021-12-04 12:36:54 GMT 51.465179 0.054264 4,575 271 209 -576
2021-12-04 12:36:52 GMT 51.465179 0.056416 4,600 271 210 -640
2021-12-04 12:36:51 GMT 51.465176 0.058899 4,625 270 211 -640
2021-12-04 12:36:48 GMT 51.465179 0.063914 4,650 269 213 -640
2021-12-04 12:36:47 GMT 51.465221 0.065308 4,650 269 213 -704
2021-12-04 12:36:46 GMT 51.465221 0.066757 4,675 268 214 -704
2021-12-04 12:36:44 GMT 51.465313 0.069885 4,700 266 215 -704
2021-12-04 12:36:42 GMT 51.465363 0.072302 4,700 266 215 -768
2021-12-04 12:36:41 GMT 51.465500 0.074844 4,725 265 217 -768
2021-12-04 12:36:40 GMT 51.465595 0.076599 4,750 264 217 -704
2021-12-04 12:36:39 GMT 51.465683 0.078018 4,750 262 219 -704
2021-12-04 12:36:37 GMT 51.465874 0.080566 4,775 261 219 -768
2021-12-04 12:36:34 GMT 51.466385 0.085068 4,800 255 224 -832
2021-12-04 12:36:33 GMT 51.466873 0.088633 4,825 253 225 -896
2021-12-04 12:36:31 GMT 51.467239 0.090415 4,825 251 225 -896
2021-12-04 12:36:30 GMT 51.467560 0.091973 4,875 249 227 -960
2021-12-04 12:36:29 GMT 51.467922 0.093536 4,875 247 228 -1024
2021-12-04 12:36:28 GMT 51.468666 0.096359 4,900 241 232 -1088
2021-12-04 12:36:26 GMT 51.469254 0.098209 4,925 239 233 -1088
2021-12-04 12:36:24 GMT 51.470306 0.101252 4,975 236 235 -1088
2021-12-04 12:36:22 GMT 51.471451 0.103999 5,025 232 238 -1152
2021-12-04 12:36:21 GMT 51.472092 0.105409 5,025 231 239 -1216
2021-12-04 12:36:20 GMT 51.472763 0.106812 5,050 229 240 -1216
2021-12-04 12:36:19 GMT 51.475250 0.111348 5,125 228 241 -1152
2021-12-04 12:36:17 GMT 51.475250 0.111348 5,125 227 242 -1088
2021-12-04 12:36:15 GMT 51.476486 0.113501 5,125 227 242 -1088
2021-12-04 12:36:14 GMT 51.477558 0.115280 5,150 227 242 -1088
2021-12-04 12:36:12 GMT 51.479095 0.117955 5,200 227 243 -1024
2021-12-04 12:36:11 GMT 51.479794 0.119095 5,225 227 243 -1024
2021-12-04 12:36:09 GMT 51.481293 0.121740 5,250 227 244 -1024
2021-12-04 12:36:08 GMT 51.482025 0.122910 5,275 227 244 -960
2021-12-04 12:36:07 GMT 51.482849 0.124339 5,300 227 244 -960
2021-12-04 12:36:05 GMT 51.484402 0.126953 5,325 227 244 -960
2021-12-04 12:36:04 GMT 51.485100 0.128174 5,350 227 244 -960
2021-12-04 12:36:03 GMT 51.485844 0.129471 5,350 227 244 -960
2021-12-04 12:36:02 GMT 51.487473 0.132281 5,400 227 244 -960
2021-12-04 12:35:59 GMT 51.489075 0.135028 5,425 228 245 -960
2021-12-04 12:35:57 GMT 51.490585 0.137552 5,450 227 246 -960
2021-12-04 12:35:56 GMT 51.491245 0.138779 5,475 227 246 -896
2021-12-04 12:35:54 GMT 51.492874 0.141525 5,500 228 246 -896
2021-12-04 12:35:53 GMT 51.493561 0.142748 5,525 228 246 -832
2021-12-04 12:35:52 GMT 51.494339 0.144084 5,525 228 246 -832
2021-12-04 12:35:51 GMT 51.495209 0.145569 5,550 228 248 -768
2021-12-04 12:35:50 GMT 51.496948 0.148538 5,575 228 249 -640
2021-12-04 12:35:48 GMT 51.497635 0.149726 5,575 228 249 -576
2021-12-04 12:35:47 GMT 51.498276 0.150839 5,600 228 249 -576
2021-12-04 12:35:46 GMT 51.499054 0.152175 5,600 228 250 -512
2021-12-04 12:35:44 GMT 51.500927 0.155411 5,625 228 251 -512
2021-12-04 12:35:43 GMT 51.501717 0.156784 5,625 228 251 -512
2021-12-04 12:35:41 GMT 51.504280 0.161362 5,650 228 253 -512
2021-12-04 12:35:39 GMT 51.504280 0.161362 5,675 228 253 -512
2021-12-04 12:35:37 GMT 51.505875 0.164127 5,675 228 254 -512
2021-12-04 12:35:36 GMT 51.506744 0.165634 5,700 228 255 -512
2021-12-04 12:35:35 GMT 51.507629 0.167160 5,700 228 255 -448
2021-12-04 12:35:34 GMT 51.509212 0.169983 5,700 228 256 -448
2021-12-04 12:35:32 GMT 51.510040 0.171402 5,700 228 256 -448
2021-12-04 12:35:31 GMT 51.510750 0.172653 5,725 228 259 -512
2021-12-04 12:35:30 GMT 51.511402 0.173798 5,725 228 259 -512
2021-12-04 12:35:29 GMT 51.513264 0.177078 5,750 228 260 -640
2021-12-04 12:35:26 GMT 51.515671 0.181349 5,800 228 261 -960
2021-12-04 12:35:24 GMT 51.516449 0.182759 5,825 228 261 -960
2021-12-04 12:35:23 GMT 51.517265 0.184174 5,825 228 261 -1088
2021-12-04 12:35:20 GMT 51.519455 0.188065 5,875 228 261 -1408
2021-12-04 12:35:19 GMT 51.520618 0.190125 5,925 228 261 -1600
2021-12-04 12:35:17 GMT 51.521969 0.192566 5,975 228 261 -1664
2021-12-04 12:35:16 GMT 51.523041 0.194413 5,975 228 261 -1792
2021-12-04 12:35:14 GMT 51.524670 0.197296 6,050 228 259 -2112
2021-12-04 12:35:13 GMT 51.525558 0.198867 6,100 228 259 -2176
2021-12-04 12:35:10 GMT 51.528030 0.203247 6,225 228 258 -2432
2021-12-04 12:35:08 GMT 51.530182 0.207107 6,325 228 258 -2432
2021-12-04 12:35:06 GMT 51.531048 0.208664 6,375 229 259 -2432
2021-12-04 12:35:04 GMT 51.532654 0.211561 6,475 229 259 -2432
2021-12-04 12:35:03 GMT 51.534164 0.214233 6,525 228 259 -2432
2021-12-04 12:35:01 GMT 51.534988 0.215644 6,550 228 259 -2432
2021-12-04 12:35:00 GMT 51.535702 0.216980 6,600 228 259 -2432
2021-12-04 12:34:59 GMT 51.536587 0.218506 6,650 229 260 -2432
2021-12-04 12:34:56 GMT 51.539101 0.223007 6,775 228 261 -2432
2021-12-04 12:34:55 GMT 51.539795 0.224255 6,800 228 261 -2432
2021-12-04 12:34:53 GMT 51.541428 0.227127 6,875 228 261 -2432
2021-12-04 12:34:51 GMT 51.543365 0.230564 6,975 228 261 -2496
2021-12-04 12:34:50 GMT 51.544189 0.232049 7,025 229 262 -2496
2021-12-04 12:34:48 GMT 51.545700 0.234796 7,100 229 262 -2496
2021-12-04 12:34:47 GMT 51.546455 0.236053 7,125 229 262 -2496
2021-12-04 12:34:46 GMT 51.547348 0.237691 7,175 229 262 -2496
2021-12-04 12:34:44 GMT 51.548317 0.239410 7,250 229 262 -2560
2021-12-04 12:34:43 GMT 51.549759 0.242004 7,300 229 262 -2560
2021-12-04 12:34:42 GMT 51.550507 0.243301 7,350 229 262 -2624
2021-12-04 12:34:41 GMT 51.551239 0.244594 7,375 229 262 -2624
2021-12-04 12:34:40 GMT 51.551949 0.245895 7,425 229 262 -2624
2021-12-04 12:34:38 GMT 51.553574 0.248825 7,500 229 262 -2624
2021-12-04 12:34:37 GMT 51.554371 0.250244 7,600 229 262 -2688
2021-12-04 12:34:36 GMT 51.556000 0.253143 7,650 229 262 -2688
2021-12-04 12:34:34 GMT 51.556885 0.254745 7,700 229 262 -2624
2021-12-04 12:34:33 GMT 51.557602 0.256026 7,725 229 262 -2624
2021-12-04 12:34:31 GMT 51.559296 0.259069 7,825 229 262 -2624
2021-12-04 12:34:28 GMT 51.561630 0.263290 7,950 229 262 -2560
2021-12-04 12:34:27 GMT 51.562454 0.264785 7,975 229 262 -2560
2021-12-04 12:34:26 GMT 51.564240 0.268021 8,075 229 263 -2560
2021-12-04 12:34:24 GMT 51.565029 0.269470 8,125 229 263 -2560
2021-12-04 12:34:23 GMT 51.565681 0.270615 8,150 229 263 -2560
2021-12-04 12:34:20 GMT 51.568336 0.275497 8,325 229 263 -2624
2021-12-04 12:34:18 GMT 51.570099 0.278667 8,350 229 263 -2624
2021-12-04 12:34:17 GMT 51.570557 0.279558 8,450 229 263 -2688
2021-12-04 12:34:16 GMT 51.571453 0.281219 8,475 229 263 -2688
2021-12-04 12:34:15 GMT 51.573029 0.284160 8,575 229 263 -2752
2021-12-04 12:34:13 GMT 51.573921 0.285797 8,600 229 263 -2816
2021-12-04 12:34:12 GMT 51.574619 0.287094 8,650 230 263 -2816
2021-12-04 12:34:11 GMT 51.576141 0.289950 8,725 230 263 -2880
2021-12-04 12:34:09 GMT 51.576946 0.291367 8,775 230 263 -2880
2021-12-04 12:34:08 GMT 51.577740 0.292892 8,825 230 263 -2944
2021-12-04 12:34:06 GMT 51.579346 0.295814 8,900 230 263 -2944
2021-12-04 12:34:05 GMT 51.580204 0.297470 8,975 230 263 -3008
2021-12-04 12:34:03 GMT 51.581882 0.300598 9,100 230 263 -2944
2021-12-04 12:34:02 GMT 51.582596 0.301901 9,125 230 263 -2944
2021-12-04 12:34:00 GMT 51.584244 0.305019 9,250 230 262 -2944
2021-12-04 12:33:58 GMT 51.585838 0.307922 9,325 230 262 -2944
2021-12-04 12:33:57 GMT 51.586632 0.309448 9,400 230 262 -2944
2021-12-04 12:33:55 GMT 51.587887 0.311813 9,550 230 262 -2880
2021-12-04 12:33:53 GMT 51.589237 0.314331 9,550 230 263 -2816
2021-12-04 12:33:51 GMT 51.591156 0.317861 9,675 230 263 -2688
2021-12-04 12:33:50 GMT 51.591934 0.319272 9,725 230 263 -2560
2021-12-04 12:33:48 GMT 51.593628 0.322389 9,800 230 264 -2368
2021-12-04 12:33:47 GMT 51.594406 0.323874 9,850 230 264 -2240
2021-12-04 12:33:46 GMT 51.595184 0.325359 9,875 230 265 -2048
2021-12-04 12:33:45 GMT 51.595985 0.326843 9,925 230 265 -1920
2021-12-04 12:33:43 GMT 51.597656 0.329961 9,975 230 266 -1536
2021-12-04 12:33:42 GMT 51.598572 0.331594 10,000 230 268 -1344
2021-12-04 12:33:41 GMT 51.599350 0.333153 10,025 230 268 -1152
2021-12-04 12:33:40 GMT 51.600826 0.335846 10,050 230 270 -960
2021-12-04 12:33:38 GMT 51.601620 0.337372 10,075 230 270 -896
2021-12-04 12:33:36 GMT 51.603241 0.340353 10,100 230 270 -768
2021-12-04 12:33:35 GMT 51.605804 0.345104 10,125 230 273 -832
2021-12-04 12:33:33 GMT 51.605804 0.345104 10,150 230 273 -832
2021-12-04 12:33:31 GMT 51.608459 0.350226 10,175 230 274 -768
2021-12-04 12:33:29 GMT 51.609207 0.351639 10,200 230 274 -768
2021-12-04 12:33:28 GMT 51.610016 0.353196 10,200 230 274 -768
2021-12-04 12:33:26 GMT 51.612465 0.357819 10,250 231 276 -768
2021-12-04 12:33:24 GMT 51.613304 0.359421 10,250 230 276 -768
2021-12-04 12:33:23 GMT 51.614044 0.360841 10,275 231 277 -832
2021-12-04 12:33:22 GMT 51.615025 0.362701 10,300 231 278 -832
2021-12-04 12:33:21 GMT 51.616657 0.365906 10,325 231 278 -832
2021-12-04 12:33:19 GMT 51.617432 0.367300 10,325 231 278 -832
2021-12-04 12:33:18 GMT 51.618240 0.368881 10,350 231 279 -896
2021-12-04 12:33:17 GMT 51.619125 0.370640 10,375 231 279 -896
2021-12-04 12:33:15 GMT 51.620800 0.373840 10,400 231 281 -896
2021-12-04 12:33:14 GMT 51.621185 0.374649 10,400 231 281 -896
2021-12-04 12:33:13 GMT 51.622375 0.376876 10,425 231 281 -896
2021-12-04 12:33:10 GMT 51.624897 0.381699 10,475 230 282 -896
2021-12-04 12:33:08 GMT 51.626404 0.384596 10,500 230 283 -896
2021-12-04 12:33:07 GMT 51.627228 0.386155 10,500 230 284 -896
2021-12-04 12:33:06 GMT 51.629829 0.390930 10,550 228 286 -896
2021-12-04 12:33:04 GMT 51.629829 0.390930 10,550 228 286 -896
2021-12-04 12:33:03 GMT 51.630947 0.392990 10,575 228 286 -896
2021-12-04 12:33:02 GMT 51.631832 0.394592 10,575 227 287 -896
2021-12-04 12:33:00 GMT 51.633636 0.397735 10,625 225 288 -896
2021-12-04 12:32:59 GMT 51.634483 0.399094 10,625 223 290 -896
2021-12-04 12:32:58 GMT 51.635509 0.400772 10,650 222 291 -896
2021-12-04 12:32:57 GMT 51.636383 0.402114 10,650 221 292 -896
2021-12-04 12:32:54 GMT 51.639084 0.406049 10,700 219 292 -896
2021-12-04 12:32:53 GMT 51.642654 0.410428 10,725 215 297 -896
2021-12-04 12:32:51 GMT 51.642654 0.410428 10,750 213 298 -896
2021-12-04 12:32:50 GMT 51.643570 0.411468 10,775 210 300 -896
2021-12-04 12:32:48 GMT 51.645378 0.413361 10,775 208 302 -832
2021-12-04 12:32:47 GMT 51.646587 0.414505 10,800 207 304 -832
2021-12-04 12:32:46 GMT 51.649197 0.416718 10,825 205 304 -832
2021-12-04 12:32:44 GMT 51.650452 0.417709 10,825 202 307 -832
2021-12-04 12:32:43 GMT 51.651897 0.418701 10,850 199 310 -832
2021-12-04 12:32:42 GMT 51.654270 0.420227 10,875 197 311 -832
2021-12-04 12:32:40 GMT 51.655518 0.420821 10,900 196 313 -832
2021-12-04 12:32:39 GMT 51.657158 0.421753 10,950 193 316 -832
2021-12-04 12:32:37 GMT 51.659912 0.422974 10,950 191 317 -832
2021-12-04 12:32:35 GMT 51.662369 0.423813 10,950 190 318 -832
2021-12-04 12:32:34 GMT 51.663815 0.424194 10,975 188 320 -768
2021-12-04 12:32:33 GMT 51.665398 0.424652 10,975 187 321 -768
2021-12-04 12:32:31 GMT 51.667740 0.425126 11,000 182 326 -704
2021-12-04 12:32:30 GMT 51.669846 0.425423 11,050 182 326 -704
2021-12-04 12:32:28 GMT 51.673279 0.425720 11,050 178 329 -704
2021-12-04 12:32:27 GMT 51.674469 0.425720 11,075 178 330 -704
2021-12-04 12:32:25 GMT 51.681015 0.425349 11,100 175 332 -640
2021-12-04 12:32:23 GMT 51.681015 0.425349 11,100 175 334 -640
2021-12-04 12:32:22 GMT 51.682575 0.425186 11,125 175 334 -640
2021-12-04 12:32:20 GMT 51.685646 0.424728 11,125 174 335 -640
2021-12-04 12:32:19 GMT 51.687321 0.424500 11,150 174 337 -640
2021-12-04 12:32:18 GMT 51.688858 0.424271 11,175 174 337 -640
2021-12-04 12:32:17 GMT 51.693699 0.423508 11,175 174 338 -640
2021-12-04 12:32:15 GMT 51.696167 0.423122 11,225 174 338 -640
2021-12-04 12:32:13 GMT 51.696167 0.423122 11,225 174 339 -640
2021-12-04 12:32:11 GMT 51.699146 0.422668 11,225 174 340 -640
2021-12-04 12:32:09 GMT 51.702404 0.422211 11,250 174 343 -640
2021-12-04 12:32:08 GMT 51.704453 0.421860 11,275 174 343 -640
2021-12-04 12:32:07 GMT 51.706192 0.421637 11,275 174 343 -640
2021-12-04 12:32:06 GMT 51.707794 0.421415 11,300 174 344 -640
2021-12-04 12:32:05 GMT 51.710449 0.420969 11,300 174 345 -640
2021-12-04 12:32:02 GMT 51.713333 0.420598 11,350 174 346 -640
2021-12-04 12:32:00 GMT 51.717487 0.419998 11,350 175 348 -640
2021-12-04 12:31:58 GMT 51.720016 0.419633 11,375 175 349 -704
2021-12-04 12:31:56 GMT 51.724686 0.418965 11,400 175 350 -704
2021-12-04 12:31:54 GMT 51.726929 0.418668 11,425 175 351 -704
2021-12-04 12:31:53 GMT 51.729546 0.418320 11,450 175 352 -768
2021-12-04 12:31:51 GMT 51.731323 0.418074 11,450 175 353 -832
2021-12-04 12:31:50 GMT 51.733109 0.417852 11,450 175 353 -832
2021-12-04 12:31:48 GMT 51.736359 0.417406 11,500 175 354 -896
2021-12-04 12:31:47 GMT 51.738007 0.417184 11,500 175 355 -1024
2021-12-04 12:31:46 GMT 51.739792 0.416961 11,525 175 356 -1152
2021-12-04 12:31:45 GMT 51.741230 0.416794 11,550 175 356 -1216
2021-12-04 12:31:44 GMT 51.744507 0.416367 11,575 175 356 -1344
2021-12-04 12:31:41 GMT 51.747986 0.415922 11,650 175 356 -1536
2021-12-04 12:31:39 GMT 51.753239 0.415268 11,725 175 357 -1792
2021-12-04 12:31:37 GMT 51.754868 0.415039 11,775 175 357 -1856
2021-12-04 12:31:36 GMT 51.756500 0.414810 11,800 175 357 -1856
2021-12-04 12:31:35 GMT 51.759945 0.414429 11,850 175 357 -1792
2021-12-04 12:31:33 GMT 51.761444 0.414214 11,875 175 357 -1792
2021-12-04 12:31:32 GMT 51.762909 0.414066 11,900 175 357 -1792
2021-12-04 12:31:31 GMT 51.766525 0.413620 12,000 175 357 -1792
2021-12-04 12:31:29 GMT 51.768185 0.413361 12,000 175 357 -1792
2021-12-04 12:31:28 GMT 51.769684 0.413175 12,025 175 357 -1792
2021-12-04 12:31:26 GMT 51.772465 0.412827 12,075 175 357 -1792
2021-12-04 12:31:25 GMT 51.774124 0.412655 12,125 175 358 -1792
2021-12-04 12:31:24 GMT 51.775909 0.412445 12,150 175 358 -1792
2021-12-04 12:31:23 GMT 51.777420 0.412210 12,175 175 358 -1792
2021-12-04 12:31:21 GMT 51.781219 0.411765 12,250 175 358 -1792
2021-12-04 12:31:19 GMT 51.784653 0.411319 12,375 175 358 -1792
2021-12-04 12:31:17 GMT 51.787457 0.410919 12,375 175 358 -1792
2021-12-04 12:31:15 GMT 51.790100 0.410577 12,425 175 358 -1792
2021-12-04 12:31:13 GMT 51.793739 0.410080 12,500 175 358 -1728
2021-12-04 12:31:11 GMT 51.797058 0.409686 12,525 175 359 -1664
2021-12-04 12:31:09 GMT 51.800171 0.409241 12,575 175 359 -1664
2021-12-04 12:31:08 GMT 51.802505 0.408944 12,625 175 359 -1664
2021-12-04 12:31:06 GMT 51.804634 0.408630 12,650 175 359 -1664
2021-12-04 12:31:05 GMT 51.809101 0.408020 12,700 175 360 -1664
2021-12-04 12:31:03 GMT 51.810780 0.407791 12,775 175 360 -1664
2021-12-04 12:31:02 GMT 51.812267 0.407639 12,775 175 360 -1664
2021-12-04 12:31:01 GMT 51.813896 0.407410 12,800 175 360 -1600
2021-12-04 12:30:58 GMT 51.818741 0.406723 12,875 175 361 -1664
2021-12-04 12:30:57 GMT 51.820221 0.406568 12,925 175 361 -1664
2021-12-04 12:30:56 GMT 51.822556 0.406265 12,950 175 361 -1600
2021-12-04 12:30:54 GMT 51.826050 0.405807 13,000 175 362 -1600
2021-12-04 12:30:53 GMT 51.826859 0.405678 13,025 175 362 -1600
2021-12-04 12:30:50 GMT 51.832352 0.404935 13,100 175 362 -1600
2021-12-04 12:30:48 GMT 51.837032 0.404358 13,150 175 363 -1600
2021-12-04 12:30:46 GMT 51.838711 0.404129 13,225 175 363 -1600
2021-12-04 12:30:45 GMT 51.840225 0.403970 13,225 175 363 -1600
2021-12-04 12:30:44 GMT 51.841873 0.403748 13,275 175 363 -1600
2021-12-04 12:30:43 GMT 51.845398 0.403302 13,300 175 364 -1600
2021-12-04 12:30:41 GMT 51.846905 0.403137 13,325 175 364 -1600
2021-12-04 12:30:40 GMT 51.848923 0.402931 13,375 175 364 -1664
2021-12-04 12:30:39 GMT 51.852116 0.402527 13,425 175 364 -1664
2021-12-04 12:30:37 GMT 51.853931 0.402298 13,450 175 364 -1664
2021-12-04 12:30:36 GMT 51.855469 0.402114 13,475 175 364 -1664
2021-12-04 12:30:35 GMT 51.857285 0.401840 13,500 175 364 -1664
2021-12-04 12:30:33 GMT 51.860497 0.401459 13,550 175 365 -1728
2021-12-04 12:30:32 GMT 51.862171 0.401306 13,575 175 365 -1728
2021-12-04 12:30:31 GMT 51.863663 0.401075 13,625 175 365 -1728
2021-12-04 12:30:30 GMT 51.866867 0.400704 13,675 175 365 -1728
2021-12-04 12:30:27 GMT 51.870575 0.400259 13,725 175 365 -1728
2021-12-04 12:30:25 GMT 51.873951 0.399857 13,800 175 365 -1728
2021-12-04 12:30:24 GMT 51.875626 0.399704 13,850 175 365 -1664
2021-12-04 12:30:22 GMT 51.879318 0.399219 13,875 175 365 -1664
2021-12-04 12:30:21 GMT 51.881378 0.398997 13,925 175 365 -1664
2021-12-04 12:30:20 GMT 51.883026 0.398788 13,925 175 366 -1600
2021-12-04 12:30:19 GMT 51.884750 0.398560 13,950 175 366 -1600
2021-12-04 12:30:17 GMT 51.887775 0.398254 14,000 175 367 -1600
2021-12-04 12:30:16 GMT 51.889481 0.398032 14,025 175 367 -1600
2021-12-04 12:30:14 GMT 51.892502 0.397661 14,075 175 368 -1600
2021-12-04 12:30:13 GMT 51.894012 0.397491 14,125 175 368 -1600
2021-12-04 12:30:12 GMT 51.896072 0.397186 14,125 175 368 -1600
2021-12-04 12:30:11 GMT 51.899460 0.396842 14,175 175 369 -1600
2021-12-04 12:30:09 GMT 51.900970 0.396652 14,200 175 369 -1600
2021-12-04 12:30:07 GMT 51.904541 0.396194 14,275 175 369 -1664
2021-12-04 12:30:06 GMT 51.907974 0.395737 14,325 175 370 -1728
2021-12-04 12:30:04 GMT 51.909851 0.395508 14,350 175 370 -1728
2021-12-04 12:30:03 GMT 51.911377 0.395351 14,375 175 370 -1792
2021-12-04 12:30:01 GMT 51.914963 0.394880 14,500 175 370 -1792
2021-12-04 12:29:59 GMT 51.918182 0.394516 14,500 175 370 -1920
2021-12-04 12:29:57 GMT 51.921753 0.394058 14,575 175 370 -2048
2021-12-04 12:29:55 GMT 51.925484 0.393546 14,675 175 369 -2176
2021-12-04 12:29:53 GMT 51.928230 0.393232 14,725 175 369 -2304
2021-12-04 12:29:51 GMT 51.931812 0.392761 14,800 175 368 -2432
2021-12-04 12:29:49 GMT 51.935028 0.392303 14,900 175 368 -2624
2021-12-04 12:29:48 GMT 51.937401 0.392055 14,925 175 367 -2688
2021-12-04 12:29:47 GMT 51.939075 0.391820 14,975 175 367 -2752
2021-12-04 12:29:44 GMT 51.943497 0.391235 15,125 175 365 -2944
2021-12-04 12:29:43 GMT 51.944988 0.391113 15,175 175 364 -2944
2021-12-04 12:29:42 GMT 51.946850 0.390878 15,250 175 364 -3008
2021-12-04 12:29:40 GMT 51.950527 0.390407 15,375 175 363 -3008
2021-12-04 12:29:38 GMT 51.953384 0.390091 15,425 175 362 -2880
2021-12-04 12:29:37 GMT 51.955372 0.389779 15,475 175 361 -2816
2021-12-04 12:29:35 GMT 51.958557 0.389404 15,575 175 361 -2432
2021-12-04 12:29:34 GMT 51.960205 0.389252 15,625 175 361 -2240
2021-12-04 12:29:33 GMT 51.961887 0.388994 15,650 175 361 -2048
2021-12-04 12:29:31 GMT 51.965561 0.388565 15,725 175 361 -1664
2021-12-04 12:29:29 GMT 51.971848 0.387817 15,800 175 363 -896
2021-12-04 12:29:27 GMT 51.971848 0.387817 15,800 175 363 -896
2021-12-04 12:29:26 GMT 51.973526 0.387660 15,800 175 363 -896
2021-12-04 12:29:24 GMT 51.976868 0.387192 15,825 175 364 -896
2021-12-04 12:29:23 GMT 51.978367 0.387033 15,875 175 364 -896
2021-12-04 12:29:21 GMT 51.981766 0.386640 15,875 175 366 -960
2021-12-04 12:29:20 GMT 51.985107 0.386276 15,925 175 366 -960
2021-12-04 12:29:17 GMT 51.988678 0.385818 15,950 175 368 -896
2021-12-04 12:29:16 GMT 51.990192 0.385699 15,975 175 368 -896
2021-12-04 12:29:15 GMT 51.993774 0.385228 16,000 175 369 -832
2021-12-04 12:29:13 GMT 51.995453 0.385071 16,025 175 369 -832
2021-12-04 12:29:11 GMT 52.001083 0.384443 16,050 175 371 -704
2021-12-04 12:29:09 GMT 52.002808 0.384208 16,075 176 372 -640
2021-12-04 12:29:07 GMT 52.005039 0.383972 16,075 176 373 -576
2021-12-04 12:29:06 GMT 52.007950 0.383606 16,100 176 374 -512
2021-12-04 12:29:05 GMT 52.009506 0.383453 16,100 175 375 -448
2021-12-04 12:29:04 GMT 52.011246 0.383224 16,125 175 376 -384
2021-12-04 12:29:02 GMT 52.014027 0.382952 16,125 175 379 -512
2021-12-04 12:29:00 GMT 52.018021 0.382462 16,125 175 379 -512
2021-12-04 12:28:59 GMT 52.019943 0.382233 16,125 175 380 -512
2021-12-04 12:28:57 GMT 52.023102 0.381927 16,150 175 382 -576
2021-12-04 12:28:56 GMT 52.024658 0.381699 16,150 175 383 -576
2021-12-04 12:28:54 GMT 52.029991 0.381147 16,175 175 385 -704
2021-12-04 12:28:51 GMT 52.033356 0.380707 16,200 176 387 -832
2021-12-04 12:28:49 GMT 52.037109 0.380325 16,225 176 388 -832
2021-12-04 12:28:47 GMT 52.041397 0.379813 16,250 176 389 -960
2021-12-04 12:28:46 GMT 52.044800 0.379410 16,275 176 389 -960
2021-12-04 12:28:44 GMT 52.046566 0.379185 16,300 176 391 -1088
2021-12-04 12:28:43 GMT 52.048382 0.379028 16,325 176 391 -1152
2021-12-04 12:28:42 GMT 52.050198 0.378793 16,350 176 392 -1216
2021-12-04 12:28:40 GMT 52.053818 0.378418 16,375 176 392 -1280
2021-12-04 12:28:39 GMT 52.055458 0.378244 16,400 176 393 -1472
2021-12-04 12:28:38 GMT 52.057251 0.378036 16,425 176 393 -1472
2021-12-04 12:28:37 GMT 52.059082 0.377808 16,450 176 394 -1536
2021-12-04 12:28:35 GMT 52.064346 0.377274 16,525 176 395 -2176
2021-12-04 12:28:33 GMT 52.066177 0.377045 16,600 176 395 -2176
2021-12-04 12:28:31 GMT 52.069977 0.376587 16,600 176 395 -2176
2021-12-04 12:28:30 GMT 52.075653 0.375977 16,725 175 395 -2368
2021-12-04 12:28:28 GMT 52.075653 0.375977 16,725 175 395 -2432
2021-12-04 12:28:27 GMT 52.077663 0.375732 16,775 175 395 -2496
2021-12-04 12:28:25 GMT 52.080593 0.375419 16,850 175 394 -2752
2021-12-04 12:28:23 GMT 52.083668 0.375026 16,900 175 394 -2816
2021-12-04 12:28:21 GMT 52.088058 0.374527 17,125 175 394 -3136
2021-12-04 12:28:19 GMT 52.091488 0.374163 17,125 175 393 -3200
2021-12-04 12:28:18 GMT 52.093491 0.373928 17,250 175 393 -3328
2021-12-04 12:28:17 GMT 52.094933 0.373771 17,250 175 392 -3520
2021-12-04 12:28:16 GMT 52.099274 0.373230 17,375 175 390 -3648
2021-12-04 12:28:14 GMT 52.101059 0.373001 17,375 175 390 -3712
2021-12-04 12:28:13 GMT 52.102150 0.372829 17,500 175 389 -3712
2021-12-04 12:28:12 GMT 52.104664 0.372515 17,575 175 387 -3776
2021-12-04 12:28:11 GMT 52.107876 0.372123 17,625 175 387 -3840
2021-12-04 12:28:08 GMT 52.111450 0.371704 17,800 175 385 -3840
2021-12-04 12:28:07 GMT 52.116768 0.370946 18,000 175 384 -3904
2021-12-04 12:28:05 GMT 52.116768 0.370946 18,000 175 382 -3968
2021-12-04 12:28:04 GMT 52.118534 0.370710 18,075 175 378 -4160
2021-12-04 12:28:03 GMT 52.120331 0.370483 18,125 175 378 -4160
2021-12-04 12:28:00 GMT 52.125412 0.369797 18,325 175 378 -4160
2021-12-04 12:27:59 GMT 52.128033 0.369455 18,450 175 376 -4224
2021-12-04 12:27:57 GMT 52.131290 0.368984 18,675 175 373 -4160
2021-12-04 12:27:55 GMT 52.138184 0.368118 18,825 175 371 -4096
2021-12-04 12:27:53 GMT 52.138184 0.368118 18,850 175 370 -4032
2021-12-04 12:27:52 GMT 52.139717 0.367885 18,925 175 369 -4032
2021-12-04 12:27:51 GMT 52.141434 0.367661 19,000 175 368 -3968
2021-12-04 12:27:50 GMT 52.144821 0.367203 19,125 175 366 -3904
2021-12-04 12:27:48 GMT 52.146885 0.366943 19,200 175 366 -3776
2021-12-04 12:27:47 GMT 52.148712 0.366669 19,275 175 364 -3648
2021-12-04 12:27:45 GMT 52.151230 0.366364 19,325 175 364 -3648
2021-12-04 12:27:44 GMT 52.152924 0.366135 19,400 175 363 -3456
2021-12-04 12:27:43 GMT 52.154251 0.365982 19,525 175 362 -3264
2021-12-04 12:27:42 GMT 52.155945 0.365753 19,525 175 362 -3072
2021-12-04 12:27:41 GMT 52.157776 0.365524 19,575 175 361 -2688
2021-12-04 12:27:40 GMT 52.160751 0.365067 19,675 175 361 -2624
2021-12-04 12:27:38 GMT 52.162582 0.364838 19,725 175 361 -2304
2021-12-04 12:27:37 GMT 52.164761 0.364589 19,775 175 361 -2048
2021-12-04 12:27:36 GMT 52.166065 0.364432 19,825 175 361 -1792
2021-12-04 12:27:35 GMT 52.170906 0.363804 19,850 175 361 -1216
2021-12-04 12:27:33 GMT 52.170906 0.363804 19,875 175 361 -1152
2021-12-04 12:27:32 GMT 52.173203 0.363464 19,900 175 361 -1024
2021-12-04 12:27:31 GMT 52.174896 0.363235 19,925 175 362 -768
2021-12-04 12:27:29 GMT 52.178375 0.362778 19,950 175 362 -704
2021-12-04 12:27:28 GMT 52.179890 0.362627 19,950 175 362 -576
2021-12-04 12:27:27 GMT 52.181396 0.362396 19,975 175 362 -448
2021-12-04 12:27:26 GMT 52.183056 0.362235 19,975 175 363 -256
2021-12-04 12:27:24 GMT 52.186409 0.361764 20,000 175 363 -64
2021-12-04 12:27:22 GMT 52.189728 0.361328 20,000 175 363 0
2021-12-04 12:27:21 GMT 52.194740 0.360665 20,000 175 363 0
2021-12-04 12:27:19 GMT 52.194740 0.360665 20,000 175 363 0
2021-12-04 12:27:18 GMT 52.196091 0.360509 20,000 175 363 0
2021-12-04 12:27:16 GMT 52.198608 0.360184 20,000 175 363 0
2021-12-04 12:27:15 GMT 52.200932 0.359881 20,000 175 363 0
2021-12-04 12:27:13 GMT 52.204102 0.359497 20,000 175 363 0
2021-12-04 12:27:12 GMT 52.205933 0.359268 20,000 175 363 0
2021-12-04 12:27:11 GMT 52.209126 0.358861 20,000 175 363 0
2021-12-04 12:27:09 GMT 52.210987 0.358625 20,000 175 363 0
2021-12-04 12:27:08 GMT 52.212620 0.358390 20,000 175 364 0
2021-12-04 12:27:07 GMT 52.215645 0.357997 20,000 175 364 0
2021-12-04 12:27:05 GMT 52.217319 0.357762 20,000 175 365 0
2021-12-04 12:27:03 GMT 52.220352 0.357361 20,000 175 365 0
2021-12-04 12:27:01 GMT 52.224564 0.356827 20,000 175 366 0
2021-12-04 12:26:59 GMT 52.227421 0.356428 20,000 175 366 0
2021-12-04 12:26:58 GMT 52.228912 0.356293 20,000 175 367 0
2021-12-04 12:26:56 GMT 52.232960 0.355722 20,000 175 368 0
2021-12-04 12:26:54 GMT 52.235687 0.355377 20,000 175 368 0
2021-12-04 12:26:52 GMT 52.238873 0.355015 20,000 175 370 0
2021-12-04 12:26:51 GMT 52.241592 0.354691 20,000 175 371 0
2021-12-04 12:26:49 GMT 52.245018 0.354231 20,000 175 371 0
2021-12-04 12:26:48 GMT 52.246738 0.353995 20,000 175 373 64
2021-12-04 12:26:46 GMT 52.250473 0.353546 20,000 175 373 64
2021-12-04 12:26:44 GMT 52.252899 0.353241 20,000 175 375 64
2021-12-04 12:26:42 GMT 52.256516 0.352783 20,000 175 377 0
2021-12-04 12:26:40 GMT 52.260845 0.352269 20,000 175 378 0
2021-12-04 12:26:39 GMT 52.262558 0.352097 20,000 175 379 0
2021-12-04 12:26:37 GMT 52.264984 0.351791 20,000 175 379 -64
2021-12-04 12:26:36 GMT 52.267639 0.351486 20,000 175 380 -64
2021-12-04 12:26:35 GMT 52.269379 0.351257 20,000 175 381 -128
2021-12-04 12:26:33 GMT 52.272537 0.350876 20,000 175 381 -128
2021-12-04 12:26:32 GMT 52.274624 0.350699 20,000 175 382 -192
2021-12-04 12:26:31 GMT 52.276394 0.350464 20,000 175 384 -256
2021-12-04 12:26:29 GMT 52.280117 0.349993 20,000 175 386 -448
2021-12-04 12:26:27 GMT 52.282631 0.349758 20,025 176 387 -512
2021-12-04 12:26:25 GMT 52.287964 0.349121 20,050 176 387 -640
2021-12-04 12:26:24 GMT 52.289566 0.348969 20,050 176 389 -832
2021-12-04 12:26:23 GMT 52.290455 0.348816 20,075 176 389 -896
2021-12-04 12:26:21 GMT 52.293137 0.348587 20,100 176 390 -1088
2021-12-04 12:26:20 GMT 52.295151 0.348358 20,125 176 391 -1152
2021-12-04 12:26:18 GMT 52.298553 0.347953 20,175 176 392 -1152
2021-12-04 12:26:17 GMT 52.300369 0.347748 20,175 176 395 -1088
2021-12-04 12:26:15 GMT 52.305267 0.347214 20,225 176 395 -1088
2021-12-04 12:26:12 GMT 52.308884 0.346832 20,275 176 395 -1088
2021-12-04 12:26:11 GMT 52.311775 0.346462 20,325 176 397 -960
2021-12-04 12:26:09 GMT 52.319092 0.345688 20,350 176 397 -960
2021-12-04 12:26:06 GMT 52.320759 0.345520 20,375 176 399 -896
2021-12-04 12:26:05 GMT 52.322762 0.345285 20,375 175 399 -896
2021-12-04 12:26:03 GMT 52.327560 0.344696 20,425 176 401 -832
2021-12-04 12:26:02 GMT 52.329231 0.344500 20,450 176 402 -832
2021-12-04 12:26:01 GMT 52.331093 0.344343 20,450 176 405 -768
2021-12-04 12:25:59 GMT 52.334793 0.343933 20,475 176 405 -768
2021-12-04 12:25:57 GMT 52.338356 0.343480 20,500 176 406 -768
2021-12-04 12:25:56 GMT 52.340405 0.343244 20,525 176 407 -768
2021-12-04 12:25:54 GMT 52.343994 0.342865 20,550 176 408 -768
2021-12-04 12:25:53 GMT 52.345459 0.342712 20,550 176 409 -768
2021-12-04 12:25:52 GMT 52.347759 0.342460 20,575 176 410 -768
2021-12-04 12:25:50 GMT 52.350586 0.342178 20,600 176 411 -768
2021-12-04 12:25:49 GMT 52.352833 0.341910 20,600 176 412 -768
2021-12-04 12:25:47 GMT 52.357040 0.341492 20,625 176 414 -832
2021-12-04 12:25:45 GMT 52.361446 0.341047 20,650 176 415 -896
2021-12-04 12:25:43 GMT 52.362934 0.340890 20,675 176 416 -896
2021-12-04 12:25:41 GMT 52.368523 0.340341 20,700 176 418 -1024
2021-12-04 12:25:40 GMT 52.370453 0.340118 20,725 176 419 -1024
2021-12-04 12:25:39 GMT 52.372375 0.339966 20,750 176 420 -1088
2021-12-04 12:25:38 GMT 52.374298 0.339737 20,750 176 420 -1152
2021-12-04 12:25:37 GMT 52.379929 0.339203 20,800 176 422 -1280
2021-12-04 12:25:35 GMT 52.379929 0.339203 20,825 176 422 -1280
2021-12-04 12:25:33 GMT 52.383839 0.338850 20,850 176 423 -1408
2021-12-04 12:25:31 GMT 52.387939 0.338440 20,900 176 424 -1536
2021-12-04 12:25:30 GMT 52.389679 0.338287 20,925 176 425 -1664
2021-12-04 12:25:29 GMT 52.393616 0.337906 21,000 176 425 -1792
2021-12-04 12:25:27 GMT 52.395569 0.337751 21,100 176 426 -1856
2021-12-04 12:25:25 GMT 52.400116 0.337296 21,100 176 426 -1984
2021-12-04 12:25:22 GMT 52.405014 0.336838 21,275 176 428 -2240
2021-12-04 12:25:20 GMT 52.409767 0.336417 21,275 176 428 -2240
2021-12-04 12:25:18 GMT 52.412521 0.336151 21,375 176 428 -2240
2021-12-04 12:25:16 GMT 52.416656 0.335711 21,425 176 428 -2240
2021-12-04 12:25:15 GMT 52.419022 0.335464 21,425 176 428 -2240
2021-12-04 12:25:14 GMT 52.420990 0.335236 21,475 176 429 -2176
2021-12-04 12:25:13 GMT 52.422802 0.335083 21,500 176 429 -2176
2021-12-04 12:25:12 GMT 52.424988 0.334848 21,575 176 430 -2240
2021-12-04 12:25:10 GMT 52.427948 0.334549 21,625 176 430 -2176
2021-12-04 12:25:09 GMT 52.430695 0.334244 21,650 176 430 -2240
2021-12-04 12:25:08 GMT 52.432297 0.334091 21,700 176 430 -2240
2021-12-04 12:25:07 GMT 52.438065 0.333481 21,775 176 430 -2304
2021-12-04 12:25:05 GMT 52.438065 0.333481 21,775 176 431 -2368
2021-12-04 12:25:04 GMT 52.441235 0.333121 21,875 176 431 -2432
2021-12-04 12:25:03 GMT 52.443054 0.332870 21,975 176 431 -2624
2021-12-04 12:25:01 GMT 52.447426 0.332415 21,975 176 431 -2816
2021-12-04 12:24:59 GMT 52.450172 0.332101 22,075 176 431 -2816
2021-12-04 12:24:58 GMT 52.452362 0.331866 22,075 176 430 -2944
2021-12-04 12:24:57 GMT 52.457344 0.331316 22,200 176 430 -3008
2021-12-04 12:24:54 GMT 52.459343 0.331081 22,250 176 430 -3072
2021-12-04 12:24:53 GMT 52.462326 0.330734 22,350 176 429 -3200
2021-12-04 12:24:51 GMT 52.467072 0.330218 22,475 176 429 -3264
2021-12-04 12:24:50 GMT 52.468048 0.330124 22,525 176 429 -3264
2021-12-04 12:24:47 GMT 52.474426 0.329511 22,700 176 428 -3264
2021-12-04 12:24:45 GMT 52.478569 0.329119 22,775 176 428 -3264
2021-12-04 12:24:44 GMT 52.480316 0.328979 22,800 176 427 -3200
2021-12-04 12:24:43 GMT 52.482697 0.328751 22,900 176 427 -3136
2021-12-04 12:24:41 GMT 52.486084 0.328369 23,000 176 427 -3072
2021-12-04 12:24:38 GMT 52.491978 0.327863 23,075 176 427 -3008
2021-12-04 12:24:37 GMT 52.494724 0.327628 23,250 176 426 -3008
2021-12-04 12:24:35 GMT 52.498077 0.327314 23,300 176 426 -3072
2021-12-04 12:24:33 GMT 52.502197 0.326920 23,400 176 426 -3008
2021-12-04 12:24:32 GMT 52.504173 0.326765 23,475 176 426 -2944
2021-12-04 12:24:31 GMT 52.506363 0.326538 23,525 176 426 -2944
2021-12-04 12:24:29 GMT 52.510071 0.326157 23,600 176 426 -2944
2021-12-04 12:24:28 GMT 52.511856 0.325980 23,650 176 426 -2944
2021-12-04 12:24:27 GMT 52.513809 0.325823 23,700 176 425 -2944
2021-12-04 12:24:26 GMT 52.517956 0.325431 23,800 176 425 -2880
2021-12-04 12:24:24 GMT 52.520096 0.325241 23,850 176 425 -2880
2021-12-04 12:24:22 GMT 52.524216 0.324783 23,950 176 425 -2752
2021-12-04 12:24:20 GMT 52.527740 0.324478 24,050 176 425 -2688
2021-12-04 12:24:18 GMT 52.531906 0.324097 24,125 176 425 -2560
2021-12-04 12:24:16 GMT 52.536026 0.323715 24,225 176 426 -2496
2021-12-04 12:24:15 GMT 52.538158 0.323469 24,275 176 426 -2432
2021-12-04 12:24:14 GMT 52.539963 0.323334 24,300 176 426 -2368
2021-12-04 12:24:13 GMT 52.542114 0.323105 24,350 176 426 -2368
2021-12-04 12:24:12 GMT 52.544083 0.322952 24,375 176 426 -2304
2021-12-04 12:24:10 GMT 52.547607 0.322606 24,450 176 426 -2240
2021-12-04 12:24:08 GMT 52.551727 0.322189 24,525 176 426 -2176
2021-12-04 12:24:07 GMT 52.553879 0.322037 24,575 176 427 -2176
2021-12-04 12:24:06 GMT 52.555893 0.321808 24,600 176 427 -2112
2021-12-04 12:24:05 GMT 52.557663 0.321664 24,650 176 427 -2048
2021-12-04 12:24:03 GMT 52.561569 0.321274 24,700 176 427 -1920
2021-12-04 12:24:02 GMT 52.563343 0.321115 24,750 176 427 -1792
2021-12-04 12:24:01 GMT 52.565346 0.320958 24,775 176 428 -1792
2021-12-04 12:24:00 GMT 52.567486 0.320722 24,800 176 428 -1664
2021-12-04 12:23:58 GMT 52.571629 0.320330 24,875 176 428 -1536
2021-12-04 12:23:56 GMT 52.573631 0.320173 24,925 176 428 -1344
2021-12-04 12:23:55 GMT 52.575394 0.319977 24,925 176 429 -1024
2021-12-04 12:23:53 GMT 52.580750 0.319443 24,975 176 429 -704
2021-12-04 12:23:52 GMT 52.582901 0.319290 24,975 176 429 -512
2021-12-04 12:23:50 GMT 52.587086 0.318839 25,000 176 430 -256
2021-12-04 12:23:49 GMT 52.589081 0.318680 25,000 176 430 -128
2021-12-04 12:23:48 GMT 52.591049 0.318451 25,000 176 430 0
2021-12-04 12:23:46 GMT 52.594997 0.318054 25,000 176 430 0
2021-12-04 12:23:44 GMT 52.598007 0.317841 25,000 176 430 0
2021-12-04 12:23:43 GMT 52.599792 0.317662 25,000 176 430 0
2021-12-04 12:23:42 GMT 52.601761 0.317459 25,000 176 430 0
2021-12-04 12:23:40 GMT 52.605331 0.317078 25,000 176 430 -64
2021-12-04 12:23:38 GMT 52.611877 0.316467 25,000 176 430 -64
2021-12-04 12:23:35 GMT 52.618057 0.315857 25,000 176 430 -64
2021-12-04 12:23:32 GMT 52.622837 0.315386 25,000 176 431 -128
2021-12-04 12:23:29 GMT 52.627991 0.314865 25,025 176 431 -256
2021-12-04 12:23:27 GMT 52.633171 0.314366 25,025 176 431 -256
2021-12-04 12:23:24 GMT 52.639114 0.313721 25,025 176 431 -512
2021-12-04 12:23:21 GMT 52.649651 0.312718 25,050 176 431 -512
2021-12-04 12:23:18 GMT 52.649651 0.312718 25,075 176 431 -512
2021-12-04 12:23:16 GMT 52.653671 0.312347 25,075 176 431 -704
2021-12-04 12:23:14 GMT 52.659622 0.311737 25,225 176 431 -960
2021-12-04 12:23:11 GMT 52.663788 0.311356 25,325 176 431 -1152
2021-12-04 12:23:08 GMT 52.669388 0.310835 25,250 176 432 -1536
2021-12-04 12:23:06 GMT 52.674370 0.310364 25,925 177 432 -2624
2021-12-04 12:23:03 GMT 52.680359 0.309830 25,450 177 432 -2176
2021-12-04 12:23:00 GMT 52.687916 0.309187 25,625 177 432 -2560
2021-12-04 12:22:57 GMT 52.693130 0.308762 25,675 177 432 -2624
2021-12-04 12:22:54 GMT 52.700298 0.308167 25,825 177 436 -1920
2021-12-04 12:22:51 GMT 52.703293 0.307999 25,925 177 433 -2560
2021-12-04 12:22:48 GMT 52.711052 0.307382 26,000 177 434 -2240
2021-12-04 12:22:45 GMT 52.715881 0.307007 26,100 177 435 -2048
2021-12-04 12:22:42 GMT 52.723900 0.306362 26,250 177 437 -1792
2021-12-04 12:22:39 GMT 52.735382 0.305481 26,300 177 441 -1728
2021-12-04 12:22:36 GMT 52.735382 0.305481 26,425 177 441 -1728
2021-12-04 12:22:33 GMT 52.742065 0.304871 26,500 177 441 -1792
2021-12-04 12:22:30 GMT 52.751041 0.304086 26,600 176 446 -2624
2021-12-04 12:22:28 GMT 52.751041 0.304086 26,625 176 444 -2048
2021-12-04 12:22:25 GMT 52.758636 0.303421 26,700 176 445 -2112
2021-12-04 12:22:22 GMT 52.769531 0.302353 26,850 176 446 -2560
2021-12-04 12:22:20 GMT 52.769531 0.302353 26,925 176 446 -2752
2021-12-04 12:22:17 GMT 52.773010 0.302048 27,325 176 446 -3200
2021-12-04 12:22:14 GMT 52.778786 0.301496 27,325 176 446 -3200
2021-12-04 12:22:11 GMT 52.785999 0.300868 27,300 176 446 -3200
2021-12-04 12:22:09 GMT 52.789680 0.300476 27,500 177 445 -3264
2021-12-04 12:22:06 GMT 52.795872 0.300005 27,650 177 445 -3328
2021-12-04 12:22:03 GMT 52.802666 0.299377 27,825 177 443 -3712
2021-12-04 12:22:00 GMT 52.808578 0.298920 27,925 177 443 -3584
2021-12-04 12:21:57 GMT 52.814529 0.298462 28,375 176 438 -4224
2021-12-04 12:21:54 GMT 52.821854 0.297852 28,825 176 436 -4032
2021-12-04 12:21:51 GMT 52.827526 0.297337 28,575 176 436 -4032
2021-12-04 12:21:49 GMT 52.831577 0.296945 28,825 176 434 -3584
2021-12-04 12:21:46 GMT 52.837189 0.296402 28,950 176 433 -3328
2021-12-04 12:21:43 GMT 52.843826 0.295715 29,100 176 432 -3008
2021-12-04 12:21:40 GMT 52.854759 0.294512 29,375 176 431 -2880
2021-12-04 12:21:37 GMT 52.854759 0.294512 29,425 175 430 -2752
2021-12-04 12:21:34 GMT 52.862686 0.293579 29,550 175 429 -2624
2021-12-04 12:21:31 GMT 52.865433 0.293198 29,675 175 428 -2496
2021-12-04 12:21:29 GMT 52.870377 0.292587 29,825 175 428 -2304
2021-12-04 12:21:26 GMT 52.877289 0.291748 29,875 175 427 -1536
2021-12-04 12:21:23 GMT 52.883202 0.290981 29,975 175 429 -512
2021-12-04 12:21:20 GMT 52.889877 0.290070 29,975 175 429 -512
2021-12-04 12:21:17 GMT 52.894043 0.289536 30,000 176 433 -64
2021-12-04 12:21:14 GMT 52.899544 0.288783 29,975 175 431 -64
2021-12-04 12:21:11 GMT 52.905083 0.288077 30,000 176 431 0
2021-12-04 12:21:09 GMT 52.908852 0.287685 30,000 176 433 -64
2021-12-04 12:21:07 GMT 52.914230 0.287094 30,000 177 433 -64
2021-12-04 12:21:04 GMT 52.921829 0.286407 30,025 185 439 -192
2021-12-04 12:21:01 GMT 52.929848 0.286037 30,025 181 436 -128
2021-12-04 12:20:59 GMT 52.929848 0.286037 30,025 181 436 -128
2021-12-04 12:20:56 GMT 52.937119 0.286102 30,025 183 437 -128
2021-12-04 12:20:53 GMT 52.942154 0.286407 30,025 186 440 -192
2021-12-04 12:20:50 GMT 52.947212 0.286979 30,050 193 447 -320
2021-12-04 12:20:48 GMT 52.952660 0.287842 30,025 189 442 -192
2021-12-04 12:20:45 GMT 52.958572 0.289097 30,050 192 446 -320
2021-12-04 12:20:42 GMT 52.968674 0.292079 30,100 196 451 -448
2021-12-04 12:20:40 GMT 52.968674 0.292079 30,100 198 453 -576
2021-12-04 12:20:37 GMT 52.974537 0.294198 30,075 197 451 -512
2021-12-04 12:20:34 GMT 52.979752 0.296552 30,075 203 457 -1024
2021-12-04 12:20:31 GMT 52.986374 0.299683 30,125 199 453 -640
2021-12-04 12:20:29 GMT 52.990551 0.301967 30,125 201 457 -832
2021-12-04 12:20:27 GMT 52.994934 0.304565 30,175 203 458 -1088
2021-12-04 12:20:24 GMT 53.000610 0.308304 30,350 210 462 -2368
2021-12-04 12:20:21 GMT 53.006474 0.312483 30,275 206 460 -1600
2021-12-04 12:20:19 GMT 53.009731 0.314915 31,525 209 461 -2304
2021-12-04 12:20:16 GMT 53.016220 0.320358 30,450 209 461 -2304
2021-12-04 12:20:13 GMT 53.022034 0.325623 30,575 211 461 -2624
2021-12-04 12:20:10 GMT 53.026257 0.329668 30,675 212 461 -2944
2021-12-04 12:20:07 GMT 53.032078 0.335554 33,025 214 460 -3392
2021-12-04 12:20:04 GMT 53.037941 0.341989 31,100 217 457 -3520
2021-12-04 12:20:01 GMT 53.043484 0.348424 31,250 217 457 -3520
2021-12-04 12:19:59 GMT 53.046936 0.352478 32,050 217 450 -4096
2021-12-04 12:19:56 GMT 53.051193 0.357666 31,775 218 454 -3904
2021-12-04 12:19:53 GMT 53.056889 0.364825 31,825 218 452 -4032
2021-12-04 12:19:50 GMT 53.061218 0.370255 32,500 217 450 -4032
2021-12-04 12:19:47 GMT 53.066200 0.376517 32,225 217 450 -4032
2021-12-04 12:19:45 GMT 53.069870 0.381088 32,375 217 448 -3008
2021-12-04 12:19:42 GMT 53.075138 0.387660 32,550 217 449 -2368
2021-12-04 12:19:39 GMT 53.080124 0.393906 32,725 217 449 -2560
2021-12-04 12:19:36 GMT 53.086258 0.401459 33,375 217 450 -1536
2021-12-04 12:19:33 GMT 53.090424 0.406647 32,825 217 450 -1536
2021-12-04 12:19:30 GMT 53.094910 0.412216 32,875 217 451 -1600
2021-12-04 12:19:28 GMT 53.097244 0.415126 33,000 217 452 -1728
2021-12-04 12:19:25 GMT 53.108421 0.429032 33,100 219 453 -1856
2021-12-04 12:19:22 GMT 53.108421 0.429032 33,175 219 453 -1856
2021-12-04 12:19:19 GMT 53.114044 0.436314 33,225 220 453 -1728
2021-12-04 12:19:16 GMT 53.117844 0.441258 33,300 220 453 -1728
2021-12-04 12:19:13 GMT 53.123970 0.449632 33,400 222 454 -1600
2021-12-04 12:19:10 GMT 53.127602 0.454963 33,475 223 453 -1472
2021-12-04 12:19:08 GMT 53.129929 0.458437 33,550 225 453 -1344
2021-12-04 12:19:05 GMT 53.139038 0.473354 33,650 232 454 -1024
2021-12-04 12:19:02 GMT 53.139038 0.473354 33,700 233 454 -1024
2021-12-04 12:18:59 GMT 53.143982 0.482300 33,725 235 453 -1024
2021-12-04 12:18:56 GMT 53.152588 0.499878 33,775 234 453 -1024
2021-12-04 12:18:53 GMT 53.152588 0.499878 33,825 239 453 -896
2021-12-04 12:18:50 GMT 53.156158 0.508039 33,850 237 453 -960
2021-12-04 12:18:47 GMT 53.159363 0.515808 33,900 237 453 -960
2021-12-04 12:18:45 GMT 53.161865 0.522254 33,950 240 452 -640
2021-12-04 12:18:42 GMT 53.164612 0.529686 33,975 242 453 -448
2021-12-04 12:18:39 GMT 53.167557 0.538095 33,975 242 452 -384
2021-12-04 12:18:36 GMT 53.170849 0.548589 34,000 259 452 64
2021-12-04 12:18:33 GMT 53.173279 0.556693 34,000 252 451 0
2021-12-04 12:18:30 GMT 53.175877 0.566281 34,000 252 451 0
2021-12-04 12:18:28 GMT 53.177273 0.572016 34,000 252 451 0
2021-12-04 12:18:25 GMT 53.179974 0.583729 34,000 253 451 0
2021-12-04 12:18:22 GMT 53.181881 0.592939 34,000 256 452 64
2021-12-04 12:18:19 GMT 53.184441 0.606914 34,000 257 451 64
2021-12-04 12:18:15 GMT 53.186096 0.617667 34,000 259 452 64
2021-12-04 12:18:12 GMT 53.187744 0.630223 34,000 263 453 0
2021-12-04 12:18:09 GMT 53.189144 0.643185 34,000 264 453 0
2021-12-04 12:18:07 GMT 53.189144 0.643185 34,000 264 453 -64
2021-12-04 12:18:04 GMT 53.190166 0.655302 34,000 264 453 0
2021-12-04 12:18:01 GMT 53.190865 0.664592 34,000 264 453 -64
2021-12-04 12:17:58 GMT 53.191750 0.678083 34,000 265 453 0
2021-12-04 12:17:55 GMT 53.192963 0.696824 34,000 265 453 0
2021-12-04 12:17:52 GMT 53.192963 0.696824 34,000 265 454 64
2021-12-04 12:17:49 GMT 53.193611 0.707568 34,000 265 454 64
2021-12-04 12:17:47 GMT 53.193893 0.712496 34,000 267 452 64
2021-12-04 12:17:44 GMT 53.194405 0.721866 34,000 266 453 64
2021-12-04 12:17:41 GMT 53.194962 0.733984 34,000 269 453 0
2021-12-04 12:17:38 GMT 53.195206 0.741656 34,000 274 452 -128
2021-12-04 12:17:35 GMT 53.195435 0.754525 34,000 270 453 -64
2021-12-04 12:17:33 GMT 53.195435 0.762844 34,000 272 452 -128
2021-12-04 12:17:30 GMT 53.194729 0.785765 34,025 274 453 -128
2021-12-04 12:17:27 GMT 53.194729 0.785765 34,025 277 451 -64
2021-12-04 12:17:24 GMT 53.193558 0.802316 34,025 279 451 0
2021-12-04 12:17:21 GMT 53.192551 0.812988 34,000 285 452 64
2021-12-04 12:17:18 GMT 53.192551 0.812988 34,000 282 451 64
2021-12-04 12:17:15 GMT 53.191132 0.824916 34,000 284 452 64
2021-12-04 12:17:12 GMT 53.189888 0.833668 34,000 287 451 64
2021-12-04 12:17:09 GMT 53.188400 0.843443 34,000 288 451 -64
2021-12-04 12:17:07 GMT 53.187187 0.850390 33,975 287 451 64
2021-12-04 12:17:04 GMT 53.185604 0.859034 34,000 288 451 -64
2021-12-04 12:17:01 GMT 53.183716 0.869019 34,000 288 451 -64
2021-12-04 12:16:58 GMT 53.181461 0.880603 34,000 288 451 -64
2021-12-04 12:16:55 GMT 53.179321 0.891831 34,000 288 451 -64
2021-12-04 12:16:51 GMT 53.176994 0.903706 34,000 288 452 64
2021-12-04 12:16:48 GMT 53.174900 0.914612 34,000 288 452 128
2021-12-04 12:16:45 GMT 53.173462 0.922224 34,000 288 452 64
2021-12-04 12:16:42 GMT 53.171860 0.930464 34,000 288 452 64
2021-12-04 12:16:39 GMT 53.169453 0.943047 34,000 288 452 64
2021-12-04 12:16:37 GMT 53.168335 0.949062 34,000 288 453 -64
2021-12-04 12:16:35 GMT 53.166286 0.959607 34,000 288 452 -64
2021-12-04 12:16:32 GMT 53.164562 0.968574 33,975 288 452 -64
2021-12-04 12:16:29 GMT 53.163025 0.976528 34,000 288 453 -64
2021-12-04 12:16:27 GMT 53.162189 0.980853 34,000 288 452 -64
2021-12-04 12:16:25 GMT 53.160748 0.988446 34,000 288 452 -64
2021-12-04 12:16:22 GMT 53.158375 1.000725 34,000 288 452 -64
2021-12-04 12:16:19 GMT 53.155624 1.014943 34,000 288 451 64
2021-12-04 12:16:17 GMT 53.155624 1.014943 34,000 288 451 64
2021-12-04 12:16:14 GMT 53.152275 1.032149 34,000 288 451 64
2021-12-04 12:16:12 GMT 53.152275 1.032149 34,000 288 451 64
2021-12-04 12:16:09 GMT 53.150116 1.043387 34,000 288 451 64
2021-12-04 12:16:07 GMT 53.148926 1.049273 34,000 288 451 64
2021-12-04 12:16:04 GMT 53.146957 1.059553 34,000 288 451 64
2021-12-04 12:16:01 GMT 53.145081 1.069127 34,000 289 452 0
2021-12-04 12:15:58 GMT 53.143478 1.077366 34,000 289 452 0
2021-12-04 12:15:55 GMT 53.141098 1.089530 34,000 289 452 0
2021-12-04 12:15:52 GMT 53.139084 1.099810 34,000 289 452 -64
2021-12-04 12:15:49 GMT 53.137283 1.109054 34,000 289 452 -64
2021-12-04 12:15:47 GMT 53.135937 1.116001 34,000 289 452 -64
2021-12-04 12:15:44 GMT 53.134827 1.121626 34,000 289 452 0
2021-12-04 12:15:42 GMT 53.132721 1.132533 34,000 289 449 0
2021-12-04 12:15:39 GMT 53.129139 1.150656 34,000 289 452 64
2021-12-04 12:15:36 GMT 53.129139 1.150656 34,000 289 452 64
2021-12-04 12:15:34 GMT 53.128189 1.155605 34,000 289 452 64
2021-12-04 12:15:31 GMT 53.125809 1.167847 34,000 288 451 64
2021-12-04 12:15:28 GMT 53.124207 1.176086 33,975 288 451 64
2021-12-04 12:15:26 GMT 53.122898 1.182727 33,975 288 451 0
2021-12-04 12:15:23 GMT 53.120804 1.193551 34,000 288 451 0
2021-12-04 12:15:21 GMT 53.119492 1.200178 34,000 288 451 -64
2021-12-04 12:15:18 GMT 53.117825 1.208738 34,000 288 451 -64
2021-12-04 12:15:16 GMT 53.116241 1.217059 34,000 288 451 -64
2021-12-04 12:15:14 GMT 53.114868 1.223955 34,000 289 450 0
2021-12-04 12:15:11 GMT 53.112625 1.235491 34,000 289 450 0
2021-12-04 12:15:08 GMT 53.109650 1.250558 34,000 289 450 -64
2021-12-04 12:15:06 GMT 53.109650 1.250558 34,000 289 450 0
2021-12-04 12:15:03 GMT 53.108002 1.259112 34,000 289 450 0
2021-12-04 12:15:01 GMT 53.106766 1.265390 34,000 289 449 0
2021-12-04 12:14:58 GMT 53.104607 1.276191 34,000 289 449 0
2021-12-04 12:14:56 GMT 53.103653 1.281084 34,000 289 449 0
2021-12-04 12:14:53 GMT 53.101501 1.291914 34,000 289 449 0
2021-12-04 12:14:50 GMT 53.099205 1.303738 34,000 289 450 0
2021-12-04 12:14:47 GMT 53.097382 1.312866 34,000 289 450 0
2021-12-04 12:14:45 GMT 53.095669 1.321429 34,000 289 450 64
2021-12-04 12:14:42 GMT 53.093666 1.331543 34,000 289 452 0
2021-12-04 12:14:39 GMT 53.092575 1.337128 34,000 289 451 64
2021-12-04 12:14:37 GMT 53.091152 1.344413 34,000 289 451 64
2021-12-04 12:14:34 GMT 53.088730 1.356576 34,000 289 452 64
2021-12-04 12:14:31 GMT 53.087036 1.365128 34,000 289 452 64
2021-12-04 12:14:28 GMT 53.085159 1.374664 34,000 289 452 0
2021-12-04 12:14:26 GMT 53.083923 1.380920 34,000 289 452 0
2021-12-04 12:14:24 GMT 53.082352 1.388829 34,000 289 452 0
2021-12-04 12:14:21 GMT 53.080212 1.399737 34,000 289 452 -64
2021-12-04 12:14:18 GMT 53.078583 1.407976 34,000 289 452 -64
2021-12-04 12:14:16 GMT 53.076580 1.418178 34,000 289 452 -64
2021-12-04 12:14:13 GMT 53.075592 1.423111 34,000 289 451 0
2021-12-04 12:14:11 GMT 53.073944 1.431351 34,000 289 451 0
2021-12-04 12:14:08 GMT 53.071793 1.442184 34,000 289 451 0
2021-12-04 12:14:05 GMT 53.069832 1.452079 34,000 289 451 0
2021-12-04 12:14:02 GMT 53.067993 1.461258 34,000 289 450 0
2021-12-04 12:14:00 GMT 53.066757 1.467514 34,000 289 450 0
2021-12-04 12:13:57 GMT 53.062382 1.489432 34,000 289 450 0
2021-12-04 12:13:54 GMT 53.062382 1.489432 34,000 289 450 0
2021-12-04 12:13:51 GMT 53.060379 1.499634 34,000 289 450 0
2021-12-04 12:13:48 GMT 53.057308 1.515093 34,000 289 450 0
2021-12-04 12:13:45 GMT 53.057308 1.515093 34,000 289 449 0
2021-12-04 12:13:43 GMT 53.055958 1.521920 34,000 289 449 0
2021-12-04 12:13:40 GMT 53.053818 1.532750 34,000 289 449 0
2021-12-04 12:13:37 GMT 53.052246 1.540604 34,000 289 452 64
2021-12-04 12:13:35 GMT 53.050930 1.547110 34,000 289 449 0
2021-12-04 12:13:33 GMT 53.049580 1.553702 34,000 289 449 64
2021-12-04 12:13:29 GMT 53.046524 1.569061 34,000 289 449 64
2021-12-04 12:13:26 GMT 53.044601 1.578522 34,000 289 449 0
2021-12-04 12:13:23 GMT 53.042587 1.588669 34,000 289 450 -64
2021-12-04 12:13:20 GMT 53.040642 1.598511 34,000 289 449 0
2021-12-04 12:13:17 GMT 53.037708 1.613185 34,000 289 449 64
2021-12-04 12:13:14 GMT 53.036732 1.618051 34,000 289 449 0
2021-12-04 12:13:12 GMT 53.034962 1.626918 34,000 289 451 -64
2021-12-04 12:13:09 GMT 53.033195 1.635786 34,000 289 450 -64
2021-12-04 12:13:07 GMT 53.032608 1.638718 34,000 289 450 -64
2021-12-04 12:13:05 GMT 53.030914 1.647164 34,000 289 450 0
2021-12-04 12:13:02 GMT 53.029083 1.656342 34,000 289 451 0
2021-12-04 12:12:59 GMT 53.026585 1.668823 34,000 289 451 -64
2021-12-04 12:12:56 GMT 53.025238 1.675339 34,000 289 451 -64
2021-12-04 12:12:53 GMT 53.022675 1.688156 34,000 289 451 -64
2021-12-04 12:12:50 GMT 53.019463 1.704215 34,000 289 451 -64
2021-12-04 12:12:47 GMT 53.019463 1.704215 34,000 289 452 0
2021-12-04 12:12:45 GMT 53.017868 1.712112 34,000 289 452 64
2021-12-04 12:12:43 GMT 53.016388 1.719282 34,000 289 452 64
2021-12-04 12:12:40 GMT 53.014248 1.730111 34,000 289 452 0
2021-12-04 12:12:37 GMT 53.012432 1.738979 34,000 289 452 64
2021-12-04 12:12:35 GMT 53.011082 1.745884 34,000 289 452 64
2021-12-04 12:12:33 GMT 53.009499 1.753732 33,975 289 452 64
2021-12-04 12:12:30 GMT 53.008244 1.759931 33,975 289 452 0
2021-12-04 12:12:27 GMT 53.005680 1.772723 33,975 289 451 0
2021-12-04 12:12:25 GMT 53.004364 1.779327 34,000 289 451 0
2021-12-04 12:12:23 GMT 53.002579 1.788177 34,000 289 451 0
2021-12-04 12:12:20 GMT 53.000977 1.796036 34,000 289 451 0
2021-12-04 12:12:17 GMT 52.999256 1.804504 34,000 289 451 0
2021-12-04 12:12:15 GMT 52.997543 1.813049 34,000 289 451 0
2021-12-04 12:12:12 GMT 52.995579 1.822867 34,000 289 451 0
2021-12-04 12:12:09 GMT 52.994247 1.829453 34,000 289 451 0
2021-12-04 12:12:06 GMT 52.992321 1.838954 34,000 289 451 0
2021-12-04 12:12:04 GMT 52.990997 1.845474 34,000 289 451 0
2021-12-04 12:12:02 GMT 52.989574 1.852687 34,000 289 451 0
2021-12-04 12:11:59 GMT 52.987427 1.863174 34,000 289 451 0
2021-12-04 12:11:56 GMT 52.985851 1.871050 34,000 289 451 0
2021-12-04 12:11:54 GMT 52.984501 1.877563 34,000 289 452 0
2021-12-04 12:11:51 GMT 52.981613 1.891632 34,000 289 452 0
2021-12-04 12:11:47 GMT 52.979416 1.902466 34,000 289 452 0
2021-12-04 12:11:44 GMT 52.977283 1.912955 34,000 289 452 0
2021-12-04 12:11:41 GMT 52.975189 1.923157 34,000 289 452 0
2021-12-04 12:11:38 GMT 52.971886 1.939558 34,000 289 452 0
2021-12-04 12:11:36 GMT 52.971886 1.939558 34,000 289 452 0
2021-12-04 12:11:33 GMT 52.969757 1.950073 34,000 289 452 0
2021-12-04 12:11:30 GMT 52.967739 1.959882 34,000 289 452 0
2021-12-04 12:11:27 GMT 52.965729 1.969757 34,000 289 452 0
2021-12-04 12:11:24 GMT 52.964157 1.977618 34,000 289 453 0
2021-12-04 12:11:22 GMT 52.962948 1.983503 34,000 289 454 0
2021-12-04 12:11:19 GMT 52.960602 1.995010 34,000 289 453 0
2021-12-04 12:11:16 GMT 52.958664 2.004534 34,000 289 454 0
2021-12-04 12:11:14 GMT 52.956848 2.013402 34,000 289 454 0
2021-12-04 12:11:11 GMT 52.954708 2.023917 34,000 289 455 64
2021-12-04 12:11:08 GMT 52.953075 2.031764 34,000 289 454 64
2021-12-04 12:11:05 GMT 52.951542 2.039376 34,000 289 455 64
2021-12-04 12:11:03 GMT 52.950378 2.044948 34,000 289 455 64
2021-12-04 12:11:00 GMT 52.946140 2.065665 34,000 289 455 64
2021-12-04 12:10:57 GMT 52.946140 2.065665 34,000 289 456 64
2021-12-04 12:10:55 GMT 52.944839 2.071943 34,000 289 456 64
2021-12-04 12:10:53 GMT 52.941605 2.087784 34,000 289 456 0
2021-12-04 12:10:51 GMT 52.941605 2.087784 34,000 289 456 0
2021-12-04 12:10:48 GMT 52.939728 2.097015 34,000 289 456 -64
2021-12-04 12:10:45 GMT 52.938042 2.105294 34,000 289 456 0
2021-12-04 12:10:43 GMT 52.936707 2.111893 34,000 289 456 -64
2021-12-04 12:10:39 GMT 52.931896 2.135350 34,000 289 456 0
2021-12-04 12:10:36 GMT 52.931896 2.135350 34,000 289 456 0
2021-12-04 12:10:34 GMT 52.930222 2.143590 34,000 289 456 0
2021-12-04 12:10:31 GMT 52.926224 2.163010 34,000 289 456 64
2021-12-04 12:10:28 GMT 52.926224 2.163010 34,000 289 456 64
2021-12-04 12:10:25 GMT 52.924541 2.171291 34,000 289 456 64
2021-12-04 12:10:22 GMT 52.921875 2.184143 34,000 289 456 0
2021-12-04 12:10:19 GMT 52.920639 2.190018 34,000 289 456 0
2021-12-04 12:10:16 GMT 52.918213 2.201920 34,000 289 456 0
2021-12-04 12:10:13 GMT 52.916290 2.211151 34,000 289 456 0
2021-12-04 12:10:09 GMT 52.913177 2.226334 34,000 289 456 64
2021-12-04 12:10:06 GMT 52.911209 2.235870 34,000 289 456 0
2021-12-04 12:10:03 GMT 52.909195 2.245407 34,000 289 456 0
2021-12-04 12:10:00 GMT 52.907318 2.254630 34,000 289 456 0
2021-12-04 12:09:57 GMT 52.905258 2.264557 34,000 289 456 0
2021-12-04 12:09:55 GMT 52.903839 2.271500 34,000 289 456 0
2021-12-04 12:09:52 GMT 52.901775 2.281390 34,000 289 456 0
2021-12-04 12:09:49 GMT 52.899582 2.291946 34,000 289 456 0
2021-12-04 12:09:46 GMT 52.895828 2.310104 34,000 289 456 0
2021-12-04 12:09:43 GMT 52.895828 2.310104 34,000 289 456 0
2021-12-04 12:09:41 GMT 52.894409 2.316971 34,000 290 456 0
2021-12-04 12:09:38 GMT 52.892258 2.327194 34,000 290 456 0
2021-12-04 12:09:35 GMT 52.890289 2.336731 34,000 290 456 0
2021-12-04 12:09:32 GMT 52.888229 2.346601 34,000 290 456 0
2021-12-04 12:09:28 GMT 52.884979 2.362137 34,000 289 456 0
2021-12-04 12:09:25 GMT 52.883202 2.370693 34,000 289 456 0
2021-12-04 12:09:22 GMT 52.879807 2.387161 34,000 289 456 0
2021-12-04 12:09:19 GMT 52.879807 2.387161 34,000 289 456 0
2021-12-04 12:09:17 GMT 52.877792 2.396698 34,000 289 456 0
2021-12-04 12:09:15 GMT 52.876034 2.405300 34,000 289 456 0
2021-12-04 12:09:12 GMT 52.874634 2.412186 34,000 289 456 0
2021-12-04 12:09:09 GMT 52.872078 2.424447 34,000 290 456 0
2021-12-04 12:09:06 GMT 52.870102 2.434006 34,000 290 456 0
2021-12-04 12:09:04 GMT 52.868500 2.441559 34,000 290 456 0
2021-12-04 12:09:01 GMT 52.867355 2.447128 34,000 290 456 0
2021-12-04 12:08:58 GMT 52.864582 2.460310 34,000 290 456 0
2021-12-04 12:08:55 GMT 52.862858 2.468549 34,000 290 456 -64
2021-12-04 12:08:52 GMT 52.860577 2.479379 34,000 290 456 -64
2021-12-04 12:08:48 GMT 52.857330 2.494812 34,000 290 456 -64
2021-12-04 12:08:45 GMT 52.855270 2.504647 34,000 290 455 -64
2021-12-04 12:08:42 GMT 52.853828 2.511553 34,000 290 453 64
2021-12-04 12:08:40 GMT 52.852619 2.517439 34,000 290 453 0
2021-12-04 12:08:37 GMT 52.850555 2.527313 34,000 289 454 0
2021-12-04 12:08:34 GMT 52.848358 2.537766 34,000 289 454 0
2021-12-04 12:08:31 GMT 52.845730 2.550241 34,000 290 454 0
2021-12-04 12:08:28 GMT 52.843964 2.558746 34,000 290 454 0
2021-12-04 12:08:25 GMT 52.842407 2.566299 34,000 290 454 0
2021-12-04 12:08:23 GMT 52.840935 2.573155 34,000 290 454 64
2021-12-04 12:08:20 GMT 52.838242 2.585907 34,000 290 453 64
2021-12-04 12:08:17 GMT 52.836605 2.593715 34,000 290 453 64
2021-12-04 12:08:14 GMT 52.834763 2.602539 34,000 290 453 64
2021-12-04 12:08:11 GMT 52.832321 2.613961 34,000 290 453 64
2021-12-04 12:08:08 GMT 52.830181 2.624006 34,000 290 453 0
2021-12-04 12:08:06 GMT 52.829315 2.628250 34,000 290 452 0
2021-12-04 12:08:04 GMT 52.828224 2.633501 34,000 290 452 0
2021-12-04 12:08:02 GMT 52.826157 2.643280 34,000 290 452 0
2021-12-04 12:08:00 GMT 52.825523 2.646136 34,000 290 452 0
2021-12-04 12:07:58 GMT 52.823318 2.656555 34,000 290 452 -64
2021-12-04 12:07:56 GMT 52.822357 2.661133 34,000 290 451 -64
2021-12-04 12:07:53 GMT 52.820526 2.669907 34,000 290 451 -64
2021-12-04 12:07:51 GMT 52.819145 2.676426 34,000 290 451 -64
2021-12-04 12:07:49 GMT 52.817703 2.683254 34,000 290 451 0
2021-12-04 12:07:46 GMT 52.815353 2.694244 34,000 290 450 0
2021-12-04 12:07:43 GMT 52.811699 2.711426 34,000 290 450 0
2021-12-04 12:07:41 GMT 52.811699 2.711426 34,000 290 449 0
2021-12-04 12:07:37 GMT 52.809357 2.722473 34,000 290 450 0
2021-12-04 12:07:34 GMT 52.807251 2.732468 34,000 290 449 0
2021-12-04 12:07:32 GMT 52.805786 2.739258 34,000 290 449 0
2021-12-04 12:07:29 GMT 52.803955 2.747955 34,000 290 449 0
2021-12-04 12:07:26 GMT 52.801437 2.759933 34,000 290 449 0
2021-12-04 12:07:24 GMT 52.799423 2.769318 34,000 290 449 0
2021-12-04 12:07:21 GMT 52.798004 2.776031 34,000 290 449 0
2021-12-04 12:07:19 GMT 52.797318 2.779312 34,000 290 449 0
2021-12-04 12:07:16 GMT 52.794567 2.792175 34,000 290 449 0
2021-12-04 12:07:14 GMT 52.793884 2.795410 34,000 290 449 0
2021-12-04 12:07:11 GMT 52.791229 2.807999 34,000 290 449 0
2021-12-04 12:07:08 GMT 52.787247 2.826767 34,000 290 449 0
2021-12-04 12:07:05 GMT 52.787247 2.826767 34,000 290 449 0
2021-12-04 12:07:03 GMT 52.784180 2.841263 34,000 290 449 0
2021-12-04 12:07:00 GMT 52.784180 2.841263 34,000 290 449 0
2021-12-04 12:06:58 GMT 52.782394 2.849655 34,000 290 449 0
2021-12-04 12:06:55 GMT 52.779739 2.862244 34,000 290 449 0
2021-12-04 12:06:52 GMT 52.778366 2.868687 34,000 290 448 0
2021-12-04 12:06:50 GMT 52.777111 2.874494 34,000 290 448 0
2021-12-04 12:06:47 GMT 52.774967 2.884460 34,000 290 448 0
2021-12-04 12:06:44 GMT 52.772873 2.894440 34,000 290 448 0
2021-12-04 12:06:42 GMT 52.771057 2.902823 34,000 290 448 0
2021-12-04 12:06:39 GMT 52.769257 2.911224 34,000 290 449 0
2021-12-04 12:06:36 GMT 52.767014 2.921829 34,000 290 449 64
2021-12-04 12:06:34 GMT 52.763702 2.937273 34,000 290 449 64
2021-12-04 12:06:31 GMT 52.763702 2.937273 34,000 290 449 64
2021-12-04 12:06:29 GMT 52.762299 2.943726 34,000 290 449 0
2021-12-04 12:06:25 GMT 52.759701 2.956029 34,000 290 449 0
2021-12-04 12:06:23 GMT 52.758675 2.960815 34,000 290 449 0
2021-12-04 12:06:20 GMT 52.754425 2.980499 34,000 290 449 -64
2021-12-04 12:06:17 GMT 52.754425 2.980499 34,000 290 449 -64
2021-12-04 12:06:14 GMT 52.750305 2.999878 34,000 290 449 0
2021-12-04 12:06:11 GMT 52.750305 2.999878 34,000 290 449 0
2021-12-04 12:06:08 GMT 52.747879 3.011093 34,000 290 449 0
2021-12-04 12:06:05 GMT 52.744125 3.028564 34,000 290 449 0
2021-12-04 12:06:02 GMT 52.744125 3.028564 34,000 290 449 0
2021-12-04 12:06:00 GMT 52.742661 3.035278 34,000 290 449 0
2021-12-04 12:05:58 GMT 52.738403 3.055267 34,000 290 449 0
2021-12-04 12:05:55 GMT 52.738403 3.055267 34,000 290 449 0
2021-12-04 12:05:52 GMT 52.735306 3.069815 34,000 290 449 0
2021-12-04 12:05:50 GMT 52.735306 3.069815 34,000 290 449 0
2021-12-04 12:05:47 GMT 52.733166 3.079782 34,000 290 449 0
2021-12-04 12:05:45 GMT 52.732327 3.083627 34,000 290 449 0
2021-12-04 12:05:42 GMT 52.729626 3.096183 34,000 290 449 0
2021-12-04 12:05:40 GMT 52.728241 3.102646 34,000 290 449 0
2021-12-04 12:05:37 GMT 52.726364 3.111343 34,000 290 449 0
2021-12-04 12:05:35 GMT 52.725346 3.116193 34,000 290 449 0
2021-12-04 12:05:32 GMT 52.722969 3.127180 34,000 290 449 0
2021-12-04 12:05:29 GMT 52.720875 3.136832 34,000 290 450 0
2021-12-04 12:05:27 GMT 52.719498 3.143311 34,000 290 450 0
2021-12-04 12:05:25 GMT 52.715469 3.161926 34,000 290 450 0
2021-12-04 12:05:22 GMT 52.715469 3.161926 34,000 290 450 0
2021-12-04 12:05:19 GMT 52.714077 3.168379 34,000 290 450 -64
2021-12-04 12:05:16 GMT 52.712173 3.177109 34,000 290 450 0
2021-12-04 12:05:14 GMT 52.710819 3.183524 34,000 290 449 0
2021-12-04 12:05:11 GMT 52.708633 3.193490 34,000 290 449 0
2021-12-04 12:05:08 GMT 52.706398 3.203770 34,000 290 449 0
2021-12-04 12:05:05 GMT 52.704300 3.213425 34,000 290 449 0
2021-12-04 12:05:02 GMT 52.702347 3.222447 34,000 290 449 0
2021-12-04 12:04:58 GMT 52.699539 3.235321 34,000 290 449 0
2021-12-04 12:04:55 GMT 52.697182 3.246303 34,000 290 449 0
2021-12-04 12:04:52 GMT 52.695465 3.254013 34,000 290 449 0
2021-12-04 12:04:50 GMT 52.694000 3.260727 34,000 290 449 0
2021-12-04 12:04:48 GMT 52.691986 3.270035 34,000 290 449 0
2021-12-04 12:04:44 GMT 52.688828 3.284531 34,000 290 449 0
2021-12-04 12:04:41 GMT 52.687870 3.288993 34,000 290 450 0
2021-12-04 12:04:38 GMT 52.685211 3.301239 34,000 290 450 0
2021-12-04 12:04:35 GMT 52.683151 3.310547 34,000 290 450 0
2021-12-04 12:04:33 GMT 52.681686 3.317337 34,000 290 450 0
2021-12-04 12:04:30 GMT 52.678986 3.329849 34,000 290 450 0
2021-12-04 12:04:27 GMT 52.677658 3.335953 34,000 290 450 0
2021-12-04 12:04:24 GMT 52.675674 3.345023 34,000 290 450 0
2021-12-04 12:04:21 GMT 52.673447 3.355255 34,000 290 450 0
2021-12-04 12:04:19 GMT 52.672119 3.361435 34,000 290 450 0
2021-12-04 12:04:16 GMT 52.670227 3.370056 34,000 290 450 0
2021-12-04 12:04:14 GMT 52.666763 3.385849 34,000 290 450 0
2021-12-04 12:04:11 GMT 52.666763 3.385849 34,000 290 450 -64
2021-12-04 12:04:08 GMT 52.664474 3.396454 34,000 290 450 0
2021-12-04 12:04:05 GMT 52.662777 3.404192 34,000 290 450 0
2021-12-04 12:04:03 GMT 52.661289 3.410941 34,000 290 450 0
2021-12-04 12:04:00 GMT 52.659100 3.420907 34,000 290 450 0
2021-12-04 12:03:57 GMT 52.656281 3.433838 34,000 290 450 0
2021-12-04 12:03:54 GMT 52.654583 3.441546 34,000 290 450 0
2021-12-04 12:03:52 GMT 52.653515 3.446333 34,000 290 450 0
2021-12-04 12:03:49 GMT 52.650833 3.458633 34,000 290 451 0
2021-12-04 12:03:46 GMT 52.648636 3.468628 34,000 290 451 0
2021-12-04 12:03:44 GMT 52.647602 3.473406 34,000 290 451 0
2021-12-04 12:03:41 GMT 52.645203 3.484421 34,000 290 451 0
2021-12-04 12:03:38 GMT 52.643051 3.494034 34,000 290 451 0
2021-12-04 12:03:35 GMT 52.640945 3.503723 34,000 290 451 0
2021-12-04 12:03:32 GMT 52.638756 3.513663 34,000 290 451 0
2021-12-04 12:03:29 GMT 52.637146 3.521118 34,000 290 451 0
2021-12-04 12:03:26 GMT 52.634583 3.532715 34,000 290 451 0
2021-12-04 12:03:24 GMT 52.633163 3.539124 34,000 290 451 0
2021-12-04 12:03:22 GMT 52.629681 3.554940 34,000 290 451 0
2021-12-04 12:03:19 GMT 52.629681 3.554940 34,000 290 451 0
2021-12-04 12:03:16 GMT 52.627491 3.564907 34,000 290 451 0
2021-12-04 12:03:14 GMT 52.625999 3.571655 34,000 290 451 0
2021-12-04 12:03:12 GMT 52.624649 3.577728 34,000 290 451 0
2021-12-04 12:03:09 GMT 52.623070 3.584839 34,000 290 451 0
2021-12-04 12:03:06 GMT 52.620323 3.597395 34,000 290 451 0
2021-12-04 12:03:04 GMT 52.618881 3.603821 34,000 290 451 0
2021-12-04 12:03:01 GMT 52.616684 3.613739 34,000 290 451 0
2021-12-04 12:02:56 GMT 52.613060 3.630197 34,000 290 451 0
2021-12-04 12:02:53 GMT 52.611290 3.638201 34,000 290 451 64
2021-12-04 12:02:49 GMT 52.608170 3.652344 34,000 290 451 0
2021-12-04 12:02:47 GMT 52.604679 3.668100 34,000 290 451 0
2021-12-04 12:02:44 GMT 52.604679 3.668100 34,000 290 451 0
2021-12-04 12:02:41 GMT 52.601944 3.680267 34,000 290 451 0
2021-12-04 12:02:38 GMT 52.600845 3.685455 34,000 291 450 0
2021-12-04 12:02:35 GMT 52.598351 3.696664 34,000 291 450 0
2021-12-04 12:02:33 GMT 52.597000 3.702774 34,000 291 450 0
2021-12-04 12:02:30 GMT 52.594208 3.715262 34,000 291 450 0
2021-12-04 12:02:27 GMT 52.592762 3.721697 34,000 291 450 0
2021-12-04 12:02:24 GMT 52.590500 3.731918 34,000 291 450 0
2021-12-04 12:02:21 GMT 52.588482 3.740923 34,000 291 450 0
2021-12-04 12:02:19 GMT 52.586334 3.750534 34,000 291 450 0
2021-12-04 12:02:16 GMT 52.582848 3.766192 34,000 291 450 0
2021-12-04 12:02:13 GMT 52.582848 3.766192 34,000 291 450 0
2021-12-04 12:02:11 GMT 52.579262 3.782200 34,000 291 449 0
2021-12-04 12:02:08 GMT 52.579262 3.782200 34,000 291 449 0
2021-12-04 12:02:05 GMT 52.577133 3.791809 34,000 291 449 0
2021-12-04 12:02:03 GMT 52.575073 3.801113 34,000 291 449 0
2021-12-04 12:01:59 GMT 52.572468 3.812570 34,000 291 449 0
2021-12-04 12:01:55 GMT 52.570141 3.823164 34,000 291 450 0
2021-12-04 12:01:53 GMT 52.566692 3.838545 34,000 291 449 0
2021-12-04 12:01:50 GMT 52.566692 3.838545 34,000 291 449 0
2021-12-04 12:01:48 GMT 52.565296 3.844901 34,000 291 449 0
2021-12-04 12:01:46 GMT 52.563763 3.851650 34,000 291 449 0
2021-12-04 12:01:43 GMT 52.561295 3.862871 34,000 291 449 0
2021-12-04 12:01:40 GMT 52.559418 3.871155 34,000 291 449 0
2021-12-04 12:01:38 GMT 52.557999 3.877563 34,000 291 449 0
2021-12-04 12:01:35 GMT 52.555756 3.887482 34,000 291 449 0
2021-12-04 12:01:33 GMT 52.554108 3.894806 34,000 291 449 0
2021-12-04 12:01:31 GMT 52.552074 3.903756 34,000 291 449 0
2021-12-04 12:01:28 GMT 52.550537 3.910751 34,000 291 449 -64
2021-12-04 12:01:25 GMT 52.547882 3.922577 34,000 291 449 0
2021-12-04 12:01:22 GMT 52.546555 3.928680 34,000 291 449 64
2021-12-04 12:01:19 GMT 52.544254 3.938913 34,000 291 449 0
2021-12-04 12:01:16 GMT 52.541740 3.950056 34,000 291 449 0
2021-12-04 12:01:13 GMT 52.539734 3.959045 34,000 291 449 0
2021-12-04 12:01:10 GMT 52.537876 3.967320 34,000 291 449 0
2021-12-04 12:01:07 GMT 52.535751 3.976898 34,000 291 449 0
2021-12-04 12:01:04 GMT 52.533455 3.987095 34,000 291 449 -64
2021-12-04 12:01:02 GMT 52.531998 3.993530 34,000 291 449 -64
2021-12-04 12:01:00 GMT 52.530617 3.999573 34,000 291 449 0
2021-12-04 12:00:57 GMT 52.528473 4.009171 34,000 291 449 0
2021-12-04 12:00:54 GMT 52.526230 4.019012 34,000 291 449 0
2021-12-04 12:00:52 GMT 52.524719 4.025726 34,000 291 449 0
2021-12-04 12:00:50 GMT 52.523209 4.032440 34,000 291 449 0
2021-12-04 12:00:47 GMT 52.521400 4.040379 34,000 291 450 0
2021-12-04 12:00:44 GMT 52.519226 4.049988 34,000 291 449 0
2021-12-04 12:00:42 GMT 52.517578 4.057312 34,000 291 449 0
2021-12-04 12:00:40 GMT 52.516296 4.063034 34,000 291 449 0
2021-12-04 12:00:38 GMT 52.514923 4.069138 34,000 291 449 0
2021-12-04 12:00:35 GMT 52.512459 4.079930 34,000 291 450 0
2021-12-04 12:00:32 GMT 52.510162 4.090195 34,000 291 450 0
2021-12-04 12:00:30 GMT 52.508606 4.096832 34,000 291 450 0
2021-12-04 12:00:27 GMT 52.506687 4.105434 34,000 291 450 0
2021-12-04 12:00:24 GMT 52.504871 4.113438 34,000 291 450 0
2021-12-04 12:00:22 GMT 52.502975 4.121704 34,000 291 450 0
2021-12-04 12:00:19 GMT 52.501190 4.129715 34,000 291 450 0
2021-12-04 12:00:17 GMT 52.499084 4.138947 34,000 291 449 0
2021-12-04 12:00:14 GMT 52.497005 4.148202 34,000 291 449 0
2021-12-04 12:00:11 GMT 52.495422 4.155197 34,000 291 450 0
2021-12-04 12:00:09 GMT 52.494049 4.161224 34,000 291 449 0
2021-12-04 12:00:07 GMT 52.492218 4.169235 34,000 291 450 0
2021-12-04 12:00:04 GMT 52.489792 4.180062 34,000 291 450 0
2021-12-04 12:00:01 GMT 52.488346 4.186419 34,000 291 450 0
2021-12-04 11:59:58 GMT 52.485718 4.197922 34,000 291 450 0
2021-12-04 11:59:55 GMT 52.483273 4.208705 34,000 291 450 0
2021-12-04 11:59:52 GMT 52.481232 4.217682 34,000 291 450 0
2021-12-04 11:59:49 GMT 52.477341 4.234848 34,000 291 450 0
2021-12-04 11:59:46 GMT 52.475033 4.245039 34,000 291 450 0
2021-12-04 11:59:43 GMT 52.475033 4.245039 34,000 291 449 0
2021-12-04 11:59:40 GMT 52.472855 4.254608 34,000 291 449 0
2021-12-04 11:59:38 GMT 52.470795 4.263559 34,000 291 449 0
2021-12-04 11:59:35 GMT 52.468323 4.274368 34,000 291 448 0
2021-12-04 11:59:32 GMT 52.466606 4.282000 34,000 291 449 0
2021-12-04 11:59:29 GMT 52.464233 4.292515 34,000 291 448 0
2021-12-04 11:59:26 GMT 52.462051 4.301987 34,000 291 448 0
2021-12-04 11:59:23 GMT 52.460587 4.308395 34,000 291 448 0
2021-12-04 11:59:21 GMT 52.459076 4.315033 34,000 291 448 0
2021-12-04 11:59:19 GMT 52.455322 4.331512 34,000 291 448 0
2021-12-04 11:59:17 GMT 52.455322 4.331512 34,000 291 448 0
2021-12-04 11:59:14 GMT 52.453850 4.337873 34,000 291 448 0
2021-12-04 11:59:12 GMT 52.451897 4.346427 34,000 291 450 0
2021-12-04 11:59:09 GMT 52.450836 4.351196 34,000 291 449 0
2021-12-04 11:59:07 GMT 52.448963 4.359453 34,000 291 449 0
2021-12-04 11:59:04 GMT 52.446487 4.370270 34,000 291 450 0
2021-12-04 11:59:02 GMT 52.445480 4.374695 34,000 291 450 0
2021-12-04 11:58:59 GMT 52.443050 4.385193 34,000 291 449 0
2021-12-04 11:58:57 GMT 52.441750 4.390921 34,000 291 450 0
2021-12-04 11:58:54 GMT 52.439468 4.400809 34,000 291 450 0
2021-12-04 11:58:52 GMT 52.435837 4.416661 34,000 291 450 0
2021-12-04 11:58:49 GMT 52.435837 4.416661 34,000 291 450 0
2021-12-04 11:58:46 GMT 52.433304 4.427490 34,000 291 450 0
2021-12-04 11:58:43 GMT 52.431473 4.435501 34,000 291 450 0
2021-12-04 11:58:41 GMT 52.430008 4.441833 34,000 291 450 0
2021-12-04 11:58:39 GMT 52.428387 4.448835 34,000 291 450 0
2021-12-04 11:58:36 GMT 52.425385 4.461823 34,000 291 450 0
2021-12-04 11:58:33 GMT 52.424152 4.467276 34,000 291 450 0
2021-12-04 11:58:31 GMT 52.422546 4.474258 34,000 291 450 0
2021-12-04 11:58:29 GMT 52.418884 4.490128 34,000 291 449 0
2021-12-04 11:58:27 GMT 52.416515 4.500235 34,000 291 449 0
2021-12-04 11:58:24 GMT 52.416515 4.500235 34,000 291 449 0
2021-12-04 11:58:21 GMT 52.414490 4.509125 34,000 291 448 0
2021-12-04 11:58:18 GMT 52.413349 4.513890 34,000 291 449 0
2021-12-04 11:58:16 GMT 52.411469 4.522171 34,000 291 448 0
2021-12-04 11:58:13 GMT 52.409317 4.531326 34,000 291 448 0
2021-12-04 11:58:10 GMT 52.406975 4.541434 34,000 291 448 0
2021-12-04 11:58:07 GMT 52.404510 4.552231 34,000 291 448 0
2021-12-04 11:58:04 GMT 52.401993 4.562936 34,000 291 448 0
2021-12-04 11:58:01 GMT 52.400455 4.569606 34,000 291 448 0
2021-12-04 11:57:58 GMT 52.398285 4.579086 34,000 291 448 0
2021-12-04 11:57:56 GMT 52.396866 4.585037 34,000 291 446 0
2021-12-04 11:57:53 GMT 52.392700 4.603043 34,000 291 446 0
2021-12-04 11:57:50 GMT 52.392700 4.603043 34,000 291 446 0
2021-12-04 11:57:48 GMT 52.391098 4.610020 34,000 291 446 0
2021-12-04 11:57:46 GMT 52.389004 4.619123 34,000 291 446 0
2021-12-04 11:57:43 GMT 52.387512 4.625480 34,000 291 446 0
2021-12-04 11:57:40 GMT 52.385418 4.634583 34,000 291 446 0
2021-12-04 11:57:38 GMT 52.383957 4.640884 34,000 291 445 0
2021-12-04 11:57:35 GMT 52.381603 4.650984 34,000 291 446 0
2021-12-04 11:57:32 GMT 52.376495 4.673004 34,000 291 445 0
2021-12-04 11:57:29 GMT 52.376495 4.673004 34,000 291 444 0
2021-12-04 11:57:26 GMT 52.374435 4.681778 34,000 291 445 -64
2021-12-04 11:57:23 GMT 52.372604 4.689636 34,000 291 444 0
2021-12-04 11:57:20 GMT 52.370773 4.697495 34,000 291 444 0
2021-12-04 11:57:18 GMT 52.367496 4.711644 34,000 291 444 0
2021-12-04 11:57:16 GMT 52.367496 4.711644 34,000 291 444 0
2021-12-04 11:57:13 GMT 52.363632 4.728280 34,000 291 444 0
2021-12-04 11:57:10 GMT 52.361397 4.737932 34,000 291 444 0
2021-12-04 11:57:08 GMT 52.361397 4.737932 34,000 291 444 0
2021-12-04 11:57:06 GMT 52.360283 4.742641 34,000 291 444 0
2021-12-04 11:57:03 GMT 52.358185 4.751744 34,000 291 444 0
2021-12-04 11:57:01 GMT 52.356354 4.759521 34,000 291 443 0
2021-12-04 11:56:58 GMT 52.353745 4.770813 34,000 291 443 0
2021-12-04 11:56:55 GMT 52.352600 4.775772 34,000 291 443 0
2021-12-04 11:56:52 GMT 52.348923 4.791373 34,000 291 443 0
2021-12-04 11:56:50 GMT 52.346966 4.799848 34,000 291 443 0
2021-12-04 11:56:47 GMT 52.346966 4.799848 34,000 291 443 0
2021-12-04 11:56:45 GMT 52.345367 4.806671 34,000 291 443 0
2021-12-04 11:56:43 GMT 52.343262 4.815750 34,000 291 443 0
2021-12-04 11:56:40 GMT 52.341381 4.823861 34,000 291 443 0
2021-12-04 11:56:37 GMT 52.339100 4.833514 34,000 291 443 0
2021-12-04 11:56:34 GMT 52.336487 4.844742 34,000 291 443 0
2021-12-04 11:56:31 GMT 52.332954 4.859724 34,000 292 443 0
2021-12-04 11:56:28 GMT 52.332954 4.859724 34,000 292 443 0
2021-12-04 11:56:25 GMT 52.329601 4.874006 34,000 292 443 0
2021-12-04 11:56:22 GMT 52.328300 4.879656 34,000 292 443 0
2021-12-04 11:56:19 GMT 52.324493 4.895859 34,000 292 443 0
2021-12-04 11:56:17 GMT 52.324493 4.895859 34,000 292 443 0
2021-12-04 11:56:14 GMT 52.322109 4.905788 34,000 292 443 0
2021-12-04 11:56:11 GMT 52.320511 4.912720 34,000 292 443 0
2021-12-04 11:56:08 GMT 52.318150 4.922660 34,000 292 443 0
2021-12-04 11:56:06 GMT 52.313736 4.941406 34,000 292 443 0
2021-12-04 11:56:03 GMT 52.313736 4.941406 34,000 292 443 0
2021-12-04 11:56:00 GMT 52.311905 4.949188 34,000 292 443 0
2021-12-04 11:55:57 GMT 52.309727 4.958522 34,000 292 443 0
2021-12-04 11:55:54 GMT 52.308105 4.965439 34,000 292 443 0
2021-12-04 11:55:52 GMT 52.306549 4.971924 34,000 292 443 0
2021-12-04 11:55:50 GMT 52.304558 4.980338 34,000 292 443 0
2021-12-04 11:55:48 GMT 52.301346 4.994071 34,000 292 443 0
2021-12-04 11:55:45 GMT 52.301346 4.994071 34,000 292 443 0
2021-12-04 11:55:42 GMT 52.297062 5.012198 34,000 292 443 0
2021-12-04 11:55:40 GMT 52.297062 5.012198 34,000 292 443 0
2021-12-04 11:55:37 GMT 52.294781 5.021851 34,000 292 443 0
2021-12-04 11:55:34 GMT 52.293339 5.028050 34,000 292 442 0
2021-12-04 11:55:32 GMT 52.291801 5.034563 34,000 292 442 0
2021-12-04 11:55:30 GMT 52.289886 5.042648 34,000 292 442 0
2021-12-04 11:55:27 GMT 52.287937 5.050729 34,000 292 442 0
2021-12-04 11:55:25 GMT 52.285812 5.059814 34,000 292 442 0
2021-12-04 11:55:22 GMT 52.282150 5.075302 34,000 292 442 0
2021-12-04 11:55:19 GMT 52.282150 5.075302 34,000 292 442 0
2021-12-04 11:55:16 GMT 52.279037 5.088425 34,000 292 442 0
2021-12-04 11:55:13 GMT 52.276840 5.097733 34,000 292 442 0
2021-12-04 11:55:10 GMT 52.275043 5.105190 34,000 292 442 0
2021-12-04 11:55:07 GMT 52.273228 5.112959 34,000 292 442 0
2021-12-04 11:55:04 GMT 52.270481 5.124494 34,000 292 442 0
2021-12-04 11:55:01 GMT 52.269363 5.129124 34,000 292 442 0
2021-12-04 11:54:59 GMT 52.267456 5.137207 34,000 292 442 0
2021-12-04 11:54:57 GMT 52.265671 5.144653 34,000 292 442 0
2021-12-04 11:54:55 GMT 52.264114 5.151215 34,000 292 442 0
2021-12-04 11:54:52 GMT 52.262009 5.160141 34,000 292 442 0
2021-12-04 11:54:50 GMT 52.260452 5.166702 34,000 292 442 0
2021-12-04 11:54:47 GMT 52.258530 5.174789 34,000 292 442 0
2021-12-04 11:54:44 GMT 52.255966 5.185623 34,000 292 442 0
2021-12-04 11:54:41 GMT 52.253677 5.195312 34,000 292 442 0
2021-12-04 11:54:38 GMT 52.250931 5.206757 34,000 292 442 0
2021-12-04 11:54:35 GMT 52.249374 5.213318 34,000 292 443 0
2021-12-04 11:54:32 GMT 52.247223 5.222321 34,000 292 443 0
2021-12-04 11:54:29 GMT 52.245018 5.231611 34,000 292 443 0
2021-12-04 11:54:27 GMT 52.242691 5.241263 34,000 292 444 0
2021-12-04 11:54:24 GMT 52.241272 5.247192 34,000 292 444 0
2021-12-04 11:54:21 GMT 52.239120 5.256195 34,000 292 444 0
2021-12-04 11:54:18 GMT 52.236969 5.265198 34,000 292 444 0
2021-12-04 11:54:15 GMT 52.234360 5.276108 34,000 292 444 0
2021-12-04 11:54:12 GMT 52.232208 5.285110 34,000 292 444 0
2021-12-04 11:54:09 GMT 52.230354 5.292899 34,000 292 444 0
2021-12-04 11:54:07 GMT 52.228546 5.300369 34,000 292 444 0
2021-12-04 11:54:04 GMT 52.225468 5.313145 34,000 292 444 0
2021-12-04 11:54:01 GMT 52.223370 5.321856 34,000 292 444 0
2021-12-04 11:53:58 GMT 52.221909 5.328064 34,000 292 444 -64
2021-12-04 11:53:55 GMT 52.218979 5.340195 34,000 292 444 -64
2021-12-04 11:53:52 GMT 52.216827 5.349197 34,000 292 443 0
2021-12-04 11:53:49 GMT 52.215271 5.355682 34,000 292 443 0
2021-12-04 11:53:47 GMT 52.213036 5.365016 34,000 292 442 64
2021-12-04 11:53:44 GMT 52.211609 5.370941 34,000 292 442 0
2021-12-04 11:53:41 GMT 52.209320 5.380554 34,000 292 442 0
2021-12-04 11:53:38 GMT 52.207218 5.389265 34,000 292 442 0
2021-12-04 11:53:35 GMT 52.204239 5.401611 34,000 292 442 0
2021-12-04 11:53:32 GMT 52.202225 5.410004 34,000 292 442 0
2021-12-04 11:53:29 GMT 52.199890 5.419540 34,000 292 442 -64
2021-12-04 11:53:27 GMT 52.196686 5.432892 34,000 292 442 -64
2021-12-04 11:53:24 GMT 52.193802 5.444946 34,000 292 442 -64
2021-12-04 11:53:21 GMT 52.193802 5.444946 34,000 292 442 0
2021-12-04 11:53:18 GMT 52.192291 5.451126 34,000 292 442 0
2021-12-04 11:53:16 GMT 52.190735 5.457611 34,000 292 442 0
2021-12-04 11:53:14 GMT 52.189110 5.464443 34,000 292 442 0
2021-12-04 11:53:11 GMT 52.186363 5.475900 34,000 292 441 0
2021-12-04 11:53:08 GMT 52.184967 5.481720 34,000 292 441 0
2021-12-04 11:53:06 GMT 52.182816 5.490723 34,000 292 441 0
2021-12-04 11:53:03 GMT 52.178879 5.507050 34,000 292 441 0
2021-12-04 11:53:00 GMT 52.178879 5.507050 34,000 292 440 0
2021-12-04 11:52:57 GMT 52.174164 5.526437 34,000 292 440 0
2021-12-04 11:52:54 GMT 52.174164 5.526437 34,000 292 440 64
2021-12-04 11:52:51 GMT 52.171883 5.536011 34,000 292 440 64
2021-12-04 11:52:48 GMT 52.169952 5.543976 34,000 292 440 0
2021-12-04 11:52:46 GMT 52.167755 5.552902 34,000 292 440 0
2021-12-04 11:52:43 GMT 52.166206 5.559396 34,000 292 440 0
2021-12-04 11:52:40 GMT 52.163227 5.571716 34,000 292 440 0
2021-12-04 11:52:37 GMT 52.161877 5.577209 34,000 292 439 0
2021-12-04 11:52:34 GMT 52.158989 5.589216 34,000 292 439 -64
2021-12-04 11:52:31 GMT 52.157181 5.596542 34,000 292 439 -64
2021-12-04 11:52:29 GMT 52.155167 5.604858 34,000 292 439 0
2021-12-04 11:52:26 GMT 52.153015 5.613785 34,000 292 438 0
2021-12-04 11:52:24 GMT 52.152283 5.616837 34,000 292 438 0
2021-12-04 11:52:21 GMT 52.149445 5.628453 34,000 292 438 0
2021-12-04 11:52:18 GMT 52.147305 5.637320 34,000 292 438 0
2021-12-04 11:52:15 GMT 52.145050 5.646515 34,000 292 437 0
2021-12-04 11:52:12 GMT 52.141624 5.660549 34,000 292 437 0
2021-12-04 11:52:07 GMT 52.139019 5.671221 34,000 292 437 0
2021-12-04 11:52:04 GMT 52.137085 5.679169 34,000 292 436 0
2021-12-04 11:52:01 GMT 52.134735 5.688956 34,000 292 436 0
2021-12-04 11:51:58 GMT 52.132641 5.697431 34,000 292 436 0
2021-12-04 11:51:55 GMT 52.130035 5.708104 34,000 292 436 0
2021-12-04 11:51:52 GMT 52.128033 5.716343 34,000 292 436 0
2021-12-04 11:51:49 GMT 52.125473 5.727016 34,000 292 436 0
2021-12-04 11:51:46 GMT 52.123981 5.733058 34,000 292 435 0
2021-12-04 11:51:43 GMT 52.121521 5.743103 34,000 292 435 0
2021-12-04 11:51:40 GMT 52.118908 5.753775 34,000 292 435 0
2021-12-04 11:51:37 GMT 52.116627 5.763192 34,000 292 435 0
2021-12-04 11:51:34 GMT 52.114700 5.771027 34,000 292 435 0
2021-12-04 11:51:31 GMT 52.112530 5.779829 34,000 292 435 0
2021-12-04 11:51:28 GMT 52.109985 5.790176 34,000 292 435 0
2021-12-04 11:51:26 GMT 52.108807 5.795053 34,000 292 434 0
2021-12-04 11:51:23 GMT 52.106735 5.803528 34,000 292 434 0
2021-12-04 11:51:20 GMT 52.104336 5.813180 34,000 292 434 0
2021-12-04 11:51:18 GMT 52.102798 5.819550 34,000 292 434 0
2021-12-04 11:51:15 GMT 52.099869 5.831375 34,000 292 434 0
2021-12-04 11:51:12 GMT 52.098377 5.837429 34,000 292 434 0
2021-12-04 11:51:09 GMT 52.096161 5.846481 34,000 292 433 0
2021-12-04 11:51:06 GMT 52.093140 5.858917 34,000 292 433 0
2021-12-04 11:51:03 GMT 52.091949 5.863724 34,000 292 433 0
2021-12-04 11:51:00 GMT 52.089340 5.874329 34,000 292 433 0
2021-12-04 11:50:57 GMT 52.087254 5.882786 34,000 292 432 0
2021-12-04 11:50:54 GMT 52.085110 5.891497 34,000 292 433 0
2021-12-04 11:50:51 GMT 52.082886 5.900574 34,000 292 432 0
2021-12-04 11:50:49 GMT 52.081478 5.906250 34,000 292 432 0
2021-12-04 11:50:46 GMT 52.078453 5.918649 34,000 292 432 0
2021-12-04 11:50:43 GMT 52.076981 5.924683 34,000 292 432 0
2021-12-04 11:50:40 GMT 52.074310 5.935521 34,000 292 433 0
2021-12-04 11:50:37 GMT 52.071808 5.945740 34,000 292 433 0
2021-12-04 11:50:34 GMT 52.069702 5.954208 34,000 292 433 0
2021-12-04 11:50:31 GMT 52.068283 5.959854 34,000 292 433 0
2021-12-04 11:50:29 GMT 52.066589 5.966797 34,000 292 433 0
2021-12-04 11:50:26 GMT 52.063602 5.978838 34,000 292 432 -64
2021-12-04 11:50:23 GMT 52.061600 5.986938 34,000 292 432 -64
2021-12-04 11:50:20 GMT 52.059975 5.993591 34,000 292 432 0
2021-12-04 11:50:17 GMT 52.056900 6.005833 34,000 292 432 0
2021-12-04 11:50:14 GMT 52.054760 6.014544 34,000 292 431 0
2021-12-04 11:50:11 GMT 52.053177 6.020889 34,000 292 431 0
2021-12-04 11:50:09 GMT 52.051266 6.028669 34,000 292 431 0
2021-12-04 11:50:06 GMT 52.049469 6.035843 34,000 292 430 -64
2021-12-04 11:50:03 GMT 52.047264 6.044835 34,000 292 430 0
2021-12-04 11:50:00 GMT 52.042465 6.064224 34,000 292 430 0
2021-12-04 11:49:57 GMT 52.042465 6.064224 34,000 293 427 0
2021-12-04 11:49:54 GMT 52.039768 6.074969 34,000 292 428 64
2021-12-04 11:49:51 GMT 52.038391 6.080627 34,000 292 428 64
2021-12-04 11:49:49 GMT 52.036884 6.086583 34,000 292 428 0
2021-12-04 11:49:46 GMT 52.033951 6.098480 34,000 292 428 0
2021-12-04 11:49:43 GMT 52.032257 6.105347 34,000 292 428 0
2021-12-04 11:49:40 GMT 52.029648 6.115799 34,000 292 428 0
2021-12-04 11:49:37 GMT 52.025246 6.133589 34,000 292 428 0
2021-12-04 11:49:34 GMT 52.025246 6.133589 34,000 292 428 -64
2021-12-04 11:49:31 GMT 52.023605 6.140137 34,000 292 428 -64
2021-12-04 11:49:28 GMT 52.021568 6.148420 34,000 293 427 0
2021-12-04 11:49:25 GMT 52.019333 6.157366 34,000 293 427 64
2021-12-04 11:49:22 GMT 52.017105 6.166229 34,000 293 427 0
2021-12-04 11:49:19 GMT 52.014492 6.176906 34,000 293 427 0
2021-12-04 11:49:17 GMT 52.010880 6.191406 34,000 293 427 0
2021-12-04 11:49:14 GMT 52.010880 6.191406 34,000 293 427 0
2021-12-04 11:49:12 GMT 52.009369 6.197357 34,000 293 426 0
2021-12-04 11:49:09 GMT 52.005833 6.211513 34,000 293 426 0
2021-12-04 11:49:06 GMT 52.005180 6.214181 34,000 293 426 0
2021-12-04 11:49:04 GMT 52.003876 6.219517 34,000 293 426 0
2021-12-04 11:49:01 GMT 52.000851 6.231602 34,000 293 426 0
2021-12-04 11:48:58 GMT 51.998611 6.240463 34,000 293 425 0
2021-12-04 11:48:55 GMT 51.996895 6.247297 34,000 293 425 0
2021-12-04 11:48:52 GMT 51.994473 6.257028 34,000 293 425 0
2021-12-04 11:48:49 GMT 51.992844 6.263463 34,000 293 425 -64
2021-12-04 11:48:46 GMT 51.988422 6.281119 34,000 293 425 0
2021-12-04 11:48:43 GMT 51.988422 6.281119 34,000 293 425 0
2021-12-04 11:48:41 GMT 51.986652 6.288182 34,000 293 424 0
2021-12-04 11:48:39 GMT 51.982590 6.304398 34,000 293 424 0
2021-12-04 11:48:36 GMT 51.982590 6.304398 34,000 293 424 0
2021-12-04 11:48:33 GMT 51.981262 6.309662 34,000 293 424 0
2021-12-04 11:48:31 GMT 51.979156 6.317923 34,000 293 424 0
2021-12-04 11:48:28 GMT 51.976501 6.328430 34,000 293 424 0
2021-12-04 11:48:25 GMT 51.974670 6.335831 34,000 293 423 0
2021-12-04 11:48:22 GMT 51.972828 6.343113 34,000 293 423 0
2021-12-04 11:48:19 GMT 51.970734 6.351318 34,000 293 423 64
2021-12-04 11:48:17 GMT 51.968266 6.361319 34,000 293 423 0
2021-12-04 11:48:14 GMT 51.966404 6.368617 34,000 293 423 0
2021-12-04 11:48:11 GMT 51.964355 6.376857 34,000 293 423 0
2021-12-04 11:48:07 GMT 51.961121 6.389694 34,000 293 422 0
2021-12-04 11:48:04 GMT 51.959290 6.397018 34,000 292 419 0
2021-12-04 11:48:01 GMT 51.956764 6.406991 34,000 293 422 0
2021-12-04 11:47:59 GMT 51.955605 6.411621 34,000 293 422 0
2021-12-04 11:47:56 GMT 51.953384 6.420364 34,000 293 422 0
2021-12-04 11:47:53 GMT 51.950714 6.430926 34,000 293 422 0
2021-12-04 11:47:50 GMT 51.948944 6.437912 34,000 293 422 0
2021-12-04 11:47:48 GMT 51.947662 6.443176 34,000 293 421 0
2021-12-04 11:47:45 GMT 51.944988 6.453683 34,000 293 421 0
2021-12-04 11:47:42 GMT 51.943035 6.461530 34,000 293 420 0
2021-12-04 11:47:39 GMT 51.940887 6.469955 34,000 293 420 0
2021-12-04 11:47:36 GMT 51.938705 6.478716 34,000 293 419 0
2021-12-04 11:47:34 GMT 51.935120 6.492920 34,000 293 419 0
2021-12-04 11:47:31 GMT 51.935120 6.492920 34,000 293 418 0
2021-12-04 11:47:28 GMT 51.932144 6.504822 34,000 292 419 0
2021-12-04 11:47:25 GMT 51.930542 6.511230 34,000 293 418 0
2021-12-04 11:47:22 GMT 51.928696 6.518738 34,000 293 418 0
2021-12-04 11:47:19 GMT 51.926369 6.528076 34,000 293 417 0
2021-12-04 11:47:16 GMT 51.924274 6.536473 34,000 293 417 0
2021-12-04 11:47:13 GMT 51.922176 6.544870 34,000 293 417 0
2021-12-04 11:47:10 GMT 51.920288 6.552353 34,000 293 417 0
2021-12-04 11:47:08 GMT 51.918686 6.558685 34,000 293 417 0
2021-12-04 11:47:05 GMT 51.915798 6.570295 34,000 292 417 0
2021-12-04 11:47:02 GMT 51.914383 6.576080 34,000 292 417 0
2021-12-04 11:46:59 GMT 51.909622 6.595078 34,000 292 417 0
2021-12-04 11:46:56 GMT 51.909622 6.595078 34,000 292 417 0
2021-12-04 11:46:53 GMT 51.907288 6.604309 34,000 292 417 0
2021-12-04 11:46:50 GMT 51.904999 6.613534 34,000 292 425 0
2021-12-04 11:46:47 GMT 51.903397 6.619949 34,000 292 417 0
2021-12-04 11:46:44 GMT 51.900604 6.631165 34,000 292 417 0
2021-12-04 11:46:41 GMT 51.899094 6.637192 34,000 292 417 0
2021-12-04 11:46:38 GMT 51.896946 6.645865 34,000 292 417 0
2021-12-04 11:46:36 GMT 51.894897 6.653948 34,000 292 417 0
2021-12-04 11:46:33 GMT 51.891449 6.667810 34,000 292 417 0
2021-12-04 11:46:30 GMT 51.891449 6.667810 34,000 292 417 0
2021-12-04 11:46:28 GMT 51.889591 6.675339 34,000 292 417 -64
2021-12-04 11:46:25 GMT 51.887775 6.682510 34,000 292 417 0
2021-12-04 11:46:23 GMT 51.886276 6.688595 34,000 292 416 0
2021-12-04 11:46:20 GMT 51.884144 6.697235 34,000 292 416 0
2021-12-04 11:46:18 GMT 51.882751 6.702699 34,000 292 415 0
2021-12-04 11:46:15 GMT 51.880554 6.711681 34,000 292 415 0
2021-12-04 11:46:12 GMT 51.878448 6.719995 34,000 292 415 0
2021-12-04 11:46:10 GMT 51.876976 6.726074 34,000 292 415 0
2021-12-04 11:46:08 GMT 51.875519 6.731798 34,000 292 415 0
2021-12-04 11:46:05 GMT 51.873390 6.740494 34,000 292 415 0
2021-12-04 11:46:02 GMT 51.871262 6.749094 34,000 292 415 0
2021-12-04 11:46:00 GMT 51.869759 6.755142 34,000 292 415 0
2021-12-04 11:45:58 GMT 51.867737 6.763198 34,000 292 415 0
2021-12-04 11:45:55 GMT 51.865757 6.771240 34,000 293 415 0
2021-12-04 11:45:52 GMT 51.864315 6.776962 34,000 293 415 64
2021-12-04 11:45:50 GMT 51.862427 6.784429 34,000 293 415 0
2021-12-04 11:45:48 GMT 51.861008 6.790161 34,000 293 415 0
2021-12-04 11:45:45 GMT 51.856384 6.808554 34,000 293 415 0
2021-12-04 11:45:42 GMT 51.856384 6.808554 34,000 293 415 0
2021-12-04 11:45:39 GMT 51.854214 6.817169 34,000 293 416 0
2021-12-04 11:45:36 GMT 51.851791 6.826630 34,000 293 415 0
2021-12-04 11:45:33 GMT 51.850067 6.833496 34,000 293 415 0
2021-12-04 11:45:30 GMT 51.847504 6.843517 34,000 293 415 0
2021-12-04 11:45:27 GMT 51.845787 6.850128 34,000 293 416 0
2021-12-04 11:45:24 GMT 51.843887 6.857547 34,000 293 416 0
2021-12-04 11:45:21 GMT 51.841084 6.868439 34,000 294 416 0
2021-12-04 11:45:18 GMT 51.839355 6.874992 34,000 294 416 0
2021-12-04 11:45:15 GMT 51.836102 6.887207 34,000 294 416 0
2021-12-04 11:45:12 GMT 51.834614 6.892929 34,000 294 416 0
2021-12-04 11:45:09 GMT 51.829262 6.912842 34,000 294 415 0
2021-12-04 11:45:06 GMT 51.829262 6.912842 34,000 294 416 0
2021-12-04 11:45:03 GMT 51.827164 6.920547 34,000 295 416 0
2021-12-04 11:45:00 GMT 51.825211 6.927643 34,000 295 416 0
2021-12-04 11:44:58 GMT 51.823162 6.934967 34,000 295 417 0
2021-12-04 11:44:55 GMT 51.820953 6.942914 34,000 295 417 0
2021-12-04 11:44:53 GMT 51.819763 6.947145 34,000 296 417 0
2021-12-04 11:44:50 GMT 51.817204 6.956177 34,000 296 417 0
2021-12-04 11:44:48 GMT 51.813526 6.968842 34,000 296 417 0
2021-12-04 11:44:46 GMT 51.813526 6.968842 34,000 296 417 0
2021-12-04 11:44:43 GMT 51.809006 6.983964 34,000 297 417 0
2021-12-04 11:44:40 GMT 51.809006 6.983964 34,000 298 419 0
2021-12-04 11:44:38 GMT 51.807220 6.989829 34,000 297 418 0
2021-12-04 11:44:36 GMT 51.805565 6.995163 34,000 297 418 0
2021-12-04 11:44:33 GMT 51.802780 7.004007 34,000 298 419 0
2021-12-04 11:44:30 GMT 51.799931 7.012863 34,000 298 419 0
2021-12-04 11:44:27 GMT 51.798248 7.018111 34,000 299 420 0
2021-12-04 11:44:25 GMT 51.795135 7.027512 34,000 299 420 0
2021-12-04 11:44:22 GMT 51.792671 7.034912 34,000 300 419 0
2021-12-04 11:44:20 GMT 51.790970 7.039861 34,000 300 420 0
2021-12-04 11:44:17 GMT 51.787857 7.048843 34,000 300 421 0
2021-12-04 11:44:14 GMT 51.784897 7.057343 34,000 300 421 0
2021-12-04 11:44:11 GMT 51.782959 7.062724 34,000 301 421 0
2021-12-04 11:44:09 GMT 51.780945 7.068440 34,000 300 421 0
2021-12-04 11:44:06 GMT 51.777260 7.078781 34,000 301 421 0
2021-12-04 11:44:03 GMT 51.775406 7.083955 34,000 301 421 0
2021-12-04 11:44:00 GMT 51.771515 7.094793 34,000 301 421 0
2021-12-04 11:43:57 GMT 51.769440 7.100449 34,000 301 420 0
2021-12-04 11:43:54 GMT 51.766415 7.108917 34,000 301 420 0
2021-12-04 11:43:52 GMT 51.761948 7.121368 34,000 301 420 0
2021-12-04 11:43:49 GMT 51.761948 7.121368 34,000 301 420 0
2021-12-04 11:43:47 GMT 51.759617 7.127838 34,000 301 420 0
2021-12-04 11:43:44 GMT 51.755985 7.137909 34,000 301 421 0
2021-12-04 11:43:41 GMT 51.752586 7.147369 34,000 301 420 0
2021-12-04 11:43:38 GMT 51.750542 7.153015 34,000 301 420 0
2021-12-04 11:43:35 GMT 51.747791 7.160645 34,000 301 420 0
2021-12-04 11:43:32 GMT 51.743591 7.172291 34,000 301 421 0
2021-12-04 11:43:29 GMT 51.742161 7.176361 34,000 301 421 0
2021-12-04 11:43:27 GMT 51.736404 7.192333 34,000 301 421 0
2021-12-04 11:43:24 GMT 51.736404 7.192333 34,000 301 421 0
2021-12-04 11:43:21 GMT 51.734070 7.198866 34,000 301 421 0
2021-12-04 11:43:19 GMT 51.732422 7.203468 34,000 301 421 0
2021-12-04 11:43:17 GMT 51.727173 7.218094 34,000 301 421 0
2021-12-04 11:43:14 GMT 51.727173 7.218094 34,000 301 421 0
2021-12-04 11:43:11 GMT 51.724331 7.225952 34,000 301 421 0
2021-12-04 11:43:08 GMT 51.721493 7.233810 34,000 301 421 0
2021-12-04 11:43:05 GMT 51.718094 7.243271 34,000 301 421 0
2021-12-04 11:43:02 GMT 51.712234 7.259513 34,000 301 422 0
2021-12-04 11:42:59 GMT 51.712234 7.259513 34,000 301 422 0
2021-12-04 11:42:56 GMT 51.709293 7.267685 34,000 301 422 0
2021-12-04 11:42:53 GMT 51.707062 7.273914 34,000 301 422 0
2021-12-04 11:42:51 GMT 51.705002 7.279630 34,000 301 422 0
2021-12-04 11:42:48 GMT 51.701202 7.290171 34,000 301 422 0
2021-12-04 11:42:45 GMT 51.698181 7.298559 34,000 301 422 0
2021-12-04 11:42:42 GMT 51.695236 7.306671 34,000 301 422 0
2021-12-04 11:42:39 GMT 51.690208 7.320480 34,000 301 422 0
2021-12-04 11:42:36 GMT 51.686390 7.331085 34,000 301 422 0
2021-12-04 11:42:33 GMT 51.686390 7.331085 34,000 301 422 0
2021-12-04 11:42:30 GMT 51.684540 7.336195 34,000 301 422 0
2021-12-04 11:42:27 GMT 51.680759 7.346497 34,000 301 422 0
2021-12-04 11:42:24 GMT 51.678635 7.352526 34,000 301 422 0
2021-12-04 11:42:21 GMT 51.674660 7.363358 34,000 301 422 0
2021-12-04 11:42:18 GMT 51.671722 7.371455 34,000 301 423 0
2021-12-04 11:42:15 GMT 51.668884 7.379324 34,000 301 423 0
2021-12-04 11:42:12 GMT 51.666412 7.386153 34,000 301 423 0
2021-12-04 11:42:09 GMT 51.663162 7.395061 34,000 301 423 0
2021-12-04 11:42:06 GMT 51.659996 7.403793 34,000 301 423 0
2021-12-04 11:42:03 GMT 51.657204 7.411346 34,000 301 423 0
2021-12-04 11:42:00 GMT 51.654282 7.419483 34,000 301 423 0
2021-12-04 11:41:57 GMT 51.651215 7.427871 34,000 301 423 0
2021-12-04 11:41:54 GMT 51.648357 7.435760 34,000 301 423 0
2021-12-04 11:41:51 GMT 51.645401 7.443905 34,000 301 423 0
2021-12-04 11:41:48 GMT 51.642380 7.452294 34,000 301 422 0
2021-12-04 11:41:45 GMT 51.639313 7.460682 34,000 301 422 0
2021-12-04 11:41:42 GMT 51.633408 7.476939 34,000 301 422 0
2021-12-04 11:41:39 GMT 51.633408 7.476939 34,000 301 423 0
2021-12-04 11:41:36 GMT 51.630661 7.484584 34,000 301 423 0
2021-12-04 11:41:33 GMT 51.628372 7.490746 34,000 301 423 0
2021-12-04 11:41:30 GMT 51.624527 7.501361 34,000 301 423 0
2021-12-04 11:41:27 GMT 51.621590 7.509460 34,000 301 423 0
2021-12-04 11:41:24 GMT 51.619720 7.514574 34,000 301 423 0
2021-12-04 11:41:21 GMT 51.613491 7.531662 34,000 301 423 0
2021-12-04 11:41:18 GMT 51.613491 7.531662 34,000 301 423 0
2021-12-04 11:41:16 GMT 51.610703 7.539219 34,000 301 423 0
2021-12-04 11:41:13 GMT 51.608368 7.545752 34,000 301 423 0
2021-12-04 11:41:10 GMT 51.604889 7.555179 34,000 301 423 0
2021-12-04 11:41:07 GMT 51.599579 7.569803 34,000 301 423 0
2021-12-04 11:41:04 GMT 51.599579 7.569803 34,000 301 423 0
2021-12-04 11:41:01 GMT 51.593216 7.587173 34,000 301 423 64
2021-12-04 11:40:58 GMT 51.593216 7.587173 34,000 301 423 0
2021-12-04 11:40:55 GMT 51.590027 7.595825 34,000 301 423 0
2021-12-04 11:40:52 GMT 51.587234 7.603378 34,000 301 423 0
2021-12-04 11:40:49 GMT 51.583977 7.612305 34,000 301 424 -64
2021-12-04 11:40:47 GMT 51.582596 7.616124 34,000 301 423 0
2021-12-04 11:40:44 GMT 51.579803 7.623695 34,000 301 423 0
2021-12-04 11:40:41 GMT 51.577148 7.630970 34,000 301 423 0
2021-12-04 11:40:38 GMT 51.574081 7.639432 34,000 301 423 0
2021-12-04 11:40:36 GMT 51.568428 7.654800 34,000 301 423 0
2021-12-04 11:40:33 GMT 51.568428 7.654800 34,000 301 423 0
2021-12-04 11:40:30 GMT 51.565796 7.662147 34,000 301 423 0
2021-12-04 11:40:27 GMT 51.562794 7.670212 34,000 301 423 0
2021-12-04 11:40:24 GMT 51.559723 7.678604 34,000 301 423 0
2021-12-04 11:40:21 GMT 51.556778 7.686718 34,000 301 423 0
2021-12-04 11:40:18 GMT 51.552788 7.697525 34,000 301 417 0
2021-12-04 11:40:15 GMT 51.549713 7.705917 34,000 301 422 0
2021-12-04 11:40:12 GMT 51.547440 7.712105 34,000 301 422 0
2021-12-04 11:40:09 GMT 51.543846 7.721786 34,000 301 423 0
2021-12-04 11:40:06 GMT 51.542084 7.726655 34,000 301 422 0
2021-12-04 11:40:03 GMT 51.539017 7.734969 34,000 301 422 0
2021-12-04 11:40:00 GMT 51.535721 7.743877 34,000 301 422 0
2021-12-04 11:39:57 GMT 51.533234 7.750626 34,000 301 422 0
2021-12-04 11:39:54 GMT 51.530045 7.759243 34,000 301 422 0
2021-12-04 11:39:51 GMT 51.526978 7.767557 34,000 301 422 0
2021-12-04 11:39:48 GMT 51.524323 7.774831 34,000 301 421 0
2021-12-04 11:39:46 GMT 51.521622 7.782106 34,000 301 421 0
2021-12-04 11:39:43 GMT 51.515450 7.798767 34,000 301 421 64
2021-12-04 11:39:40 GMT 51.515450 7.798767 34,000 301 421 64
2021-12-04 11:39:37 GMT 51.513107 7.805192 34,000 301 421 64
2021-12-04 11:39:34 GMT 51.509399 7.815139 34,000 301 422 0
2021-12-04 11:39:31 GMT 51.504559 7.828293 34,000 301 422 0
2021-12-04 11:39:28 GMT 51.501068 7.837753 34,000 301 422 0
2021-12-04 11:39:25 GMT 51.501068 7.837753 34,000 301 422 0
2021-12-04 11:39:22 GMT 51.497761 7.846603 34,000 301 422 -64
2021-12-04 11:39:19 GMT 51.494129 7.856522 34,000 301 422 -64
2021-12-04 11:39:16 GMT 51.491638 7.863242 34,000 301 422 -64
2021-12-04 11:39:13 GMT 51.488266 7.872391 34,000 301 421 0
2021-12-04 11:39:10 GMT 51.486172 7.878036 34,000 301 421 0
2021-12-04 11:39:07 GMT 51.483608 7.885056 34,000 301 421 0
2021-12-04 11:39:03 GMT 51.479652 7.895737 34,000 301 421 0
2021-12-04 11:39:00 GMT 51.475368 7.907257 34,000 301 421 0
2021-12-04 11:38:57 GMT 51.473461 7.912369 34,000 301 421 0
2021-12-04 11:38:54 GMT 51.470581 7.920178 34,000 301 421 0
2021-12-04 11:38:51 GMT 51.467697 7.927898 34,000 301 421 0
2021-12-04 11:38:48 GMT 51.463440 7.939404 34,000 301 421 0
2021-12-04 11:38:45 GMT 51.461033 7.945862 34,000 301 421 0
2021-12-04 11:38:42 GMT 51.458084 7.953879 34,000 301 421 0
2021-12-04 11:38:39 GMT 51.455074 7.961884 34,000 301 421 0
2021-12-04 11:38:35 GMT 51.452225 7.969690 34,000 301 421 0
2021-12-04 11:38:32 GMT 51.448135 7.980652 34,000 301 421 0
2021-12-04 11:38:29 GMT 51.444969 7.989197 34,000 301 419 0
2021-12-04 11:38:26 GMT 51.439316 8.004431 34,000 301 419 0
2021-12-04 11:38:23 GMT 51.439316 8.004431 34,000 301 419 -64
2021-12-04 11:38:20 GMT 51.436359 8.012390 34,000 301 419 0
2021-12-04 11:38:17 GMT 51.433289 8.020706 34,000 301 419 0
2021-12-04 11:38:14 GMT 51.431030 8.026775 34,000 301 419 0
2021-12-04 11:38:11 GMT 51.427563 8.036118 34,000 301 419 0
2021-12-04 11:38:07 GMT 51.423603 8.046799 34,000 301 418 0
2021-12-04 11:38:04 GMT 51.419952 8.056616 34,000 301 418 0
2021-12-04 11:38:01 GMT 51.418671 8.060074 34,000 301 418 64
2021-12-04 11:37:58 GMT 51.414574 8.070984 34,000 301 417 0
2021-12-04 11:37:55 GMT 51.411530 8.079182 34,000 301 418 0
2021-12-04 11:37:52 GMT 51.408566 8.087158 34,000 301 417 0
2021-12-04 11:37:49 GMT 51.405495 8.095398 34,000 301 418 0
2021-12-04 11:37:46 GMT 51.398254 8.114739 34,000 301 417 0
2021-12-04 11:37:42 GMT 51.395996 8.120880 34,000 301 417 0
2021-12-04 11:37:39 GMT 51.395996 8.120880 34,000 301 417 0
2021-12-04 11:37:36 GMT 51.392551 8.130188 34,000 301 417 0
2021-12-04 11:37:33 GMT 51.390381 8.135970 34,000 301 417 0
2021-12-04 11:37:30 GMT 51.387993 8.142319 34,000 301 417 0
2021-12-04 11:37:27 GMT 51.384544 8.151627 34,000 301 417 0
2021-12-04 11:37:25 GMT 51.378571 8.167444 34,000 301 417 64
2021-12-04 11:37:22 GMT 51.378571 8.167444 34,000 301 417 0
2021-12-04 11:37:19 GMT 51.376511 8.173012 34,000 301 417 0
2021-12-04 11:37:16 GMT 51.373653 8.180695 34,000 302 415 0
2021-12-04 11:37:13 GMT 51.369965 8.190456 34,000 301 417 0
2021-12-04 11:37:10 GMT 51.367508 8.197021 34,000 301 416 0
2021-12-04 11:37:07 GMT 51.364929 8.203892 34,000 301 417 0
2021-12-04 11:37:05 GMT 51.362961 8.209163 34,000 302 416 0
2021-12-04 11:37:02 GMT 51.359161 8.219184 34,000 301 416 0
2021-12-04 11:36:59 GMT 51.356709 8.225784 34,000 301 416 0
2021-12-04 11:36:56 GMT 51.353218 8.234940 34,000 301 416 0
2021-12-04 11:36:53 GMT 51.350143 8.243103 34,000 301 416 0
2021-12-04 11:36:50 GMT 51.347580 8.249990 34,000 301 416 0
2021-12-04 11:36:47 GMT 51.344231 8.258896 34,000 301 416 0
2021-12-04 11:36:45 GMT 51.342361 8.263946 34,000 301 416 0
2021-12-04 11:36:42 GMT 51.339764 8.270798 34,000 301 416 0
2021-12-04 11:36:39 GMT 51.337280 8.277307 34,000 301 416 0
2021-12-04 11:36:36 GMT 51.334316 8.285217 34,000 302 415 0
2021-12-04 11:36:33 GMT 51.330185 8.296237 34,000 302 415 0
2021-12-04 11:36:30 GMT 51.328125 8.301804 34,000 302 415 0
2021-12-04 11:36:27 GMT 51.325058 8.309895 34,000 302 415 0
2021-12-04 11:36:25 GMT 51.322166 8.317566 34,000 302 415 0
2021-12-04 11:36:22 GMT 51.320118 8.323059 34,000 302 415 0
2021-12-04 11:36:19 GMT 51.317047 8.331146 34,000 302 413 0
2021-12-04 11:36:16 GMT 51.313889 8.339514 34,000 301 413 0
2021-12-04 11:36:13 GMT 51.310455 8.348719 34,000 302 412 0
2021-12-04 11:36:10 GMT 51.308212 8.354731 34,000 302 413 0
2021-12-04 11:36:07 GMT 51.305267 8.362503 34,000 302 412 0
2021-12-04 11:36:04 GMT 51.301117 8.373438 34,000 302 412 0
2021-12-04 11:36:01 GMT 51.299744 8.377149 34,000 302 410 0
2021-12-04 11:35:58 GMT 51.296188 8.386459 34,000 302 412 0
2021-12-04 11:35:55 GMT 51.292877 8.395336 34,000 302 410 0
2021-12-04 11:35:52 GMT 51.289444 8.404393 34,000 302 410 0
2021-12-04 11:35:49 GMT 51.287300 8.410110 34,000 302 410 0
2021-12-04 11:35:46 GMT 51.284821 8.416567 34,000 302 409 0
2021-12-04 11:35:43 GMT 51.281109 8.426361 34,000 302 410 0
2021-12-04 11:35:40 GMT 51.278961 8.432081 34,000 302 410 0
2021-12-04 11:35:37 GMT 51.274868 8.442917 34,000 302 408 0
2021-12-04 11:35:34 GMT 51.273102 8.447571 34,000 302 407 0
2021-12-04 11:35:31 GMT 51.269989 8.455835 34,000 302 408 0
2021-12-04 11:35:28 GMT 51.267048 8.463593 34,000 302 408 0
2021-12-04 11:35:25 GMT 51.264359 8.470830 34,000 301 408 0
2021-12-04 11:35:22 GMT 51.260437 8.481140 34,000 302 407 0
2021-12-04 11:35:19 GMT 51.257736 8.488312 34,000 302 407 0
2021-12-04 11:35:16 GMT 51.255615 8.493991 34,000 302 407 0
2021-12-04 11:35:13 GMT 51.252594 8.501933 34,000 302 406 0
2021-12-04 11:35:10 GMT 51.249496 8.510132 34,000 302 406 0
2021-12-04 11:35:07 GMT 51.246937 8.516769 34,000 302 406 64
2021-12-04 11:35:04 GMT 51.243958 8.524704 34,000 302 406 64
2021-12-04 11:35:01 GMT 51.237030 8.542835 34,000 302 406 64
2021-12-04 11:34:58 GMT 51.233826 8.551298 34,000 302 406 64
2021-12-04 11:34:55 GMT 51.233826 8.551298 34,000 302 405 0
2021-12-04 11:34:52 GMT 51.231995 8.556137 34,000 302 405 0
2021-12-04 11:34:49 GMT 51.228104 8.566367 34,000 302 405 0
2021-12-04 11:34:46 GMT 51.226128 8.571472 34,000 302 405 0
2021-12-04 11:34:43 GMT 51.223431 8.578568 34,000 302 405 -64
2021-12-04 11:34:40 GMT 51.216431 8.597024 34,000 302 405 -64
2021-12-04 11:34:37 GMT 51.216431 8.597024 34,000 302 405 0
2021-12-04 11:34:34 GMT 51.214691 8.601553 34,000 302 403 0
2021-12-04 11:34:31 GMT 51.211670 8.609495 34,000 302 405 0
2021-12-04 11:34:28 GMT 51.208393 8.618164 34,000 302 405 0
2021-12-04 11:34:25 GMT 51.202713 8.633194 34,000 302 405 0
2021-12-04 11:34:22 GMT 51.202713 8.633194 34,000 302 405 0
2021-12-04 11:34:19 GMT 51.200294 8.639603 34,000 302 404 -64
2021-12-04 11:34:16 GMT 51.196335 8.649979 34,000 302 404 0
2021-12-04 11:34:13 GMT 51.193497 8.657375 34,000 302 403 0
2021-12-04 11:34:10 GMT 51.191586 8.662491 34,000 302 403 0
2021-12-04 11:34:07 GMT 51.187729 8.672593 34,000 302 403 0
2021-12-04 11:34:04 GMT 51.185581 8.678207 34,000 302 403 0
2021-12-04 11:34:01 GMT 51.181812 8.688049 34,000 302 403 64
2021-12-04 11:33:57 GMT 51.177750 8.698722 34,000 302 403 0
2021-12-04 11:33:54 GMT 51.175480 8.704529 34,000 302 403 0
2021-12-04 11:33:51 GMT 51.172874 8.711395 34,000 302 403 0
2021-12-04 11:33:48 GMT 51.169968 8.718913 34,000 302 403 0
2021-12-04 11:33:45 GMT 51.167053 8.726501 34,000 302 403 0
2021-12-04 11:33:42 GMT 51.164429 8.733389 34,000 302 402 0
2021-12-04 11:33:39 GMT 51.160629 8.743187 34,000 302 403 0
2021-12-04 11:33:36 GMT 51.158203 8.749497 34,000 302 403 0
2021-12-04 11:33:33 GMT 51.155777 8.755807 34,000 302 402 0
2021-12-04 11:33:30 GMT 51.152298 8.764877 34,000 302 403 0
2021-12-04 11:33:27 GMT 51.149231 8.772731 34,000 303 402 0
2021-12-04 11:33:24 GMT 51.146576 8.779487 34,000 303 402 0
2021-12-04 11:33:21 GMT 51.143219 8.787994 34,000 303 403 0
2021-12-04 11:33:18 GMT 51.138939 8.798752 34,000 303 403 0
2021-12-04 11:33:15 GMT 51.137329 8.802721 34,000 304 403 0
2021-12-04 11:33:11 GMT 51.132980 8.813411 34,000 304 404 0
2021-12-04 11:33:08 GMT 51.130417 8.819572 34,000 304 403 0
2021-12-04 11:33:05 GMT 51.126755 8.828480 34,000 304 404 0
2021-12-04 11:33:02 GMT 51.125065 8.832397 34,000 305 404 0
2021-12-04 11:32:59 GMT 51.121014 8.842010 34,000 305 404 0
2021-12-04 11:32:56 GMT 51.118378 8.848151 34,000 306 405 0
2021-12-04 11:32:53 GMT 51.114441 8.857133 34,000 306 404 0
2021-12-04 11:32:50 GMT 51.111889 8.862991 34,000 306 405 0
2021-12-04 11:32:47 GMT 51.105103 8.878289 34,000 306 405 0
2021-12-04 11:32:44 GMT 51.105103 8.878289 34,000 306 405 0
2021-12-04 11:32:41 GMT 51.102631 8.883931 34,000 306 405 0
2021-12-04 11:32:38 GMT 51.098110 8.894119 34,000 305 405 0
2021-12-04 11:32:35 GMT 51.092430 8.907013 34,000 305 405 0
2021-12-04 11:32:32 GMT 51.092430 8.907013 34,000 306 404 0
2021-12-04 11:32:29 GMT 51.089447 8.913846 34,000 305 405 -64
2021-12-04 11:32:26 GMT 51.085464 8.922828 34,000 306 404 0
2021-12-04 11:32:23 GMT 51.082764 8.928915 34,000 306 404 0
2021-12-04 11:32:20 GMT 51.079025 8.937378 34,000 306 404 64
2021-12-04 11:32:17 GMT 51.076324 8.943481 34,000 306 404 64
2021-12-04 11:32:14 GMT 51.072693 8.951705 34,000 306 404 64
2021-12-04 11:32:11 GMT 51.070221 8.957272 34,000 306 404 64
2021-12-04 11:32:08 GMT 51.066921 8.964844 34,000 306 404 0
2021-12-04 11:32:05 GMT 51.062943 8.973752 34,000 306 404 0
2021-12-04 11:32:02 GMT 51.059692 8.981026 34,000 306 404 0
2021-12-04 11:31:59 GMT 51.057331 8.986359 34,000 306 404 0
2021-12-04 11:31:56 GMT 51.053143 8.995819 34,000 306 404 0
2021-12-04 11:31:53 GMT 51.049713 9.003593 34,000 306 404 0
2021-12-04 11:31:50 GMT 51.046719 9.010391 34,000 306 404 0
2021-12-04 11:31:47 GMT 51.043270 9.018097 34,000 306 403 0
2021-12-04 11:31:44 GMT 51.040993 9.023209 34,000 306 403 0
2021-12-04 11:31:41 GMT 51.037994 9.029945 34,000 306 403 0
2021-12-04 11:31:38 GMT 51.030029 9.047835 34,000 306 402 0
2021-12-04 11:31:35 GMT 51.030029 9.047835 34,000 306 403 0
2021-12-04 11:31:32 GMT 51.024464 9.060364 34,000 306 403 0
2021-12-04 11:31:28 GMT 51.024464 9.060364 34,000 306 402 0
2021-12-04 11:31:25 GMT 51.020599 9.069065 34,000 306 403 0
2021-12-04 11:31:22 GMT 51.017387 9.076309 34,000 306 403 0
2021-12-04 11:31:19 GMT 51.014191 9.083541 34,000 306 403 64
2021-12-04 11:31:16 GMT 51.010849 9.091038 34,000 306 403 64
2021-12-04 11:31:13 GMT 51.006542 9.100647 34,000 306 403 64
2021-12-04 11:31:10 GMT 51.003204 9.108111 34,000 306 403 0
2021-12-04 11:31:07 GMT 51.001373 9.112268 34,000 306 403 0
2021-12-04 11:31:04 GMT 50.997746 9.120407 34,000 306 403 0
2021-12-04 11:31:01 GMT 50.990067 9.137507 34,000 306 403 0
2021-12-04 11:30:58 GMT 50.990067 9.137507 34,000 306 403 0
2021-12-04 11:30:55 GMT 50.988014 9.142075 34,000 306 403 0
2021-12-04 11:30:52 GMT 50.984711 9.149551 34,000 306 402 0
2021-12-04 11:30:49 GMT 50.981049 9.157773 34,000 306 402 0
2021-12-04 11:30:46 GMT 50.977867 9.164963 34,000 306 402 -64
2021-12-04 11:30:43 GMT 50.976013 9.169056 34,000 306 402 0
2021-12-04 11:30:40 GMT 50.968277 9.186426 34,000 306 402 64
2021-12-04 11:30:37 GMT 50.965622 9.192439 34,000 306 402 0
2021-12-04 11:30:34 GMT 50.965622 9.192439 34,000 306 402 0
2021-12-04 11:30:31 GMT 50.962177 9.200134 34,000 306 402 0
2021-12-04 11:30:28 GMT 50.958965 9.207306 34,000 306 402 64
2021-12-04 11:30:25 GMT 50.956192 9.213521 34,000 306 402 0
2021-12-04 11:30:22 GMT 50.952209 9.222429 34,000 306 402 64
2021-12-04 11:30:18 GMT 50.947887 9.232025 34,000 306 402 64
2021-12-04 11:30:15 GMT 50.945114 9.238240 33,975 306 403 0
2021-12-04 11:30:12 GMT 50.942413 9.244253 34,000 306 403 -64
2021-12-04 11:30:09 GMT 50.938202 9.253606 34,000 306 403 -64
2021-12-04 11:30:06 GMT 50.936050 9.258431 34,000 306 403 -64
2021-12-04 11:30:03 GMT 50.931641 9.268265 34,000 306 403 -64
2021-12-04 11:30:00 GMT 50.928429 9.275513 34,000 306 403 0
2021-12-04 11:29:57 GMT 50.925659 9.281740 34,000 306 403 0
2021-12-04 11:29:53 GMT 50.920486 9.293246 34,000 306 402 0
2021-12-04 11:29:50 GMT 50.918747 9.297106 34,000 306 402 0
2021-12-04 11:29:47 GMT 50.914230 9.307175 34,000 306 402 0
2021-12-04 11:29:44 GMT 50.911240 9.313882 34,000 306 402 0
2021-12-04 11:29:41 GMT 50.909157 9.318466 34,000 306 402 0
2021-12-04 11:29:38 GMT 50.905197 9.327316 34,000 306 402 0
2021-12-04 11:29:35 GMT 50.899147 9.340668 34,000 306 402 0
2021-12-04 11:29:32 GMT 50.899147 9.340668 34,000 306 402 0
2021-12-04 11:29:28 GMT 50.890823 9.359164 34,000 306 402 0
2021-12-04 11:29:25 GMT 50.890823 9.359164 34,000 306 402 0
2021-12-04 11:29:22 GMT 50.888020 9.365387 34,000 306 402 0
2021-12-04 11:29:19 GMT 50.884483 9.373322 34,000 306 402 0
2021-12-04 11:29:16 GMT 50.881226 9.380493 34,000 306 402 0
2021-12-04 11:29:13 GMT 50.877361 9.389114 34,000 306 402 0
2021-12-04 11:29:10 GMT 50.875717 9.392717 34,000 306 402 0
2021-12-04 11:29:06 GMT 50.871094 9.402961 34,000 306 402 0
2021-12-04 11:29:03 GMT 50.867752 9.410384 34,000 306 402 0
2021-12-04 11:29:00 GMT 50.864838 9.416885 34,000 306 402 0
2021-12-04 11:28:57 GMT 50.860428 9.426641 34,000 306 402 0
2021-12-04 11:28:54 GMT 50.857727 9.432653 34,000 306 402 0
2021-12-04 11:28:51 GMT 50.855015 9.438629 34,000 306 402 0
2021-12-04 11:28:48 GMT 50.851547 9.446238 34,000 306 402 0
2021-12-04 11:28:45 GMT 50.848206 9.453661 34,000 306 402 0
2021-12-04 11:28:42 GMT 50.842167 9.467010 34,000 306 402 0
2021-12-04 11:28:39 GMT 50.842167 9.467010 34,000 306 402 0
2021-12-04 11:28:36 GMT 50.838272 9.475634 34,000 306 402 0
2021-12-04 11:28:33 GMT 50.835045 9.482803 34,000 306 402 0
2021-12-04 11:28:30 GMT 50.831692 9.490204 34,000 306 412 0
2021-12-04 11:28:26 GMT 50.828339 9.497604 34,000 306 402 -64
2021-12-04 11:28:23 GMT 50.824894 9.505310 34,000 306 402 0
2021-12-04 11:28:20 GMT 50.821243 9.513418 34,000 306 402 0
2021-12-04 11:28:17 GMT 50.817444 9.521732 34,000 306 402 0
2021-12-04 11:28:14 GMT 50.814838 9.527512 34,000 306 402 0
2021-12-04 11:28:11 GMT 50.810741 9.536591 34,000 306 402 0
2021-12-04 11:28:08 GMT 50.809162 9.540176 34,000 306 402 0
2021-12-04 11:28:05 GMT 50.805038 9.549198 34,000 306 402 -64
2021-12-04 11:28:02 GMT 50.801388 9.557343 34,000 306 402 0
2021-12-04 11:27:59 GMT 50.798454 9.563751 34,000 306 402 0
2021-12-04 11:27:55 GMT 50.793915 9.573768 34,000 306 402 0
2021-12-04 11:27:52 GMT 50.791214 9.579781 34,000 306 402 0
2021-12-04 11:27:49 GMT 50.787560 9.587860 34,000 306 402 0
2021-12-04 11:27:45 GMT 50.783752 9.596186 34,000 306 402 0
2021-12-04 11:27:42 GMT 50.779881 9.604797 34,000 306 402 0
2021-12-04 11:27:39 GMT 50.776947 9.611206 34,000 306 402 0
2021-12-04 11:27:35 GMT 50.772491 9.620980 34,000 306 402 0
2021-12-04 11:27:32 GMT 50.769360 9.627914 34,000 306 402 0
2021-12-04 11:27:29 GMT 50.766193 9.634781 34,000 306 402 0
2021-12-04 11:27:26 GMT 50.761955 9.644089 34,000 306 402 0
2021-12-04 11:27:23 GMT 50.759678 9.649124 34,000 306 402 0
2021-12-04 11:27:20 GMT 50.755486 9.658356 34,000 306 402 0
2021-12-04 11:27:17 GMT 50.753063 9.663620 34,000 306 402 0
2021-12-04 11:27:14 GMT 50.745163 9.681034 34,000 306 402 0
2021-12-04 11:27:11 GMT 50.745163 9.681034 34,000 306 402 0
2021-12-04 11:27:08 GMT 50.744202 9.683186 34,000 306 402 0
2021-12-04 11:27:05 GMT 50.740402 9.691500 34,000 306 402 0
2021-12-04 11:27:02 GMT 50.737469 9.697876 34,000 306 402 0
2021-12-04 11:26:59 GMT 50.733215 9.707163 34,000 306 402 0
2021-12-04 11:26:56 GMT 50.729977 9.714355 34,000 306 402 0
2021-12-04 11:26:53 GMT 50.722229 9.731214 34,000 306 402 0
2021-12-04 11:26:49 GMT 50.722229 9.731214 34,000 306 402 0
2021-12-04 11:26:45 GMT 50.718018 9.740493 34,000 306 402 0
2021-12-04 11:26:42 GMT 50.714859 9.747397 34,000 306 402 0
2021-12-04 11:26:39 GMT 50.711609 9.754523 34,000 306 403 0
2021-12-04 11:26:35 GMT 50.706280 9.766159 34,000 306 402 0
2021-12-04 11:26:31 GMT 50.702927 9.773560 34,000 306 402 0
2021-12-04 11:26:28 GMT 50.700623 9.778574 34,000 306 402 0
2021-12-04 11:26:25 GMT 50.695862 9.789041 34,000 306 402 0
2021-12-04 11:26:22 GMT 50.694221 9.792557 34,000 306 403 0
2021-12-04 11:26:19 GMT 50.689987 9.801865 34,000 306 402 0
2021-12-04 11:26:16 GMT 50.687851 9.806560 34,000 306 403 0
2021-12-04 11:26:13 GMT 50.683052 9.817047 34,000 306 403 0
2021-12-04 11:26:09 GMT 50.678925 9.826083 34,000 306 403 0
2021-12-04 11:26:06 GMT 50.676300 9.831772 34,000 306 403 0
2021-12-04 11:26:03 GMT 50.672836 9.839370 34,000 306 403 0
2021-12-04 11:26:00 GMT 50.669678 9.846280 34,000 306 403 0
2021-12-04 11:25:57 GMT 50.665833 9.854592 34,000 306 403 0
2021-12-04 11:25:54 GMT 50.662380 9.862160 34,000 306 403 0
2021-12-04 11:25:51 GMT 50.660294 9.866662 34,000 306 403 0
2021-12-04 11:25:48 GMT 50.656036 9.875986 34,000 306 403 0
2021-12-04 11:25:45 GMT 50.653107 9.882347 34,000 306 403 0
2021-12-04 11:25:42 GMT 50.644592 9.900922 34,000 306 403 0
2021-12-04 11:25:38 GMT 50.644592 9.900922 34,000 306 404 0
2021-12-04 11:25:35 GMT 50.641525 9.907589 34,000 306 403 0
2021-12-04 11:25:32 GMT 50.638275 9.914727 34,000 306 403 0
2021-12-04 11:25:29 GMT 50.636078 9.919426 34,000 306 403 0
2021-12-04 11:25:26 GMT 50.632355 9.927558 34,000 307 403 0
2021-12-04 11:25:23 GMT 50.628433 9.936122 34,000 306 403 0
2021-12-04 11:25:20 GMT 50.622021 9.950124 34,000 306 403 0
2021-12-04 11:25:17 GMT 50.622021 9.950124 34,000 306 403 0
2021-12-04 11:25:14 GMT 50.618202 9.958438 34,000 307 403 0
2021-12-04 11:25:11 GMT 50.611862 9.972189 34,000 306 403 0
2021-12-04 11:25:08 GMT 50.611862 9.972189 34,000 306 403 0
2021-12-04 11:25:05 GMT 50.609528 9.977104 34,000 306 403 0
2021-12-04 11:25:02 GMT 50.606472 9.983751 34,000 307 403 0
2021-12-04 11:24:59 GMT 50.603302 9.990620 34,000 307 403 0
2021-12-04 11:24:56 GMT 50.598930 10.000082 34,000 307 403 0
2021-12-04 11:24:53 GMT 50.596756 10.004859 34,000 307 403 0
2021-12-04 11:24:50 GMT 50.594044 10.010772 34,000 307 403 0
2021-12-04 11:24:47 GMT 50.589668 10.020199 34,000 307 403 64
2021-12-04 11:24:44 GMT 50.585617 10.028959 34,000 307 403 0
2021-12-04 11:24:41 GMT 50.579956 10.041287 34,000 307 403 64
2021-12-04 11:24:38 GMT 50.579956 10.041287 34,000 307 403 64
2021-12-04 11:24:35 GMT 50.576027 10.049744 34,000 307 403 64
2021-12-04 11:24:32 GMT 50.572952 10.056393 34,000 306 403 0
2021-12-04 11:24:29 GMT 50.570572 10.061597 34,000 307 403 0
2021-12-04 11:24:26 GMT 50.567184 10.068897 34,000 306 403 -64
2021-12-04 11:24:23 GMT 50.563980 10.075764 34,000 306 403 0
2021-12-04 11:24:21 GMT 50.560822 10.082630 34,000 306 403 0
2021-12-04 11:24:18 GMT 50.558338 10.088122 34,000 306 403 0
2021-12-04 11:24:15 GMT 50.550751 10.104458 34,000 306 403 0
2021-12-04 11:24:12 GMT 50.550751 10.104458 34,000 306 403 0
2021-12-04 11:24:09 GMT 50.547909 10.110614 34,000 306 403 0
2021-12-04 11:24:06 GMT 50.545074 10.116746 34,000 306 403 -64
2021-12-04 11:24:03 GMT 50.541229 10.124986 34,000 306 403 0
2021-12-04 11:23:59 GMT 50.537430 10.133298 34,000 307 403 0
2021-12-04 11:23:56 GMT 50.534454 10.139713 34,000 307 403 0
2021-12-04 11:23:53 GMT 50.530827 10.147507 34,000 307 403 0
2021-12-04 11:23:50 GMT 50.523926 10.162354 34,000 307 403 0
2021-12-04 11:23:47 GMT 50.523926 10.162354 34,000 307 403 64
2021-12-04 11:23:44 GMT 50.521271 10.168064 34,000 307 403 64
2021-12-04 11:23:41 GMT 50.517471 10.176303 34,000 307 403 0
2021-12-04 11:23:37 GMT 50.512066 10.187889 34,000 306 403 0
2021-12-04 11:23:34 GMT 50.510017 10.192417 34,000 306 403 0
2021-12-04 11:23:31 GMT 50.506058 10.200880 34,000 307 404 0
2021-12-04 11:23:28 GMT 50.503647 10.206082 34,000 307 404 0
2021-12-04 11:23:25 GMT 50.497074 10.220254 34,000 307 403 0
2021-12-04 11:23:22 GMT 50.493759 10.227404 34,000 307 403 0
2021-12-04 11:23:19 GMT 50.493759 10.227404 34,000 307 403 0
2021-12-04 11:23:16 GMT 50.489685 10.236078 34,000 307 404 0
2021-12-04 11:23:12 GMT 50.486252 10.243450 34,000 307 403 0
2021-12-04 11:23:09 GMT 50.481766 10.253135 34,000 307 403 0
2021-12-04 11:23:06 GMT 50.479019 10.258990 34,000 307 403 0
2021-12-04 11:23:03 GMT 50.476364 10.264700 34,000 307 403 0
2021-12-04 11:23:00 GMT 50.472977 10.272000 34,000 307 403 0
2021-12-04 11:22:57 GMT 50.468445 10.281685 34,000 307 403 0
2021-12-04 11:22:54 GMT 50.465057 10.288985 34,000 307 403 0
2021-12-04 11:22:50 GMT 50.461853 10.295780 34,000 307 403 0
2021-12-04 11:22:47 GMT 50.457924 10.304285 34,000 307 402 0
2021-12-04 11:22:44 GMT 50.455734 10.309036 34,000 307 403 0
2021-12-04 11:22:41 GMT 50.450867 10.319342 34,000 307 402 0
2021-12-04 11:22:38 GMT 50.447937 10.325703 34,000 307 402 0
2021-12-04 11:22:35 GMT 50.445961 10.329969 34,000 307 402 0
2021-12-04 11:22:32 GMT 50.442215 10.337918 34,000 307 402 0
2021-12-04 11:22:29 GMT 50.437347 10.348305 34,000 307 402 0
2021-12-04 11:22:26 GMT 50.435066 10.353204 34,000 307 402 0
2021-12-04 11:22:23 GMT 50.432739 10.358156 34,000 307 402 0
2021-12-04 11:22:20 GMT 50.428318 10.367605 34,000 307 402 0
2021-12-04 11:22:17 GMT 50.425461 10.373696 34,000 307 402 0
2021-12-04 11:22:14 GMT 50.422302 10.380490 34,000 307 402 0
2021-12-04 11:22:10 GMT 50.417236 10.391285 34,000 307 400 0
2021-12-04 11:22:07 GMT 50.414154 10.397837 34,000 307 402 0
2021-12-04 11:22:04 GMT 50.408207 10.410511 34,000 307 402 0
2021-12-04 11:22:01 GMT 50.408207 10.410511 34,000 307 402 0
2021-12-04 11:21:59 GMT 50.405365 10.416557 34,000 307 402 0
2021-12-04 11:21:55 GMT 50.400990 10.425951 34,000 307 402 0
2021-12-04 11:21:52 GMT 50.398243 10.431815 34,000 307 402 0
2021-12-04 11:21:50 GMT 50.396011 10.436492 34,000 307 402 0
2021-12-04 11:21:47 GMT 50.391960 10.445177 34,000 307 402 0
2021-12-04 11:21:44 GMT 50.389214 10.451042 34,000 307 402 0
2021-12-04 11:21:41 GMT 50.384857 10.460358 34,000 307 402 0
2021-12-04 11:21:38 GMT 50.381653 10.467152 34,000 307 401 0
2021-12-04 11:21:35 GMT 50.378132 10.474647 34,000 307 401 0
2021-12-04 11:21:32 GMT 50.376068 10.479078 34,000 307 401 0
2021-12-04 11:21:29 GMT 50.369293 10.493533 34,000 307 400 0
2021-12-04 11:21:26 GMT 50.369293 10.493533 34,000 307 400 0
2021-12-04 11:21:23 GMT 50.366867 10.498665 34,000 307 400 0
2021-12-04 11:21:20 GMT 50.360092 10.513193 34,000 307 400 0
2021-12-04 11:21:18 GMT 50.360092 10.513193 34,000 307 400 0
2021-12-04 11:21:15 GMT 50.357231 10.519186 34,000 307 400 0
2021-12-04 11:21:11 GMT 50.353958 10.526203 34,000 307 400 0
2021-12-04 11:21:08 GMT 50.350113 10.534371 34,000 307 400 0
2021-12-04 11:21:05 GMT 50.345734 10.543683 34,000 307 400 0
2021-12-04 11:21:02 GMT 50.342651 10.550200 34,000 307 400 0
2021-12-04 11:20:59 GMT 50.339264 10.557428 34,000 307 400 0
2021-12-04 11:20:55 GMT 50.334656 10.567215 34,000 307 400 0
2021-12-04 11:20:52 GMT 50.331722 10.573450 34,000 307 400 0
2021-12-04 11:20:50 GMT 50.325668 10.586292 34,000 307 400 0
2021-12-04 11:20:47 GMT 50.325668 10.586292 34,000 307 400 0
2021-12-04 11:20:44 GMT 50.323154 10.591637 34,000 307 400 0
2021-12-04 11:20:41 GMT 50.319103 10.600248 34,000 307 401 0
2021-12-04 11:20:38 GMT 50.316788 10.605131 34,000 307 401 0
2021-12-04 11:20:35 GMT 50.313400 10.612359 34,000 307 401 0
2021-12-04 11:20:32 GMT 50.309235 10.621181 34,000 307 400 0
2021-12-04 11:20:28 GMT 50.305939 10.628116 34,000 307 400 0
2021-12-04 11:20:25 GMT 50.302208 10.636028 34,000 307 400 0
2021-12-04 11:20:22 GMT 50.299229 10.642337 34,000 307 400 0
2021-12-04 11:20:19 GMT 50.294712 10.651839 34,000 307 400 0
2021-12-04 11:20:16 GMT 50.288818 10.664400 34,000 307 400 0
2021-12-04 11:20:13 GMT 50.288818 10.664400 34,000 307 400 0
2021-12-04 11:20:10 GMT 50.286713 10.668809 34,000 307 400 0
2021-12-04 11:20:07 GMT 50.283306 10.675964 34,000 307 400 0
2021-12-04 11:20:04 GMT 50.279675 10.683684 34,000 307 400 0
2021-12-04 11:20:01 GMT 50.275955 10.691504 34,000 307 400 0
2021-12-04 11:19:58 GMT 50.272064 10.699672 34,000 307 400 0
2021-12-04 11:19:55 GMT 50.268784 10.706622 34,000 307 400 0
2021-12-04 11:19:52 GMT 50.266159 10.712176 34,000 307 400 0
2021-12-04 11:19:49 GMT 50.263382 10.717980 34,000 307 400 0
2021-12-04 11:19:46 GMT 50.259888 10.725403 34,000 307 400 0
2021-12-04 11:19:43 GMT 50.257004 10.731416 34,000 307 400 0
2021-12-04 11:19:40 GMT 50.253479 10.738847 34,000 307 400 0
2021-12-04 11:19:37 GMT 50.250301 10.745594 34,000 307 400 0
2021-12-04 11:19:34 GMT 50.246902 10.752794 34,000 307 401 0
2021-12-04 11:19:31 GMT 50.243362 10.760241 34,000 307 401 0
2021-12-04 11:19:28 GMT 50.239975 10.767397 34,000 307 401 0
2021-12-04 11:19:25 GMT 50.235672 10.776504 34,000 307 401 0
2021-12-04 11:19:22 GMT 50.232845 10.782487 34,000 307 401 0
2021-12-04 11:19:19 GMT 50.230087 10.788357 34,000 307 401 0
2021-12-04 11:19:15 GMT 50.225349 10.798299 34,000 307 401 0
2021-12-04 11:19:12 GMT 50.222694 10.803866 34,000 307 401 0
2021-12-04 11:19:09 GMT 50.218964 10.811776 34,000 307 401 0
2021-12-04 11:19:06 GMT 50.215202 10.819677 34,000 307 401 0
2021-12-04 11:19:03 GMT 50.212555 10.825219 34,000 307 401 0
2021-12-04 11:19:00 GMT 50.209244 10.832148 34,000 307 401 0
2021-12-04 11:18:57 GMT 50.204960 10.841205 34,000 307 401 0
2021-12-04 11:18:54 GMT 50.201752 10.847915 34,000 307 401 0
2021-12-04 11:18:51 GMT 50.197769 10.856227 34,000 307 400 0
2021-12-04 11:18:48 GMT 50.196671 10.858540 34,000 307 400 0
2021-12-04 11:18:45 GMT 50.192715 10.866889 34,000 307 400 0
2021-12-04 11:18:42 GMT 50.189411 10.873792 34,000 307 400 0
2021-12-04 11:18:39 GMT 50.185547 10.881886 34,000 307 400 0
2021-12-04 11:18:35 GMT 50.181126 10.891163 34,000 307 400 0
2021-12-04 11:18:32 GMT 50.177586 10.898512 34,000 307 400 0
2021-12-04 11:18:29 GMT 50.173397 10.907345 34,000 307 400 0
2021-12-04 11:18:26 GMT 50.171310 10.911664 34,000 307 400 0
2021-12-04 11:18:23 GMT 50.165112 10.924641 34,000 307 400 0
2021-12-04 11:18:20 GMT 50.165112 10.924641 34,000 307 400 0
2021-12-04 11:18:17 GMT 50.161247 10.932658 34,000 307 400 0
2021-12-04 11:18:14 GMT 50.153519 10.948841 34,000 307 400 0
2021-12-04 11:18:10 GMT 50.153519 10.948841 34,000 307 400 0
2021-12-04 11:18:07 GMT 50.150448 10.955299 34,000 307 400 0
2021-12-04 11:18:04 GMT 50.147236 10.961980 34,000 307 400 0
2021-12-04 11:18:01 GMT 50.143707 10.969343 34,000 307 400 0
2021-12-04 11:17:59 GMT 50.142151 10.972595 34,000 307 400 0
2021-12-04 11:17:55 GMT 50.136658 10.984087 34,000 307 398 0
2021-12-04 11:17:52 GMT 50.130939 10.996053 34,000 307 398 0
2021-12-04 11:17:49 GMT 50.126984 11.004366 34,000 307 398 0
2021-12-04 11:17:46 GMT 50.126984 11.004366 34,000 307 398 0
2021-12-04 11:17:43 GMT 50.123352 11.011938 34,000 307 398 0
2021-12-04 11:17:40 GMT 50.120934 11.016986 34,000 307 398 0
2021-12-04 11:17:37 GMT 50.117302 11.024558 34,000 307 398 0
2021-12-04 11:17:34 GMT 50.114555 11.030348 34,000 307 398 0
2021-12-04 11:17:31 GMT 50.110226 11.039256 34,000 307 398 0
2021-12-04 11:17:28 GMT 50.107059 11.045936 34,000 307 398 0
2021-12-04 11:17:25 GMT 50.100357 11.059892 34,000 307 398 0
2021-12-04 11:17:22 GMT 50.100357 11.059892 34,000 307 398 0
2021-12-04 11:17:19 GMT 50.098030 11.064717 34,000 307 398 0
2021-12-04 11:17:16 GMT 50.094727 11.071617 34,000 307 395 0
2021-12-04 11:17:13 GMT 50.090347 11.080751 34,000 307 398 0
2021-12-04 11:17:10 GMT 50.084839 11.092216 34,000 307 398 0
2021-12-04 11:17:07 GMT 50.084839 11.092216 34,000 307 397 0
2021-12-04 11:17:04 GMT 50.080765 11.100673 34,000 307 397 0
2021-12-04 11:17:00 GMT 50.077267 11.107920 34,000 307 397 0
2021-12-04 11:16:57 GMT 50.073635 11.115492 34,000 307 397 0
2021-12-04 11:16:54 GMT 50.069687 11.123730 34,000 307 397 0
2021-12-04 11:16:51 GMT 50.066792 11.129670 34,000 307 397 0
2021-12-04 11:16:48 GMT 50.063278 11.136956 34,000 307 397 0
2021-12-04 11:16:45 GMT 50.060555 11.142661 34,000 307 397 0
2021-12-04 11:16:42 GMT 50.057156 11.149713 34,000 307 397 0
2021-12-04 11:16:39 GMT 50.053986 11.156399 34,000 307 397 0
2021-12-04 11:16:36 GMT 50.049568 11.165450 34,000 307 395 0
2021-12-04 11:16:33 GMT 50.047165 11.170494 34,000 307 397 0
2021-12-04 11:16:30 GMT 50.042770 11.179628 34,000 307 395 0
2021-12-04 11:16:27 GMT 50.040024 11.185270 34,000 307 395 0
2021-12-04 11:16:24 GMT 50.036087 11.193478 34,000 307 395 0
2021-12-04 11:16:21 GMT 50.033798 11.198249 34,000 307 395 0
2021-12-04 11:16:18 GMT 50.030502 11.205043 34,000 307 395 0
2021-12-04 11:16:15 GMT 50.028214 11.209813 34,000 307 395 64
2021-12-04 11:16:12 GMT 50.024689 11.217113 34,000 307 395 64
2021-12-04 11:16:09 GMT 50.016815 11.233448 34,000 307 395 64
2021-12-04 11:16:06 GMT 50.016815 11.233448 34,000 307 395 0
2021-12-04 11:16:03 GMT 50.013489 11.240201 34,000 307 395 0
2021-12-04 11:16:00 GMT 50.010864 11.245663 34,000 307 395 0
2021-12-04 11:15:57 GMT 50.007580 11.252450 34,000 307 395 0
2021-12-04 11:15:54 GMT 50.003761 11.260392 34,000 307 395 0
2021-12-04 11:15:50 GMT 49.999374 11.269443 34,000 307 395 0
2021-12-04 11:15:47 GMT 49.997059 11.274200 34,000 307 395 0
2021-12-04 11:15:44 GMT 49.993790 11.280935 34,000 307 395 -64
2021-12-04 11:15:41 GMT 49.990402 11.288018 34,000 307 395 0
2021-12-04 11:15:38 GMT 49.985558 11.297954 34,000 307 395 0
2021-12-04 11:15:35 GMT 49.983276 11.302705 34,000 307 394 0
2021-12-04 11:15:32 GMT 49.976944 11.315773 34,000 307 393 0
2021-12-04 11:15:29 GMT 49.976944 11.315773 34,000 307 394 0
2021-12-04 11:15:26 GMT 49.972664 11.324603 34,000 307 394 0
2021-12-04 11:15:23 GMT 49.971172 11.327721 34,000 307 394 0
2021-12-04 11:15:20 GMT 49.964172 11.342155 34,000 308 393 0
2021-12-04 11:15:17 GMT 49.964172 11.342155 34,000 308 393 0
2021-12-04 11:15:14 GMT 49.961121 11.348432 34,000 308 393 0
2021-12-04 11:15:11 GMT 49.956604 11.357636 34,000 308 393 0
2021-12-04 11:15:08 GMT 49.953671 11.363723 34,000 308 393 0
2021-12-04 11:15:05 GMT 49.951061 11.369142 34,000 308 393 0
2021-12-04 11:15:02 GMT 49.946453 11.378570 34,000 308 393 0
2021-12-04 11:14:58 GMT 49.943382 11.384879 34,000 307 392 -64
2021-12-04 11:14:55 GMT 49.940140 11.391594 34,000 307 392 0
2021-12-04 11:14:52 GMT 49.935749 11.400617 34,000 307 392 0
2021-12-04 11:14:49 GMT 49.932495 11.407350 34,000 308 392 0
2021-12-04 11:14:46 GMT 49.930298 11.411832 34,000 307 392 0
2021-12-04 11:14:43 GMT 49.927040 11.418507 34,000 307 392 0
2021-12-04 11:14:39 GMT 49.922882 11.427082 34,000 308 392 0
2021-12-04 11:14:36 GMT 49.919495 11.434021 34,000 308 392 0
2021-12-04 11:14:33 GMT 49.915009 11.443200 34,000 308 392 0
2021-12-04 11:14:29 GMT 49.910339 11.452813 34,000 308 392 0
2021-12-04 11:14:26 GMT 49.908234 11.457107 34,000 308 392 0
2021-12-04 11:14:23 GMT 49.904884 11.464011 34,000 308 392 0
2021-12-04 11:14:20 GMT 49.901367 11.471172 34,000 308 392 0
2021-12-04 11:14:17 GMT 49.898972 11.476111 34,000 308 392 0
2021-12-04 11:14:14 GMT 49.894638 11.485122 34,000 308 392 0
2021-12-04 11:14:11 GMT 49.891476 11.491625 34,000 308 392 0
2021-12-04 11:14:08 GMT 49.888729 11.497192 34,000 308 392 0
2021-12-04 11:14:05 GMT 49.884495 11.505952 34,000 308 392 0
2021-12-04 11:14:01 GMT 49.880863 11.513301 34,000 308 392 0
2021-12-04 11:13:57 GMT 49.876392 11.522431 34,000 308 392 0
2021-12-04 11:13:54 GMT 49.872112 11.531191 34,000 308 392 0
2021-12-04 11:13:50 GMT 49.869503 11.536535 34,000 308 392 0
2021-12-04 11:13:47 GMT 49.865479 11.544824 34,000 308 392 0
2021-12-04 11:13:44 GMT 49.862705 11.550417 34,000 308 392 0
2021-12-04 11:13:41 GMT 49.857925 11.560219 34,000 308 392 0
2021-12-04 11:13:38 GMT 49.855724 11.564669 34,000 308 392 0
2021-12-04 11:13:34 GMT 49.851254 11.573874 34,000 308 392 0
2021-12-04 11:13:31 GMT 49.848083 11.580313 34,000 308 392 0
2021-12-04 11:13:28 GMT 49.844009 11.588625 34,000 308 392 0
2021-12-04 11:13:25 GMT 49.841080 11.594624 34,000 308 392 0
2021-12-04 11:13:22 GMT 49.838223 11.600449 34,000 308 392 0
2021-12-04 11:13:18 GMT 49.833099 11.610916 34,000 308 392 0
2021-12-04 11:13:14 GMT 49.829700 11.617819 34,000 308 392 0
2021-12-04 11:13:11 GMT 49.825653 11.626133 34,000 308 392 0
2021-12-04 11:13:08 GMT 49.822586 11.632353 34,000 308 392 0
2021-12-04 11:13:05 GMT 49.818832 11.639942 34,000 308 392 0
2021-12-04 11:13:02 GMT 49.816086 11.645580 34,000 308 392 0
2021-12-04 11:12:58 GMT 49.811920 11.654044 34,000 308 392 0
2021-12-04 11:12:55 GMT 49.808521 11.660948 34,000 308 392 0
2021-12-04 11:12:52 GMT 49.805237 11.667625 34,000 308 392 0
2021-12-04 11:12:48 GMT 49.799999 11.678393 34,000 308 392 0
2021-12-04 11:12:45 GMT 49.796722 11.685044 34,000 308 393 0
2021-12-04 11:12:42 GMT 49.794090 11.690418 34,000 308 393 0
2021-12-04 11:12:39 GMT 49.791779 11.695091 34,000 308 392 0
2021-12-04 11:12:36 GMT 49.788574 11.701524 34,000 308 392 0
2021-12-04 11:12:33 GMT 49.784870 11.709125 34,000 308 392 0
2021-12-04 11:12:28 GMT 49.776073 11.726940 34,000 308 391 0
2021-12-04 11:12:25 GMT 49.776073 11.726940 34,000 308 391 0
2021-12-04 11:12:22 GMT 49.772461 11.734266 34,000 308 392 0
2021-12-04 11:12:19 GMT 49.768204 11.742939 34,000 308 391 0
2021-12-04 11:12:16 GMT 49.764668 11.750101 34,000 308 391 0
2021-12-04 11:12:13 GMT 49.762386 11.754777 34,000 308 391 0
2021-12-04 11:12:09 GMT 49.757641 11.764279 34,000 308 391 0
2021-12-04 11:12:06 GMT 49.753922 11.771851 34,000 308 391 0
2021-12-04 11:12:03 GMT 49.751213 11.777418 34,000 308 391 0
2021-12-04 11:12:00 GMT 49.748886 11.782095 34,000 308 391 0
2021-12-04 11:11:57 GMT 49.744492 11.790932 34,000 308 391 0
2021-12-04 11:11:54 GMT 49.741764 11.796496 34,000 308 391 0
2021-12-04 11:11:51 GMT 49.738724 11.802713 34,000 308 391 0
2021-12-04 11:11:48 GMT 49.735760 11.808670 34,000 308 391 0
2021-12-04 11:11:45 GMT 49.731709 11.816909 34,000 308 391 0
2021-12-04 11:11:42 GMT 49.728962 11.822403 34,000 308 391 0
2021-12-04 11:11:39 GMT 49.725266 11.829962 34,000 308 391 0
2021-12-04 11:11:36 GMT 49.721970 11.836612 34,000 308 390 0
2021-12-04 11:11:33 GMT 49.718487 11.843707 34,000 308 389 -64
2021-12-04 11:11:29 GMT 49.713913 11.852947 34,000 308 389 0
2021-12-04 11:11:25 GMT 49.710754 11.859380 34,000 308 389 0
2021-12-04 11:11:22 GMT 49.707367 11.866246 34,000 308 389 0
2021-12-04 11:11:19 GMT 49.704117 11.872824 34,000 308 388 0
2021-12-04 11:11:16 GMT 49.699493 11.882085 34,000 308 388 0
2021-12-04 11:11:13 GMT 49.694050 11.893071 34,000 308 388 0
2021-12-04 11:11:10 GMT 49.694050 11.893071 34,000 308 388 0
2021-12-04 11:11:07 GMT 49.690338 11.900579 34,000 308 388 0
2021-12-04 11:11:04 GMT 49.687065 11.907175 34,000 308 388 0
2021-12-04 11:11:01 GMT 49.684273 11.912891 34,000 308 388 0
2021-12-04 11:10:58 GMT 49.681412 11.918576 34,000 308 388 0
2021-12-04 11:10:55 GMT 49.677708 11.926030 34,000 308 388 0
2021-12-04 11:10:52 GMT 49.673473 11.934641 34,000 308 388 0
2021-12-04 11:10:49 GMT 49.671284 11.939021 34,000 308 388 0
2021-12-04 11:10:46 GMT 49.663971 11.953703 34,000 308 388 0
2021-12-04 11:10:43 GMT 49.663971 11.953703 34,000 308 388 0
2021-12-04 11:10:40 GMT 49.661369 11.958989 34,000 308 388 0
2021-12-04 11:10:37 GMT 49.657837 11.965991 34,000 308 388 0
2021-12-04 11:10:34 GMT 49.653580 11.974592 34,000 308 388 0
2021-12-04 11:10:31 GMT 49.651546 11.978735 34,000 308 388 0
2021-12-04 11:10:28 GMT 49.648239 11.985342 34,000 308 388 0
2021-12-04 11:10:25 GMT 49.644745 11.992300 34,000 308 388 0
2021-12-04 11:10:22 GMT 49.640930 11.999965 34,000 308 388 0
2021-12-04 11:10:19 GMT 49.638885 12.004197 34,000 308 388 0
2021-12-04 11:10:16 GMT 49.633762 12.014441 34,000 308 388 0
2021-12-04 11:10:13 GMT 49.631561 12.018826 34,000 308 388 0
2021-12-04 11:10:10 GMT 49.629295 12.023423 34,000 308 388 0
2021-12-04 11:10:07 GMT 49.623734 12.034583 34,000 308 388 0
2021-12-04 11:10:03 GMT 49.621124 12.039859 34,000 308 388 0
2021-12-04 11:10:00 GMT 49.618259 12.045544 34,000 308 388 0
2021-12-04 11:09:57 GMT 49.614349 12.053448 34,000 308 388 0
2021-12-04 11:09:54 GMT 49.606934 12.068337 34,000 308 388 0
2021-12-04 11:09:51 GMT 49.606934 12.068337 34,000 308 388 0
2021-12-04 11:09:48 GMT 49.603638 12.074914 34,000 308 388 0
2021-12-04 11:09:45 GMT 49.601269 12.079690 34,000 308 388 0
2021-12-04 11:09:42 GMT 49.596752 12.088673 34,000 308 388 0
2021-12-04 11:09:39 GMT 49.594147 12.093943 34,000 308 388 0
2021-12-04 11:09:36 GMT 49.591507 12.099200 34,000 308 388 0
2021-12-04 11:09:32 GMT 49.586838 12.108596 34,000 308 388 0
2021-12-04 11:09:29 GMT 49.582352 12.117631 34,000 308 389 0
2021-12-04 11:09:26 GMT 49.580368 12.121557 34,000 308 389 0
2021-12-04 11:09:23 GMT 49.575989 12.130280 34,000 308 389 0
2021-12-04 11:09:20 GMT 49.573898 12.134474 34,000 308 389 0
2021-12-04 11:09:17 GMT 49.569847 12.142565 34,000 308 390 0
2021-12-04 11:09:14 GMT 49.567200 12.147843 34,000 308 390 0
2021-12-04 11:09:11 GMT 49.562943 12.156372 34,000 308 390 0
2021-12-04 11:09:07 GMT 49.559509 12.163166 34,000 308 390 0
2021-12-04 11:09:04 GMT 49.556580 12.169066 34,000 308 390 0
2021-12-04 11:09:01 GMT 49.553368 12.175450 34,000 308 390 0
2021-12-04 11:08:58 GMT 49.549549 12.183096 34,000 308 390 0
2021-12-04 11:08:55 GMT 49.546803 12.188589 34,000 308 390 0
2021-12-04 11:08:52 GMT 49.542847 12.196487 34,000 308 390 0
2021-12-04 11:08:49 GMT 49.535934 12.210364 34,000 308 390 0
2021-12-04 11:08:46 GMT 49.535934 12.210364 34,000 308 390 0
2021-12-04 11:08:43 GMT 49.533920 12.214267 34,000 308 390 0
2021-12-04 11:08:40 GMT 49.530762 12.220628 34,000 308 390 0
2021-12-04 11:08:37 GMT 49.526230 12.229662 34,000 308 390 0
2021-12-04 11:08:34 GMT 49.523621 12.234939 34,000 308 390 0
2021-12-04 11:08:31 GMT 49.515564 12.250912 34,000 308 390 0
2021-12-04 11:08:28 GMT 49.515564 12.250912 34,000 308 390 0
2021-12-04 11:08:25 GMT 49.512726 12.256622 34,000 308 390 0
2021-12-04 11:08:22 GMT 49.509109 12.263922 34,000 308 390 0
2021-12-04 11:08:19 GMT 49.506023 12.270021 34,000 308 390 0
2021-12-04 11:08:15 GMT 49.502289 12.277511 34,000 308 390 0
2021-12-04 11:08:12 GMT 49.499634 12.282787 34,000 308 390 0
2021-12-04 11:08:09 GMT 49.494663 12.292588 34,000 308 390 0
2021-12-04 11:08:06 GMT 49.491592 12.298749 34,000 308 390 0
2021-12-04 11:08:03 GMT 49.489838 12.302230 34,000 308 390 0
2021-12-04 11:08:00 GMT 49.485401 12.310997 34,000 308 390 0
2021-12-04 11:07:57 GMT 49.483337 12.315168 34,000 308 390 0
2021-12-04 11:07:54 GMT 49.479034 12.323697 34,000 308 390 0
2021-12-04 11:07:51 GMT 49.475830 12.330057 34,000 308 390 0
2021-12-04 11:07:48 GMT 49.472626 12.336418 34,000 308 390 0
2021-12-04 11:07:45 GMT 49.468410 12.344699 34,000 308 390 0
2021-12-04 11:07:42 GMT 49.466309 12.348922 34,000 308 390 0
2021-12-04 11:07:39 GMT 49.462124 12.357169 34,000 308 390 0
2021-12-04 11:07:36 GMT 49.458679 12.363999 34,000 308 390 0
2021-12-04 11:07:33 GMT 49.455517 12.370309 34,000 308 390 0
2021-12-04 11:07:30 GMT 49.451752 12.377761 34,000 308 389 0
2021-12-04 11:07:26 GMT 49.449097 12.382965 34,000 308 389 0
2021-12-04 11:07:23 GMT 49.445133 12.390871 34,000 308 389 0
2021-12-04 11:07:20 GMT 49.438290 12.404381 34,000 308 389 0
2021-12-04 11:07:17 GMT 49.438290 12.404381 34,000 308 389 0
2021-12-04 11:07:14 GMT 49.431656 12.417514 34,000 308 389 0
2021-12-04 11:07:11 GMT 49.428329 12.424052 34,000 308 389 0
2021-12-04 11:07:08 GMT 49.428329 12.424052 34,000 308 389 0
2021-12-04 11:07:05 GMT 49.426094 12.428428 34,000 308 389 0
2021-12-04 11:07:02 GMT 49.421906 12.436735 34,000 308 389 0
2021-12-04 11:06:59 GMT 49.417480 12.445414 34,000 308 389 0
2021-12-04 11:06:56 GMT 49.415268 12.449763 34,000 308 389 0
2021-12-04 11:06:53 GMT 49.412083 12.456111 34,000 308 389 0
2021-12-04 11:06:50 GMT 49.404587 12.471000 34,000 308 389 0
2021-12-04 11:06:47 GMT 49.404587 12.471000 34,000 308 389 0
2021-12-04 11:06:44 GMT 49.402027 12.475987 34,000 308 389 0
2021-12-04 11:06:41 GMT 49.398514 12.482934 34,000 308 389 0
2021-12-04 11:06:38 GMT 49.394764 12.490371 34,000 308 389 0
2021-12-04 11:06:35 GMT 49.391327 12.497160 34,000 308 389 0
2021-12-04 11:06:32 GMT 49.389130 12.501502 34,000 308 389 0
2021-12-04 11:06:29 GMT 49.385147 12.509343 34,000 308 389 0
2021-12-04 11:06:25 GMT 49.377075 12.525209 34,000 308 389 0
2021-12-04 11:06:22 GMT 49.377075 12.525209 34,000 308 389 0
2021-12-04 11:06:18 GMT 49.373768 12.531714 34,000 308 389 0
2021-12-04 11:06:15 GMT 49.370224 12.538710 34,000 308 389 0
2021-12-04 11:06:12 GMT 49.362488 12.553922 34,000 308 389 0
2021-12-04 11:06:09 GMT 49.362488 12.553922 34,000 308 389 0
2021-12-04 11:06:06 GMT 49.356640 12.565468 34,000 308 389 0
2021-12-04 11:06:03 GMT 49.356640 12.565468 34,000 308 389 0
2021-12-04 11:06:00 GMT 49.353333 12.571951 34,000 308 389 0
2021-12-04 11:05:57 GMT 49.350353 12.577828 34,000 308 389 0
2021-12-04 11:05:54 GMT 49.345650 12.587152 34,000 308 389 0
2021-12-04 11:05:51 GMT 49.343323 12.591705 34,000 308 389 0
2021-12-04 11:05:48 GMT 49.340904 12.596476 34,000 308 389 0
2021-12-04 11:05:45 GMT 49.337040 12.604065 34,000 308 389 0
2021-12-04 11:05:42 GMT 49.332710 12.612522 34,000 308 389 0
2021-12-04 11:05:39 GMT 49.329311 12.619243 34,000 308 389 0
2021-12-04 11:05:36 GMT 49.323578 12.630474 34,000 308 389 0
2021-12-04 11:05:33 GMT 49.323578 12.630474 34,000 308 389 0
2021-12-04 11:05:30 GMT 49.320698 12.636157 34,000 308 389 0
2021-12-04 11:05:27 GMT 49.312775 12.651743 34,000 308 388 0
2021-12-04 11:05:24 GMT 49.312775 12.651743 34,000 308 388 0
2021-12-04 11:05:21 GMT 49.308365 12.660370 34,000 308 388 0
2021-12-04 11:05:18 GMT 49.302704 12.671391 34,000 308 388 0
2021-12-04 11:05:15 GMT 49.302704 12.671391 34,000 308 388 0
2021-12-04 11:05:11 GMT 49.299316 12.678082 34,000 308 388 0
2021-12-04 11:05:08 GMT 49.296204 12.684209 34,000 308 388 0
2021-12-04 11:05:05 GMT 49.292770 12.690899 34,000 308 388 0
2021-12-04 11:05:02 GMT 49.289463 12.697376 34,000 308 388 0
2021-12-04 11:04:59 GMT 49.285721 12.704703 34,000 308 388 0
2021-12-04 11:04:56 GMT 49.282993 12.710097 34,000 308 388 0
2021-12-04 11:04:52 GMT 49.278244 12.719421 34,000 309 388 0
2021-12-04 11:04:49 GMT 49.273773 12.728095 34,000 309 388 0
2021-12-04 11:04:46 GMT 49.271713 12.732168 34,000 309 388 0
2021-12-04 11:04:43 GMT 49.268143 12.739081 34,000 309 388 0
2021-12-04 11:04:40 GMT 49.264709 12.745831 34,000 309 388 0
2021-12-04 11:04:37 GMT 49.260975 12.753175 34,000 309 388 0
2021-12-04 11:04:34 GMT 49.258411 12.758090 34,000 309 388 0
2021-12-04 11:04:31 GMT 49.253769 12.767170 34,000 309 388 0
2021-12-04 11:04:28 GMT 49.251011 12.772618 34,000 309 388 0
2021-12-04 11:04:24 GMT 49.246449 12.781436 34,000 309 388 0
2021-12-04 11:04:21 GMT 49.243469 12.787291 34,000 309 388 0
2021-12-04 11:04:18 GMT 49.240677 12.792712 34,000 309 387 -64
2021-12-04 11:04:15 GMT 49.237381 12.799143 34,000 309 388 -64
2021-12-04 11:04:11 GMT 49.232948 12.807818 34,000 309 388 -64
2021-12-04 11:04:07 GMT 49.228271 12.816890 34,000 309 388 -64
2021-12-04 11:04:04 GMT 49.224850 12.823575 34,000 309 388 0
2021-12-04 11:04:00 GMT 49.219868 12.833260 34,000 309 388 0
2021-12-04 11:03:55 GMT 49.210556 12.851398 34,000 309 388 0
2021-12-04 11:03:52 GMT 49.208817 12.854779 34,000 309 388 0
2021-12-04 11:03:49 GMT 49.208817 12.854779 34,000 309 388 0
2021-12-04 11:03:46 GMT 49.205948 12.860437 34,000 308 388 0
2021-12-04 11:03:43 GMT 49.202175 12.867737 34,000 309 388 0
2021-12-04 11:03:40 GMT 49.198837 12.874216 34,000 309 388 0
2021-12-04 11:03:37 GMT 49.195335 12.881108 34,000 309 388 0
2021-12-04 11:03:34 GMT 49.192307 12.886891 34,000 309 388 0
2021-12-04 11:03:31 GMT 49.187897 12.895484 34,000 309 388 0
2021-12-04 11:03:27 GMT 49.184006 12.903020 34,000 309 388 0
2021-12-04 11:03:24 GMT 49.180717 12.909514 34,000 309 388 0
2021-12-04 11:03:21 GMT 49.176270 12.918091 34,000 309 388 0
2021-12-04 11:03:17 GMT 49.173065 12.924359 34,000 309 388 0
2021-12-04 11:03:14 GMT 49.168488 12.933162 34,000 309 389 0
2021-12-04 11:03:11 GMT 49.166931 12.936190 34,000 309 389 0
2021-12-04 11:03:08 GMT 49.163040 12.943726 34,000 309 389 0
2021-12-04 11:03:05 GMT 49.159489 12.950640 34,000 309 389 0
2021-12-04 11:03:02 GMT 49.156509 12.956495 34,000 309 390 0
2021-12-04 11:02:59 GMT 49.152832 12.963585 34,000 309 390 0
2021-12-04 11:02:56 GMT 49.149944 12.969216 34,000 309 390 0
2021-12-04 11:02:53 GMT 49.146034 12.976733 34,000 309 390 -64
2021-12-04 11:02:50 GMT 49.142590 12.983455 34,000 309 390 0
2021-12-04 11:02:46 GMT 49.138680 12.991044 34,000 309 390 0
2021-12-04 11:02:43 GMT 49.131416 13.005066 34,000 309 390 0
2021-12-04 11:02:40 GMT 49.131416 13.005066 34,000 309 390 64
2021-12-04 11:02:37 GMT 49.128204 13.011282 34,000 309 390 0
2021-12-04 11:02:34 GMT 49.123947 13.019503 34,000 309 390 64
2021-12-04 11:02:31 GMT 49.121826 13.023641 34,000 309 390 64
2021-12-04 11:02:28 GMT 49.118500 13.030067 34,000 309 390 0
2021-12-04 11:02:25 GMT 49.114704 13.037447 34,000 309 390 0
2021-12-04 11:02:22 GMT 49.111816 13.043025 34,000 309 390 0
2021-12-04 11:02:19 GMT 49.108330 13.049734 34,000 309 390 0
2021-12-04 11:02:15 GMT 49.103767 13.058552 34,000 309 391 0
2021-12-04 11:02:12 GMT 49.100418 13.065068 34,000 309 391 -64
2021-12-04 11:02:09 GMT 49.098179 13.069394 34,000 309 391 -64
2021-12-04 11:02:06 GMT 49.093460 13.078449 34,000 309 391 -64
2021-12-04 11:02:03 GMT 49.089989 13.085150 34,000 309 391 0
2021-12-04 11:02:00 GMT 49.087193 13.090571 34,000 309 392 0
2021-12-04 11:01:57 GMT 49.084122 13.096354 34,000 309 391 0
2021-12-04 11:01:54 GMT 49.079559 13.105244 34,000 309 391 0
2021-12-04 11:01:51 GMT 49.077164 13.109788 34,000 309 391 0
2021-12-04 11:01:48 GMT 49.073833 13.116230 34,000 309 391 0
2021-12-04 11:01:44 GMT 49.069336 13.124859 34,000 309 392 64
2021-12-04 11:01:41 GMT 49.066086 13.131127 34,000 309 392 64
2021-12-04 11:01:38 GMT 49.061588 13.139793 34,000 309 392 0
2021-12-04 11:01:35 GMT 49.058304 13.146057 34,000 309 392 0
2021-12-04 11:01:32 GMT 49.052948 13.156480 34,000 309 392 0
2021-12-04 11:01:29 GMT 49.052948 13.156480 34,000 309 392 0
2021-12-04 11:01:26 GMT 49.048882 13.164295 34,000 309 392 -64
2021-12-04 11:01:23 GMT 49.044273 13.173113 34,000 309 392 -64
2021-12-04 11:01:20 GMT 49.043156 13.175282 34,000 309 392 -64
2021-12-04 11:01:17 GMT 49.038082 13.185039 34,000 309 392 -64
2021-12-04 11:01:13 GMT 49.034729 13.191552 34,000 309 391 0
2021-12-04 11:01:10 GMT 49.030308 13.200001 34,000 309 392 0
2021-12-04 11:01:07 GMT 49.026947 13.206482 34,000 309 392 0
2021-12-04 11:01:03 GMT 49.023556 13.212939 34,000 309 391 0
2021-12-04 11:01:00 GMT 49.020111 13.219661 34,000 309 391 0
2021-12-04 11:00:57 GMT 49.015594 13.228262 34,000 309 391 0
2021-12-04 11:00:54 GMT 49.013454 13.232382 34,000 309 391 0
2021-12-04 11:00:51 GMT 49.010101 13.238878 34,000 309 391 0
2021-12-04 11:00:48 GMT 49.006622 13.245568 34,000 309 392 0
2021-12-04 11:00:45 GMT 49.003326 13.251765 34,000 309 392 0
2021-12-04 11:00:42 GMT 49.000187 13.257824 34,000 309 392 0
2021-12-04 11:00:39 GMT 48.995361 13.267118 34,000 309 392 0
2021-12-04 11:00:36 GMT 48.989044 13.279161 34,000 309 392 0
2021-12-04 11:00:33 GMT 48.985710 13.285579 34,000 309 392 0
2021-12-04 11:00:29 GMT 48.985710 13.285579 34,000 309 392 0
2021-12-04 11:00:26 GMT 48.982315 13.292049 34,000 309 392 0
2021-12-04 11:00:23 GMT 48.974678 13.306684 34,000 309 391 0
2021-12-04 11:00:20 GMT 48.974678 13.306684 34,000 309 391 0
2021-12-04 11:00:16 GMT 48.967228 13.320851 34,000 309 391 0
2021-12-04 11:00:13 GMT 48.963409 13.328177 34,000 309 391 0
2021-12-04 11:00:10 GMT 48.963409 13.328177 34,000 309 391 0
2021-12-04 11:00:07 GMT 48.960526 13.333788 34,000 309 391 0
2021-12-04 11:00:04 GMT 48.955917 13.342606 34,000 309 391 0
2021-12-04 11:00:01 GMT 48.954208 13.345853 34,000 309 391 0
2021-12-04 10:59:58 GMT 48.950844 13.352364 34,000 309 391 0
2021-12-04 10:59:55 GMT 48.945580 13.362483 34,000 309 391 0
2021-12-04 10:59:52 GMT 48.942974 13.367398 34,000 309 391 0
2021-12-04 10:59:49 GMT 48.936035 13.380784 34,000 309 391 0
2021-12-04 10:59:46 GMT 48.936035 13.380784 34,000 309 391 0
2021-12-04 10:59:42 GMT 48.931183 13.390010 34,000 309 391 -64
2021-12-04 10:59:39 GMT 48.929535 13.393250 34,000 309 391 -64
2021-12-04 10:59:36 GMT 48.925938 13.400140 34,000 309 391 -64
2021-12-04 10:59:33 GMT 48.921513 13.408524 34,000 309 391 -64
2021-12-04 10:59:29 GMT 48.916718 13.417704 34,000 309 393 0
2021-12-04 10:59:26 GMT 48.914204 13.422402 34,000 309 390 0
2021-12-04 10:59:22 GMT 48.909737 13.431003 34,000 309 391 0
2021-12-04 10:59:19 GMT 48.906693 13.436772 34,000 309 391 0
2021-12-04 10:59:16 GMT 48.902847 13.444085 34,000 309 392 0
2021-12-04 10:59:12 GMT 48.897400 13.454379 34,000 309 394 0
2021-12-04 10:59:09 GMT 48.891037 13.466492 34,000 309 395 0
2021-12-04 10:59:06 GMT 48.891037 13.466492 34,000 309 395 0
2021-12-04 10:59:03 GMT 48.887253 13.473575 33,975 309 396 192
2021-12-04 10:58:59 GMT 48.883945 13.479935 33,975 309 398 320
2021-12-04 10:58:56 GMT 48.879944 13.487525 33,975 309 398 320
2021-12-04 10:58:53 GMT 48.876480 13.494028 33,925 309 397 1024
2021-12-04 10:58:50 GMT 48.871983 13.502559 33,925 309 398 960
2021-12-04 10:58:47 GMT 48.870163 13.506000 33,900 309 398 1024
2021-12-04 10:58:44 GMT 48.866821 13.512338 33,850 309 398 1024
2021-12-04 10:58:41 GMT 48.858994 13.527057 33,750 309 397 1024
2021-12-04 10:58:38 GMT 48.858994 13.527057 33,725 309 397 1024
2021-12-04 10:58:35 GMT 48.856247 13.532269 33,675 309 397 1024
2021-12-04 10:58:32 GMT 48.852448 13.539452 33,600 309 396 1024
2021-12-04 10:58:29 GMT 48.849499 13.545058 33,550 309 396 1024
2021-12-04 10:58:26 GMT 48.844437 13.554594 33,425 309 396 1024
2021-12-04 10:58:21 GMT 48.840328 13.562405 33,350 309 396 1024
2021-12-04 10:58:18 GMT 48.835625 13.571223 33,375 309 395 1024
2021-12-04 10:58:14 GMT 48.831070 13.579876 33,300 309 394 1024
2021-12-04 10:58:11 GMT 48.826733 13.588064 33,250 309 393 1024
2021-12-04 10:58:08 GMT 48.824451 13.592401 33,200 309 394 1024
2021-12-04 10:58:05 GMT 48.821148 13.598617 33,150 309 394 1024
2021-12-04 10:58:02 GMT 48.817749 13.605088 33,100 309 393 1088
2021-12-04 10:57:59 GMT 48.815369 13.609666 33,050 309 393 1088
2021-12-04 10:57:56 GMT 48.809929 13.620011 33,000 309 393 1152
2021-12-04 10:57:53 GMT 48.808914 13.621920 32,975 309 393 1152
2021-12-04 10:57:50 GMT 48.805435 13.628610 32,900 309 393 1216
2021-12-04 10:57:47 GMT 48.801643 13.635985 32,800 309 392 1280
2021-12-04 10:57:44 GMT 48.797699 13.643541 32,725 309 392 1344
2021-12-04 10:57:40 GMT 48.792751 13.652970 32,650 309 392 1536
2021-12-04 10:57:37 GMT 48.790375 13.657524 32,550 308 391 1664
2021-12-04 10:57:33 GMT 48.785431 13.666922 32,500 308 391 1664
2021-12-04 10:57:30 GMT 48.782089 13.673425 32,375 306 391 1536
2021-12-04 10:57:27 GMT 48.779064 13.679569 32,275 305 390 1472
2021-12-04 10:57:23 GMT 48.774967 13.688314 32,200 302 389 1152
2021-12-04 10:57:20 GMT 48.772202 13.694669 32,100 295 386 64
2021-12-04 10:57:17 GMT 48.768867 13.702481 32,100 301 388 1088
2021-12-04 10:57:13 GMT 48.765335 13.711360 32,050 299 387 640
2021-12-04 10:57:10 GMT 48.762539 13.718888 32,025 296 385 128
2021-12-04 10:57:07 GMT 48.759979 13.726116 32,000 292 384 0
2021-12-04 10:57:03 GMT 48.757416 13.733826 32,000 294 385 0
2021-12-04 10:57:00 GMT 48.754440 13.743333 32,000 294 385 0
2021-12-04 10:56:57 GMT 48.752289 13.751009 32,000 293 385 0
2021-12-04 10:56:54 GMT 48.750549 13.757559 32,000 292 385 0
2021-12-04 10:56:51 GMT 48.748032 13.767348 32,000 292 385 0
2021-12-04 10:56:48 GMT 48.746155 13.774602 32,000 292 385 0
2021-12-04 10:56:45 GMT 48.744942 13.779385 32,000 292 384 0
2021-12-04 10:56:42 GMT 48.742939 13.787191 32,000 292 384 0
2021-12-04 10:56:39 GMT 48.739170 13.802008 32,000 292 384 0
2021-12-04 10:56:36 GMT 48.739170 13.802008 32,000 292 384 0
2021-12-04 10:56:32 GMT 48.736328 13.813067 32,000 292 384 0
2021-12-04 10:56:29 GMT 48.734390 13.820590 32,000 292 384 0
2021-12-04 10:56:26 GMT 48.732559 13.827812 32,000 292 384 0
2021-12-04 10:56:23 GMT 48.730556 13.835618 32,000 292 384 0
2021-12-04 10:56:20 GMT 48.728088 13.845375 32,000 292 384 0
2021-12-04 10:56:17 GMT 48.726837 13.850168 32,000 292 384 0
2021-12-04 10:56:13 GMT 48.723999 13.861436 32,000 292 384 0
2021-12-04 10:56:10 GMT 48.722176 13.868432 32,000 292 385 0
2021-12-04 10:56:07 GMT 48.720314 13.875732 32,000 292 385 0
2021-12-04 10:56:04 GMT 48.718140 13.884254 32,000 292 385 0
2021-12-04 10:56:00 GMT 48.716030 13.892573 32,000 292 385 0
2021-12-04 10:55:56 GMT 48.713657 13.901825 32,000 292 385 0
2021-12-04 10:55:52 GMT 48.710865 13.912667 32,000 292 385 0
2021-12-04 10:55:49 GMT 48.708443 13.922135 32,000 292 385 0
2021-12-04 10:55:46 GMT 48.706070 13.931459 32,000 292 386 0
2021-12-04 10:55:43 GMT 48.704906 13.935940 32,000 292 386 0
2021-12-04 10:55:40 GMT 48.702850 13.943974 32,000 292 385 0
2021-12-04 10:55:36 GMT 48.700653 13.952496 32,000 292 385 0
2021-12-04 10:55:33 GMT 48.698437 13.961021 32,000 292 385 0
2021-12-04 10:55:29 GMT 48.695847 13.971088 32,000 292 385 0
2021-12-04 10:55:26 GMT 48.694016 13.978342 32,000 292 385 0
2021-12-04 10:55:23 GMT 48.691826 13.986897 32,000 292 385 0
2021-12-04 10:55:20 GMT 48.690243 13.992896 32,000 292 385 0
2021-12-04 10:55:17 GMT 48.687698 14.002920 32,000 292 384 0
2021-12-04 10:55:14 GMT 48.686462 14.007639 32,000 292 384 0
2021-12-04 10:55:10 GMT 48.683353 14.019639 32,000 292 384 0
2021-12-04 10:55:06 GMT 48.681118 14.028385 32,000 292 384 0
2021-12-04 10:55:03 GMT 48.678978 14.036697 32,000 292 384 0
2021-12-04 10:54:59 GMT 48.676025 14.048204 32,000 292 384 0
2021-12-04 10:54:56 GMT 48.674603 14.053682 32,000 292 385 0
2021-12-04 10:54:53 GMT 48.672321 14.062717 32,000 292 385 0
2021-12-04 10:54:50 GMT 48.668747 14.076444 32,000 292 385 0
2021-12-04 10:54:47 GMT 48.668747 14.076444 32,000 292 385 0
2021-12-04 10:54:44 GMT 48.666828 14.083967 32,000 292 385 0
2021-12-04 10:54:41 GMT 48.664173 14.094230 32,000 292 385 0
2021-12-04 10:54:38 GMT 48.663242 14.097772 32,000 292 386 0
2021-12-04 10:54:35 GMT 48.659004 14.114251 32,000 292 386 0
2021-12-04 10:54:32 GMT 48.659004 14.114251 32,000 292 386 0
2021-12-04 10:54:29 GMT 48.655472 14.127855 32,000 292 386 0
2021-12-04 10:54:26 GMT 48.653458 14.135601 32,000 292 387 0
2021-12-04 10:54:23 GMT 48.653458 14.135601 32,000 292 386 0
2021-12-04 10:54:20 GMT 48.650719 14.146126 32,000 292 386 0
2021-12-04 10:54:17 GMT 48.649429 14.151165 32,000 292 386 0
2021-12-04 10:54:14 GMT 48.647461 14.158701 32,000 292 385 0
2021-12-04 10:54:11 GMT 48.645786 14.165208 32,000 292 387 0
2021-12-04 10:54:07 GMT 48.642792 14.176800 32,000 292 387 0
2021-12-04 10:54:04 GMT 48.640850 14.184289 32,000 292 387 0
2021-12-04 10:54:01 GMT 48.639313 14.190072 32,000 292 387 0
2021-12-04 10:53:57 GMT 48.636101 14.202431 32,000 292 387 0
2021-12-04 10:53:54 GMT 48.634239 14.209731 32,000 292 387 0
2021-12-04 10:53:51 GMT 48.632584 14.216027 32,000 292 387 0
2021-12-04 10:53:48 GMT 48.630608 14.223536 32,000 292 387 0
2021-12-04 10:53:45 GMT 48.628372 14.232084 32,000 292 387 0
2021-12-04 10:53:42 GMT 48.626141 14.240666 32,000 292 387 0
2021-12-04 10:53:39 GMT 48.623859 14.249412 32,000 292 387 0
2021-12-04 10:53:36 GMT 48.622192 14.255747 32,000 292 387 0
2021-12-04 10:53:33 GMT 48.619904 14.264479 32,000 292 387 0
2021-12-04 10:53:30 GMT 48.618877 14.268566 32,000 292 387 0
2021-12-04 10:53:26 GMT 48.615898 14.279841 32,000 292 387 0
2021-12-04 10:53:23 GMT 48.613338 14.289671 32,000 292 386 0
2021-12-04 10:53:19 GMT 48.611389 14.297157 32,000 292 387 0
2021-12-04 10:53:16 GMT 48.609741 14.303495 32,000 292 387 -64
2021-12-04 10:53:13 GMT 48.604214 14.324871 32,000 292 387 0
2021-12-04 10:53:10 GMT 48.604214 14.324871 32,000 292 387 0
2021-12-04 10:53:07 GMT 48.603516 14.327328 32,000 292 387 0
2021-12-04 10:53:04 GMT 48.601593 14.334905 32,000 292 387 0
2021-12-04 10:53:01 GMT 48.596394 14.354722 32,000 292 386 0
2021-12-04 10:52:56 GMT 48.596394 14.354722 32,000 292 386 0
2021-12-04 10:52:53 GMT 48.594345 14.362528 32,000 292 386 0
2021-12-04 10:52:50 GMT 48.592026 14.371526 32,000 292 385 0
2021-12-04 10:52:47 GMT 48.590759 14.376333 32,000 292 386 0
2021-12-04 10:52:44 GMT 48.588387 14.385296 32,000 292 386 0
2021-12-04 10:52:41 GMT 48.586014 14.394330 32,000 292 386 0
2021-12-04 10:52:38 GMT 48.584518 14.400118 32,000 292 386 0
2021-12-04 10:52:35 GMT 48.582615 14.407413 32,000 292 386 0
2021-12-04 10:52:32 GMT 48.580566 14.415147 32,000 292 386 0
2021-12-04 10:52:28 GMT 48.577423 14.427232 32,000 292 386 -64
2021-12-04 10:52:25 GMT 48.575493 14.434734 32,000 292 386 0
2021-12-04 10:52:22 GMT 48.574219 14.439486 32,000 292 386 0
2021-12-04 10:52:18 GMT 48.571564 14.449768 32,000 292 386 0
2021-12-04 10:52:15 GMT 48.569580 14.457213 32,000 292 386 0
2021-12-04 10:52:12 GMT 48.566299 14.469769 32,000 292 386 0
2021-12-04 10:52:09 GMT 48.564877 14.475210 32,000 292 386 0
2021-12-04 10:52:06 GMT 48.563480 14.480486 32,000 292 385 0
2021-12-04 10:52:03 GMT 48.558964 14.497689 32,000 292 385 0
2021-12-04 10:52:00 GMT 48.557613 14.502893 32,000 292 385 0
2021-12-04 10:51:57 GMT 48.557613 14.502893 32,000 292 385 0
2021-12-04 10:51:54 GMT 48.555405 14.511390 32,000 292 385 0
2021-12-04 10:51:51 GMT 48.553238 14.519589 32,000 292 385 0
2021-12-04 10:51:48 GMT 48.551514 14.526039 32,000 292 385 0
2021-12-04 10:51:45 GMT 48.549934 14.532021 32,000 292 385 0
2021-12-04 10:51:42 GMT 48.547989 14.539490 32,000 292 385 0
2021-12-04 10:51:39 GMT 48.546211 14.546260 32,000 292 385 0
2021-12-04 10:51:36 GMT 48.543365 14.556955 32,000 292 385 0
2021-12-04 10:51:33 GMT 48.541462 14.564185 32,000 292 386 0
2021-12-04 10:51:30 GMT 48.539322 14.572352 32,000 292 385 0
2021-12-04 10:51:27 GMT 48.537872 14.577871 32,000 292 386 0
2021-12-04 10:51:24 GMT 48.536224 14.584069 32,000 292 386 0
2021-12-04 10:51:21 GMT 48.534290 14.591362 32,000 292 386 0
2021-12-04 10:51:18 GMT 48.532246 14.599095 32,000 292 386 0
2021-12-04 10:51:15 GMT 48.529266 14.610337 32,000 292 386 0
2021-12-04 10:51:12 GMT 48.527710 14.616324 32,000 292 386 0
2021-12-04 10:51:09 GMT 48.525681 14.623815 32,000 292 386 0
2021-12-04 10:51:06 GMT 48.524094 14.629775 32,000 292 386 0
2021-12-04 10:51:03 GMT 48.522141 14.637258 32,000 292 386 0
2021-12-04 10:51:00 GMT 48.519928 14.645550 32,000 292 386 0
2021-12-04 10:50:57 GMT 48.516632 14.658015 32,000 292 386 0
2021-12-04 10:50:54 GMT 48.516632 14.658015 32,000 292 386 0
2021-12-04 10:50:51 GMT 48.514572 14.665762 32,000 292 386 0
2021-12-04 10:50:48 GMT 48.512604 14.673298 32,000 292 387 0
2021-12-04 10:50:45 GMT 48.509945 14.683228 32,000 292 387 0
2021-12-04 10:50:41 GMT 48.507111 14.694003 32,000 292 387 0
2021-12-04 10:50:38 GMT 48.505711 14.699273 32,000 292 387 0
2021-12-04 10:50:34 GMT 48.500977 14.717032 32,000 292 387 0
2021-12-04 10:50:31 GMT 48.498779 14.725271 32,000 292 387 0
2021-12-04 10:50:28 GMT 48.498779 14.725271 32,000 292 387 0
2021-12-04 10:50:25 GMT 48.497189 14.731293 32,000 292 387 0
2021-12-04 10:50:22 GMT 48.492737 14.748019 32,000 292 387 0
2021-12-04 10:50:19 GMT 48.492737 14.748019 32,000 292 387 -64
2021-12-04 10:50:16 GMT 48.490627 14.756012 32,000 292 387 -64
2021-12-04 10:50:13 GMT 48.489277 14.761071 32,000 292 387 0
2021-12-04 10:50:10 GMT 48.486622 14.771046 32,000 292 387 0
2021-12-04 10:50:07 GMT 48.484955 14.777316 32,000 292 387 0
2021-12-04 10:50:04 GMT 48.482254 14.787527 32,000 292 387 0
2021-12-04 10:50:01 GMT 48.481247 14.791330 32,000 292 387 0
2021-12-04 10:49:58 GMT 48.479130 14.799307 32,000 292 387 0
2021-12-04 10:49:55 GMT 48.476852 14.807810 32,000 292 387 0
2021-12-04 10:49:51 GMT 48.469631 14.834796 32,000 292 387 0
2021-12-04 10:49:47 GMT 48.469631 14.834796 32,000 292 387 0
2021-12-04 10:49:44 GMT 48.468933 14.837529 32,000 292 386 0
2021-12-04 10:49:41 GMT 48.467697 14.842036 32,000 292 386 0
2021-12-04 10:49:38 GMT 48.465134 14.851755 32,000 292 386 0
2021-12-04 10:49:32 GMT 48.461792 14.864220 32,000 292 386 -64
2021-12-04 10:49:29 GMT 48.459110 14.874187 32,000 292 386 0
2021-12-04 10:49:26 GMT 48.457993 14.878446 32,000 292 385 0
2021-12-04 10:49:23 GMT 48.455292 14.888426 32,000 292 385 0
2021-12-04 10:49:20 GMT 48.453186 14.896334 32,000 292 385 0
2021-12-04 10:49:16 GMT 48.449295 14.910771 32,000 292 385 0
2021-12-04 10:49:13 GMT 48.449295 14.910771 32,000 292 385 0
2021-12-04 10:49:10 GMT 48.447006 14.919504 32,000 292 385 0
2021-12-04 10:49:07 GMT 48.445004 14.926951 32,000 292 385 0
2021-12-04 10:49:04 GMT 48.443050 14.934178 32,000 292 385 0
2021-12-04 10:49:00 GMT 48.440002 14.945561 32,000 292 385 0
2021-12-04 10:48:57 GMT 48.438446 14.951336 32,000 292 385 0
2021-12-04 10:48:54 GMT 48.436066 14.960271 32,000 293 386 0
2021-12-04 10:48:50 GMT 48.433502 14.969717 32,000 293 386 64
2021-12-04 10:48:47 GMT 48.431225 14.978124 32,000 292 387 64
2021-12-04 10:48:44 GMT 48.429657 14.984154 32,000 292 387 64
2021-12-04 10:48:40 GMT 48.427177 14.993302 32,000 292 387 64
2021-12-04 10:48:37 GMT 48.424805 15.002042 32,000 292 388 0
2021-12-04 10:48:33 GMT 48.421783 15.013310 32,000 292 388 0
2021-12-04 10:48:29 GMT 48.419495 15.021780 32,000 292 388 0
2021-12-04 10:48:26 GMT 48.417847 15.028029 32,000 293 387 0
2021-12-04 10:48:22 GMT 48.415009 15.038523 32,000 293 388 0
2021-12-04 10:48:19 GMT 48.412838 15.046499 32,000 293 388 0
2021-12-04 10:48:16 GMT 48.410843 15.054016 32,000 293 388 0
2021-12-04 10:48:13 GMT 48.409161 15.060232 32,000 293 388 0
2021-12-04 10:48:10 GMT 48.406181 15.071218 32,000 293 388 -64
2021-12-04 10:48:06 GMT 48.404087 15.079024 32,000 293 390 0
2021-12-04 10:48:02 GMT 48.401340 15.089216 32,000 293 388 0
2021-12-04 10:47:59 GMT 48.398731 15.098973 32,000 293 388 0
2021-12-04 10:47:56 GMT 48.396011 15.108948 32,000 293 387 0
2021-12-04 10:47:53 GMT 48.395370 15.111483 32,000 293 388 0
2021-12-04 10:47:50 GMT 48.392818 15.120946 32,000 293 388 0
2021-12-04 10:47:47 GMT 48.390865 15.128174 32,000 293 388 0
2021-12-04 10:47:43 GMT 48.388771 15.135908 32,000 293 388 0
2021-12-04 10:47:40 GMT 48.385941 15.146414 32,000 293 388 0
2021-12-04 10:47:37 GMT 48.384521 15.151625 32,000 293 388 0
2021-12-04 10:47:34 GMT 48.382767 15.158169 32,000 293 387 0
2021-12-04 10:47:31 GMT 48.380390 15.166843 32,000 293 388 0
2021-12-04 10:47:28 GMT 48.378437 15.174143 32,000 293 388 0
2021-12-04 10:47:25 GMT 48.376328 15.181838 32,000 293 388 0
2021-12-04 10:47:22 GMT 48.374573 15.188382 32,000 293 389 0
2021-12-04 10:47:19 GMT 48.371826 15.198573 32,000 293 389 0
2021-12-04 10:47:16 GMT 48.370800 15.202332 32,000 293 389 0
2021-12-04 10:47:13 GMT 48.368225 15.211839 32,000 293 390 0
2021-12-04 10:47:10 GMT 48.365570 15.221628 32,000 293 390 0
2021-12-04 10:47:07 GMT 48.363831 15.227896 32,000 293 390 0
2021-12-04 10:47:04 GMT 48.362366 15.233389 32,000 293 390 0
2021-12-04 10:47:01 GMT 48.360626 15.239586 32,000 293 390 0
2021-12-04 10:46:58 GMT 48.358109 15.248883 32,000 293 390 0
2021-12-04 10:46:55 GMT 48.355591 15.258108 32,000 293 390 0
2021-12-04 10:46:52 GMT 48.353897 15.264376 32,000 293 390 0
2021-12-04 10:46:49 GMT 48.351807 15.271863 32,000 293 390 0
2021-12-04 10:46:46 GMT 48.349293 15.281187 32,000 293 390 0
2021-12-04 10:46:41 GMT 48.344467 15.298955 32,000 293 391 0
2021-12-04 10:46:38 GMT 48.341583 15.309448 32,000 293 391 0
2021-12-04 10:46:35 GMT 48.341583 15.309448 32,000 293 391 0
2021-12-04 10:46:31 GMT 48.338306 15.321519 32,000 293 391 0
2021-12-04 10:46:27 GMT 48.336910 15.326723 32,000 293 390 0
2021-12-04 10:46:24 GMT 48.334442 15.335758 32,000 293 390 0
2021-12-04 10:46:21 GMT 48.333069 15.340787 32,000 293 391 0
2021-12-04 10:46:18 GMT 48.330441 15.350286 32,000 293 390 0
2021-12-04 10:46:15 GMT 48.328400 15.357830 32,000 293 390 0
2021-12-04 10:46:11 GMT 48.326202 15.365825 32,000 293 390 0
2021-12-04 10:46:07 GMT 48.322807 15.378330 32,000 293 390 0
2021-12-04 10:46:04 GMT 48.321350 15.383606 32,000 293 390 0
2021-12-04 10:46:01 GMT 48.319454 15.390545 32,000 293 390 0
2021-12-04 10:45:57 GMT 48.316475 15.401603 32,000 293 389 0
2021-12-04 10:45:54 GMT 48.314896 15.407339 32,000 293 389 0
2021-12-04 10:45:51 GMT 48.312378 15.416565 32,000 293 389 0
2021-12-04 10:45:47 GMT 48.309494 15.427058 32,000 293 389 0
2021-12-04 10:45:44 GMT 48.307304 15.435068 32,000 293 389 0
2021-12-04 10:45:41 GMT 48.305557 15.441495 32,000 293 389 0
2021-12-04 10:45:36 GMT 48.301670 15.455740 32,000 293 389 0
2021-12-04 10:45:33 GMT 48.299950 15.461956 32,000 293 389 0
2021-12-04 10:45:30 GMT 48.298321 15.467955 32,000 293 389 0
2021-12-04 10:45:27 GMT 48.295715 15.477412 32,000 293 390 0
2021-12-04 10:45:24 GMT 48.293701 15.484666 32,000 293 390 0
2021-12-04 10:45:21 GMT 48.290218 15.497372 32,000 293 390 0
2021-12-04 10:45:15 GMT 48.287750 15.506357 32,000 293 390 0
2021-12-04 10:45:12 GMT 48.282990 15.523893 32,000 293 390 0
2021-12-04 10:45:09 GMT 48.282990 15.523893 32,000 293 390 0
2021-12-04 10:45:06 GMT 48.281570 15.529104 32,000 293 390 0
2021-12-04 10:45:03 GMT 48.279144 15.537837 32,000 293 390 0
2021-12-04 10:45:00 GMT 48.277512 15.543847 32,000 293 390 0
2021-12-04 10:44:56 GMT 48.274933 15.553331 32,000 293 390 0
2021-12-04 10:44:53 GMT 48.272717 15.561339 32,000 293 390 0
2021-12-04 10:44:50 GMT 48.270573 15.569073 32,000 293 390 0
2021-12-04 10:44:46 GMT 48.267288 15.581078 32,000 293 390 0
2021-12-04 10:44:43 GMT 48.265919 15.586058 32,000 293 390 0
2021-12-04 10:44:39 GMT 48.261963 15.600297 32,000 293 390 0
2021-12-04 10:44:36 GMT 48.261215 15.603043 32,000 293 390 0
2021-12-04 10:44:33 GMT 48.259216 15.610344 32,000 293 390 0
2021-12-04 10:44:30 GMT 48.256237 15.621041 32,000 293 390 0
2021-12-04 10:44:27 GMT 48.254375 15.627835 32,000 293 390 0
2021-12-04 10:44:23 GMT 48.251812 15.637087 32,000 293 390 0
2021-12-04 10:44:20 GMT 48.249756 15.644531 32,000 293 390 0
2021-12-04 10:44:16 GMT 48.247330 15.653334 32,000 293 390 0
2021-12-04 10:44:13 GMT 48.244904 15.662067 32,000 293 390 0
2021-12-04 10:44:09 GMT 48.242340 15.671293 32,000 293 390 0
2021-12-04 10:44:06 GMT 48.240269 15.678791 32,000 293 390 0
2021-12-04 10:44:02 GMT 48.237488 15.688758 32,000 293 390 0
2021-12-04 10:43:59 GMT 48.235008 15.697800 32,000 293 390 0
2021-12-04 10:43:55 GMT 48.232224 15.707773 32,000 293 390 0
2021-12-04 10:43:52 GMT 48.230820 15.712762 32,000 293 390 0
2021-12-04 10:43:49 GMT 48.228470 15.721224 32,000 293 390 0
2021-12-04 10:43:46 GMT 48.226318 15.728971 32,000 293 390 0
2021-12-04 10:43:43 GMT 48.223461 15.739216 32,000 293 390 0
2021-12-04 10:43:40 GMT 48.221462 15.746444 32,000 293 390 0
2021-12-04 10:43:37 GMT 48.219864 15.752211 32,000 293 390 0
2021-12-04 10:43:34 GMT 48.218063 15.758659 32,000 293 390 0
2021-12-04 10:43:31 GMT 48.213089 15.776649 32,000 293 390 64
2021-12-04 10:43:27 GMT 48.213089 15.776649 32,000 293 390 64
2021-12-04 10:43:24 GMT 48.210941 15.784390 32,000 293 390 64
2021-12-04 10:43:20 GMT 48.208427 15.793353 32,000 293 390 64
2021-12-04 10:43:16 GMT 48.205124 15.805382 32,000 293 391 64
2021-12-04 10:43:13 GMT 48.203247 15.812143 32,000 293 391 0
2021-12-04 10:43:09 GMT 48.200466 15.822119 32,000 293 391 0
2021-12-04 10:43:06 GMT 48.198463 15.829347 32,000 293 391 0
2021-12-04 10:43:03 GMT 48.195923 15.838623 32,000 293 391 0
2021-12-04 10:43:00 GMT 48.194366 15.844092 32,000 293 391 -64
2021-12-04 10:42:57 GMT 48.192226 15.851826 32,000 293 391 -64
2021-12-04 10:42:54 GMT 48.189667 15.861078 32,000 293 391 -64
2021-12-04 10:42:51 GMT 48.188416 15.865525 32,000 293 391 -64
2021-12-04 10:42:48 GMT 48.186401 15.872779 32,000 293 390 -64
2021-12-04 10:42:45 GMT 48.183754 15.882255 32,000 293 389 0
2021-12-04 10:42:42 GMT 48.181427 15.890423 32,000 293 389 0
2021-12-04 10:42:39 GMT 48.180313 15.894400 32,000 293 389 0
2021-12-04 10:42:36 GMT 48.177563 15.904372 32,000 293 389 0
2021-12-04 10:42:33 GMT 48.175735 15.910809 32,000 293 388 0
2021-12-04 10:42:30 GMT 48.173447 15.918978 32,000 293 388 0
2021-12-04 10:42:27 GMT 48.172165 15.923697 32,000 293 388 0
2021-12-04 10:42:24 GMT 48.169601 15.932852 32,000 293 388 0
2021-12-04 10:42:21 GMT 48.167450 15.940458 32,000 293 388 0
2021-12-04 10:42:18 GMT 48.164886 15.949613 32,000 293 389 0
2021-12-04 10:42:15 GMT 48.163086 15.956051 32,000 293 388 0
2021-12-04 10:42:11 GMT 48.158066 15.973846 32,000 293 389 0
2021-12-04 10:42:08 GMT 48.158066 15.973846 32,000 293 389 64
2021-12-04 10:42:05 GMT 48.156334 15.980037 32,000 293 390 0
2021-12-04 10:42:02 GMT 48.154129 15.987991 32,000 293 389 0
2021-12-04 10:41:59 GMT 48.152252 15.994652 32,000 293 389 0
2021-12-04 10:41:56 GMT 48.150238 16.001862 32,000 293 389 64
2021-12-04 10:41:52 GMT 48.147400 16.012024 32,000 293 390 0
2021-12-04 10:41:49 GMT 48.145161 16.019968 32,000 293 390 0
2021-12-04 10:41:46 GMT 48.143581 16.025673 32,000 293 390 0
2021-12-04 10:41:43 GMT 48.141495 16.033104 32,000 293 390 0
2021-12-04 10:41:39 GMT 48.138290 16.044502 32,000 293 390 0
2021-12-04 10:41:36 GMT 48.136551 16.050751 32,000 293 390 0
2021-12-04 10:41:33 GMT 48.134399 16.058441 32,000 293 390 0
2021-12-04 10:41:29 GMT 48.129913 16.074303 32,000 293 390 0
2021-12-04 10:41:26 GMT 48.128906 16.077805 32,000 293 390 -64
2021-12-04 10:41:22 GMT 48.126389 16.086731 32,000 293 390 -64
2021-12-04 10:41:19 GMT 48.124168 16.094688 32,000 293 390 0
2021-12-04 10:41:16 GMT 48.121841 16.102928 32,000 293 390 0
2021-12-04 10:41:13 GMT 48.120396 16.108141 32,000 293 390 0
2021-12-04 10:41:10 GMT 48.117928 16.116802 32,000 293 390 0
2021-12-04 10:41:07 GMT 48.114487 16.129028 32,000 293 390 0
2021-12-04 10:41:04 GMT 48.113461 16.132719 32,000 293 390 0
2021-12-04 10:41:00 GMT 48.110916 16.141663 32,000 293 390 0
2021-12-04 10:40:57 GMT 48.108387 16.150606 32,000 293 390 0
2021-12-04 10:40:54 GMT 48.106293 16.158073 32,000 293 390 0
2021-12-04 10:40:51 GMT 48.104195 16.165537 32,000 293 390 0
2021-12-04 10:40:48 GMT 48.102146 16.172720 32,000 293 390 0
2021-12-04 10:40:45 GMT 48.100067 16.180183 32,000 293 390 0
2021-12-04 10:40:42 GMT 48.098785 16.184647 32,000 293 390 0
2021-12-04 10:40:39 GMT 48.093567 16.203255 32,000 293 390 64
2021-12-04 10:40:36 GMT 48.093567 16.203255 32,000 293 390 0
2021-12-04 10:40:33 GMT 48.091301 16.211243 32,000 293 390 -64
2021-12-04 10:40:29 GMT 48.088554 16.220892 32,000 293 391 0
2021-12-04 10:40:26 GMT 48.086926 16.226665 32,000 293 392 64
2021-12-04 10:40:22 GMT 48.082764 16.241295 32,000 293 392 0
2021-12-04 10:40:18 GMT 48.079376 16.253242 32,000 293 392 0
2021-12-04 10:40:15 GMT 48.079376 16.253242 32,000 293 392 0
2021-12-04 10:40:12 GMT 48.077568 16.259695 32,000 293 392 0
2021-12-04 10:40:08 GMT 48.074078 16.271879 32,000 293 392 0
2021-12-04 10:40:05 GMT 48.072235 16.278374 32,000 293 392 0
2021-12-04 10:40:02 GMT 48.069580 16.287849 32,000 293 393 0
2021-12-04 10:39:58 GMT 48.067383 16.295540 32,000 293 393 0
2021-12-04 10:39:55 GMT 48.065418 16.302513 32,000 293 393 0
2021-12-04 10:39:52 GMT 48.063538 16.308998 32,000 293 393 0
2021-12-04 10:39:48 GMT 48.059784 16.322250 32,000 294 393 0
2021-12-04 10:39:45 GMT 48.058456 16.326988 32,000 294 393 0
2021-12-04 10:39:42 GMT 48.056259 16.334679 32,000 294 393 0
2021-12-04 10:39:38 GMT 48.050568 16.354628 32,000 294 392 0
2021-12-04 10:39:35 GMT 48.050568 16.354628 32,000 294 392 0
2021-12-04 10:39:32 GMT 48.049347 16.358849 32,000 294 392 0
2021-12-04 10:39:29 GMT 48.046509 16.368805 32,000 293 393 0
2021-12-04 10:39:26 GMT 48.044815 16.374779 32,000 293 393 0
2021-12-04 10:39:23 GMT 48.042801 16.381714 32,000 293 393 0
2021-12-04 10:39:20 GMT 48.040699 16.389208 32,000 293 392 0
2021-12-04 10:39:17 GMT 48.038651 16.396461 32,000 294 392 0
2021-12-04 10:39:14 GMT 48.035995 16.405617 32,000 294 392 0
2021-12-04 10:39:11 GMT 48.034367 16.411390 32,000 294 392 0
2021-12-04 10:39:07 GMT 48.031342 16.422096 32,000 294 392 0
2021-12-04 10:39:04 GMT 48.028641 16.431534 32,000 294 392 0
2021-12-04 10:39:00 GMT 48.026127 16.440195 32,000 294 393 64
2021-12-04 10:38:57 GMT 48.024078 16.447449 32,000 294 393 64
2021-12-04 10:38:54 GMT 48.019611 16.463154 32,000 294 393 64
2021-12-04 10:38:51 GMT 48.019611 16.463154 32,000 294 393 64
2021-12-04 10:38:48 GMT 48.017303 16.471115 32,000 294 393 64
2021-12-04 10:38:45 GMT 48.015106 16.478806 32,000 294 393 0
2021-12-04 10:38:42 GMT 48.013046 16.486084 32,000 294 394 0
2021-12-04 10:38:39 GMT 48.010487 16.495056 32,000 294 394 0
2021-12-04 10:38:35 GMT 48.008057 16.503525 32,000 294 394 0
2021-12-04 10:38:32 GMT 48.006546 16.508743 32,000 294 394 -64
2021-12-04 10:38:29 GMT 48.004349 16.516502 32,000 294 394 -64
2021-12-04 10:38:26 GMT 48.001736 16.525480 32,000 294 394 -64
2021-12-04 10:38:23 GMT 47.999081 16.534777 32,000 294 394 0
2021-12-04 10:38:20 GMT 47.996979 16.542252 32,000 294 394 0
2021-12-04 10:38:17 GMT 47.994801 16.549706 32,000 294 394 0
2021-12-04 10:38:14 GMT 47.993309 16.554989 32,000 294 393 0
2021-12-04 10:38:11 GMT 47.991215 16.562243 32,000 294 394 0
2021-12-04 10:38:07 GMT 47.987862 16.573933 32,000 294 394 0
2021-12-04 10:38:04 GMT 47.985443 16.582455 32,000 294 394 0
2021-12-04 10:38:01 GMT 47.981415 16.596428 32,000 294 394 0
2021-12-04 10:37:58 GMT 47.981415 16.596428 32,000 294 393 0
2021-12-04 10:37:55 GMT 47.979767 16.602127 32,000 294 393 0
2021-12-04 10:37:52 GMT 47.977570 16.609886 32,000 294 393 0
2021-12-04 10:37:49 GMT 47.975464 16.617096 32,000 294 393 0
2021-12-04 10:37:46 GMT 47.973198 16.625061 32,000 294 393 0
2021-12-04 10:37:43 GMT 47.970749 16.633507 32,000 294 393 0
2021-12-04 10:37:40 GMT 47.969238 16.638725 32,000 294 392 0
2021-12-04 10:37:35 GMT 47.964661 16.654655 32,000 294 392 0
2021-12-04 10:37:31 GMT 47.961548 16.665367 32,000 294 392 0
2021-12-04 10:37:28 GMT 47.960037 16.670586 32,000 294 392 0
2021-12-04 10:37:24 GMT 47.957325 16.679993 32,000 294 392 0
2021-12-04 10:37:21 GMT 47.955135 16.687670 32,000 294 392 0
2021-12-04 10:37:18 GMT 47.953125 16.694618 32,000 294 392 0
2021-12-04 10:37:15 GMT 47.950745 16.702858 32,000 294 392 0
2021-12-04 10:37:12 GMT 47.948898 16.709290 32,000 294 392 0
2021-12-04 10:37:09 GMT 47.946804 16.716473 32,000 294 393 0
2021-12-04 10:37:05 GMT 47.943924 16.726410 32,000 294 393 0
2021-12-04 10:37:02 GMT 47.941681 16.734169 32,000 294 393 0
2021-12-04 10:36:59 GMT 47.940170 16.739388 32,000 294 393 0
2021-12-04 10:36:55 GMT 47.936737 16.751266 32,000 294 393 0
2021-12-04 10:36:52 GMT 47.934128 16.760193 32,000 294 393 0
2021-12-04 10:36:49 GMT 47.932480 16.765892 32,000 294 393 0
2021-12-04 10:36:45 GMT 47.928974 16.778095 32,000 294 392 0
2021-12-04 10:36:42 GMT 47.927353 16.783539 32,000 294 392 0
2021-12-04 10:36:39 GMT 47.924503 16.793447 32,000 294 392 0
2021-12-04 10:36:34 GMT 47.921104 16.805067 32,000 294 392 0
2021-12-04 10:36:31 GMT 47.919662 16.809975 32,000 294 392 0
2021-12-04 10:36:28 GMT 47.917522 16.817392 32,000 294 391 0
2021-12-04 10:36:24 GMT 47.914078 16.829294 32,000 294 391 0
2021-12-04 10:36:21 GMT 47.911701 16.837393 32,000 294 391 0
2021-12-04 10:36:18 GMT 47.910004 16.843346 32,000 294 391 0
2021-12-04 10:36:15 GMT 47.907558 16.851761 32,000 294 391 0
2021-12-04 10:36:12 GMT 47.906116 16.856689 32,000 294 391 0
2021-12-04 10:36:09 GMT 47.903835 16.864576 32,000 294 391 0
2021-12-04 10:36:05 GMT 47.901077 16.873970 32,000 294 391 0
2021-12-04 10:36:02 GMT 47.897877 16.885071 32,000 294 391 0
2021-12-04 10:35:59 GMT 47.896500 16.889763 32,000 294 391 0
2021-12-04 10:35:55 GMT 47.893066 16.901573 32,000 294 391 0
2021-12-04 10:35:51 GMT 47.890869 16.909195 32,000 294 389 0
2021-12-04 10:35:48 GMT 47.887867 16.919579 32,000 294 390 0
2021-12-04 10:35:45 GMT 47.886517 16.924227 32,000 294 390 0
2021-12-04 10:35:42 GMT 47.884331 16.931904 32,000 294 391 0
2021-12-04 10:35:38 GMT 47.880047 16.946623 32,000 294 390 0
2021-12-04 10:35:34 GMT 47.878605 16.951551 32,000 294 390 0
2021-12-04 10:35:30 GMT 47.873577 16.968805 32,000 294 391 0
2021-12-04 10:35:27 GMT 47.873577 16.968805 32,000 294 391 0
2021-12-04 10:35:24 GMT 47.871597 16.975662 32,000 294 391 0
2021-12-04 10:35:21 GMT 47.869217 16.983833 32,000 294 391 0
2021-12-04 10:35:18 GMT 47.867199 16.990709 32,000 294 391 0
2021-12-04 10:35:14 GMT 47.862946 17.005257 32,000 294 391 0
2021-12-04 10:35:11 GMT 47.861435 17.010406 32,000 294 391 0
2021-12-04 10:35:07 GMT 47.859753 17.016062 32,000 294 391 0
2021-12-04 10:35:04 GMT 47.857224 17.024689 32,000 294 393 0
2021-12-04 10:35:01 GMT 47.855095 17.031837 32,000 294 392 0
2021-12-04 10:34:57 GMT 47.852417 17.040962 32,000 294 392 0
2021-12-04 10:34:53 GMT 47.849579 17.050644 32,000 294 393 0
2021-12-04 10:34:50 GMT 47.846603 17.060806 32,000 294 393 0
2021-12-04 10:34:47 GMT 47.844715 17.067190 32,000 296 392 0
2021-12-04 10:34:43 GMT 47.841595 17.077261 32,000 296 393 0
2021-12-04 10:34:40 GMT 47.839279 17.084633 32,000 297 393 0
2021-12-04 10:34:37 GMT 47.836941 17.091909 32,000 298 393 0
2021-12-04 10:34:34 GMT 47.834564 17.098883 32,000 298 392 0
2021-12-04 10:34:31 GMT 47.831165 17.108742 32,000 299 392 0
2021-12-04 10:34:27 GMT 47.828606 17.115854 32,000 300 392 0
2021-12-04 10:34:22 GMT 47.824326 17.127403 32,000 301 392 0
2021-12-04 10:34:19 GMT 47.821426 17.134895 32,000 301 391 0
2021-12-04 10:34:16 GMT 47.819065 17.140924 32,000 302 391 0
2021-12-04 10:34:13 GMT 47.816254 17.147804 32,000 303 392 0
2021-12-04 10:34:09 GMT 47.812088 17.157623 32,000 303 391 0
2021-12-04 10:34:06 GMT 47.810028 17.162361 32,000 303 391 0
2021-12-04 10:34:03 GMT 47.806541 17.170504 32,000 303 391 0
2021-12-04 10:34:00 GMT 47.803574 17.177261 32,000 303 391 0
2021-12-04 10:33:56 GMT 47.799179 17.187424 32,000 303 391 0
2021-12-04 10:33:53 GMT 47.795464 17.195997 32,000 303 391 0
2021-12-04 10:33:49 GMT 47.791550 17.205011 32,000 303 391 0
2021-12-04 10:33:45 GMT 47.788605 17.211731 32,000 303 391 0
2021-12-04 10:33:42 GMT 47.785175 17.219662 32,000 303 391 0
2021-12-04 10:33:38 GMT 47.782101 17.226633 32,000 303 391 0
2021-12-04 10:33:35 GMT 47.779541 17.232468 32,000 303 391 0
2021-12-04 10:33:32 GMT 47.774734 17.243523 32,000 303 391 0
2021-12-04 10:33:29 GMT 47.772556 17.248465 32,000 303 391 0
2021-12-04 10:33:26 GMT 47.769112 17.256351 32,000 303 391 -64
2021-12-04 10:33:22 GMT 47.766769 17.261719 32,000 303 391 0
2021-12-04 10:33:19 GMT 47.760269 17.276634 32,000 303 391 0
2021-12-04 10:33:16 GMT 47.760269 17.276634 32,000 303 391 0
2021-12-04 10:33:13 GMT 47.756916 17.284241 32,000 303 391 0
2021-12-04 10:33:10 GMT 47.754364 17.290077 32,000 303 391 0
2021-12-04 10:33:07 GMT 47.751114 17.297493 32,000 303 391 0
2021-12-04 10:33:04 GMT 47.748772 17.302902 32,000 303 391 0
2021-12-04 10:33:00 GMT 47.744953 17.311707 32,000 303 391 0
2021-12-04 10:32:57 GMT 47.742065 17.318186 32,000 303 391 0
2021-12-04 10:32:54 GMT 47.739040 17.325157 32,000 304 390 0
2021-12-04 10:32:51 GMT 47.734756 17.334875 32,000 304 392 0
2021-12-04 10:32:48 GMT 47.731731 17.341848 32,000 304 392 0
2021-12-04 10:32:45 GMT 47.729141 17.347687 32,000 304 392 0
2021-12-04 10:32:40 GMT 47.724701 17.357765 32,000 304 392 0
2021-12-04 10:32:37 GMT 47.719757 17.369041 32,000 304 391 -64
2021-12-04 10:32:34 GMT 47.718697 17.371498 32,000 304 391 0
2021-12-04 10:32:31 GMT 47.715546 17.378723 32,000 303 391 -64
2021-12-04 10:32:28 GMT 47.712662 17.385246 32,000 303 391 -64
2021-12-04 10:32:25 GMT 47.707245 17.397554 32,000 304 390 0
2021-12-04 10:32:22 GMT 47.707245 17.397554 32,000 304 390 0
2021-12-04 10:32:19 GMT 47.702820 17.407631 32,000 304 390 0
2021-12-04 10:32:16 GMT 47.700077 17.413893 32,000 304 390 0
2021-12-04 10:32:13 GMT 47.698120 17.418402 32,000 304 390 0
2021-12-04 10:32:10 GMT 47.693977 17.427767 32,000 304 388 0
2021-12-04 10:32:06 GMT 47.690826 17.434891 32,000 304 389 0
2021-12-04 10:32:03 GMT 47.688492 17.440247 32,000 304 388 0
2021-12-04 10:32:00 GMT 47.685242 17.447594 32,000 304 389 0
2021-12-04 10:31:57 GMT 47.681625 17.455902 32,000 304 388 0
2021-12-04 10:31:54 GMT 47.679565 17.460571 32,000 304 388 0
2021-12-04 10:31:51 GMT 47.675636 17.469460 32,000 304 388 0
2021-12-04 10:31:48 GMT 47.673775 17.473755 32,000 304 388 0
2021-12-04 10:31:45 GMT 47.670822 17.480415 32,000 304 389 0
2021-12-04 10:31:42 GMT 47.665257 17.493122 32,000 304 389 0
2021-12-04 10:31:39 GMT 47.662277 17.499811 32,000 304 389 0
2021-12-04 10:31:36 GMT 47.662277 17.499811 32,000 304 389 0
2021-12-04 10:31:33 GMT 47.658367 17.508686 32,000 304 389 0
2021-12-04 10:31:30 GMT 47.655899 17.514250 32,000 304 389 0
2021-12-04 10:31:27 GMT 47.653427 17.519829 32,000 304 389 0
2021-12-04 10:31:24 GMT 47.649799 17.528053 32,000 304 389 0
2021-12-04 10:31:20 GMT 47.645985 17.536785 32,000 304 388 0
2021-12-04 10:31:17 GMT 47.643143 17.543194 32,000 304 389 0
2021-12-04 10:31:14 GMT 47.639606 17.551224 32,000 304 389 0
2021-12-04 10:31:10 GMT 47.635345 17.560753 32,000 304 389 0
2021-12-04 10:31:06 GMT 47.633087 17.565870 32,000 304 389 0
2021-12-04 10:31:03 GMT 47.629642 17.573689 32,000 304 389 0
2021-12-04 10:30:58 GMT 47.624336 17.585661 32,000 304 389 0
2021-12-04 10:30:55 GMT 47.621796 17.591446 32,000 304 389 0
2021-12-04 10:30:52 GMT 47.618050 17.599957 32,000 304 389 0
2021-12-04 10:30:49 GMT 47.615585 17.605520 32,000 304 389 0
2021-12-04 10:30:46 GMT 47.612556 17.612423 32,000 304 389 0
2021-12-04 10:30:43 GMT 47.609802 17.618637 32,000 304 389 0
2021-12-04 10:30:40 GMT 47.605957 17.627289 32,000 304 389 0
2021-12-04 10:30:37 GMT 47.603989 17.631752 32,000 304 389 0
2021-12-04 10:30:34 GMT 47.600361 17.639957 32,000 304 389 0
2021-12-04 10:30:31 GMT 47.597488 17.646446 32,000 304 389 0
2021-12-04 10:30:27 GMT 47.594650 17.652901 32,000 304 389 0
2021-12-04 10:30:24 GMT 47.591518 17.660028 32,000 304 389 0
2021-12-04 10:30:21 GMT 47.587555 17.668900 32,000 304 389 0
2021-12-04 10:30:18 GMT 47.584114 17.676720 32,000 304 389 0
2021-12-04 10:30:15 GMT 47.581467 17.682701 32,000 304 389 0
2021-12-04 10:30:12 GMT 47.578995 17.688271 32,000 304 389 0
2021-12-04 10:30:08 GMT 47.575378 17.696434 32,000 304 388 0
2021-12-04 10:30:05 GMT 47.572311 17.703369 32,000 304 388 0
2021-12-04 10:30:02 GMT 47.569450 17.709749 32,000 304 389 0
2021-12-04 10:29:59 GMT 47.566517 17.716440 32,000 304 388 0
2021-12-04 10:29:56 GMT 47.564163 17.721771 32,000 304 388 0
2021-12-04 10:29:53 GMT 47.556656 17.738594 32,000 304 388 0
2021-12-04 10:29:49 GMT 47.556656 17.738594 32,000 304 388 0
2021-12-04 10:29:46 GMT 47.548687 17.756582 32,000 304 389 0
2021-12-04 10:29:41 GMT 47.548687 17.756582 32,000 304 389 0
2021-12-04 10:29:38 GMT 47.544918 17.764963 32,000 304 389 0
2021-12-04 10:29:35 GMT 47.543335 17.768555 32,000 304 389 0
2021-12-04 10:29:32 GMT 47.538631 17.779118 32,000 304 389 0
2021-12-04 10:29:28 GMT 47.535645 17.785767 32,000 304 389 0
2021-12-04 10:29:25 GMT 47.532116 17.793768 32,000 304 389 0
2021-12-04 10:29:21 GMT 47.529041 17.800669 32,000 304 389 0
2021-12-04 10:29:17 GMT 47.525181 17.809259 32,000 304 389 0
2021-12-04 10:29:14 GMT 47.522713 17.814823 32,000 304 389 0
2021-12-04 10:29:10 GMT 47.515079 17.831867 32,000 304 389 0
2021-12-04 10:29:07 GMT 47.515079 17.831867 32,000 304 389 0
2021-12-04 10:29:04 GMT 47.512115 17.838570 32,000 304 389 0
2021-12-04 10:29:01 GMT 47.508087 17.847633 32,000 304 389 0
2021-12-04 10:28:58 GMT 47.505905 17.852503 32,000 304 389 0
2021-12-04 10:28:55 GMT 47.503647 17.857658 32,000 304 389 0
2021-12-04 10:28:52 GMT 47.500580 17.864525 32,000 304 389 0
2021-12-04 10:28:49 GMT 47.497696 17.870911 32,000 304 389 0
2021-12-04 10:28:45 GMT 47.493244 17.880953 32,000 304 390 0
2021-12-04 10:28:41 GMT 47.490078 17.888065 32,000 304 390 0
2021-12-04 10:28:38 GMT 47.486214 17.896658 32,000 304 390 0
2021-12-04 10:28:34 GMT 47.482956 17.903982 32,000 304 390 0
2021-12-04 10:28:31 GMT 47.475632 17.920418 32,000 304 388 0
2021-12-04 10:28:28 GMT 47.475632 17.920418 32,000 304 389 0
2021-12-04 10:28:25 GMT 47.473228 17.925743 32,000 304 389 -64
2021-12-04 10:28:22 GMT 47.470047 17.932846 32,000 304 389 0
2021-12-04 10:28:19 GMT 47.466980 17.939713 32,000 304 389 0
2021-12-04 10:28:15 GMT 47.463032 17.948561 32,000 304 389 0
2021-12-04 10:28:10 GMT 47.458935 17.957645 32,000 304 388 64
2021-12-04 10:28:07 GMT 47.456360 17.963333 32,000 304 388 0
2021-12-04 10:28:04 GMT 47.452927 17.971092 32,000 304 388 0
2021-12-04 10:28:00 GMT 47.448853 17.980156 32,000 304 388 0
2021-12-04 10:27:56 GMT 47.444691 17.989408 32,000 304 388 0
2021-12-04 10:27:53 GMT 47.440224 17.999338 32,000 304 388 0
2021-12-04 10:27:50 GMT 47.438919 18.002226 32,000 304 389 -64
2021-12-04 10:27:46 GMT 47.434868 18.011311 32,000 304 389 0
2021-12-04 10:27:43 GMT 47.432465 18.016617 32,000 304 389 0
2021-12-04 10:27:40 GMT 47.428722 18.024973 32,000 304 389 0
2021-12-04 10:27:37 GMT 47.426628 18.029621 32,000 304 389 0
2021-12-04 10:27:34 GMT 47.422394 18.039127 32,000 304 389 0
2021-12-04 10:27:30 GMT 47.413967 18.057932 32,000 304 389 0
2021-12-04 10:27:26 GMT 47.413967 18.057932 32,000 304 389 0
2021-12-04 10:27:23 GMT 47.412460 18.061249 32,000 304 389 0
2021-12-04 10:27:20 GMT 47.409077 18.068707 32,000 304 388 0
2021-12-04 10:27:17 GMT 47.405731 18.076218 32,000 304 389 0
2021-12-04 10:27:13 GMT 47.402069 18.084389 32,000 304 389 64
2021-12-04 10:27:09 GMT 47.398178 18.093040 32,000 304 389 64
2021-12-04 10:27:05 GMT 47.394413 18.101456 32,000 304 390 0
2021-12-04 10:27:02 GMT 47.391712 18.107370 32,000 304 390 0
2021-12-04 10:26:59 GMT 47.388222 18.115116 32,000 304 391 0
2021-12-04 10:26:56 GMT 47.385223 18.121811 32,000 304 391 0
2021-12-04 10:26:53 GMT 47.381844 18.129343 32,000 304 391 0
2021-12-04 10:26:49 GMT 47.378448 18.136848 32,000 304 391 0
2021-12-04 10:26:46 GMT 47.375153 18.144127 32,000 304 391 -64
2021-12-04 10:26:42 GMT 47.371742 18.151669 32,000 304 390 0
2021-12-04 10:26:38 GMT 47.367462 18.161175 32,000 304 390 0
2021-12-04 10:26:35 GMT 47.363037 18.170895 32,000 304 391 0
2021-12-04 10:26:32 GMT 47.361271 18.174908 32,000 304 390 0
2021-12-04 10:26:29 GMT 47.357544 18.183077 32,000 304 390 0
2021-12-04 10:26:23 GMT 47.352859 18.193497 32,000 304 390 64
2021-12-04 10:26:20 GMT 47.349445 18.201036 32,000 304 390 64
2021-12-04 10:26:16 GMT 47.342461 18.216459 32,000 304 390 64
2021-12-04 10:26:13 GMT 47.342461 18.216459 32,000 304 390 0
2021-12-04 10:26:10 GMT 47.338440 18.225288 32,000 304 391 0
2021-12-04 10:26:07 GMT 47.336315 18.229980 32,000 304 391 0
2021-12-04 10:26:04 GMT 47.333523 18.236177 32,000 304 391 0
2021-12-04 10:26:01 GMT 47.330521 18.242798 32,000 304 391 0
2021-12-04 10:25:58 GMT 47.327408 18.249664 32,000 304 391 0
2021-12-04 10:25:55 GMT 47.324493 18.256107 32,000 304 391 0
2021-12-04 10:25:52 GMT 47.320816 18.264278 32,000 304 391 0
2021-12-04 10:25:49 GMT 47.316998 18.272730 32,000 304 391 -64
2021-12-04 10:25:46 GMT 47.314159 18.278927 32,000 304 391 0
2021-12-04 10:25:43 GMT 47.311386 18.285095 32,000 304 391 0
2021-12-04 10:25:40 GMT 47.309780 18.288645 32,000 304 391 0
2021-12-04 10:25:37 GMT 47.303650 18.302193 32,000 304 391 0
2021-12-04 10:25:34 GMT 47.303650 18.302193 32,000 304 391 0
2021-12-04 10:25:31 GMT 47.296646 18.317642 32,000 304 391 0
2021-12-04 10:25:27 GMT 47.296646 18.317642 32,000 304 391 0
2021-12-04 10:25:24 GMT 47.293629 18.324280 32,000 304 391 0
2021-12-04 10:25:20 GMT 47.289719 18.332941 32,000 304 391 0
2021-12-04 10:25:17 GMT 47.285389 18.342449 32,000 304 391 0
2021-12-04 10:25:13 GMT 47.282501 18.348858 32,000 304 391 0
2021-12-04 10:25:10 GMT 47.278965 18.356535 32,000 304 391 64
2021-12-04 10:25:06 GMT 47.275661 18.363859 32,000 304 392 0
2021-12-04 10:25:03 GMT 47.270538 18.375128 32,000 304 392 0
2021-12-04 10:25:00 GMT 47.264534 18.388367 32,000 304 392 0
2021-12-04 10:24:56 GMT 47.264534 18.388367 32,000 304 392 0
2021-12-04 10:24:53 GMT 47.261600 18.394775 32,000 304 392 0
2021-12-04 10:24:50 GMT 47.258560 18.401413 32,000 304 392 0
2021-12-04 10:24:45 GMT 47.253922 18.411608 32,000 304 392 0
2021-12-04 10:24:42 GMT 47.250320 18.419609 32,000 304 392 0
2021-12-04 10:24:39 GMT 47.248169 18.424210 32,000 304 392 0
2021-12-04 10:24:36 GMT 47.244331 18.432665 32,000 304 392 0
2021-12-04 10:24:33 GMT 47.242142 18.437523 32,000 304 392 0
2021-12-04 10:24:30 GMT 47.239021 18.444355 32,000 304 392 0
2021-12-04 10:24:27 GMT 47.235065 18.453016 32,000 304 392 0
2021-12-04 10:24:24 GMT 47.231827 18.460052 32,000 304 392 0
2021-12-04 10:24:21 GMT 47.229900 18.464285 32,000 304 392 0
2021-12-04 10:24:18 GMT 47.227154 18.470270 32,000 304 392 0
2021-12-04 10:24:15 GMT 47.224266 18.476681 32,000 304 392 0
2021-12-04 10:24:12 GMT 47.220612 18.484566 32,000 304 392 0
2021-12-04 10:24:09 GMT 47.217564 18.491259 32,000 304 392 0
2021-12-04 10:24:06 GMT 47.214844 18.497200 32,000 304 391 0
2021-12-04 10:24:03 GMT 47.211140 18.505342 32,000 304 391 0
2021-12-04 10:24:00 GMT 47.207474 18.513336 32,000 304 392 0
2021-12-04 10:23:57 GMT 47.205551 18.517527 32,000 304 392 -64
2021-12-04 10:23:54 GMT 47.202248 18.524851 32,000 304 391 -64
2021-12-04 10:23:50 GMT 47.198593 18.532768 32,000 304 392 -64
2021-12-04 10:23:46 GMT 47.193958 18.542950 32,000 304 392 0
2021-12-04 10:23:42 GMT 47.190903 18.549591 32,000 305 393 0
2021-12-04 10:23:39 GMT 47.188095 18.555767 32,000 304 392 0
2021-12-04 10:23:36 GMT 47.184929 18.562599 32,000 304 392 0
2021-12-04 10:23:33 GMT 47.181808 18.569500 32,000 304 391 0
2021-12-04 10:23:30 GMT 47.175934 18.582275 32,000 304 392 0
2021-12-04 10:23:27 GMT 47.175934 18.582275 32,000 304 392 0
2021-12-04 10:23:24 GMT 47.170898 18.593330 32,000 304 392 0
2021-12-04 10:23:21 GMT 47.168961 18.597528 32,000 304 392 0
2021-12-04 10:23:18 GMT 47.165237 18.605700 32,000 304 392 0
2021-12-04 10:23:13 GMT 47.161194 18.614548 32,000 304 392 0
2021-12-04 10:23:10 GMT 47.158218 18.621002 32,000 305 393 0
2021-12-04 10:23:07 GMT 47.154785 18.628487 32,000 305 393 64
2021-12-04 10:23:03 GMT 47.150620 18.637550 32,000 305 393 64
2021-12-04 10:23:00 GMT 47.147781 18.643728 32,000 304 394 0
2021-12-04 10:22:57 GMT 47.141075 18.658306 32,000 304 394 0
2021-12-04 10:22:54 GMT 47.141075 18.658306 32,000 304 394 0
2021-12-04 10:22:51 GMT 47.138443 18.664055 32,000 304 394 0
2021-12-04 10:22:48 GMT 47.135559 18.670235 32,000 304 394 -64
2021-12-04 10:22:45 GMT 47.132446 18.677101 32,000 304 394 -64
2021-12-04 10:22:42 GMT 47.129288 18.683968 32,000 304 394 0
2021-12-04 10:22:39 GMT 47.125809 18.691477 32,000 305 393 0
2021-12-04 10:22:36 GMT 47.123573 18.696337 32,000 305 393 0
2021-12-04 10:22:33 GMT 47.119198 18.705843 32,000 305 393 0
2021-12-04 10:22:30 GMT 47.116379 18.712051 32,000 305 393 0
2021-12-04 10:22:26 GMT 47.112396 18.720634 32,000 305 393 0
2021-12-04 10:22:23 GMT 47.110771 18.724154 32,000 305 393 0
2021-12-04 10:22:19 GMT 47.106308 18.733887 32,000 305 393 0
2021-12-04 10:22:16 GMT 47.102486 18.742252 32,000 305 393 0
2021-12-04 10:22:13 GMT 47.098434 18.751057 32,000 305 393 0
2021-12-04 10:22:10 GMT 47.096573 18.754999 32,000 305 393 0
2021-12-04 10:22:07 GMT 47.094543 18.759430 32,000 305 393 0
2021-12-04 10:22:04 GMT 47.086704 18.776409 32,000 305 392 0
2021-12-04 10:22:00 GMT 47.086704 18.776409 32,000 305 393 0
2021-12-04 10:21:57 GMT 47.083633 18.783030 32,000 305 393 0
2021-12-04 10:21:54 GMT 47.077625 18.796059 32,000 305 393 0
2021-12-04 10:21:51 GMT 47.077625 18.796059 32,000 305 394 0
2021-12-04 10:21:48 GMT 47.072506 18.807116 32,000 305 394 0
2021-12-04 10:21:45 GMT 47.071609 18.809074 32,000 305 394 0
2021-12-04 10:21:42 GMT 47.067200 18.818523 32,000 305 394 0
2021-12-04 10:21:39 GMT 47.065151 18.822960 32,000 305 394 0
2021-12-04 10:21:36 GMT 47.062729 18.828314 32,000 305 394 0
2021-12-04 10:21:33 GMT 47.059662 18.834961 32,000 305 394 0
2021-12-04 10:21:29 GMT 47.054630 18.845778 32,000 305 394 0
2021-12-04 10:21:26 GMT 47.051285 18.853088 32,000 305 396 0
2021-12-04 10:21:23 GMT 47.044327 18.868126 32,000 305 396 0
2021-12-04 10:21:19 GMT 47.044327 18.868126 32,000 305 396 0
2021-12-04 10:21:16 GMT 47.041946 18.873207 32,000 305 396 0
2021-12-04 10:21:13 GMT 47.038662 18.880358 32,000 305 397 0
2021-12-04 10:21:10 GMT 47.035583 18.887009 32,000 305 397 0
2021-12-04 10:21:07 GMT 47.032097 18.894583 32,000 305 398 0
2021-12-04 10:21:04 GMT 47.029404 18.900330 32,000 305 398 0
2021-12-04 10:21:00 GMT 47.021118 18.918182 32,000 305 398 0
2021-12-04 10:20:57 GMT 47.021118 18.918182 32,000 305 398 0
2021-12-04 10:20:54 GMT 47.019390 18.921978 32,000 305 398 0
2021-12-04 10:20:51 GMT 47.016678 18.927727 32,000 305 398 0
2021-12-04 10:20:48 GMT 47.012966 18.935781 32,000 305 398 0
2021-12-04 10:20:45 GMT 47.009537 18.943176 32,000 305 398 0
2021-12-04 10:20:41 GMT 47.005096 18.952753 32,000 305 398 0
2021-12-04 10:20:38 GMT 47.002487 18.958282 32,000 305 398 0
2021-12-04 10:20:34 GMT 46.997417 18.969234 32,000 305 398 0
2021-12-04 10:20:31 GMT 46.995483 18.973457 32,000 305 398 0
2021-12-04 10:20:28 GMT 46.991131 18.982756 32,000 305 398 64
2021-12-04 10:20:25 GMT 46.989029 18.987190 32,000 305 398 64
2021-12-04 10:20:22 GMT 46.985966 18.993881 32,000 305 398 64
2021-12-04 10:20:19 GMT 46.982845 19.000502 32,000 305 398 0
2021-12-04 10:20:16 GMT 46.979736 19.007172 32,000 305 397 0
2021-12-04 10:20:13 GMT 46.976841 19.013390 32,000 305 397 -64
2021-12-04 10:20:10 GMT 46.973164 19.021420 32,000 305 396 0
2021-12-04 10:20:05 GMT 46.969021 19.030222 32,000 305 396 0
2021-12-04 10:20:01 GMT 46.964783 19.039307 32,000 305 396 0
2021-12-04 10:19:57 GMT 46.958591 19.052616 32,000 305 396 0
2021-12-04 10:19:54 GMT 46.956032 19.058109 32,000 305 396 0
2021-12-04 10:19:51 GMT 46.953331 19.063885 32,000 305 396 64
2021-12-04 10:19:47 GMT 46.949699 19.071632 32,000 305 397 64
2021-12-04 10:19:44 GMT 46.945816 19.080025 31,975 305 398 -64
2021-12-04 10:19:40 GMT 46.942066 19.087971 32,000 305 399 0
2021-12-04 10:19:35 GMT 46.937393 19.097946 32,000 305 398 -64
2021-12-04 10:19:32 GMT 46.934525 19.104168 32,000 305 398 -64
2021-12-04 10:19:29 GMT 46.930569 19.112619 32,000 305 399 0
2021-12-04 10:19:25 GMT 46.926193 19.121986 32,000 305 399 -64
2021-12-04 10:19:20 GMT 46.922653 19.129532 32,000 305 399 -64
2021-12-04 10:19:16 GMT 46.917755 19.139969 32,000 305 400 0
2021-12-04 10:19:13 GMT 46.914413 19.147127 32,000 305 400 0
2021-12-04 10:19:10 GMT 46.911945 19.152479 32,000 305 400 0
2021-12-04 10:19:06 GMT 46.903152 19.171211 32,000 305 400 0
2021-12-04 10:19:03 GMT 46.903152 19.171211 32,000 305 401 0
2021-12-04 10:19:00 GMT 46.900955 19.175880 32,000 305 401 0
2021-12-04 10:18:54 GMT 46.893417 19.191988 32,000 305 401 0
2021-12-04 10:18:50 GMT 46.890701 19.197784 32,000 305 402 0
2021-12-04 10:18:46 GMT 46.885506 19.209030 32,000 305 403 0
2021-12-04 10:18:43 GMT 46.883503 19.213257 32,000 305 403 0
2021-12-04 10:18:40 GMT 46.880013 19.220652 32,000 305 403 64
2021-12-04 10:18:37 GMT 46.876328 19.228546 32,000 305 403 64
2021-12-04 10:18:33 GMT 46.871216 19.239525 32,000 305 404 0
2021-12-04 10:18:30 GMT 46.869724 19.242695 32,000 305 404 0
2021-12-04 10:18:25 GMT 46.864418 19.253883 32,000 305 404 0
2021-12-04 10:18:22 GMT 46.860626 19.261980 32,000 305 404 0
2021-12-04 10:18:19 GMT 46.858521 19.266537 32,000 305 404 0
2021-12-04 10:18:16 GMT 46.855061 19.274002 32,000 305 404 0
2021-12-04 10:18:13 GMT 46.850590 19.283409 32,000 305 405 0
2021-12-04 10:18:09 GMT 46.848038 19.288843 32,000 305 404 0
2021-12-04 10:18:05 GMT 46.842957 19.299614 32,000 305 405 0
2021-12-04 10:18:02 GMT 46.839981 19.305925 32,000 305 405 0
2021-12-04 10:17:59 GMT 46.836811 19.312660 32,000 305 406 0
2021-12-04 10:17:55 GMT 46.832153 19.322607 32,000 305 406 0
2021-12-04 10:17:51 GMT 46.827164 19.333191 32,000 305 406 0
2021-12-04 10:17:48 GMT 46.825974 19.335670 32,000 305 406 0
2021-12-04 10:17:45 GMT 46.818657 19.351250 32,000 305 407 0
2021-12-04 10:17:42 GMT 46.818657 19.351250 32,000 305 407 0
2021-12-04 10:17:39 GMT 46.815353 19.358246 32,000 305 407 0
2021-12-04 10:17:36 GMT 46.812511 19.364365 32,000 305 406 0
2021-12-04 10:17:32 GMT 46.808228 19.373360 32,000 305 407 0
2021-12-04 10:17:29 GMT 46.804924 19.380363 32,000 305 407 0
2021-12-04 10:17:24 GMT 46.799385 19.392174 32,000 305 409 0
2021-12-04 10:17:21 GMT 46.795853 19.399645 32,000 305 409 0
2021-12-04 10:17:18 GMT 46.793793 19.403933 32,000 305 409 0
2021-12-04 10:17:15 GMT 46.790447 19.410988 32,000 305 409 0
2021-12-04 10:17:11 GMT 46.786057 19.420279 32,000 305 409 0
2021-12-04 10:17:08 GMT 46.782440 19.427948 32,000 305 409 0
2021-12-04 10:17:05 GMT 46.779179 19.434746 32,000 305 409 0
2021-12-04 10:17:02 GMT 46.776760 19.439964 32,000 305 411 0
2021-12-04 10:16:59 GMT 46.773285 19.447275 32,000 305 409 0
2021-12-04 10:16:56 GMT 46.768890 19.456581 32,000 305 409 0
2021-12-04 10:16:51 GMT 46.764175 19.466568 32,000 305 410 0
2021-12-04 10:16:47 GMT 46.760838 19.473610 32,000 305 410 0
2021-12-04 10:16:44 GMT 46.757114 19.481575 32,000 305 410 0
2021-12-04 10:16:41 GMT 46.753761 19.488579 32,000 305 410 0
2021-12-04 10:16:38 GMT 46.749023 19.498589 32,000 305 411 0
2021-12-04 10:16:35 GMT 46.747421 19.502005 32,000 305 411 0
2021-12-04 10:16:33 GMT 46.744400 19.508369 32,000 305 411 0
2021-12-04 10:16:30 GMT 46.742264 19.512955 32,000 305 411 0
2021-12-04 10:16:27 GMT 46.737610 19.522774 32,000 305 411 0
2021-12-04 10:16:24 GMT 46.735233 19.527718 32,000 305 411 0
2021-12-04 10:16:21 GMT 46.731697 19.535271 32,000 305 411 0
2021-12-04 10:16:18 GMT 46.729229 19.540489 32,000 305 411 0
2021-12-04 10:16:15 GMT 46.724899 19.549622 32,000 305 410 0
2021-12-04 10:16:11 GMT 46.720802 19.558273 32,000 305 412 0
2021-12-04 10:16:08 GMT 46.717529 19.565109 32,000 305 412 0
2021-12-04 10:16:05 GMT 46.712982 19.574684 32,000 305 412 0
2021-12-04 10:16:02 GMT 46.711441 19.577906 32,000 305 413 0
2021-12-04 10:15:59 GMT 46.707458 19.586346 32,000 305 413 0
2021-12-04 10:15:55 GMT 46.703979 19.593647 32,000 305 413 0
2021-12-04 10:15:52 GMT 46.700821 19.600279 32,000 305 413 0
2021-12-04 10:15:49 GMT 46.697433 19.607313 32,000 305 413 0
2021-12-04 10:15:44 GMT 46.691990 19.618767 32,000 305 414 0
2021-12-04 10:15:42 GMT 46.689835 19.623323 32,000 305 414 0
2021-12-04 10:15:39 GMT 46.686588 19.630165 32,000 305 414 0
2021-12-04 10:15:35 GMT 46.681465 19.640945 32,000 305 414 0
2021-12-04 10:15:31 GMT 46.676765 19.650764 32,000 305 414 0
2021-12-04 10:15:27 GMT 46.673180 19.658318 32,000 305 414 0
2021-12-04 10:15:24 GMT 46.669270 19.666557 32,000 305 413 0
2021-12-04 10:15:19 GMT 46.665024 19.675442 32,000 305 413 64
2021-12-04 10:15:16 GMT 46.660675 19.684551 32,000 305 413 64
2021-12-04 10:15:13 GMT 46.657818 19.690521 32,000 305 413 0
2021-12-04 10:15:10 GMT 46.654633 19.697147 32,000 305 413 0
2021-12-04 10:15:07 GMT 46.651062 19.704649 32,000 305 413 0
2021-12-04 10:15:04 GMT 46.646805 19.713558 32,000 305 414 0
2021-12-04 10:15:01 GMT 46.645157 19.717026 32,000 305 414 0
2021-12-04 10:14:58 GMT 46.641758 19.724098 32,000 305 414 0
2021-12-04 10:14:54 GMT 46.636551 19.735064 32,000 305 414 0
2021-12-04 10:14:51 GMT 46.633053 19.742363 32,000 305 414 0
2021-12-04 10:14:47 GMT 46.629887 19.749023 32,000 305 414 0
2021-12-04 10:14:43 GMT 46.623138 19.763168 32,000 305 414 0
2021-12-04 10:14:39 GMT 46.621078 19.767553 32,000 305 414 0
2021-12-04 10:14:36 GMT 46.617691 19.774588 32,000 305 413 0
2021-12-04 10:14:32 GMT 46.612103 19.786240 32,000 305 413 0
2021-12-04 10:14:29 GMT 46.609917 19.790840 32,000 305 413 0
2021-12-04 10:14:25 GMT 46.606564 19.797913 32,000 305 414 0
2021-12-04 10:14:20 GMT 46.600662 19.810225 32,000 305 414 0
2021-12-04 10:14:17 GMT 46.596176 19.819536 32,000 305 414 0
2021-12-04 10:14:14 GMT 46.594090 19.823868 32,000 305 414 0
2021-12-04 10:14:11 GMT 46.589493 19.833471 32,000 305 414 64
2021-12-04 10:14:08 GMT 46.584126 19.844604 32,000 305 414 64
2021-12-04 10:14:05 GMT 46.584126 19.844604 32,000 305 414 0
2021-12-04 10:14:01 GMT 46.578003 19.857386 32,000 305 415 0
2021-12-04 10:13:58 GMT 46.576260 19.861084 32,000 305 415 0
2021-12-04 10:13:54 GMT 46.571743 19.870422 32,000 305 415 0
2021-12-04 10:13:49 GMT 46.567154 19.879963 32,000 305 415 0
2021-12-04 10:13:46 GMT 46.563309 19.888000 32,000 305 415 0
2021-12-04 10:13:43 GMT 46.560104 19.894566 32,000 305 415 0
2021-12-04 10:13:41 GMT 46.557823 19.899399 32,000 305 415 0
2021-12-04 10:13:38 GMT 46.553635 19.908051 32,000 305 415 0
2021-12-04 10:13:35 GMT 46.551445 19.912651 32,000 305 415 0
2021-12-04 10:13:32 GMT 46.548046 19.919724 32,000 305 415 0
2021-12-04 10:13:28 GMT 46.543346 19.929474 32,000 305 415 0
2021-12-04 10:13:25 GMT 46.540054 19.936300 32,000 305 415 0
2021-12-04 10:13:22 GMT 46.536942 19.942732 32,000 305 415 0
2021-12-04 10:13:20 GMT 46.534012 19.948895 32,000 305 415 0
2021-12-04 10:13:17 GMT 46.531265 19.954588 32,000 305 415 0
2021-12-04 10:13:14 GMT 46.527649 19.962091 32,000 305 415 0
2021-12-04 10:13:11 GMT 46.524120 19.969437 32,000 305 415 0
2021-12-04 10:13:08 GMT 46.520630 19.976715 32,000 305 415 0
2021-12-04 10:13:04 GMT 46.516346 19.985641 32,000 305 416 0
2021-12-04 10:12:59 GMT 46.511581 19.995453 32,000 305 416 0
2021-12-04 10:12:56 GMT 46.507095 20.004831 32,000 305 416 0
2021-12-04 10:12:52 GMT 46.504803 20.009605 32,000 305 416 0
2021-12-04 10:12:49 GMT 46.500412 20.018764 32,000 305 416 0
2021-12-04 10:12:45 GMT 46.494644 20.030622 32,000 305 417 0
2021-12-04 10:12:42 GMT 46.493546 20.032900 32,000 305 417 0
2021-12-04 10:12:38 GMT 46.488926 20.042564 32,000 305 417 0
2021-12-04 10:12:34 GMT 46.480637 20.059694 32,000 306 417 0
2021-12-04 10:12:29 GMT 46.477432 20.066326 32,000 306 417 0
2021-12-04 10:12:23 GMT 46.471985 20.077515 32,000 306 417 0
2021-12-04 10:12:18 GMT 46.466034 20.089909 32,000 305 418 0
2021-12-04 10:12:15 GMT 46.463150 20.095802 32,000 305 418 0
2021-12-04 10:12:11 GMT 46.458946 20.104568 32,000 306 417 -64
2021-12-04 10:12:06 GMT 46.452393 20.118044 32,000 306 417 -64
2021-12-04 10:12:03 GMT 46.449867 20.123314 32,000 306 417 -64
2021-12-04 10:12:00 GMT 46.445957 20.131348 32,000 306 417 0
2021-12-04 10:11:57 GMT 46.443630 20.136154 32,000 306 417 -64
2021-12-04 10:11:53 GMT 46.438339 20.147051 32,000 306 416 0
2021-12-04 10:11:48 GMT 46.432785 20.158470 32,000 306 416 0
2021-12-04 10:11:43 GMT 46.426895 20.170563 32,000 306 417 0
2021-12-04 10:11:38 GMT 46.420589 20.183601 32,000 306 417 0
2021-12-04 10:11:35 GMT 46.417786 20.189322 32,000 306 417 0
2021-12-04 10:11:32 GMT 46.415375 20.194313 32,000 306 417 0
2021-12-04 10:11:27 GMT 46.409821 20.205799 32,000 305 418 0
2021-12-04 10:11:22 GMT 46.404373 20.216988 32,000 306 419 0
2021-12-04 10:11:16 GMT 46.397690 20.230721 32,000 306 419 0
2021-12-04 10:11:12 GMT 46.392796 20.240799 32,000 306 419 0
2021-12-04 10:11:07 GMT 46.387535 20.251579 32,000 306 419 0
2021-12-04 10:11:04 GMT 46.383858 20.259132 32,000 306 419 0
2021-12-04 10:11:01 GMT 46.381393 20.264149 32,000 306 419 0
2021-12-04 10:10:56 GMT 46.374023 20.279287 32,000 306 419 0
2021-12-04 10:10:52 GMT 46.370453 20.286598 32,000 306 419 0
2021-12-04 10:10:47 GMT 46.364227 20.299452 32,000 306 419 0
2021-12-04 10:10:44 GMT 46.360863 20.306305 32,000 306 419 0
2021-12-04 10:10:41 GMT 46.359325 20.309532 32,000 306 420 0
2021-12-04 10:10:38 GMT 46.354065 20.320312 32,000 306 420 0
2021-12-04 10:10:31 GMT 46.347473 20.333818 32,000 306 420 0
2021-12-04 10:10:26 GMT 46.341869 20.345306 32,000 306 421 0
2021-12-04 10:10:22 GMT 46.337494 20.354301 32,000 306 421 0
2021-12-04 10:10:19 GMT 46.333008 20.363495 32,000 306 421 0
2021-12-04 10:10:15 GMT 46.329758 20.370127 32,000 306 421 0
2021-12-04 10:10:11 GMT 46.323109 20.383690 32,000 306 422 0
2021-12-04 10:10:06 GMT 46.319386 20.391243 32,000 306 422 64
2021-12-04 10:10:03 GMT 46.315109 20.400003 32,000 306 422 0
2021-12-04 10:10:00 GMT 46.313095 20.404158 32,000 306 422 0
2021-12-04 10:09:56 GMT 46.306675 20.417198 32,000 306 422 0
2021-12-04 10:09:50 GMT 46.299690 20.431480 32,000 306 421 0
2021-12-04 10:09:47 GMT 46.297577 20.435843 32,000 306 421 0
2021-12-04 10:09:44 GMT 46.294281 20.442474 32,000 306 421 0
2021-12-04 10:09:40 GMT 46.290150 20.450981 32,000 306 421 0
2021-12-04 10:09:35 GMT 46.284515 20.462448 32,000 306 421 0
2021-12-04 10:09:29 GMT 46.276649 20.478516 32,000 306 421 0
2021-12-04 10:09:24 GMT 46.272125 20.487694 32,000 306 422 0
2021-12-04 10:09:20 GMT 46.267731 20.496670 32,000 306 423 0
2021-12-04 10:09:18 GMT 46.265213 20.501694 32,000 306 423 0
2021-12-04 10:09:15 GMT 46.261612 20.509071 32,000 306 423 0
2021-12-04 10:09:10 GMT 46.255932 20.520538 32,000 306 423 0
2021-12-04 10:09:04 GMT 46.248917 20.534786 32,000 306 424 0
2021-12-04 10:08:59 GMT 46.244389 20.544022 32,000 306 424 0
2021-12-04 10:08:54 GMT 46.237427 20.558100 32,000 306 424 0
2021-12-04 10:08:50 GMT 46.232117 20.568886 32,000 306 425 0
2021-12-04 10:08:45 GMT 46.227444 20.578354 32,000 306 425 0
2021-12-04 10:08:42 GMT 46.224380 20.584627 32,000 306 427 0
2021-12-04 10:08:39 GMT 46.221085 20.591326 32,000 306 426 0
2021-12-04 10:08:34 GMT 46.215664 20.602455 32,000 306 426 0
2021-12-04 10:08:31 GMT 46.211563 20.610821 32,000 306 426 -64
2021-12-04 10:08:29 GMT 46.209846 20.614265 32,000 306 427 0
2021-12-04 10:08:23 GMT 46.201538 20.631252 32,000 306 427 0
2021-12-04 10:08:19 GMT 46.197929 20.638641 32,000 306 427 0
2021-12-04 10:08:15 GMT 46.192108 20.650452 32,000 306 426 0
2021-12-04 10:08:12 GMT 46.185497 20.663910 32,000 305 427 0
2021-12-04 10:08:08 GMT 46.185497 20.663910 32,000 304 428 0
2021-12-04 10:08:03 GMT 46.180004 20.675377 32,000 304 428 0
2021-12-04 10:07:59 GMT 46.175354 20.685312 32,000 304 428 0
2021-12-04 10:07:53 GMT 46.168991 20.699045 32,000 303 428 0
2021-12-04 10:07:47 GMT 46.162720 20.712847 32,000 303 428 0
2021-12-04 10:07:44 GMT 46.159103 20.721039 32,000 303 428 0
2021-12-04 10:07:40 GMT 46.154354 20.731888 32,000 302 428 0
2021-12-04 10:07:37 GMT 46.151871 20.737633 32,000 302 428 0
2021-12-04 10:07:32 GMT 46.147141 20.748848 32,000 301 428 0
2021-12-04 10:07:28 GMT 46.142120 20.761080 32,000 301 427 0
2021-12-04 10:07:22 GMT 46.136993 20.773567 32,000 301 427 0
2021-12-04 10:07:18 GMT 46.131729 20.786545 32,000 301 426 0
2021-12-04 10:07:12 GMT 46.126511 20.799330 32,000 301 426 0
2021-12-04 10:07:09 GMT 46.122528 20.809111 32,000 301 426 0
2021-12-04 10:07:05 GMT 46.120148 20.814938 32,000 301 426 0
2021-12-04 10:07:02 GMT 46.117081 20.822508 32,000 301 426 0
2021-12-04 10:06:59 GMT 46.112778 20.833027 32,000 301 426 0
2021-12-04 10:06:56 GMT 46.110596 20.838455 32,000 301 426 0
2021-12-04 10:06:51 GMT 46.106548 20.848480 32,000 301 426 64
2021-12-04 10:06:45 GMT 46.098862 20.867256 32,000 301 426 0
2021-12-04 10:06:42 GMT 46.096958 20.871964 32,000 301 426 0
2021-12-04 10:06:35 GMT 46.089184 20.891052 32,000 301 426 -64
2021-12-04 10:06:31 GMT 46.086411 20.897873 32,000 301 426 -64
2021-12-04 10:06:27 GMT 46.081409 20.910072 32,000 301 426 -64
2021-12-04 10:06:20 GMT 46.074425 20.927238 32,000 301 426 0
2021-12-04 10:06:16 GMT 46.071167 20.935272 32,000 301 426 0
2021-12-04 10:06:10 GMT 46.064896 20.950661 32,000 301 426 64
2021-12-04 10:06:05 GMT 46.060593 20.961178 32,000 301 426 64
2021-12-04 10:06:01 GMT 46.056316 20.971664 32,000 301 426 0
2021-12-04 10:05:58 GMT 46.052128 20.981964 32,000 301 426 0
2021-12-04 10:05:55 GMT 46.050217 20.986565 32,000 301 426 0
2021-12-04 10:05:50 GMT 46.045441 20.998289 32,000 301 426 0
2021-12-04 10:05:46 GMT 46.041653 21.007576 32,000 301 427 0
2021-12-04 10:05:42 GMT 46.037659 21.017382 32,000 301 427 0
2021-12-04 10:05:39 GMT 46.033539 21.027363 32,000 301 427 0
2021-12-04 10:05:34 GMT 46.028526 21.039574 32,000 301 427 0
2021-12-04 10:05:31 GMT 46.025452 21.047127 32,000 301 427 0
2021-12-04 10:05:24 GMT 46.018936 21.063002 32,000 301 427 0
2021-12-04 10:05:21 GMT 46.016048 21.070129 32,000 301 428 0
2021-12-04 10:05:16 GMT 46.009346 21.086472 32,000 301 428 0
2021-12-04 10:05:10 GMT 46.005527 21.095741 32,000 301 428 0
2021-12-04 10:05:03 GMT 45.998291 21.113379 32,000 301 428 0
2021-12-04 10:04:58 GMT 45.993576 21.124901 32,000 301 428 0
2021-12-04 10:04:55 GMT 45.988445 21.137352 32,000 301 429 0
2021-12-04 10:04:49 GMT 45.982998 21.150604 32,000 301 429 0
2021-12-04 10:04:45 GMT 45.977505 21.164131 32,000 301 429 0
2021-12-04 10:04:42 GMT 45.977505 21.164131 32,000 301 429 0
2021-12-04 10:04:39 GMT 45.972656 21.175880 32,000 301 429 64
2021-12-04 10:04:36 GMT 45.970753 21.180542 32,000 301 429 0
2021-12-04 10:04:33 GMT 45.968536 21.185928 32,000 301 429 0
2021-12-04 10:04:28 GMT 45.963547 21.197920 32,000 301 429 0
2021-12-04 10:04:24 GMT 45.959534 21.207664 32,000 301 428 0
2021-12-04 10:04:19 GMT 45.954182 21.220711 32,000 301 429 -64
2021-12-04 10:04:14 GMT 45.949341 21.232452 32,000 301 429 -64
2021-12-04 10:04:09 GMT 45.944080 21.245155 32,000 301 429 0
2021-12-04 10:04:05 GMT 45.933651 21.270355 32,000 301 428 0
2021-12-04 10:04:00 GMT 45.930130 21.278910 32,000 301 428 0
2021-12-04 10:03:52 GMT 45.926880 21.286680 32,000 301 428 0
2021-12-04 10:03:49 GMT 45.923225 21.295486 32,000 301 428 0
2021-12-04 10:03:45 GMT 45.919498 21.304482 32,000 301 428 0
2021-12-04 10:03:42 GMT 45.916569 21.311554 32,000 301 428 0
2021-12-04 10:03:37 GMT 45.911316 21.324196 32,000 301 428 0
2021-12-04 10:03:31 GMT 45.905457 21.338329 32,000 301 428 0
2021-12-04 10:03:28 GMT 45.902390 21.345633 32,000 301 428 0
2021-12-04 10:03:24 GMT 45.897667 21.357147 32,000 301 428 -64
2021-12-04 10:03:18 GMT 45.892311 21.370056 32,000 301 427 0
2021-12-04 10:03:13 GMT 45.887695 21.381269 32,000 301 427 0
2021-12-04 10:03:07 GMT 45.881744 21.395668 32,000 301 427 0
2021-12-04 10:03:04 GMT 45.878021 21.404663 32,000 301 428 0
2021-12-04 10:03:00 GMT 45.874065 21.414139 32,000 301 428 0
2021-12-04 10:02:57 GMT 45.865780 21.434052 32,000 301 428 64
2021-12-04 10:02:52 GMT 45.865780 21.434052 32,000 301 428 64
2021-12-04 10:02:47 GMT 45.860237 21.447441 32,000 301 429 0
2021-12-04 10:02:42 GMT 45.850800 21.470098 32,000 301 429 0
2021-12-04 10:02:37 GMT 45.850800 21.470098 32,000 301 429 0
2021-12-04 10:02:32 GMT 45.845436 21.483009 32,000 301 429 0
2021-12-04 10:02:27 GMT 45.841106 21.493515 32,000 301 429 0
2021-12-04 10:02:24 GMT 45.836964 21.503471 32,000 301 429 0
2021-12-04 10:02:21 GMT 45.834320 21.509825 32,000 301 429 0
2021-12-04 10:02:16 GMT 45.829514 21.521278 32,000 301 428 0
2021-12-04 10:02:13 GMT 45.826584 21.528397 32,000 301 429 0
2021-12-04 10:02:07 GMT 45.820156 21.543709 32,000 301 430 0
2021-12-04 10:02:02 GMT 45.814152 21.558128 32,000 301 430 0
2021-12-04 10:01:57 GMT 45.810150 21.567604 32,000 301 430 0
2021-12-04 10:01:52 GMT 45.805588 21.578590 32,000 301 430 0
2021-12-04 10:01:49 GMT 45.802185 21.586660 32,000 301 430 0
2021-12-04 10:01:46 GMT 45.799114 21.593971 32,000 301 430 0
2021-12-04 10:01:40 GMT 45.792114 21.610844 32,000 301 430 0
2021-12-04 10:01:35 GMT 45.787479 21.621849 32,000 301 430 0
2021-12-04 10:01:32 GMT 45.785156 21.627459 32,000 301 430 0
2021-12-04 10:01:28 GMT 45.780350 21.638912 32,000 301 430 0
2021-12-04 10:01:26 GMT 45.778290 21.643803 32,000 301 430 0
2021-12-04 10:01:22 GMT 45.774395 21.653091 32,000 301 431 0
2021-12-04 10:01:19 GMT 45.771744 21.659479 32,000 301 431 0
2021-12-04 10:01:15 GMT 45.767460 21.669708 32,000 301 431 0
2021-12-04 10:01:11 GMT 45.763367 21.679508 32,000 301 431 0
2021-12-04 10:01:08 GMT 45.758846 21.690239 32,000 301 431 0
2021-12-04 10:01:04 GMT 45.753296 21.703424 32,000 301 431 0
2021-12-04 10:01:01 GMT 45.753296 21.703424 32,000 301 431 0
2021-12-04 10:00:58 GMT 45.749908 21.711531 32,000 301 431 0
2021-12-04 10:00:55 GMT 45.746704 21.719101 32,000 301 431 0
2021-12-04 10:00:52 GMT 45.743252 21.727386 32,000 301 431 0
2021-12-04 10:00:47 GMT 45.738178 21.739334 32,000 301 431 0
2021-12-04 10:00:44 GMT 45.735619 21.745445 32,000 301 431 0
2021-12-04 10:00:41 GMT 45.732548 21.752792 32,000 301 431 0
2021-12-04 10:00:38 GMT 45.728775 21.761787 32,000 301 431 0
2021-12-04 10:00:35 GMT 45.725983 21.768379 32,000 301 431 0
2021-12-04 10:00:31 GMT 45.721977 21.777924 32,000 301 431 0
2021-12-04 10:00:27 GMT 45.717976 21.787468 32,000 301 430 0
2021-12-04 10:00:24 GMT 45.715042 21.794540 32,000 301 430 0
2021-12-04 10:00:21 GMT 45.712063 21.801613 32,000 301 430 0
2021-12-04 10:00:17 GMT 45.707977 21.811413 32,000 301 430 0
2021-12-04 10:00:14 GMT 45.704407 21.819920 32,000 301 430 0
2021-12-04 10:00:10 GMT 45.700928 21.828226 32,000 301 430 0
2021-12-04 10:00:04 GMT 45.694885 21.842537 32,000 302 430 0
2021-12-04 10:00:01 GMT 45.691299 21.851051 32,000 302 430 0
2021-12-04 09:59:58 GMT 45.686966 21.861319 32,000 302 430 0
2021-12-04 09:59:54 GMT 45.683899 21.868561 32,000 302 430 0
2021-12-04 09:59:48 GMT 45.677849 21.882912 32,000 302 429 0
2021-12-04 09:59:44 GMT 45.673656 21.892868 32,000 302 429 0
2021-12-04 09:59:41 GMT 45.670578 21.900173 32,000 302 429 0
2021-12-04 09:59:38 GMT 45.667603 21.907207 32,000 302 429 0
2021-12-04 09:59:35 GMT 45.665230 21.912781 32,000 302 429 0
2021-12-04 09:59:28 GMT 45.657364 21.931389 32,000 302 428 0
2021-12-04 09:59:25 GMT 45.654713 21.937706 32,000 302 428 0
2021-12-04 09:59:20 GMT 45.649475 21.950014 32,000 302 428 0
2021-12-04 09:59:14 GMT 45.643494 21.964073 32,000 302 428 0
2021-12-04 09:59:10 GMT 45.638992 21.974733 32,000 302 428 64
2021-12-04 09:59:06 GMT 45.634689 21.984848 32,000 302 428 64
2021-12-04 09:59:03 GMT 45.631622 21.992149 32,000 302 428 64
2021-12-04 09:59:00 GMT 45.628502 21.999367 32,000 302 429 0
2021-12-04 09:58:53 GMT 45.621334 22.016327 32,000 302 430 0
2021-12-04 09:58:50 GMT 45.618355 22.023331 32,000 302 430 0
2021-12-04 09:58:42 GMT 45.610718 22.041252 32,000 302 430 0
2021-12-04 09:58:39 GMT 45.607635 22.048555 32,000 302 430 0
2021-12-04 09:58:32 GMT 45.600525 22.065285 32,000 302 431 64
2021-12-04 09:58:29 GMT 45.597218 22.073044 32,000 302 431 64
2021-12-04 09:58:22 GMT 45.588467 22.093643 32,000 302 431 0
2021-12-04 09:58:19 GMT 45.587025 22.097076 32,000 302 431 0
2021-12-04 09:58:13 GMT 45.574173 22.127201 32,000 302 431 0
2021-12-04 09:58:08 GMT 45.569427 22.138344 32,000 302 431 0
2021-12-04 09:58:03 GMT 45.569427 22.138344 32,000 302 431 -64
2021-12-04 09:57:58 GMT 45.565052 22.148575 32,000 302 431 0
2021-12-04 09:57:52 GMT 45.558533 22.163887 32,000 302 431 0
2021-12-04 09:57:48 GMT 45.554993 22.172152 32,000 302 431 64
2021-12-04 09:57:45 GMT 45.550434 22.182770 32,000 302 431 0
2021-12-04 09:57:42 GMT 45.547943 22.188631 32,000 302 431 64
2021-12-04 09:57:38 GMT 45.544327 22.197090 32,000 302 431 0
2021-12-04 09:57:31 GMT 45.536041 22.216513 32,000 302 431 0
2021-12-04 09:57:28 GMT 45.534374 22.220385 32,000 302 431 0
2021-12-04 09:57:24 GMT 45.529533 22.231773 32,000 302 431 0
2021-12-04 09:57:21 GMT 45.526321 22.239277 32,000 302 431 0
2021-12-04 09:57:18 GMT 45.523224 22.246595 32,000 302 431 0
2021-12-04 09:57:10 GMT 45.515240 22.265268 32,000 302 431 0
2021-12-04 09:57:04 GMT 45.508804 22.280273 32,000 302 432 0
2021-12-04 09:57:01 GMT 45.505005 22.289232 32,000 302 432 0
2021-12-04 09:56:55 GMT 45.499599 22.301844 32,000 302 431 0
2021-12-04 09:56:52 GMT 45.496902 22.308132 32,000 302 431 0
2021-12-04 09:56:47 GMT 45.491776 22.319967 32,000 302 431 0
2021-12-04 09:56:39 GMT 45.483166 22.340096 32,000 302 431 0
2021-12-04 09:56:36 GMT 45.479534 22.348536 32,000 302 431 0
2021-12-04 09:56:33 GMT 45.476509 22.355503 32,000 302 431 0
2021-12-04 09:56:30 GMT 45.472733 22.364241 32,000 302 431 0
2021-12-04 09:56:27 GMT 45.470169 22.370321 32,000 302 431 0
2021-12-04 09:56:21 GMT 45.460464 22.392818 32,000 302 432 0
2021-12-04 09:56:18 GMT 45.460464 22.392818 32,000 302 432 0
2021-12-04 09:56:13 GMT 45.455048 22.405411 32,000 302 432 0
2021-12-04 09:56:07 GMT 45.449928 22.417269 32,000 302 432 0
2021-12-04 09:56:03 GMT 45.445877 22.426714 32,000 302 432 0
2021-12-04 09:55:59 GMT 45.440758 22.438570 32,000 302 433 0
2021-12-04 09:55:56 GMT 45.438034 22.444872 32,000 302 433 0
2021-12-04 09:55:51 GMT 45.433449 22.455585 32,000 302 433 0
2021-12-04 09:55:48 GMT 45.429771 22.464092 32,000 302 434 0
2021-12-04 09:55:45 GMT 45.426514 22.471596 32,000 302 434 0
2021-12-04 09:55:42 GMT 45.423298 22.479099 32,000 302 434 0
2021-12-04 09:55:38 GMT 45.418968 22.489080 32,000 302 434 0
2021-12-04 09:55:34 GMT 45.413635 22.501505 32,000 302 434 0
2021-12-04 09:55:29 GMT 45.409660 22.510784 32,000 302 434 0
2021-12-04 09:55:26 GMT 45.406540 22.518049 32,000 302 434 0
2021-12-04 09:55:23 GMT 45.403515 22.525122 32,000 302 434 0
2021-12-04 09:55:17 GMT 45.397415 22.539255 32,000 302 435 0
2021-12-04 09:55:13 GMT 45.392761 22.549961 32,000 302 435 0
2021-12-04 09:55:07 GMT 45.386444 22.564545 32,000 302 435 0
2021-12-04 09:55:03 GMT 45.381355 22.576235 32,000 302 435 0
2021-12-04 09:55:00 GMT 45.379349 22.580828 32,000 302 435 0
2021-12-04 09:54:56 GMT 45.375229 22.590309 32,000 302 436 0
2021-12-04 09:54:51 GMT 45.369507 22.603455 32,000 302 436 0
2021-12-04 09:54:46 GMT 45.364365 22.615423 32,000 302 436 0
2021-12-04 09:54:41 GMT 45.359570 22.626410 32,000 302 436 0
2021-12-04 09:54:35 GMT 45.352798 22.642038 32,000 302 437 0
2021-12-04 09:54:31 GMT 45.349236 22.650326 32,000 302 443 0
2021-12-04 09:54:25 GMT 45.341309 22.668589 32,000 302 438 0
2021-12-04 09:54:22 GMT 45.338528 22.674976 32,000 302 438 0
2021-12-04 09:54:17 GMT 45.332893 22.687906 32,000 302 439 0
2021-12-04 09:54:14 GMT 45.330872 22.692589 32,000 302 439 0
2021-12-04 09:54:11 GMT 45.327450 22.700434 32,000 302 439 0
2021-12-04 09:54:05 GMT 45.320839 22.715572 32,000 302 440 0
2021-12-04 09:54:01 GMT 45.316544 22.725416 32,000 302 441 0
2021-12-04 09:53:55 GMT 45.309620 22.741430 32,000 302 442 0
2021-12-04 09:53:50 GMT 45.305099 22.751770 32,000 302 442 0
2021-12-04 09:53:44 GMT 45.298553 22.766811 32,000 302 443 0
2021-12-04 09:53:41 GMT 45.294342 22.776489 32,000 302 443 0
2021-12-04 09:53:34 GMT 45.287319 22.792477 32,000 302 443 0
2021-12-04 09:53:30 GMT 45.283783 22.800650 32,000 302 443 0
2021-12-04 09:53:24 GMT 45.276241 22.817934 32,000 302 443 0
2021-12-04 09:53:20 GMT 45.272369 22.826843 32,000 302 444 64
2021-12-04 09:53:13 GMT 45.264931 22.843859 32,000 302 444 0
2021-12-04 09:53:09 GMT 45.260925 22.853037 32,000 302 444 64
2021-12-04 09:53:03 GMT 45.254875 22.866837 32,000 302 444 0
2021-12-04 09:53:00 GMT 45.250450 22.877020 32,000 302 444 0
2021-12-04 09:52:56 GMT 45.246552 22.885895 32,000 302 443 -64
2021-12-04 09:52:53 GMT 45.242752 22.894527 32,000 302 444 0
2021-12-04 09:52:47 GMT 45.236904 22.907902 32,000 302 444 0
2021-12-04 09:52:42 GMT 45.231491 22.920227 32,000 302 444 0
2021-12-04 09:52:37 GMT 45.226089 22.932587 32,000 302 443 0
2021-12-04 09:52:32 GMT 45.220703 22.944946 32,000 302 443 0
2021-12-04 09:52:28 GMT 45.216934 22.953588 32,000 302 443 0
2021-12-04 09:52:25 GMT 45.209473 22.970581 32,000 302 443 0
2021-12-04 09:52:22 GMT 45.209473 22.970581 32,000 302 443 0
2021-12-04 09:52:19 GMT 45.205574 22.979446 32,000 302 442 0
2021-12-04 09:52:15 GMT 45.202873 22.985609 32,000 302 442 -64
2021-12-04 09:52:11 GMT 45.198219 22.996193 32,000 302 442 -64
2021-12-04 09:52:07 GMT 45.193798 23.006243 32,000 302 442 -64
2021-12-04 09:52:03 GMT 45.188828 23.017534 32,000 302 442 0
2021-12-04 09:52:00 GMT 45.186768 23.022186 32,000 302 442 0
2021-12-04 09:51:54 GMT 45.180222 23.037153 32,000 302 441 0
2021-12-04 09:51:51 GMT 45.175323 23.048140 32,000 302 441 64
2021-12-04 09:51:46 GMT 45.171570 23.056770 32,000 303 441 0
2021-12-04 09:51:43 GMT 45.168331 23.064054 32,000 303 441 0
2021-12-04 09:51:40 GMT 45.164658 23.072401 32,000 303 441 0
2021-12-04 09:51:37 GMT 45.160675 23.081425 32,000 303 441 -64
2021-12-04 09:51:32 GMT 45.155136 23.093916 32,000 303 441 -64
2021-12-04 09:51:29 GMT 45.153343 23.098085 32,000 302 440 -64
2021-12-04 09:51:25 GMT 45.147812 23.110525 32,000 302 440 0
2021-12-04 09:51:20 GMT 45.142319 23.123016 32,000 302 440 64
2021-12-04 09:51:14 GMT 45.136723 23.135666 32,000 302 440 64
2021-12-04 09:51:07 GMT 45.128017 23.155495 32,000 302 440 0
2021-12-04 09:51:04 GMT 45.125977 23.160095 32,000 303 441 -64
2021-12-04 09:50:59 GMT 45.116776 23.180824 32,000 303 441 -64
2021-12-04 09:50:55 GMT 45.116776 23.180824 32,000 303 441 -64
2021-12-04 09:50:52 GMT 45.108994 23.198418 32,000 303 441 0
2021-12-04 09:50:49 GMT 45.108994 23.198418 32,000 303 441 0
2021-12-04 09:50:43 GMT 45.103271 23.211365 32,000 302 440 0
2021-12-04 09:50:40 GMT 45.099621 23.219604 32,000 303 441 0
2021-12-04 09:50:36 GMT 45.095306 23.229347 32,000 302 440 0
2021-12-04 09:50:32 GMT 45.091095 23.238895 32,000 302 440 0
2021-12-04 09:50:29 GMT 45.088394 23.244978 32,000 303 441 0
2021-12-04 09:50:26 GMT 45.084183 23.254524 32,000 303 441 0
2021-12-04 09:50:23 GMT 45.081280 23.261070 32,000 303 441 0
2021-12-04 09:50:18 GMT 45.075302 23.274536 32,000 303 441 0
2021-12-04 09:50:15 GMT 45.072716 23.280363 32,000 303 441 0
2021-12-04 09:50:12 GMT 45.069351 23.287943 32,000 303 441 0
2021-12-04 09:50:09 GMT 45.066422 23.294546 32,000 303 441 0
2021-12-04 09:50:06 GMT 45.062752 23.302807 32,000 303 442 0
2021-12-04 09:50:02 GMT 45.058517 23.312386 32,000 303 441 0
2021-12-04 09:49:57 GMT 45.053055 23.324562 32,000 303 442 0
2021-12-04 09:49:54 GMT 45.050694 23.329937 32,000 303 442 0
2021-12-04 09:49:47 GMT 45.041428 23.350721 32,000 303 442 0
2021-12-04 09:49:43 GMT 45.038174 23.358072 32,000 303 441 0
2021-12-04 09:49:36 GMT 45.026230 23.384924 32,000 303 443 0
2021-12-04 09:49:32 GMT 45.026230 23.384924 32,000 303 443 0
2021-12-04 09:49:27 GMT 45.021378 23.395973 32,000 303 443 0
2021-12-04 09:49:24 GMT 45.017223 23.405233 32,000 303 443 0
2021-12-04 09:49:16 GMT 45.008053 23.425798 32,000 303 443 0
2021-12-04 09:49:13 GMT 45.005219 23.432138 32,000 303 443 0
2021-12-04 09:49:08 GMT 44.998764 23.446524 32,000 303 443 0
2021-12-04 09:49:04 GMT 44.994507 23.456072 32,000 303 443 0
2021-12-04 09:49:00 GMT 44.991249 23.463381 32,000 303 443 0
2021-12-04 09:48:55 GMT 44.985535 23.476084 32,000 303 442 0
2021-12-04 09:48:51 GMT 44.981506 23.485043 32,000 303 442 0
2021-12-04 09:48:45 GMT 44.974091 23.501652 32,000 303 442 0
2021-12-04 09:48:40 GMT 44.969193 23.512638 32,000 303 442 0
2021-12-04 09:48:34 GMT 44.962646 23.527222 32,000 303 442 0
2021-12-04 09:48:31 GMT 44.959175 23.535059 32,000 303 441 0
2021-12-04 09:48:23 GMT 44.950333 23.554752 32,000 303 442 0
2021-12-04 09:48:20 GMT 44.947254 23.561586 32,000 303 441 0
2021-12-04 09:48:14 GMT 44.940033 23.577641 32,000 303 442 0
2021-12-04 09:48:10 GMT 44.936646 23.585226 32,000 303 441 0
2021-12-04 09:48:05 GMT 44.931614 23.596422 32,000 303 442 0
2021-12-04 09:48:01 GMT 44.927334 23.605934 32,000 303 443 0
2021-12-04 09:47:56 GMT 44.921219 23.619558 32,000 303 442 0
2021-12-04 09:47:52 GMT 44.916733 23.629564 32,000 303 443 -64
2021-12-04 09:47:48 GMT 44.912994 23.637821 32,000 303 442 -64
2021-12-04 09:47:44 GMT 44.908813 23.647091 32,000 303 443 0
2021-12-04 09:47:41 GMT 44.901855 23.662655 32,000 303 442 0
2021-12-04 09:47:38 GMT 44.901855 23.662655 32,000 303 442 0
2021-12-04 09:47:34 GMT 44.897446 23.672388 32,000 303 442 64
2021-12-04 09:47:31 GMT 44.894073 23.679983 32,000 303 442 64
2021-12-04 09:47:24 GMT 44.885853 23.698179 32,000 303 442 64
2021-12-04 09:47:20 GMT 44.882687 23.705214 32,000 303 442 0
2021-12-04 09:47:14 GMT 44.875008 23.722296 32,000 303 443 -64
2021-12-04 09:47:10 GMT 44.860199 23.755123 32,000 303 444 -64
2021-12-04 09:47:01 GMT 44.860199 23.755123 32,000 303 443 -64
2021-12-04 09:46:54 GMT 44.852280 23.772648 32,000 303 442 0
2021-12-04 09:46:50 GMT 44.848892 23.780169 32,000 303 441 0
2021-12-04 09:46:43 GMT 44.841568 23.796387 32,000 303 441 0
2021-12-04 09:46:39 GMT 44.837158 23.806101 32,000 303 441 0
2021-12-04 09:46:35 GMT 44.832779 23.815809 32,000 303 441 0
2021-12-04 09:46:32 GMT 44.828293 23.825748 32,000 303 441 0
2021-12-04 09:46:28 GMT 44.823807 23.835625 32,000 303 441 0
2021-12-04 09:46:19 GMT 44.814957 23.855270 32,000 303 441 0
2021-12-04 09:46:13 GMT 44.807831 23.871002 32,000 303 441 0
2021-12-04 09:46:09 GMT 44.795868 23.897408 32,000 303 441 0
2021-12-04 09:46:01 GMT 44.795868 23.897408 32,000 303 441 0
2021-12-04 09:45:58 GMT 44.792564 23.904642 32,000 303 441 0
2021-12-04 09:45:52 GMT 44.785446 23.920376 32,000 303 441 0
2021-12-04 09:45:49 GMT 44.781601 23.928877 32,000 303 441 0
2021-12-04 09:45:42 GMT 44.773571 23.946510 32,000 303 442 0
2021-12-04 09:45:38 GMT 44.770065 23.954250 32,000 303 442 0
2021-12-04 09:45:35 GMT 44.767193 23.960512 32,000 303 442 0
2021-12-04 09:45:30 GMT 44.761505 23.973083 32,000 303 442 0
2021-12-04 09:45:27 GMT 44.758209 23.980341 32,000 303 442 0
2021-12-04 09:45:23 GMT 44.753815 23.990021 32,000 303 442 0
2021-12-04 09:45:18 GMT 44.747410 24.004055 32,000 303 441 0
2021-12-04 09:45:15 GMT 44.745438 24.008396 32,000 303 441 0
2021-12-04 09:45:10 GMT 44.739166 24.022129 32,000 303 441 0
2021-12-04 09:45:07 GMT 44.735863 24.029377 32,000 303 441 0
2021-12-04 09:44:59 GMT 44.726761 24.049398 32,000 303 441 64
2021-12-04 09:44:56 GMT 44.724548 24.054230 32,000 303 441 64
2021-12-04 09:44:50 GMT 44.717056 24.070654 32,000 303 441 0
2021-12-04 09:44:47 GMT 44.713211 24.079088 32,000 303 441 -64
2021-12-04 09:44:39 GMT 44.705292 24.096418 32,000 303 442 0
2021-12-04 09:44:36 GMT 44.701973 24.103668 32,000 303 442 64
2021-12-04 09:44:30 GMT 44.694580 24.119764 32,000 303 442 64
2021-12-04 09:44:25 GMT 44.688614 24.132811 32,000 303 442 0
2021-12-04 09:44:19 GMT 44.682358 24.146511 32,000 303 442 -64
2021-12-04 09:44:16 GMT 44.678791 24.154245 32,000 303 442 0
2021-12-04 09:44:08 GMT 44.671154 24.170860 32,000 303 443 0
2021-12-04 09:44:03 GMT 44.665741 24.182739 32,000 303 443 0
2021-12-04 09:43:58 GMT 44.659882 24.195492 32,000 303 443 0
2021-12-04 09:43:54 GMT 44.655899 24.204189 32,000 303 443 0
2021-12-04 09:43:51 GMT 44.652580 24.211456 32,000 303 443 0
2021-12-04 09:43:48 GMT 44.649368 24.218422 32,000 303 443 0
2021-12-04 09:43:45 GMT 44.644852 24.228336 32,000 303 443 0
2021-12-04 09:43:41 GMT 44.640106 24.238783 32,000 303 443 0
2021-12-04 09:43:37 GMT 44.636993 24.245518 32,000 303 443 0
2021-12-04 09:43:34 GMT 44.633102 24.253954 32,000 303 443 0
2021-12-04 09:43:31 GMT 44.630310 24.260036 32,000 303 443 0
2021-12-04 09:43:28 GMT 44.626091 24.269201 32,000 303 443 0
2021-12-04 09:43:25 GMT 44.620647 24.281057 32,000 303 443 0
2021-12-04 09:43:22 GMT 44.620647 24.281057 32,000 303 443 0
2021-12-04 09:43:18 GMT 44.614655 24.294107 32,000 303 443 -64
2021-12-04 09:43:14 GMT 44.610451 24.303232 32,000 303 443 0
2021-12-04 09:43:07 GMT 44.602982 24.319414 32,000 303 442 0
2021-12-04 09:43:03 GMT 44.597694 24.330965 32,000 303 442 0
2021-12-04 09:42:57 GMT 44.591171 24.345116 32,000 303 441 0
2021-12-04 09:42:53 GMT 44.587280 24.353552 32,000 303 441 0
2021-12-04 09:42:50 GMT 44.584988 24.358564 32,000 303 441 0
2021-12-04 09:42:46 GMT 44.580425 24.368414 32,000 303 441 0
2021-12-04 09:42:42 GMT 44.575470 24.379185 32,000 303 441 64
2021-12-04 09:42:36 GMT 44.569153 24.392853 32,000 303 440 64
2021-12-04 09:42:33 GMT 44.566177 24.399326 32,000 303 440 64
2021-12-04 09:42:30 GMT 44.562286 24.407698 32,000 303 440 0
2021-12-04 09:42:25 GMT 44.552914 24.428101 32,000 303 441 0
2021-12-04 09:42:22 GMT 44.552914 24.428101 32,000 303 441 0
2021-12-04 09:42:16 GMT 44.546127 24.442684 32,000 303 441 0
2021-12-04 09:42:10 GMT 44.540955 24.453932 32,000 303 441 0
2021-12-04 09:42:05 GMT 44.534637 24.467600 32,000 303 441 0
2021-12-04 09:42:01 GMT 44.530334 24.476952 32,000 303 440 0
2021-12-04 09:41:54 GMT 44.523239 24.492252 32,000 303 441 0
2021-12-04 09:41:50 GMT 44.518707 24.502062 32,000 303 440 0
2021-12-04 09:41:44 GMT 44.512085 24.516394 32,000 303 439 0
2021-12-04 09:41:41 GMT 44.507858 24.525408 32,000 303 439 0
2021-12-04 09:41:37 GMT 44.504311 24.533073 32,000 303 439 0
2021-12-04 09:41:33 GMT 44.499893 24.542606 32,000 303 439 0
2021-12-04 09:41:30 GMT 44.496277 24.550453 32,000 303 439 0
2021-12-04 09:41:27 GMT 44.493301 24.556929 32,000 303 439 -64
2021-12-04 09:41:23 GMT 44.488770 24.566671 32,000 303 439 0
2021-12-04 09:41:20 GMT 44.484879 24.575043 32,000 304 440 0
2021-12-04 09:41:13 GMT 44.477234 24.591457 32,000 304 440 64
2021-12-04 09:41:10 GMT 44.473114 24.600285 32,000 303 441 64
2021-12-04 09:41:04 GMT 44.466248 24.615065 32,000 303 441 -64
2021-12-04 09:40:59 GMT 44.461670 24.624874 32,000 304 442 -64
2021-12-04 09:40:52 GMT 44.453804 24.641865 32,000 304 442 0
2021-12-04 09:40:49 GMT 44.450455 24.649071 32,000 304 442 0
2021-12-04 09:40:39 GMT 44.437927 24.675896 32,000 304 443 0
2021-12-04 09:40:31 GMT 44.429409 24.694117 32,000 304 445 0
2021-12-04 09:40:26 GMT 44.425140 24.703281 32,000 304 446 -64
2021-12-04 09:40:21 GMT 44.419727 24.714817 32,000 304 446 -64
2021-12-04 09:40:17 GMT 44.415482 24.724012 32,000 304 446 -64
2021-12-04 09:40:12 GMT 44.408833 24.738195 32,000 304 445 64
2021-12-04 09:40:08 GMT 44.403805 24.749048 32,000 304 445 0
2021-12-04 09:40:01 GMT 44.396915 24.763720 32,000 304 445 -64
2021-12-04 09:39:57 GMT 44.392410 24.773319 32,000 304 445 0
2021-12-04 09:39:49 GMT 44.382809 24.793798 32,000 304 447 0
2021-12-04 09:39:46 GMT 44.379738 24.800297 32,000 304 447 0
2021-12-04 09:39:39 GMT 44.372177 24.816481 32,000 304 448 0
2021-12-04 09:39:36 GMT 44.368698 24.824001 32,000 304 448 0
2021-12-04 09:39:29 GMT 44.360188 24.842232 32,000 304 450 0
2021-12-04 09:39:24 GMT 44.355297 24.852682 32,000 304 450 0
2021-12-04 09:39:20 GMT 44.350178 24.863602 32,000 304 450 0
2021-12-04 09:39:16 GMT 44.345524 24.873583 32,000 304 451 0
2021-12-04 09:39:08 GMT 44.336864 24.892073 32,000 304 451 0
2021-12-04 09:39:05 GMT 44.333405 24.899401 32,000 304 450 0
2021-12-04 09:38:58 GMT 44.325085 24.917126 32,000 304 451 64
2021-12-04 09:38:55 GMT 44.321735 24.924160 32,000 304 451 64
2021-12-04 09:38:48 GMT 44.313961 24.940639 32,000 304 452 0
2021-12-04 09:38:45 GMT 44.309956 24.949146 32,000 304 452 0
2021-12-04 09:38:38 GMT 44.301018 24.968172 32,000 304 452 0
2021-12-04 09:38:34 GMT 44.298271 24.974001 32,000 304 452 0
2021-12-04 09:38:27 GMT 44.289871 24.991804 32,000 304 452 0
2021-12-04 09:38:24 GMT 44.286575 24.998865 32,000 304 452 0
2021-12-04 09:38:17 GMT 44.278290 25.016392 32,000 304 452 64
2021-12-04 09:38:13 GMT 44.274391 25.024645 32,000 304 453 0
2021-12-04 09:38:07 GMT 44.266205 25.041962 32,000 304 453 0
2021-12-04 09:38:04 GMT 44.263000 25.048763 32,000 304 453 0
2021-12-04 09:37:57 GMT 44.254604 25.066580 32,000 304 454 0
2021-12-04 09:37:54 GMT 44.250687 25.074856 32,000 304 454 0
2021-12-04 09:37:46 GMT 44.242222 25.092707 32,000 304 455 -64
2021-12-04 09:37:43 GMT 44.238640 25.100344 32,000 304 456 -64
2021-12-04 09:37:38 GMT 44.232960 25.112333 32,000 304 456 -64
2021-12-04 09:37:35 GMT 44.230408 25.117689 32,000 304 456 0
2021-12-04 09:37:32 GMT 44.226471 25.126059 32,000 304 456 0
2021-12-04 09:37:26 GMT 44.219177 25.141476 32,000 304 456 0
2021-12-04 09:37:23 GMT 44.214981 25.150320 32,000 304 456 0
2021-12-04 09:37:16 GMT 44.206516 25.168203 32,000 304 456 0
2021-12-04 09:37:12 GMT 44.203304 25.175037 32,000 304 456 0
2021-12-04 09:37:05 GMT 44.195068 25.192434 32,000 304 456 0
2021-12-04 09:37:01 GMT 44.190536 25.201998 32,000 304 456 0
2021-12-04 09:36:55 GMT 44.183075 25.217648 32,000 304 457 0
2021-12-04 09:36:52 GMT 44.178864 25.226505 32,000 304 457 0
2021-12-04 09:36:44 GMT 44.169891 25.245367 32,000 304 459 0
2021-12-04 09:36:41 GMT 44.166992 25.251488 32,000 304 459 0
2021-12-04 09:36:35 GMT 44.159267 25.267771 32,000 304 460 64
2021-12-04 09:36:30 GMT 44.154659 25.277384 32,000 304 460 64
2021-12-04 09:36:24 GMT 44.147533 25.292423 32,000 304 461 0
2021-12-04 09:36:21 GMT 44.143066 25.301769 32,000 304 461 0
2021-12-04 09:36:13 GMT 44.134918 25.318777 32,000 304 461 0
2021-12-04 09:36:10 GMT 44.130451 25.328196 32,000 304 462 0
2021-12-04 09:36:06 GMT 44.125145 25.339312 32,000 304 461 0
2021-12-04 09:36:03 GMT 44.121368 25.347246 32,000 304 462 0
2021-12-04 09:35:59 GMT 44.117371 25.355661 32,000 304 462 0
2021-12-04 09:35:54 GMT 44.110977 25.369028 32,000 304 464 0
2021-12-04 09:35:50 GMT 44.106125 25.379185 32,000 304 464 0
2021-12-04 09:35:42 GMT 44.097382 25.397579 32,000 304 464 0
2021-12-04 09:35:39 GMT 44.092758 25.407290 32,000 304 465 0
2021-12-04 09:35:34 GMT 44.087902 25.417459 32,000 304 464 0
2021-12-04 09:35:30 GMT 44.083618 25.426418 32,000 304 464 0
2021-12-04 09:35:27 GMT 44.079197 25.435574 32,000 304 465 0
2021-12-04 09:35:22 GMT 44.072205 25.450275 32,000 304 465 0
2021-12-04 09:35:17 GMT 44.067699 25.459703 32,000 304 464 0
2021-12-04 09:35:12 GMT 44.061539 25.472631 32,000 304 464 0
2021-12-04 09:35:08 GMT 44.056915 25.482277 32,000 304 464 0
2021-12-04 09:35:04 GMT 44.052750 25.490965 32,000 304 463 0
2021-12-04 09:35:01 GMT 44.048813 25.499140 32,000 304 463 0
2021-12-04 09:34:57 GMT 44.044189 25.508785 32,000 304 463 0
2021-12-04 09:34:54 GMT 44.040848 25.515747 32,000 304 463 0
2021-12-04 09:34:51 GMT 44.037254 25.523136 32,000 304 463 0
2021-12-04 09:34:48 GMT 44.032642 25.532816 32,000 304 464 0
2021-12-04 09:34:43 GMT 44.027756 25.542952 32,000 304 463 0
2021-12-04 09:34:40 GMT 44.022404 25.554068 32,000 304 463 0
2021-12-04 09:34:37 GMT 44.020020 25.558990 32,000 304 464 0
2021-12-04 09:34:33 GMT 44.015514 25.568390 32,000 304 464 64
2021-12-04 09:34:30 GMT 44.012054 25.575598 32,000 304 464 -64
2021-12-04 09:34:27 GMT 44.008118 25.583710 32,000 304 464 64
2021-12-04 09:34:24 GMT 44.004639 25.590927 32,000 304 464 -64
2021-12-04 09:34:20 GMT 44.000618 25.599321 32,000 304 465 -64
2021-12-04 09:34:17 GMT 43.994984 25.610962 32,025 304 465 0
2021-12-04 09:34:12 GMT 43.990723 25.619862 32,000 304 465 0
2021-12-04 09:34:09 GMT 43.987015 25.627527 32,000 304 465 64
2021-12-04 09:34:06 GMT 43.983440 25.634962 32,000 304 464 0
2021-12-04 09:34:01 GMT 43.976761 25.648796 32,000 304 465 0
2021-12-04 09:33:58 GMT 43.972687 25.657196 32,000 304 465 0
2021-12-04 09:33:55 GMT 43.970684 25.661448 32,000 304 465 0
2021-12-04 09:33:52 GMT 43.967564 25.667854 32,000 304 465 0
2021-12-04 09:33:49 GMT 43.962662 25.677986 32,000 304 465 0
2021-12-04 09:33:46 GMT 43.958767 25.686167 32,000 304 465 0
2021-12-04 09:33:43 GMT 43.955788 25.692377 32,000 304 465 0
2021-12-04 09:33:39 GMT 43.951832 25.700554 32,000 304 464 0
2021-12-04 09:33:36 GMT 43.943985 25.716822 32,000 304 464 0
2021-12-04 09:33:33 GMT 43.943985 25.716822 32,000 304 464 64
2021-12-04 09:33:30 GMT 43.939774 25.725510 32,000 304 464 64
2021-12-04 09:33:24 GMT 43.933815 25.737827 32,000 304 464 -64
2021-12-04 09:33:21 GMT 43.929298 25.747179 32,000 304 464 -64
2021-12-04 09:33:18 GMT 43.925354 25.755339 32,000 304 464 -64
2021-12-04 09:33:13 GMT 43.918396 25.769646 32,000 305 464 0
2021-12-04 09:33:08 GMT 43.913956 25.778715 32,000 305 464 0
2021-12-04 09:33:02 GMT 43.906487 25.794003 32,000 304 464 0
2021-12-04 09:32:57 GMT 43.901600 25.804138 32,000 304 464 -64
2021-12-04 09:32:53 GMT 43.896606 25.814486 32,000 304 464 0
2021-12-04 09:32:50 GMT 43.892754 25.822384 32,000 304 464 64
2021-12-04 09:32:47 GMT 43.889309 25.829512 32,000 304 464 64
2021-12-04 09:32:44 GMT 43.884064 25.840355 32,000 304 463 0
2021-12-04 09:32:41 GMT 43.882515 25.843571 32,000 304 463 0
2021-12-04 09:32:38 GMT 43.876785 25.855366 32,000 304 463 0
2021-12-04 09:32:35 GMT 43.874313 25.860538 32,000 304 464 64
2021-12-04 09:32:31 GMT 43.869644 25.870119 31,975 304 464 128
2021-12-04 09:32:27 GMT 43.865105 25.879538 32,000 304 464 -64
2021-12-04 09:32:21 GMT 43.858212 25.893793 32,000 304 464 0
2021-12-04 09:32:18 GMT 43.853512 25.903408 32,000 304 465 0
2021-12-04 09:32:15 GMT 43.849823 25.911062 32,000 304 465 0
2021-12-04 09:32:12 GMT 43.846203 25.918447 32,000 304 465 -64
2021-12-04 09:32:06 GMT 43.840801 25.929565 32,025 305 465 0
2021-12-04 09:32:01 GMT 43.834053 25.943363 32,000 305 465 0
2021-12-04 09:31:58 GMT 43.829350 25.952976 32,000 304 466 0
2021-12-04 09:31:54 GMT 43.825115 25.961609 32,000 304 467 -64
2021-12-04 09:31:51 GMT 43.818649 25.974937 32,000 304 467 0
2021-12-04 09:31:48 GMT 43.818649 25.974937 32,000 304 467 0
2021-12-04 09:31:45 GMT 43.815014 25.982405 32,000 304 467 0
2021-12-04 09:31:41 GMT 43.809612 25.993523 32,000 304 467 64
2021-12-04 09:31:36 GMT 43.803543 26.005980 32,000 304 469 0
2021-12-04 09:31:30 GMT 43.797134 26.019073 32,000 305 469 0
2021-12-04 09:31:27 GMT 43.792145 26.029293 32,000 304 470 -64
2021-12-04 09:31:24 GMT 43.788116 26.037470 32,000 304 470 0
2021-12-04 09:31:20 GMT 43.784363 26.045198 32,000 304 470 0
2021-12-04 09:31:16 GMT 43.778412 26.057400 32,000 304 470 64
2021-12-04 09:31:11 GMT 43.772049 26.070366 32,000 304 471 0
2021-12-04 09:31:08 GMT 43.768890 26.076817 32,000 305 471 0
2021-12-04 09:31:05 GMT 43.766327 26.082054 32,000 305 471 -64
2021-12-04 09:31:00 GMT 43.759754 26.095537 32,000 305 472 0
2021-12-04 09:30:55 GMT 43.753891 26.107506 32,000 305 472 -64
2021-12-04 09:30:52 GMT 43.750957 26.113457 32,000 305 472 0
2021-12-04 09:30:49 GMT 43.746906 26.121695 32,000 305 472 -64
2021-12-04 09:30:46 GMT 43.741516 26.132643 32,000 305 473 0
2021-12-04 09:30:42 GMT 43.738449 26.138903 32,000 305 473 0
2021-12-04 09:30:39 GMT 43.734802 26.146416 32,000 305 473 64
2021-12-04 09:30:36 GMT 43.731266 26.153673 32,000 305 473 0
2021-12-04 09:30:33 GMT 43.726006 26.164398 32,000 305 473 0
2021-12-04 09:30:29 GMT 43.721813 26.172899 32,000 305 473 0
2021-12-04 09:30:25 GMT 43.716431 26.183868 32,000 304 473 0
2021-12-04 09:30:22 GMT 43.713089 26.190639 32,000 304 473 0
2021-12-04 09:30:19 GMT 43.709061 26.198879 32,000 304 473 0
2021-12-04 09:30:15 GMT 43.705765 26.205650 32,000 305 474 -64
2021-12-04 09:30:12 GMT 43.700821 26.215668 32,000 305 474 0
2021-12-04 09:30:07 GMT 43.694183 26.229219 32,000 305 474 0
2021-12-04 09:30:04 GMT 43.690659 26.236502 32,000 305 474 0
2021-12-04 09:30:01 GMT 43.687912 26.241995 32,000 305 474 0
2021-12-04 09:29:58 GMT 43.683884 26.250298 32,000 305 474 0
2021-12-04 09:29:54 GMT 43.678070 26.262051 32,000 305 474 0
2021-12-04 09:29:51 GMT 43.675121 26.268049 32,000 305 475 0
2021-12-04 09:29:48 GMT 43.670929 26.276550 32,000 305 475 0
2021-12-04 09:29:45 GMT 43.668373 26.281847 32,000 305 475 0
2021-12-04 09:29:42 GMT 43.664154 26.290346 32,000 305 475 0
2021-12-04 09:29:39 GMT 43.660229 26.298326 32,000 305 475 -64
2021-12-04 09:29:35 GMT 43.655548 26.307850 32,000 305 475 0
2021-12-04 09:29:31 GMT 43.650467 26.318068 32,000 305 475 0
2021-12-04 09:29:28 GMT 43.647610 26.323832 32,000 305 475 0
2021-12-04 09:29:25 GMT 43.643051 26.333078 32,000 305 475 0
2021-12-04 09:29:22 GMT 43.639977 26.339329 32,000 305 475 0
2021-12-04 09:29:18 GMT 43.634438 26.350643 32,000 305 476 0
2021-12-04 09:29:14 GMT 43.630108 26.359406 32,000 305 477 0
2021-12-04 09:29:11 GMT 43.625500 26.368692 32,000 305 477 0
2021-12-04 09:29:06 GMT 43.611832 26.396315 32,000 305 477 0
2021-12-04 09:29:01 GMT 43.611832 26.396315 32,000 305 477 64
2021-12-04 09:28:58 GMT 43.609997 26.400082 32,000 305 478 0
2021-12-04 09:28:55 GMT 43.606598 26.406881 32,000 305 479 0
2021-12-04 09:28:51 GMT 43.601395 26.417456 32,000 305 479 0
2021-12-04 09:28:48 GMT 43.597504 26.425249 32,000 305 480 0
2021-12-04 09:28:44 GMT 43.592880 26.434574 32,000 305 480 0
2021-12-04 09:28:41 GMT 43.588760 26.442942 32,000 305 480 0
2021-12-04 09:28:38 GMT 43.584393 26.451742 32,000 305 480 0
2021-12-04 09:28:33 GMT 43.579147 26.462360 32,000 305 481 64
2021-12-04 09:28:30 GMT 43.574615 26.471493 32,000 305 481 64
2021-12-04 09:28:27 GMT 43.571640 26.477562 32,000 305 482 0
2021-12-04 09:28:23 GMT 43.566841 26.487186 32,000 305 482 0
2021-12-04 09:28:20 GMT 43.561676 26.497585 32,000 305 482 0
2021-12-04 09:28:17 GMT 43.559326 26.502409 32,000 305 482 -64
2021-12-04 09:28:13 GMT 43.553879 26.513330 32,000 305 483 -64
2021-12-04 09:28:10 GMT 43.548874 26.523481 32,000 305 483 0
2021-12-04 09:28:07 GMT 43.546097 26.529043 32,000 305 483 0
2021-12-04 09:28:04 GMT 43.542297 26.536646 32,000 305 483 0
2021-12-04 09:28:01 GMT 43.538132 26.545013 32,000 305 483 0
2021-12-04 09:27:58 GMT 43.535248 26.550825 32,000 305 483 0
2021-12-04 09:27:54 GMT 43.529694 26.561998 32,000 305 483 0
2021-12-04 09:27:50 GMT 43.523621 26.574139 32,000 305 483 0
2021-12-04 09:27:44 GMT 43.516426 26.588614 32,000 305 483 64
2021-12-04 09:27:40 GMT 43.511902 26.597710 32,000 305 483 64
2021-12-04 09:27:37 GMT 43.507210 26.607121 32,000 305 483 64
2021-12-04 09:27:33 GMT 43.503067 26.615492 32,000 305 484 0
2021-12-04 09:27:30 GMT 43.495102 26.631498 32,000 305 484 -64
2021-12-04 09:27:27 GMT 43.495102 26.631498 32,000 305 484 -64
2021-12-04 09:27:23 GMT 43.491302 26.639099 32,000 305 484 0
2021-12-04 09:27:20 GMT 43.486774 26.648254 32,000 305 484 -64
2021-12-04 09:27:17 GMT 43.482304 26.657084 32,000 305 484 0
2021-12-04 09:27:13 GMT 43.477020 26.667780 32,000 305 484 64
2021-12-04 09:27:10 GMT 43.473083 26.675634 32,000 305 484 64
2021-12-04 09:27:06 GMT 43.469315 26.683241 32,000 305 484 -64
2021-12-04 09:27:02 GMT 43.463974 26.693838 31,975 305 484 0
2021-12-04 09:26:59 GMT 43.456375 26.709072 32,000 305 484 0
2021-12-04 09:26:56 GMT 43.456375 26.709072 32,000 305 484 -64
2021-12-04 09:26:52 GMT 43.450928 26.719963 32,000 305 485 0
2021-12-04 09:26:49 GMT 43.447128 26.727566 32,000 305 485 0
2021-12-04 09:26:45 GMT 43.443192 26.735420 32,000 305 485 0
2021-12-04 09:26:42 GMT 43.437332 26.747131 32,000 305 486 0
2021-12-04 09:26:39 GMT 43.434814 26.752220 32,000 305 486 0
2021-12-04 09:26:36 GMT 43.430603 26.760588 32,000 305 486 -64
2021-12-04 09:26:32 GMT 43.426529 26.768763 32,000 305 486 0
2021-12-04 09:26:29 GMT 43.421413 26.778913 32,000 305 486 0
2021-12-04 09:26:25 GMT 43.417099 26.787542 32,000 305 486 0
2021-12-04 09:26:21 GMT 43.411732 26.798204 32,000 305 487 0
2021-12-04 09:26:16 GMT 43.404419 26.812710 32,000 305 488 0
2021-12-04 09:26:12 GMT 43.399704 26.822163 31,975 305 488 0
2021-12-04 09:26:08 GMT 43.394833 26.831818 32,000 305 489 64
2021-12-04 09:26:05 GMT 43.391201 26.839010 32,000 305 489 64
2021-12-04 09:26:02 GMT 43.387756 26.845879 32,000 305 489 64
2021-12-04 09:25:58 GMT 43.382496 26.856340 32,000 305 489 -64
2021-12-04 09:25:55 GMT 43.377979 26.865299 32,000 305 490 0
2021-12-04 09:25:51 GMT 43.372833 26.875498 32,000 305 490 0
2021-12-04 09:25:48 GMT 43.368622 26.883938 32,000 305 490 0
2021-12-04 09:25:45 GMT 43.365643 26.889824 32,000 305 490 0
2021-12-04 09:25:42 GMT 43.361687 26.897800 32,000 305 490 64
2021-12-04 09:25:38 GMT 43.356262 26.908520 32,000 305 490 0
2021-12-04 09:25:35 GMT 43.352425 26.916178 32,000 305 490 -64
2021-12-04 09:25:31 GMT 43.348045 26.924873 32,000 305 489 0
2021-12-04 09:25:27 GMT 43.342506 26.935862 32,000 305 489 0
2021-12-04 09:25:24 GMT 43.337479 26.945801 31,975 305 489 0
2021-12-04 09:25:21 GMT 43.335434 26.949909 32,000 305 489 0
2021-12-04 09:25:17 GMT 43.328842 26.962940 32,000 305 490 0
2021-12-04 09:25:12 GMT 43.322296 26.975906 32,000 305 489 -64
2021-12-04 09:25:09 GMT 43.318161 26.984121 31,975 305 488 128
2021-12-04 09:25:04 GMT 43.312500 26.995323 32,000 305 488 128
2021-12-04 09:25:00 GMT 43.308243 27.003693 32,000 305 488 0
2021-12-04 09:24:54 GMT 43.299820 27.020491 32,000 305 488 0
2021-12-04 09:24:51 GMT 43.296341 27.027390 32,000 305 488 0
2021-12-04 09:24:47 GMT 43.290298 27.039333 32,000 305 487 0
2021-12-04 09:24:44 GMT 43.285950 27.047956 32,000 305 487 0
2021-12-04 09:24:41 GMT 43.283154 27.053572 32,000 305 486 0
2021-12-04 09:24:36 GMT 43.275970 27.067759 32,000 305 486 0
2021-12-04 09:24:33 GMT 43.273270 27.073059 32,000 305 485 0
2021-12-04 09:24:25 GMT 43.262951 27.093529 32,000 305 485 0
2021-12-04 09:24:22 GMT 43.259876 27.099545 32,000 305 485 64
2021-12-04 09:24:15 GMT 43.250938 27.117201 32,000 305 484 0
2021-12-04 09:24:12 GMT 43.246239 27.126488 32,000 305 484 0
2021-12-04 09:24:07 GMT 43.239349 27.140062 32,000 305 484 0
2021-12-04 09:24:04 GMT 43.236786 27.145124 32,000 305 484 0
2021-12-04 09:24:01 GMT 43.232574 27.153414 32,000 305 484 -64
2021-12-04 09:23:55 GMT 43.223648 27.171041 32,000 305 483 0
2021-12-04 09:23:52 GMT 43.220444 27.177301 32,000 305 483 64
2021-12-04 09:23:44 GMT 43.210922 27.196144 32,000 305 483 -64
2021-12-04 09:23:41 GMT 43.207214 27.203426 32,000 305 482 0
2021-12-04 09:23:35 GMT 43.198662 27.220198 32,000 305 483 0
2021-12-04 09:23:32 GMT 43.194305 27.228720 32,000 305 482 64
2021-12-04 09:23:23 GMT 43.183205 27.250475 32,000 305 483 0
2021-12-04 09:23:20 GMT 43.180756 27.255228 31,975 305 482 64
2021-12-04 09:23:14 GMT 43.172264 27.271990 32,000 305 483 0
2021-12-04 09:23:11 GMT 43.168167 27.280075 32,000 305 483 0
2021-12-04 09:23:05 GMT 43.159512 27.297102 31,975 305 484 0
2021-12-04 09:23:01 GMT 43.146801 27.321953 32,000 305 484 0
2021-12-04 09:22:54 GMT 43.146801 27.321953 32,000 305 484 0
2021-12-04 09:22:51 GMT 43.141708 27.331940 32,000 305 484 0
2021-12-04 09:22:48 GMT 43.139259 27.336731 32,000 305 484 0
2021-12-04 09:22:42 GMT 43.131546 27.351805 32,000 306 484 0
2021-12-04 09:22:38 GMT 43.126923 27.360796 32,000 306 484 0
2021-12-04 09:22:32 GMT 43.118217 27.377865 32,000 305 484 0
2021-12-04 09:22:29 GMT 43.114262 27.385580 32,000 305 484 64
2021-12-04 09:22:23 GMT 43.106953 27.399902 32,000 305 484 -64
2021-12-04 09:22:20 GMT 43.102341 27.408909 32,000 305 484 0
2021-12-04 09:22:17 GMT 43.099644 27.414158 32,000 305 483 0
2021-12-04 09:22:12 GMT 43.091732 27.429657 32,000 305 482 0
2021-12-04 09:22:08 GMT 43.088013 27.436886 32,000 305 481 0
2021-12-04 09:22:01 GMT 43.079208 27.454115 32,000 306 481 0
2021-12-04 09:21:58 GMT 43.075104 27.462051 32,000 305 480 64
2021-12-04 09:21:50 GMT 43.065197 27.481449 32,000 305 479 0
2021-12-04 09:21:47 GMT 43.061096 27.489389 32,000 305 479 0
2021-12-04 09:21:41 GMT 43.053497 27.504210 31,975 306 478 -128
2021-12-04 09:21:38 GMT 43.049416 27.512119 32,000 306 478 64
2021-12-04 09:21:30 GMT 43.040382 27.529711 32,000 306 478 -64
2021-12-04 09:21:27 GMT 43.035683 27.538866 32,000 306 478 0
2021-12-04 09:21:21 GMT 43.026791 27.556131 32,000 305 478 64
2021-12-04 09:21:18 GMT 43.023102 27.563292 32,000 305 478 0
2021-12-04 09:21:10 GMT 43.014221 27.580538 32,000 306 478 0
2021-12-04 09:21:07 GMT 43.010681 27.587456 32,000 306 478 0
2021-12-04 09:20:59 GMT 43.000671 27.606918 32,000 306 477 0
2021-12-04 09:20:56 GMT 42.996735 27.614519 32,000 306 477 0
2021-12-04 09:20:49 GMT 42.987595 27.632250 32,000 306 476 0
2021-12-04 09:20:45 GMT 42.982937 27.641340 32,000 306 476 0
2021-12-04 09:20:41 GMT 42.976330 27.654093 32,000 306 476 0
2021-12-04 09:20:37 GMT 42.970779 27.664915 32,000 306 476 64
2021-12-04 09:20:29 GMT 42.961899 27.682098 32,000 306 477 0
2021-12-04 09:20:26 GMT 42.958218 27.689209 32,000 306 477 0
2021-12-04 09:20:19 GMT 42.949558 27.705950 32,000 306 478 -64
2021-12-04 09:20:16 GMT 42.945511 27.713842 32,000 306 478 0
2021-12-04 09:20:09 GMT 42.935211 27.733707 32,000 306 476 0
2021-12-04 09:20:05 GMT 42.931274 27.741308 32,000 306 476 0
2021-12-04 09:20:00 GMT 42.923813 27.755808 32,000 306 476 -64
2021-12-04 09:19:56 GMT 42.918594 27.765837 32,000 306 475 64
2021-12-04 09:19:47 GMT 42.908661 27.784870 32,000 306 475 64
2021-12-04 09:19:44 GMT 42.905380 27.791225 32,000 306 475 64
2021-12-04 09:19:38 GMT 42.897720 27.805885 32,000 306 476 -64
2021-12-04 09:19:35 GMT 42.893185 27.814701 32,000 306 476 -64
2021-12-04 09:19:28 GMT 42.883163 27.833990 32,000 306 475 0
2021-12-04 09:19:25 GMT 42.879593 27.840887 32,000 306 476 0
2021-12-04 09:19:16 GMT 42.869583 27.860216 32,000 306 475 0
2021-12-04 09:19:13 GMT 42.866272 27.866566 32,000 306 475 0
2021-12-04 09:19:07 GMT 42.857391 27.883684 32,000 306 475 0
2021-12-04 09:19:03 GMT 42.853336 27.891476 32,000 306 475 -64
2021-12-04 09:18:56 GMT 42.844074 27.909328 32,000 306 474 0
2021-12-04 09:18:53 GMT 42.839493 27.918112 32,000 306 474 0
2021-12-04 09:18:46 GMT 42.831116 27.934143 32,000 306 474 0
2021-12-04 09:18:43 GMT 42.827686 27.940718 32,000 306 474 0
2021-12-04 09:18:36 GMT 42.818207 27.958990 32,000 306 474 0
2021-12-04 09:18:33 GMT 42.814884 27.965305 32,000 306 474 0
2021-12-04 09:18:27 GMT 42.807037 27.980368 32,000 306 473 0
2021-12-04 09:18:23 GMT 42.802967 27.988117 32,000 306 473 0
2021-12-04 09:18:21 GMT 42.800316 27.993229 32,000 306 473 0
2021-12-04 09:18:17 GMT 42.795006 28.003384 32,000 306 473 0
2021-12-04 09:18:14 GMT 42.789047 28.014763 32,000 306 473 0
2021-12-04 09:18:11 GMT 42.786396 28.019863 32,000 306 473 0
2021-12-04 09:18:08 GMT 42.782593 28.027122 32,000 306 473 0
2021-12-04 09:18:05 GMT 42.777878 28.036112 32,000 306 473 0
2021-12-04 09:18:02 GMT 42.775223 28.041197 32,000 306 473 0
2021-12-04 09:17:57 GMT 42.765213 28.060295 32,000 306 473 0
2021-12-04 09:17:54 GMT 42.765213 28.060295 32,000 306 473 0
2021-12-04 09:17:51 GMT 42.761677 28.067129 32,000 306 473 0
2021-12-04 09:17:47 GMT 42.755436 28.078947 32,000 306 473 0
2021-12-04 09:17:43 GMT 42.752274 28.085014 32,000 306 472 0
2021-12-04 09:17:40 GMT 42.746361 28.096384 32,000 306 472 0
2021-12-04 09:17:34 GMT 42.739143 28.110245 32,000 306 473 0
2021-12-04 09:17:31 GMT 42.736084 28.116011 32,000 306 473 0
2021-12-04 09:17:24 GMT 42.727135 28.133177 32,000 306 472 0
2021-12-04 09:17:21 GMT 42.723549 28.139948 32,000 306 472 0
2021-12-04 09:17:14 GMT 42.713562 28.159082 32,000 306 473 0
2021-12-04 09:17:10 GMT 42.709854 28.166075 32,000 306 473 0
2021-12-04 09:17:06 GMT 42.703766 28.177696 32,000 306 473 0
2021-12-04 09:17:03 GMT 42.699692 28.185425 32,000 306 473 0
2021-12-04 09:16:59 GMT 42.696407 28.191685 32,000 306 473 0
2021-12-04 09:16:54 GMT 42.689148 28.205481 32,000 306 474 0
2021-12-04 09:16:51 GMT 42.686073 28.211294 32,000 306 474 0
2021-12-04 09:16:48 GMT 42.682251 28.218571 32,000 306 474 -64
2021-12-04 09:16:43 GMT 42.674484 28.233330 32,000 306 474 0
2021-12-04 09:16:39 GMT 42.670807 28.240294 32,000 306 474 0
2021-12-04 09:16:33 GMT 42.662518 28.256069 32,000 306 474 0
2021-12-04 09:16:30 GMT 42.657261 28.265970 32,000 306 474 0
2021-12-04 09:16:25 GMT 42.651814 28.276318 32,000 306 473 -64
2021-12-04 09:16:22 GMT 42.648369 28.282833 32,000 306 473 0
2021-12-04 09:16:18 GMT 42.643295 28.292542 32,000 306 473 0
2021-12-04 09:16:12 GMT 42.635651 28.307022 32,000 306 473 0
2021-12-04 09:16:08 GMT 42.631302 28.315201 32,000 306 473 -64
2021-12-04 09:16:02 GMT 42.623154 28.330683 32,000 306 473 0
2021-12-04 09:15:59 GMT 42.618061 28.340319 32,000 306 473 0
2021-12-04 09:15:51 GMT 42.609924 28.355776 32,000 306 474 0
2021-12-04 09:15:48 GMT 42.605305 28.364464 32,000 306 474 0
2021-12-04 09:15:41 GMT 42.596508 28.381136 32,000 306 474 0
2021-12-04 09:15:37 GMT 42.591385 28.390732 32,000 306 474 0
2021-12-04 09:15:33 GMT 42.585896 28.401127 32,000 306 475 0
2021-12-04 09:15:30 GMT 42.581284 28.409815 32,000 306 475 0
2021-12-04 09:15:26 GMT 42.577606 28.416840 32,000 306 475 0
2021-12-04 09:15:22 GMT 42.572117 28.427252 32,000 306 475 0
2021-12-04 09:15:19 GMT 42.568268 28.434490 32,000 306 475 0
2021-12-04 09:15:15 GMT 42.562500 28.445351 32,000 306 475 0
2021-12-04 09:15:11 GMT 42.557358 28.454973 32,000 306 473 0
2021-12-04 09:15:07 GMT 42.552795 28.463703 32,000 306 473 0
2021-12-04 09:15:01 GMT 42.545254 28.477903 32,000 306 473 64
2021-12-04 09:14:56 GMT 42.538738 28.490168 32,000 306 472 0
2021-12-04 09:14:51 GMT 42.531845 28.503134 32,000 306 472 -64
2021-12-04 09:14:48 GMT 42.529404 28.507711 32,000 306 472 0
2021-12-04 09:14:45 GMT 42.524075 28.517761 32,000 306 472 -64
2021-12-04 09:14:41 GMT 42.518967 28.527374 32,000 306 471 0
2021-12-04 09:14:39 GMT 42.516296 28.532389 32,000 306 470 -64
2021-12-04 09:14:36 GMT 42.513245 28.538111 32,000 306 470 -64
2021-12-04 09:14:30 GMT 42.505497 28.552700 32,000 306 470 64
2021-12-04 09:14:26 GMT 42.500282 28.562473 32,000 306 470 0
2021-12-04 09:14:19 GMT 42.490906 28.580120 32,000 306 470 0
2021-12-04 09:14:16 GMT 42.486191 28.588985 32,000 306 470 0
2021-12-04 09:14:11 GMT 42.481384 28.598051 32,000 306 469 0
2021-12-04 09:14:08 GMT 42.477474 28.605396 32,000 306 470 -64
2021-12-04 09:14:05 GMT 42.473797 28.612358 32,000 306 469 0
2021-12-04 09:14:00 GMT 42.468349 28.622578 32,000 306 469 64
2021-12-04 09:13:57 GMT 42.462856 28.632797 32,000 306 469 64
2021-12-04 09:13:51 GMT 42.455246 28.647100 32,000 306 469 -64
2021-12-04 09:13:47 GMT 42.451450 28.654196 32,000 306 469 -64
2021-12-04 09:13:44 GMT 42.447372 28.661833 32,000 306 469 64
2021-12-04 09:13:38 GMT 42.438629 28.678249 32,000 306 469 0
2021-12-04 09:13:34 GMT 42.433807 28.687220 32,000 306 469 0
2021-12-04 09:13:31 GMT 42.429749 28.694853 32,000 306 469 0
2021-12-04 09:13:28 GMT 42.427048 28.699846 32,000 306 469 0
2021-12-04 09:13:25 GMT 42.422215 28.708872 32,000 306 469 0
2021-12-04 09:13:21 GMT 42.418533 28.715765 32,000 306 469 0
2021-12-04 09:13:17 GMT 42.413231 28.725735 32,000 306 469 0
2021-12-04 09:13:14 GMT 42.409275 28.733145 32,000 306 469 -64
2021-12-04 09:13:09 GMT 42.402786 28.745228 32,000 306 469 0
2021-12-04 09:13:06 GMT 42.398712 28.752844 32,000 306 469 0
2021-12-04 09:13:03 GMT 42.393913 28.761824 32,000 306 469 0
2021-12-04 09:12:59 GMT 42.389957 28.769169 32,000 306 469 0
2021-12-04 09:12:56 GMT 42.386169 28.776314 32,000 306 469 0
2021-12-04 09:12:49 GMT 42.376740 28.793793 32,000 306 468 0
2021-12-04 09:12:46 GMT 42.374313 28.798296 32,000 306 468 0
2021-12-04 09:12:43 GMT 42.369614 28.807047 32,000 306 468 0
2021-12-04 09:12:39 GMT 42.364399 28.816755 32,000 306 468 0
2021-12-04 09:12:36 GMT 42.359463 28.825953 32,000 306 468 0
2021-12-04 09:12:33 GMT 42.357010 28.830435 32,000 306 468 0
2021-12-04 09:12:27 GMT 42.349640 28.844105 32,000 306 468 0
2021-12-04 09:12:24 GMT 42.344696 28.853344 32,000 307 467 0
2021-12-04 09:12:15 GMT 42.335037 28.871260 32,000 307 467 0
2021-12-04 09:12:08 GMT 42.323711 28.892254 32,000 307 467 0
2021-12-04 09:12:05 GMT 42.320801 28.897663 32,000 307 467 0
2021-12-04 09:11:57 GMT 42.311142 28.915579 32,000 307 467 0
2021-12-04 09:11:54 GMT 42.307205 28.922819 32,000 307 466 0
2021-12-04 09:11:50 GMT 42.301254 28.933868 32,000 307 466 0
2021-12-04 09:11:47 GMT 42.298553 28.938862 32,000 307 466 0
2021-12-04 09:11:44 GMT 42.294250 28.946791 32,000 307 466 0
2021-12-04 09:11:41 GMT 42.291092 28.952658 32,000 307 465 0
2021-12-04 09:11:37 GMT 42.285095 28.963705 32,000 307 465 0
2021-12-04 09:11:32 GMT 42.278744 28.975418 32,000 307 465 0
2021-12-04 09:11:26 GMT 42.272369 28.987116 32,000 307 465 0
2021-12-04 09:11:23 GMT 42.268314 28.994581 32,000 307 465 0
2021-12-04 09:11:17 GMT 42.260818 29.008314 32,000 307 463 0
2021-12-04 09:11:13 GMT 42.255234 29.018597 32,000 307 463 0
2021-12-04 09:11:10 GMT 42.251450 29.025566 32,000 307 463 0
2021-12-04 09:11:07 GMT 42.247513 29.032745 32,000 307 462 0
2021-12-04 09:11:05 GMT 42.244339 29.038589 32,000 307 462 0
2021-12-04 09:11:00 GMT 42.238895 29.048553 32,000 307 462 0
2021-12-04 09:10:57 GMT 42.234703 29.056219 32,000 307 462 0
2021-12-04 09:10:54 GMT 42.231537 29.061968 32,000 307 462 0
2021-12-04 09:10:51 GMT 42.226604 29.071037 32,000 307 462 0
2021-12-04 09:10:47 GMT 42.221111 29.081001 32,000 307 462 0
2021-12-04 09:10:42 GMT 42.216064 29.090237 32,000 307 462 0
2021-12-04 09:10:37 GMT 42.206680 29.107340 32,000 307 461 0
2021-12-04 09:10:34 GMT 42.206680 29.107340 32,000 307 460 0
2021-12-04 09:10:31 GMT 42.202286 29.115393 32,000 307 460 0
2021-12-04 09:10:24 GMT 42.191940 29.134369 32,000 307 460 0
2021-12-04 09:10:20 GMT 42.189011 29.139675 32,000 307 460 64
2021-12-04 09:10:16 GMT 42.183380 29.150038 32,000 307 460 0
2021-12-04 09:10:13 GMT 42.179817 29.156502 32,000 307 460 0
2021-12-04 09:10:10 GMT 42.175919 29.163645 32,000 307 460 0
2021-12-04 09:10:07 GMT 42.172138 29.170553 32,000 307 460 0
2021-12-04 09:10:04 GMT 42.168365 29.177504 32,000 307 460 0
2021-12-04 09:10:01 GMT 42.163422 29.186493 32,000 307 460 0
2021-12-04 09:09:55 GMT 42.157288 29.197790 32,000 307 460 0
2021-12-04 09:09:52 GMT 42.153122 29.205404 32,000 307 460 0
2021-12-04 09:09:49 GMT 42.149231 29.212584 32,000 307 460 0
2021-12-04 09:09:46 GMT 42.145229 29.219992 32,000 306 461 0
2021-12-04 09:09:42 GMT 42.139088 29.231361 32,000 306 460 0
2021-12-04 09:09:36 GMT 42.132477 29.243626 32,000 306 460 0
2021-12-04 09:09:32 GMT 42.128769 29.250599 32,000 306 460 0
2021-12-04 09:09:29 GMT 42.123817 29.259850 32,000 306 459 0
2021-12-04 09:09:26 GMT 42.119843 29.267328 32,000 306 459 0
2021-12-04 09:09:22 GMT 42.110874 29.284248 32,000 305 458 0
2021-12-04 09:09:18 GMT 42.110874 29.284248 32,000 306 459 0
2021-12-04 09:09:15 GMT 42.106934 29.291737 32,000 305 458 0
2021-12-04 09:09:13 GMT 42.104004 29.297291 32,000 305 457 0
2021-12-04 09:09:05 GMT 42.094345 29.316017 32,000 305 457 0
2021-12-04 09:09:01 GMT 42.089413 29.325577 32,000 305 456 0
2021-12-04 09:08:54 GMT 42.082386 29.339436 32,000 305 456 0
2021-12-04 09:08:51 GMT 42.079056 29.345982 32,000 304 456 0
2021-12-04 09:08:47 GMT 42.073792 29.356592 32,000 304 456 0
2021-12-04 09:08:44 GMT 42.069946 29.364332 32,000 304 455 0
2021-12-04 09:08:41 GMT 42.063126 29.378254 32,000 304 455 0
2021-12-04 09:08:38 GMT 42.063126 29.378254 32,000 303 454 0
2021-12-04 09:08:34 GMT 42.058685 29.387491 32,000 303 454 0
2021-12-04 09:08:31 GMT 42.055386 29.394367 32,000 303 453 0
2021-12-04 09:08:24 GMT 42.047882 29.410337 32,000 302 453 0
2021-12-04 09:08:21 GMT 42.044121 29.418449 32,000 302 452 0
2021-12-04 09:08:15 GMT 42.036858 29.434225 32,000 302 452 0
2021-12-04 09:08:11 GMT 42.032761 29.443041 32,000 302 452 64
2021-12-04 09:08:04 GMT 42.025406 29.459009 32,000 302 452 0
2021-12-04 09:08:01 GMT 42.021194 29.468079 32,000 302 452 0
2021-12-04 09:07:53 GMT 42.013393 29.485069 32,000 302 452 0
2021-12-04 09:07:49 GMT 42.008644 29.495289 32,000 302 453 0
2021-12-04 09:07:43 GMT 42.002594 29.508448 32,000 302 453 0
2021-12-04 09:07:39 GMT 41.998264 29.517773 32,000 302 453 0
2021-12-04 09:07:35 GMT 41.994095 29.526817 32,000 302 452 0
2021-12-04 09:07:32 GMT 41.990910 29.533741 32,000 302 452 0
2021-12-04 09:07:28 GMT 41.985043 29.546389 32,000 302 452 0
2021-12-04 09:07:22 GMT 41.979412 29.558588 32,000 302 451 0
2021-12-04 09:07:19 GMT 41.976013 29.565933 32,000 302 451 0
2021-12-04 09:07:15 GMT 41.971592 29.575451 32,000 302 451 0
2021-12-04 09:07:10 GMT 41.965866 29.587843 32,000 302 451 0
2021-12-04 09:07:07 GMT 41.962467 29.595188 32,000 302 451 0
2021-12-04 09:07:02 GMT 41.955597 29.609901 32,000 302 450 0
2021-12-04 09:06:58 GMT 41.952438 29.616770 32,000 302 450 0
2021-12-04 09:06:52 GMT 41.946033 29.630573 32,000 302 450 0
2021-12-04 09:06:45 GMT 41.937561 29.648842 32,000 302 451 0
2021-12-04 09:06:41 GMT 41.934116 29.656187 32,000 302 451 0
2021-12-04 09:06:37 GMT 41.930019 29.665003 32,000 302 451 0
2021-12-04 09:06:31 GMT 41.923096 29.679939 32,000 302 451 0
2021-12-04 09:06:26 GMT 41.917877 29.691114 32,000 302 452 0
2021-12-04 09:06:21 GMT 41.911606 29.704597 32,000 302 452 0
2021-12-04 09:06:18 GMT 41.907761 29.712961 32,000 302 452 0
2021-12-04 09:06:14 GMT 41.903000 29.723137 32,000 302 452 0
2021-12-04 09:06:11 GMT 41.900551 29.728365 32,000 302 452 0
2021-12-04 09:06:06 GMT 41.895153 29.739990 32,000 302 452 0
2021-12-04 09:06:00 GMT 41.889053 29.753084 32,000 302 452 0
2021-12-04 09:05:57 GMT 41.885189 29.761389 32,000 302 451 0
2021-12-04 09:05:51 GMT 41.877415 29.777994 32,000 302 451 0
2021-12-04 09:05:46 GMT 41.873783 29.785788 32,000 302 451 0
2021-12-04 09:05:40 GMT 41.866474 29.801437 32,000 302 451 0
2021-12-04 09:05:35 GMT 41.861618 29.811838 32,000 302 451 0
2021-12-04 09:05:30 GMT 41.855347 29.825321 32,000 302 451 0
2021-12-04 09:05:24 GMT 41.848709 29.839554 32,000 302 451 0
2021-12-04 09:05:21 GMT 41.845642 29.846170 32,000 302 451 0
2021-12-04 09:05:19 GMT 41.843536 29.850664 32,000 302 451 0
2021-12-04 09:05:15 GMT 41.838871 29.860584 32,000 302 451 0
2021-12-04 09:05:09 GMT 41.832027 29.875275 32,000 303 450 0
2021-12-04 09:05:05 GMT 41.826393 29.887283 32,000 303 450 0
2021-12-04 09:05:01 GMT 41.823074 29.894423 32,000 303 450 0
2021-12-04 09:04:59 GMT 41.820950 29.898909 32,000 303 450 -64
2021-12-04 09:04:55 GMT 41.816757 29.907906 32,000 303 450 0
2021-12-04 09:04:51 GMT 41.811684 29.918711 32,000 303 450 0
2021-12-04 09:04:48 GMT 41.809021 29.924385 32,000 303 450 0
2021-12-04 09:04:43 GMT 41.803490 29.936211 32,000 303 450 0
2021-12-04 09:04:39 GMT 41.797718 29.948475 32,000 303 449 0
2021-12-04 09:04:35 GMT 41.794182 29.956013 32,000 303 449 0
2021-12-04 09:04:29 GMT 41.787521 29.970127 32,000 303 449 0
2021-12-04 09:04:27 GMT 41.786453 29.972492 32,000 303 449 0
2021-12-04 09:04:20 GMT 41.778122 29.990179 32,000 303 449 0
2021-12-04 09:04:17 GMT 41.775375 29.996046 32,000 303 449 0
2021-12-04 09:04:13 GMT 41.770386 30.006596 32,000 303 449 0
2021-12-04 09:04:10 GMT 41.767086 30.013691 32,000 303 448 0
2021-12-04 09:04:08 GMT 41.764114 30.020018 32,000 303 448 0
2021-12-04 09:04:03 GMT 41.759266 30.030361 32,000 303 448 -64
2021-12-04 09:04:00 GMT 41.756054 30.037132 32,000 303 448 0
2021-12-04 09:03:57 GMT 41.752533 30.044674 32,000 303 448 0
2021-12-04 09:03:53 GMT 41.747673 30.054953 32,000 303 448 0
2021-12-04 09:03:50 GMT 41.744568 30.061527 32,000 303 448 0
2021-12-04 09:03:47 GMT 41.741249 30.068558 32,000 303 448 0
2021-12-04 09:03:42 GMT 41.735962 30.079756 32,000 303 448 0
2021-12-04 09:03:39 GMT 41.731339 30.089556 32,000 303 447 0
2021-12-04 09:03:35 GMT 41.729008 30.094490 32,000 303 447 0
2021-12-04 09:03:29 GMT 41.721092 30.111290 32,000 303 447 0
2021-12-04 09:03:27 GMT 41.718658 30.116459 32,000 303 447 0
2021-12-04 09:03:22 GMT 41.713364 30.127705 32,000 303 447 0
2021-12-04 09:03:19 GMT 41.710510 30.133751 32,000 303 447 0
2021-12-04 09:03:16 GMT 41.707081 30.140991 32,000 303 447 0
2021-12-04 09:03:09 GMT 41.700050 30.156002 32,000 303 448 -64
2021-12-04 09:03:05 GMT 41.695633 30.165337 32,000 303 448 0
2021-12-04 09:02:59 GMT 41.688904 30.179630 32,000 303 448 0
2021-12-04 09:02:56 GMT 41.684689 30.188513 32,000 303 447 0
2021-12-04 09:02:51 GMT 41.680359 30.197584 32,000 303 447 0
2021-12-04 09:02:48 GMT 41.675949 30.206909 32,000 303 447 0
2021-12-04 09:02:45 GMT 41.673050 30.212976 32,000 303 447 0
2021-12-04 09:02:42 GMT 41.668625 30.222326 32,000 303 447 0
2021-12-04 09:02:37 GMT 41.664440 30.231180 32,000 303 446 0
2021-12-04 09:02:32 GMT 41.659039 30.242615 32,000 303 446 0
2021-12-04 09:02:28 GMT 41.654102 30.253090 32,000 303 446 0
2021-12-04 09:02:25 GMT 41.650360 30.261028 32,000 303 446 0
2021-12-04 09:02:21 GMT 41.643082 30.276384 32,000 303 447 0
2021-12-04 09:02:18 GMT 41.643082 30.276384 32,000 303 447 0
2021-12-04 09:02:14 GMT 41.639099 30.284813 32,000 303 446 0
2021-12-04 09:02:08 GMT 41.631821 30.300106 32,000 303 446 -64
2021-12-04 09:02:03 GMT 41.627384 30.309427 32,000 303 446 0
2021-12-04 09:01:58 GMT 41.620422 30.324076 32,000 303 445 64
2021-12-04 09:01:52 GMT 41.615139 30.335169 32,000 303 445 64
2021-12-04 09:01:48 GMT 41.609646 30.346792 32,000 303 445 0
2021-12-04 09:01:44 GMT 41.604355 30.357971 32,000 303 445 0
2021-12-04 09:01:37 GMT 41.598450 30.370518 32,000 303 446 0
2021-12-04 09:01:33 GMT 41.593506 30.381004 32,000 303 446 0
2021-12-04 09:01:26 GMT 41.585999 30.396797 32,000 303 446 0
2021-12-04 09:01:22 GMT 41.582153 30.404976 32,000 303 447 0
2021-12-04 09:01:17 GMT 41.576294 30.417273 32,000 303 447 0
2021-12-04 09:01:11 GMT 41.568634 30.433344 32,000 303 447 0
2021-12-04 09:01:07 GMT 41.564850 30.441242 32,000 303 447 0
2021-12-04 09:01:01 GMT 41.558952 30.453527 32,000 303 447 0
2021-12-04 09:00:57 GMT 41.553738 30.464449 32,000 303 447 0
2021-12-04 09:00:51 GMT 41.547405 30.477671 32,000 303 447 0
2021-12-04 09:00:47 GMT 41.542286 30.488401 32,000 303 447 0
2021-12-04 09:00:41 GMT 41.536469 30.500481 32,000 303 447 0
2021-12-04 09:00:36 GMT 41.530788 30.512291 32,000 303 447 0
2021-12-04 09:00:34 GMT 41.528458 30.517147 32,000 303 447 0
2021-12-04 09:00:26 GMT 41.518173 30.538544 32,000 303 447 0
2021-12-04 09:00:17 GMT 41.508545 30.558472 32,000 303 447 0
2021-12-04 09:00:10 GMT 41.502064 30.571949 32,000 303 447 0
2021-12-04 09:00:04 GMT 41.494171 30.588434 32,000 303 447 0
2021-12-04 09:00:01 GMT 41.490280 30.596548 32,000 303 447 0
2021-12-04 08:59:56 GMT 41.486282 30.604908 32,000 303 447 0
2021-12-04 08:59:49 GMT 41.478275 30.621578 32,000 303 447 -64
2021-12-04 08:59:45 GMT 41.474716 30.629009 32,000 303 447 -64
2021-12-04 08:59:40 GMT 41.467804 30.643429 32,000 303 447 0
2021-12-04 08:59:36 GMT 41.463799 30.651728 32,000 303 447 0
2021-12-04 08:59:29 GMT 41.455326 30.669357 32,000 303 447 0
2021-12-04 08:59:26 GMT 41.452206 30.675808 32,000 303 447 0
2021-12-04 08:59:22 GMT 41.447571 30.685564 32,000 303 446 0
2021-12-04 08:59:19 GMT 41.444199 30.692478 32,000 303 446 0
2021-12-04 08:59:15 GMT 41.440887 30.699421 32,000 303 446 0
2021-12-04 08:59:09 GMT 41.433308 30.715473 32,000 303 446 0
2021-12-04 08:59:05 GMT 41.428978 30.724480 32,000 303 446 0
2021-12-04 08:58:59 GMT 41.423492 30.736063 32,000 303 445 0
2021-12-04 08:58:55 GMT 41.417999 30.747675 32,000 303 445 0
2021-12-04 08:58:44 GMT 41.406006 30.772892 32,000 303 444 0
2021-12-04 08:58:40 GMT 41.400490 30.784458 32,000 303 444 -64
2021-12-04 08:58:34 GMT 41.394104 30.797798 32,000 303 444 -64
2021-12-04 08:58:25 GMT 41.385727 30.815308 32,000 303 444 64
2021-12-04 08:58:22 GMT 41.382473 30.822268 32,000 303 444 0
2021-12-04 08:58:18 GMT 41.377167 30.833313 32,000 303 444 0
2021-12-04 08:58:15 GMT 41.374420 30.839050 32,000 303 443 64
2021-12-04 08:58:07 GMT 41.365528 30.857723 32,000 303 444 64
2021-12-04 08:58:04 GMT 41.363113 30.862793 32,000 303 444 0
2021-12-04 08:57:58 GMT 41.355892 30.877949 32,000 303 444 0
2021-12-04 08:57:54 GMT 41.351486 30.887207 32,000 303 444 0
2021-12-04 08:57:52 GMT 41.349281 30.891808 32,000 303 444 0
2021-12-04 08:57:48 GMT 41.339264 30.912720 32,000 303 444 0
2021-12-04 08:57:43 GMT 41.339264 30.912720 32,000 303 443 64
2021-12-04 08:57:34 GMT 41.329376 30.933411 32,000 303 443 64
2021-12-04 08:57:30 GMT 41.324982 30.942619 32,000 303 443 64
2021-12-04 08:57:25 GMT 41.319256 30.954540 32,000 303 443 0
2021-12-04 08:57:15 GMT 41.308128 30.977699 32,000 303 443 0
2021-12-04 08:57:07 GMT 41.299747 30.995115 32,000 303 443 0
2021-12-04 08:57:04 GMT 41.296234 31.002441 32,000 303 443 0
2021-12-04 08:56:58 GMT 41.289963 31.015503 32,000 303 443 0
2021-12-04 08:56:55 GMT 41.285889 31.023987 32,000 303 443 0
2021-12-04 08:56:50 GMT 41.280849 31.034504 32,000 303 443 0
2021-12-04 08:56:45 GMT 41.275356 31.045990 32,000 303 441 0
2021-12-04 08:56:42 GMT 41.271072 31.054916 32,000 303 441 0
2021-12-04 08:56:34 GMT 41.263596 31.070435 32,000 303 441 0
2021-12-04 08:56:24 GMT 41.252640 31.093306 32,000 303 441 0
2021-12-04 08:56:20 GMT 41.248356 31.102232 32,000 303 441 0
2021-12-04 08:56:12 GMT 41.239929 31.119751 32,000 303 440 -64
2021-12-04 08:56:10 GMT 41.236313 31.127258 32,000 303 440 0
2021-12-04 08:55:58 GMT 41.224380 31.151983 32,000 303 439 0
2021-12-04 08:55:48 GMT 41.213581 31.174393 32,000 303 438 0
2021-12-04 08:55:40 GMT 41.204727 31.192688 32,000 303 438 0
2021-12-04 08:55:33 GMT 41.195984 31.210754 32,000 303 438 0
2021-12-04 08:55:30 GMT 41.192596 31.217773 32,000 303 438 0
2021-12-04 08:55:22 GMT 41.185089 31.233381 32,000 303 438 0
2021-12-04 08:55:18 GMT 41.180740 31.242371 32,000 303 437 0
2021-12-04 08:55:12 GMT 41.173141 31.258179 32,000 303 438 0
2021-12-04 08:55:09 GMT 41.170303 31.264038 32,000 303 438 0
2021-12-04 08:55:02 GMT 41.162560 31.280073 32,000 303 437 0
2021-12-04 08:54:58 GMT 41.157532 31.290405 32,000 303 437 0
2021-12-04 08:54:52 GMT 41.152176 31.301453 32,000 303 437 0
2021-12-04 08:54:42 GMT 41.140633 31.325331 32,000 303 437 0
2021-12-04 08:54:33 GMT 41.130661 31.345886 32,000 303 438 0
2021-12-04 08:54:26 GMT 41.124016 31.359600 32,000 303 438 -64
2021-12-04 08:54:20 GMT 41.116333 31.375393 32,000 303 438 0
2021-12-04 08:54:17 GMT 41.112305 31.383728 32,000 303 438 0
2021-12-04 08:54:10 GMT 41.105625 31.397490 32,000 303 437 0
2021-12-04 08:54:07 GMT 41.102371 31.404236 32,000 303 437 0
2021-12-04 08:54:01 GMT 41.096920 31.415468 32,000 303 437 0
2021-12-04 08:53:57 GMT 41.091522 31.426514 32,000 303 437 0
2021-12-04 08:53:49 GMT 41.083786 31.442444 32,000 303 437 0
2021-12-04 08:53:45 GMT 41.078613 31.453003 32,000 303 438 0
2021-12-04 08:53:42 GMT 41.075554 31.459288 32,000 303 436 64
2021-12-04 08:53:38 GMT 41.069408 31.471897 32,000 303 436 64
2021-12-04 08:53:34 GMT 41.066254 31.478394 32,000 303 436 0
2021-12-04 08:53:31 GMT 41.064056 31.482883 32,000 303 437 0
2021-12-04 08:53:26 GMT 41.057693 31.495911 32,000 303 437 -64
2021-12-04 08:53:22 GMT 41.053303 31.504919 32,000 303 437 -64
2021-12-04 08:53:11 GMT 41.041443 31.529175 32,000 303 437 0
2021-12-04 08:53:06 GMT 41.034760 31.542908 32,000 303 437 0
2021-12-04 08:53:01 GMT 41.030399 31.551924 32,000 303 437 0
2021-12-04 08:52:50 GMT 41.018738 31.575745 32,000 303 438 0
2021-12-04 08:52:42 GMT 41.008850 31.595947 32,000 303 438 0
2021-12-04 08:52:31 GMT 40.997856 31.618465 32,000 303 438 0
2021-12-04 08:52:23 GMT 40.988800 31.636902 32,000 303 438 0
2021-12-04 08:52:15 GMT 40.979004 31.656855 32,000 303 438 0
2021-12-04 08:52:13 GMT 40.977886 31.659101 32,000 303 438 0
2021-12-04 08:52:09 GMT 40.973465 31.668091 32,000 303 438 0
2021-12-04 08:52:03 GMT 40.966690 31.682007 32,000 303 437 0
2021-12-04 08:51:58 GMT 40.962059 31.691437 32,000 303 437 0
2021-12-04 08:51:49 GMT 40.951958 31.712036 32,000 303 436 0
2021-12-04 08:51:40 GMT 40.941467 31.733521 32,000 303 436 64
2021-12-04 08:51:29 GMT 40.929379 31.758041 32,000 303 436 0
2021-12-04 08:51:20 GMT 40.919323 31.778578 32,000 303 436 0
2021-12-04 08:51:09 GMT 40.907173 31.803360 32,000 303 436 0
2021-12-04 08:50:59 GMT 40.896420 31.825209 32,000 303 436 0
2021-12-04 08:50:52 GMT 40.887669 31.843061 32,000 304 435 -64
2021-12-04 08:50:49 GMT 40.885574 31.847290 32,000 304 435 -64
2021-12-04 08:50:39 GMT 40.874588 31.869465 32,000 304 434 0
2021-12-04 08:50:29 GMT 40.863602 31.891663 32,000 304 434 0
2021-12-04 08:50:19 GMT 40.851746 31.915588 32,000 304 434 0
2021-12-04 08:50:06 GMT 40.838322 31.942623 32,000 304 435 0
2021-12-04 08:50:02 GMT 40.834225 31.950865 32,000 304 436 0
2021-12-04 08:49:57 GMT 40.828083 31.963348 32,000 304 436 0
2021-12-04 08:49:47 GMT 40.817413 31.984985 32,000 304 437 0
2021-12-04 08:49:36 GMT 40.805271 32.009480 32,000 304 435 0
2021-12-04 08:49:27 GMT 40.794022 32.032104 32,000 304 435 0
2021-12-04 08:49:13 GMT 40.780289 32.059814 32,000 304 434 0
2021-12-04 08:49:06 GMT 40.771317 32.077942 32,000 304 433 64
2021-12-04 08:48:57 GMT 40.762527 32.095642 32,000 304 434 0
2021-12-04 08:48:53 GMT 40.758041 32.104736 32,000 304 435 0
2021-12-04 08:48:47 GMT 40.751316 32.118217 32,000 304 436 0
2021-12-04 08:48:34 GMT 40.736511 32.147995 32,000 301 435 0
2021-12-04 08:48:30 GMT 40.732323 32.156796 32,000 301 434 0
2021-12-04 08:48:24 GMT 40.725357 32.171936 32,000 300 434 0
2021-12-04 08:48:19 GMT 40.721603 32.180420 32,000 298 432 0
2021-12-04 08:48:16 GMT 40.718777 32.187069 32,000 298 432 0
2021-12-04 08:48:13 GMT 40.715240 32.195621 32,000 298 431 0
2021-12-04 08:48:02 GMT 40.705307 32.221313 32,000 296 428 64
2021-12-04 08:47:55 GMT 40.699265 32.238831 32,000 294 426 0
2021-12-04 08:47:50 GMT 40.696198 32.248169 32,000 294 427 0
2021-12-04 08:47:41 GMT 40.689423 32.269165 32,000 294 427 0
2021-12-04 08:47:32 GMT 40.681320 32.294189 32,000 294 427 0
2021-12-04 08:47:20 GMT 40.672970 32.319965 32,000 294 426 0
2021-12-04 08:47:10 GMT 40.664543 32.345936 32,000 293 425 0
2021-12-04 08:46:58 GMT 40.655960 32.372559 32,000 293 425 0
2021-12-04 08:46:49 GMT 40.648251 32.396374 32,000 294 425 0
2021-12-04 08:46:37 GMT 40.639984 32.421753 32,000 294 425 0
2021-12-04 08:46:29 GMT 40.632294 32.445251 32,000 294 425 0
2021-12-04 08:46:15 GMT 40.622692 32.474712 32,000 294 425 0
2021-12-04 08:46:08 GMT 40.616455 32.493896 32,000 294 425 0
2021-12-04 08:45:56 GMT 40.607609 32.520966 32,000 294 425 0
2021-12-04 08:45:48 GMT 40.602070 32.538010 32,000 294 425 0
2021-12-04 08:45:45 GMT 40.599609 32.545593 32,000 294 425 0
2021-12-04 08:45:36 GMT 40.592514 32.567383 32,000 294 424 0
2021-12-04 08:45:25 GMT 40.584148 32.592941 32,000 294 424 0
2021-12-04 08:45:15 GMT 40.575909 32.617970 32,000 294 423 0
2021-12-04 08:45:02 GMT 40.566273 32.647495 32,000 294 422 0
2021-12-04 08:44:55 GMT 40.559753 32.667221 32,000 294 422 0
2021-12-04 08:44:44 GMT 40.551910 32.691284 32,000 294 422 0
2021-12-04 08:44:34 GMT 40.543854 32.715942 32,000 294 421 0
2021-12-04 08:44:23 GMT 40.535641 32.740818 32,000 294 421 0
2021-12-04 08:44:13 GMT 40.527832 32.764526 32,000 294 421 0
2021-12-04 08:44:02 GMT 40.519730 32.789185 32,000 294 421 0
2021-12-04 08:43:51 GMT 40.511032 32.815613 32,000 294 420 0
2021-12-04 08:43:40 GMT 40.503159 32.839478 32,000 294 419 -64
2021-12-04 08:43:30 GMT 40.494862 32.864662 32,000 294 418 0
2021-12-04 08:43:18 GMT 40.486359 32.890198 32,000 294 417 0
2021-12-04 08:43:09 GMT 40.479446 32.911011 32,000 294 417 0
2021-12-04 08:42:59 GMT 40.471390 32.935364 32,000 294 417 0
2021-12-04 08:42:55 GMT 40.468323 32.944641 32,000 294 418 0
2021-12-04 08:42:48 GMT 40.462830 32.961121 32,000 294 418 0
2021-12-04 08:42:40 GMT 40.456596 32.979958 32,000 294 418 0
2021-12-04 08:42:37 GMT 40.454590 32.986023 32,000 294 418 -64
2021-12-04 08:42:33 GMT 40.451752 32.994629 32,000 294 418 -64
2021-12-04 08:42:26 GMT 40.445980 33.012043 32,000 294 418 0
2021-12-04 08:42:22 GMT 40.442413 33.022766 32,000 294 418 0
2021-12-04 08:42:15 GMT 40.437698 33.036926 32,000 294 418 0
2021-12-04 08:42:06 GMT 40.430832 33.057617 32,000 294 418 0
2021-12-04 08:42:03 GMT 40.428452 33.064819 32,000 294 418 0
2021-12-04 08:41:57 GMT 40.422798 33.081833 32,000 294 420 64
2021-12-04 08:41:54 GMT 40.421539 33.085514 32,000 294 420 64
2021-12-04 08:41:45 GMT 40.412788 33.111858 32,000 294 420 0
2021-12-04 08:41:33 GMT 40.404831 33.135620 32,000 294 420 0
2021-12-04 08:41:23 GMT 40.397053 33.158859 32,000 294 419 0
2021-12-04 08:41:13 GMT 40.389000 33.183018 32,000 294 419 0
2021-12-04 08:41:02 GMT 40.380936 33.207153 32,000 294 417 0
2021-12-04 08:40:52 GMT 40.373264 33.230083 32,000 294 417 0
2021-12-04 08:40:43 GMT 40.366013 33.251831 32,000 294 416 0
2021-12-04 08:40:33 GMT 40.357864 33.276062 32,000 294 417 0
2021-12-04 08:40:28 GMT 40.354786 33.285328 32,000 294 417 0
2021-12-04 08:40:22 GMT 40.349579 33.300781 32,000 294 415 64
2021-12-04 08:40:12 GMT 40.341564 33.324718 32,000 294 415 0
2021-12-04 08:40:01 GMT 40.333374 33.349121 32,000 294 415 64
2021-12-04 08:39:50 GMT 40.324528 33.375404 32,000 294 417 0
2021-12-04 08:39:40 GMT 40.317219 33.397125 32,000 294 417 0
2021-12-04 08:39:29 GMT 40.308472 33.422974 32,000 294 418 0
2021-12-04 08:39:20 GMT 40.300831 33.445629 32,000 294 418 0
2021-12-04 08:39:08 GMT 40.292404 33.470661 32,000 294 418 0
2021-12-04 08:38:59 GMT 40.284622 33.493774 32,000 294 418 0
2021-12-04 08:38:48 GMT 40.276485 33.517853 32,000 294 418 0
2021-12-04 08:38:38 GMT 40.268013 33.542820 32,000 294 417 0
2021-12-04 08:38:26 GMT 40.259865 33.566792 32,000 294 417 0
2021-12-04 08:38:17 GMT 40.251671 33.591011 32,000 294 417 0
2021-12-04 08:38:06 GMT 40.243805 33.614292 32,000 294 417 0
2021-12-04 08:37:56 GMT 40.235413 33.638977 32,000 294 417 0
2021-12-04 08:37:45 GMT 40.227310 33.662903 32,000 294 417 0
2021-12-04 08:37:38 GMT 40.221039 33.681335 32,000 294 416 0
2021-12-04 08:37:35 GMT 40.218704 33.688232 32,000 294 416 0
2021-12-04 08:37:23 GMT 40.210567 33.712173 32,000 294 416 0
2021-12-04 08:37:14 GMT 40.202652 33.735332 32,000 294 415 0
2021-12-04 08:37:03 GMT 40.194458 33.759426 32,000 294 415 0
2021-12-04 08:36:52 GMT 40.186386 33.783020 32,000 294 415 0
2021-12-04 08:36:42 GMT 40.178146 33.807068 32,000 294 415 0
2021-12-04 08:36:35 GMT 40.172997 33.822159 32,000 294 415 0
2021-12-04 08:36:31 GMT 40.169952 33.831116 32,000 294 415 0
2021-12-04 08:36:22 GMT 40.161621 33.855408 32,000 295 417 0
2021-12-04 08:36:10 GMT 40.153381 33.879517 32,000 295 417 0
2021-12-04 08:36:00 GMT 40.144882 33.904308 32,000 295 417 0
2021-12-04 08:35:49 GMT 40.136921 33.927528 32,000 295 417 0
2021-12-04 08:35:44 GMT 40.132507 33.940369 32,000 295 417 0
2021-12-04 08:35:40 GMT 40.128727 33.951439 32,000 295 418 0
2021-12-04 08:35:29 GMT 40.120720 33.974659 32,000 295 418 0
2021-12-04 08:35:23 GMT 40.115112 33.990967 32,000 295 418 0
2021-12-04 08:35:19 GMT 40.112366 33.999023 32,000 295 418 0
2021-12-04 08:35:11 GMT 40.106689 34.015625 32,000 295 418 0
2021-12-04 08:35:08 GMT 40.103821 34.023911 32,000 295 418 0
2021-12-04 08:34:58 GMT 40.095612 34.047791 32,000 295 418 0
2021-12-04 08:34:47 GMT 40.087204 34.072163 32,000 295 418 0
2021-12-04 08:34:36 GMT 40.079086 34.095642 32,000 295 418 0
2021-12-04 08:34:25 GMT 40.070435 34.120728 32,000 295 418 0
2021-12-04 08:34:15 GMT 40.062389 34.143948 32,000 295 418 0
2021-12-04 08:34:05 GMT 40.053547 34.169479 32,000 295 418 0
2021-12-04 08:33:54 GMT 40.045212 34.193634 32,000 295 419 0
2021-12-04 08:33:45 GMT 40.037533 34.215794 32,000 295 419 0
2021-12-04 08:33:40 GMT 40.034500 34.224548 32,000 295 420 0
2021-12-04 08:33:33 GMT 40.028362 34.242264 32,000 295 420 0
2021-12-04 08:33:29 GMT 40.025803 34.249634 32,000 295 420 0
2021-12-04 08:33:21 GMT 40.018478 34.270813 32,000 295 420 0
2021-12-04 08:33:12 GMT 40.011887 34.289673 32,000 295 420 0
2021-12-04 08:33:09 GMT 40.009972 34.295197 32,000 295 420 0
2021-12-04 08:33:03 GMT 40.004059 34.312237 32,000 295 420 0
2021-12-04 08:33:00 GMT 40.002090 34.317810 32,000 295 420 0
2021-12-04 08:32:49 GMT 39.993210 34.343384 32,000 295 420 0
2021-12-04 08:32:42 GMT 39.986694 34.362049 32,000 295 421 0
2021-12-04 08:32:38 GMT 39.984184 34.369167 32,000 295 421 0
2021-12-04 08:32:29 GMT 39.977692 34.387878 32,000 295 421 0
2021-12-04 08:32:21 GMT 39.970276 34.409180 32,000 295 422 0
2021-12-04 08:32:17 GMT 39.967941 34.415894 32,000 295 422 0
2021-12-04 08:32:09 GMT 39.961231 34.435085 32,000 295 422 0
2021-12-04 08:32:06 GMT 39.958786 34.442017 32,000 295 422 0
2021-12-04 08:31:59 GMT 39.952377 34.460266 32,000 295 422 0
2021-12-04 08:31:48 GMT 39.944046 34.484131 32,000 295 422 0
2021-12-04 08:31:36 GMT 39.934372 34.511929 32,000 295 422 0
2021-12-04 08:31:29 GMT 39.927761 34.530655 32,000 295 423 0
2021-12-04 08:31:16 GMT 39.910263 34.580544 32,000 295 419 0
2021-12-04 08:31:07 GMT 39.910263 34.580544 32,000 295 421 0
2021-12-04 08:30:57 GMT 39.902573 34.602394 32,000 295 421 0
2021-12-04 08:30:45 GMT 39.892288 34.631592 32,000 295 419 0
2021-12-04 08:30:28 GMT 39.879253 34.668701 32,000 295 419 0
2021-12-04 08:30:03 GMT 39.858810 34.726830 32,000 295 418 0
2021-12-04 08:29:53 GMT 39.851578 34.747368 32,000 295 417 0
2021-12-04 08:29:43 GMT 39.843567 34.769936 32,000 295 417 0
2021-12-04 08:29:34 GMT 39.835217 34.793640 32,000 295 417 0
2021-12-04 08:29:23 GMT 39.826813 34.817345 32,000 295 417 0
2021-12-04 08:29:13 GMT 39.818253 34.841530 32,000 295 417 0
2021-12-04 08:29:01 GMT 39.809601 34.865891 32,000 295 418 0
2021-12-04 08:28:51 GMT 39.800629 34.891205 32,000 295 418 0
2021-12-04 08:28:08 GMT 39.766552 34.987061 0 295 420 0
2021-12-04 08:27:10 GMT 39.718510 35.121643 0 295 420 0
2021-12-04 08:27:05 GMT 39.714367 35.133301 32,000 295 419 0
We lost coverage of the aircraft here for a total of 112 minutes
2021-12-04 06:34:58 GMT 31.598680 45.915710 32,000 320 411 0
2021-12-04 06:34:50 GMT 31.585739 45.928829 32,000 320 410 0
2021-12-04 06:34:39 GMT 31.571495 45.943230 32,000 320 410 0
2021-12-04 06:34:30 GMT 31.557995 45.956963 32,000 320 411 0
2021-12-04 06:34:17 GMT 31.540445 45.974709 32,000 320 411 0
2021-12-04 06:34:05 GMT 31.521011 45.994423 32,000 320 411 0
2021-12-04 06:33:57 GMT 31.510941 46.004604 32,000 320 412 0
2021-12-04 06:33:45 GMT 31.493179 46.022591 32,000 320 412 0
2021-12-04 06:32:03 GMT 31.344360 46.172577 32,000 320 414 0
2021-12-04 06:30:18 GMT 31.195038 46.327408 32,000 313 411 0
We lost coverage of the aircraft here for a total of 12 minutes
2021-12-04 06:18:20 GMT 30.303909 47.541397 23,825 311 399 1600
2021-12-04 06:18:14 GMT 30.297272 47.550335 23,675 311 399 1664
2021-12-04 06:18:04 GMT 30.284977 47.566845 23,400 311 399 1920
2021-12-04 06:17:53 GMT 30.272081 47.584148 23,100 311 398 1280
2021-12-04 06:17:44 GMT 30.261154 47.598804 23,000 311 397 128
2021-12-04 06:17:17 GMT 30.228424 47.642590 23,000 311 396 -64
2021-12-04 06:17:14 GMT 30.224972 47.647209 23,000 311 396 -64
2021-12-04 06:17:02 GMT 30.210680 47.666271 23,025 311 396 -64
2021-12-04 06:16:51 GMT 30.198343 47.682804 23,000 311 397 64
2021-12-04 06:16:31 GMT 30.173346 47.716370 22,800 311 395 1344
2021-12-04 06:16:03 GMT 30.140015 47.761086 22,125 311 389 1408
2021-12-04 06:15:51 GMT 30.126434 47.779381 21,925 311 387 1856
2021-12-04 06:15:43 GMT 30.116970 47.792122 21,550 311 387 1728
2021-12-04 06:15:34 GMT 30.106750 47.805984 21,300 311 386 1728
2021-12-04 06:15:16 GMT 30.085129 47.835022 21,025 311 385 1728
2021-12-04 06:15:15 GMT 30.083965 47.836559 20,750 311 384 1664
2021-12-04 06:15:03 GMT 30.070084 47.854939 20,425 312 381 1536
2021-12-04 06:14:54 GMT 30.060129 47.867870 20,225 312 379 1344
2021-12-04 06:14:44 GMT 30.048019 47.883533 19,975 316 377 1536
2021-12-04 06:14:33 GMT 30.032867 47.899315 19,675 324 377 1600
2021-12-04 06:14:22 GMT 30.018036 47.910301 19,375 333 378 1856
2021-12-04 06:14:13 GMT 30.003801 47.917915 19,100 341 382 1856
2021-12-04 06:14:03 GMT 29.986954 47.923763 18,775 349 386 1856
2021-12-04 06:13:53 GMT 29.967865 47.927372 18,475 352 386 1728
2021-12-04 06:13:42 GMT 29.950314 47.930382 18,175 352 384 1856
2021-12-04 06:13:32 GMT 29.932022 47.933620 17,850 352 382 1856
2021-12-04 06:13:22 GMT 29.914654 47.936646 17,550 352 381 1920
2021-12-04 06:13:12 GMT 29.896500 47.939793 17,225 352 379 1856
2021-12-04 06:13:01 GMT 29.877739 47.943096 16,850 352 378 2048
2021-12-04 06:12:51 GMT 29.860565 47.946079 16,525 352 378 2176
2021-12-04 06:12:40 GMT 29.842712 47.949142 16,125 352 378 2304
2021-12-04 06:12:11 GMT 29.790298 47.958122 14,875 352 379 2176
2021-12-04 06:12:10 GMT 29.789566 47.958225 14,875 352 379 2112
2021-12-04 06:12:00 GMT 29.771393 47.961346 14,500 352 377 2112
2021-12-04 06:11:50 GMT 29.753771 47.964424 14,125 352 375 2112
2021-12-04 06:11:39 GMT 29.736099 47.967472 13,750 352 373 2240
2021-12-04 06:11:30 GMT 29.719135 47.970402 13,375 352 372 2304
2021-12-04 06:11:19 GMT 29.701771 47.973309 13,000 352 369 2368
2021-12-04 06:11:09 GMT 29.684647 47.976185 12,575 352 368 2368
2021-12-04 06:10:58 GMT 29.666576 47.979233 12,175 352 366 2176
2021-12-04 06:10:47 GMT 29.647797 47.982365 11,825 352 362 1792
2021-12-04 06:10:37 GMT 29.631912 47.985058 11,600 352 355 1216
2021-12-04 06:10:26 GMT 29.613182 47.988281 11,350 352 346 1280
2021-12-04 06:10:14 GMT 29.593552 47.991608 11,075 352 338 1344
2021-12-04 06:10:07 GMT 29.583847 47.993244 10,950 352 330 1280
2021-12-04 06:09:57 GMT 29.568539 47.995876 10,725 352 321 1280
2021-12-04 06:09:47 GMT 29.553635 47.998474 10,525 352 312 1280
2021-12-04 06:09:35 GMT 29.538000 48.001152 10,300 352 302 1088
2021-12-04 06:09:26 GMT 29.524704 48.003387 10,125 352 292 1408
2021-12-04 06:09:16 GMT 29.511652 48.005676 9,750 352 289 2496
2021-12-04 06:09:06 GMT 29.498062 48.008141 9,350 351 287 2368
2021-12-04 06:08:56 GMT 29.484512 48.010624 8,925 351 285 2560
2021-12-04 06:08:45 GMT 29.471054 48.013054 8,475 351 284 2624
2021-12-04 06:08:35 GMT 29.457790 48.015476 8,050 351 282 2432
2021-12-04 06:08:24 GMT 29.443588 48.018070 7,600 352 280 2560
2021-12-04 06:08:14 GMT 29.431000 48.020184 7,175 353 278 2560
2021-12-04 06:08:04 GMT 29.417664 48.022316 6,700 353 278 2752
2021-12-04 06:07:54 GMT 29.404953 48.023987 6,275 359 276 2432
2021-12-04 06:07:38 GMT 29.383896 48.020290 5,600 21 274 2560
2021-12-04 06:07:34 GMT 29.379318 48.018017 5,425 28 274 2496
2021-12-04 06:07:23 GMT 29.368643 48.010307 5,025 41 274 2368
2021-12-04 06:07:13 GMT 29.359039 47.999954 4,625 45 271 2240
2021-12-04 06:07:02 GMT 29.349426 47.988968 4,300 45 263 1344
2021-12-04 06:06:53 GMT 29.341131 47.979397 4,075 45 253 1856
2021-12-04 06:06:43 GMT 29.332937 47.970078 3,775 43 247 1536
2021-12-04 06:06:32 GMT 29.324326 47.961193 3,575 34 234 896
2021-12-04 06:06:22 GMT 29.314642 47.955162 3,425 12 220 768
2021-12-04 06:06:11 GMT 29.304474 47.953896 3,300 354 208 896
2021-12-04 06:06:02 GMT 29.295277 47.956562 3,050 338 197 1984
2021-12-04 06:05:50 GMT 29.286758 47.960762 2,725 337 193 2048
2021-12-04 06:05:41 GMT 29.278564 47.964802 2,375 338 192 2112
2021-12-04 06:05:31 GMT 29.270092 47.968784 2,025 338 189 1920
2021-12-04 06:05:29 GMT 29.267807 47.969849 1,950 338 188 2048
2021-12-04 06:05:27 GMT 29.266983 47.970219 1,900 338 188 2176
2021-12-04 06:05:26 GMT 29.266275 47.970562 1,875 338 188 2304
2021-12-04 06:05:25 GMT 29.264969 47.971169 1,825 338 188 2432
2021-12-04 06:05:24 GMT 29.264273 47.971531 1,775 338 188 2560
2021-12-04 06:05:23 GMT 29.263435 47.971909 1,725 338 188 2624
2021-12-04 06:05:22 GMT 29.261248 47.972935 1,625 338 188 2880
2021-12-04 06:05:20 GMT 29.261248 47.972935 1,600 338 188 2880
2021-12-04 06:05:19 GMT 29.260456 47.973309 1,550 338 187 3008
2021-12-04 06:05:17 GMT 29.258057 47.974495 1,400 337 188 3136
2021-12-04 06:05:14 GMT 29.256454 47.975288 1,300 337 187 3136
2021-12-04 06:05:13 GMT 29.255402 47.975761 1,225 336 188 3200
2021-12-04 06:05:12 GMT 29.254683 47.976109 1,175 336 188 3200
2021-12-04 06:05:11 GMT 29.253473 47.976757 1,100 336 187 3136
2021-12-04 06:05:09 GMT 29.251518 47.977779 975 335 189 3136
2021-12-04 06:05:07 GMT 29.250401 47.978371 875 335 188 3136
2021-12-04 06:05:04 GMT 29.248817 47.979233 775 335 188 3008
2021-12-04 06:05:03 GMT 29.247932 47.979717 725 334 189 2944
2021-12-04 06:05:01 GMT 29.246349 47.980579 625 334 189 2880
2021-12-04 06:05:00 GMT 29.245651 47.980991 575 334 189 2880
2021-12-04 06:04:59 GMT 29.244720 47.981495 525 335 189 2816
2021-12-04 06:04:58 GMT 29.243931 47.981926 450 335 189 2816
2021-12-04 06:04:57 GMT 29.243179 47.982311 425 335 189 2880
2021-12-04 06:04:56 GMT 29.242393 47.982788 375 335 190 2880
2021-12-04 06:04:54 GMT 29.240891 47.983582 275 335 191 2880
2021-12-04 06:04:52 GMT 29.239321 47.984459 175 336 191 2688
2021-12-04 06:04:51 GMT 29.238419 47.984901 125 336 191 2688
2021-12-04 06:04:49 GMT 29.236855 47.985748 50 336 189 1728
2021-12-04 06:04:48 GMT 29.235901 47.986221 25 336 189 1728
2021-12-04 06:04:47 GMT 29.235077 47.986698 0 336 189 1728
2021-12-04 06:04:46 GMT 29.234386 47.987041 -25 336 187 1280
2021-12-04 06:04:44 GMT 29.232849 47.987850 -25 336 182 512
2021-12-04 06:04:42 GMT 29.231268 47.988712 -50 336 175 128
2021-12-04 06:04:40 GMT 29.228800 47.990005 -75 336 169 0
2021-12-04 06:04:39 GMT 29.228800 47.990005 -75 336 162 -64
2021-12-04 06:04:38 GMT 29.228102 47.990383 -50 336 162 -64
2021-12-04 06:04:37 GMT 29.227478 47.990711 -50 336 158 -64
2021-12-04 06:04:36 GMT 29.226837 47.991081 -50 336 150 -64
2021-12-04 06:04:35 GMT 29.225168 47.991943 -50 336 142 -64
2021-12-04 06:04:32 GMT 29.223866 47.992641 -50 336 135 0
2021-12-04 06:04:31 GMT 29.223261 47.992966 -50 336 131 0
2021-12-04 06:04:29 GMT 29.222076 47.993614 -50 336 122 0
2021-12-04 06:04:27 GMT 29.220978 47.994198 -50 336 115 0
2021-12-04 06:04:25 GMT 29.220016 47.994671 -50 336 106 0
2021-12-04 06:04:23 GMT 29.219055 47.995201 -25 336 97 0
2021-12-04 06:04:22 GMT 29.218233 47.995659 -25 337 88 64
2021-12-04 06:04:20 GMT 29.217728 47.995888 -25 336 83 0
2021-12-04 06:04:19 GMT 29.217361 47.996098 -25 337 78 0
2021-12-04 06:04:17 GMT 29.216972 47.996311 0 334 76
2021-12-04 06:04:16 GMT 29.216629 47.996494 0 334 70
2021-12-04 06:04:14 GMT 29.215611 47.997025 0 334 55
2021-12-04 06:04:12 GMT 29.215347 47.997169 0 334 50
2021-12-04 06:04:10 GMT 29.214878 47.997417 0 334 40
2021-12-04 06:04:08 GMT 29.214581 47.997578 0 334 30
2021-12-04 06:04:03 GMT 29.213905 47.997932 0 334 13
2021-12-04 06:04:01 GMT 29.213810 47.997974 0 334 13
2021-12-04 06:03:56 GMT 29.213554 47.998112 0 334 11
2021-12-04 06:03:55 GMT 29.213484 47.998150 0 337 11
2021-12-04 06:03:53 GMT 29.213427 47.998192 0 340 11
2021-12-04 06:03:52 GMT 29.213381 47.998219 0 343 11
2021-12-04 06:03:51 GMT 29.213333 47.998245 0 345 11
2021-12-04 06:03:50 GMT 29.213287 47.998272 0 351 11
2021-12-04 06:03:47 GMT 29.213184 47.998329 0 357 11
2021-12-04 06:03:44 GMT 29.212990 47.998356 0 8 10
2021-12-04 06:03:36 GMT 29.212601 47.998283 0 11 11
2021-12-04 06:03:34 GMT 29.212275 47.998230 0 25 11
2021-12-04 06:03:21 GMT 29.211960 47.998077 0 56 11
2021-12-04 06:03:20 GMT 29.211912 47.998028 0 61 11
2021-12-04 06:03:19 GMT 29.211878 47.997990 0 64 11
2021-12-04 06:03:18 GMT 29.211845 47.997932 0 64 11
2021-12-04 06:03:14 GMT 29.211775 47.997734 0 67 11
2021-12-04 06:03:06 GMT 29.211594 47.997314 0 81 11
2021-12-04 06:03:03 GMT 29.211554 47.997181 0 92 12
2021-12-04 06:02:53 GMT 29.211622 47.996643 0 146 12
2021-12-04 06:02:51 GMT 29.211693 47.996559 0 151 12
2021-12-04 06:02:50 GMT 29.211731 47.996532 0 154 13
2021-12-04 06:02:49 GMT 29.211784 47.996494 0 154 13
2021-12-04 06:02:48 GMT 29.211832 47.996468 0 154 14
2021-12-04 06:02:46 GMT 29.211948 47.996414 0 154 16
2021-12-04 06:02:36 GMT 29.212658 47.996033 0 154 20
2021-12-04 06:02:35 GMT 29.212763 47.995983 0 154 20
2021-12-04 06:02:34 GMT 29.212875 47.995914 0 154 21
2021-12-04 06:02:31 GMT 29.213139 47.995781 0 154 22
2021-12-04 06:02:28 GMT 29.213333 47.995674 0 154 22
2021-12-04 06:02:24 GMT 29.213776 47.995445 0 154 22
2021-12-04 06:02:11 GMT 29.214798 47.994896 0 154 21
2021-12-04 06:02:04 GMT 29.215450 47.994541 0 154 20
2021-12-04 06:01:59 GMT 29.215881 47.994312 0 154 20
2021-12-04 06:01:51 GMT 29.216534 47.993977 0 154 20
2021-12-04 06:01:41 GMT 29.217382 47.993530 0 154 20
2021-12-04 06:01:31 GMT 29.218222 47.993088 0 154 20
2021-12-04 06:01:28 GMT 29.218483 47.992943 0 154 20
2021-12-04 06:01:25 GMT 29.218689 47.992836 0 154 20
2021-12-04 06:01:21 GMT 29.219044 47.992638 0 154 20
2021-12-04 06:01:20 GMT 29.219135 47.992599 0 154 20
2021-12-04 06:01:16 GMT 29.219387 47.992466 0 154 19
2021-12-04 06:01:14 GMT 29.219584 47.992359 0 154 19
2021-12-04 06:01:05 GMT 29.220339 47.991959 0 154 19
2021-12-04 06:00:55 GMT 29.221130 47.991539 0 154 19
2021-12-04 06:00:54 GMT 29.221294 47.991444 0 154 19
2021-12-04 06:00:52 GMT 29.221367 47.991409 0 154 19
2021-12-04 06:00:51 GMT 29.221436 47.991371 0 154 19
2021-12-04 06:00:49 GMT 29.221525 47.991325 0 154 19
2021-12-04 06:00:48 GMT 29.221596 47.991299 0 154 19
2021-12-04 06:00:47 GMT 29.221699 47.991238 0 154 19
2021-12-04 06:00:37 GMT 29.222500 47.990803 0 154 19
2021-12-04 06:00:36 GMT 29.222574 47.990772 0 154 19
2021-12-04 06:00:35 GMT 29.222645 47.990730 0 154 19
2021-12-04 06:00:34 GMT 29.222706 47.990700 0 154 19
2021-12-04 06:00:32 GMT 29.222900 47.990593 0 154 19
2021-12-04 06:00:29 GMT 29.223141 47.990475 0 154 19
2021-12-04 06:00:28 GMT 29.223209 47.990433 0 154 19
2021-12-04 06:00:18 GMT 29.223999 47.990009 0 154 18
2021-12-04 06:00:17 GMT 29.224075 47.989979 0 154 18
2021-12-04 06:00:15 GMT 29.224226 47.989883 0 154 18
2021-12-04 06:00:13 GMT 29.224319 47.989841 0 154 18
2021-12-04 06:00:12 GMT 29.224377 47.989799 0 154 18
2021-12-04 06:00:10 GMT 29.224529 47.989723 0 154 18
2021-12-04 06:00:09 GMT 29.224617 47.989681 0 154 18
2021-12-04 06:00:08 GMT 29.224720 47.989628 0 154 17
2021-12-04 05:59:57 GMT 29.225460 47.989239 0 154 16
2021-12-04 05:59:56 GMT 29.225531 47.989197 0 154 16
2021-12-04 05:59:55 GMT 29.225590 47.989166 0 154 16
2021-12-04 05:59:53 GMT 29.225727 47.989090 0 154 16
2021-12-04 05:59:52 GMT 29.225784 47.989059 0 154 16
2021-12-04 05:59:51 GMT 29.225857 47.989021 0 154 16
2021-12-04 05:59:48 GMT 29.226019 47.988941 0 154 15
2021-12-04 05:59:36 GMT 29.226768 47.988533 0 154 14
2021-12-04 05:59:30 GMT 29.227192 47.988319 0 154 13
2021-12-04 05:59:27 GMT 29.227238 47.988293 0 154 13
2021-12-04 05:59:26 GMT 29.227299 47.988255 0 154 13
2021-12-04 05:59:14 GMT 29.227903 47.987930 0 154 12
2021-12-04 05:59:02 GMT 29.228462 47.987648 0 154 11
2021-12-04 05:59:01 GMT 29.228498 47.987621 0 154 11
2021-12-04 05:58:59 GMT 29.228565 47.987579 0 154 11
2021-12-04 05:58:48 GMT 29.229023 47.987343 0 154 10
2021-12-04 05:58:47 GMT 29.229078 47.987312 0 154 9
2021-12-04 05:58:37 GMT 29.229469 47.987106 0 154 8
2021-12-04 05:58:33 GMT 29.229580 47.987041 0 154 8
2021-12-04 05:58:30 GMT 29.229698 47.986988 0 154 8
2021-12-04 05:58:29 GMT 29.229719 47.986977 0 154 8
2021-12-04 05:58:27 GMT 29.229790 47.986935 0 151 8
2021-12-04 05:58:26 GMT 29.229824 47.986919 0 151 8
2021-12-04 05:58:23 GMT 29.229881 47.986881 0 151 7
2021-12-04 05:58:22 GMT 29.229918 47.986870 0 151 7
2021-12-04 05:58:20 GMT 29.229973 47.986843 0 149 7
2021-12-04 05:58:19 GMT 29.230007 47.986828 0 146 7
2021-12-04 05:58:17 GMT 29.230057 47.986801 0 143 7
2021-12-04 05:58:15 GMT 29.230116 47.986774 0 137 8
2021-12-04 05:58:13 GMT 29.230190 47.986725 0 129 8
2021-12-04 05:58:02 GMT 29.230442 47.986328 0 67 8
2021-12-04 05:58:00 GMT 29.230442 47.986328 0 67 8
2021-12-04 05:57:59 GMT 29.230419 47.986286 0 64 8
2021-12-04 05:57:55 GMT 29.230360 47.986126 0 67 7
2021-12-04 05:57:50 GMT 29.230301 47.985992 0 67 7
2021-12-04 05:57:40 GMT 29.230173 47.985683 0 81 6
2021-12-04 05:57:36 GMT 29.230145 47.985588 0 90 6
2021-12-04 05:57:35 GMT 29.230127 47.985519 0 95 6
2021-12-04 05:57:22 GMT 29.230110 47.985138 0 140 8
2021-12-04 05:57:20 GMT 29.230162 47.985062 0 149 8
2021-12-04 05:57:18 GMT 29.230213 47.985004 0 154 8
2021-12-04 05:57:17 GMT 29.230259 47.984982 0 157 8
2021-12-04 05:57:06 GMT 29.230639 47.984795 0 154 10
2021-12-04 05:57:04 GMT 29.230717 47.984756 0 154 10
2021-12-04 05:57:03 GMT 29.230751 47.984730 0 154 10
2021-12-04 05:57:01 GMT 29.230848 47.984688 0 154 10
2021-12-04 05:56:50 GMT 29.231243 47.984478 0 157 10
2021-12-04 05:56:40 GMT 29.231678 47.984268 0 157 10
2021-12-04 05:56:29 GMT 29.232153 47.984028 0 157 10
2021-12-04 05:56:25 GMT 29.232292 47.983959 0 157 10
2021-12-04 05:56:23 GMT 29.232395 47.983906 0 157 10
2021-12-04 05:56:20 GMT 29.232536 47.983829 0 157 11
2021-12-04 05:56:18 GMT 29.232628 47.983791 0 157 11
2021-12-04 05:56:07 GMT 29.233109 47.983540 0 157 11
2021-12-04 05:56:05 GMT 29.233200 47.983501 0 157 11
2021-12-04 05:55:54 GMT 29.233629 47.983288 0 157 10
2021-12-04 05:55:45 GMT 29.234026 47.983070 0 157 10
2021-12-04 05:55:44 GMT 29.234070 47.983051 0 157 10
2021-12-04 05:55:43 GMT 29.234106 47.983028 0 157 10
2021-12-04 05:55:42 GMT 29.234196 47.982986 0 157 10
2021-12-04 05:55:40 GMT 29.234241 47.982971 0 157 10
2021-12-04 05:55:39 GMT 29.234276 47.982948 0 157 10
2021-12-04 05:55:37 GMT 29.234350 47.982910 0 157 10
2021-12-04 05:55:35 GMT 29.234425 47.982868 0 157 10
2021-12-04 05:55:33 GMT 29.234503 47.982826 0 157 9
2021-12-04 05:55:32 GMT 29.234619 47.982777 0 157 9
2021-12-04 05:55:30 GMT 29.234619 47.982777 0 157 9
2021-12-04 05:55:29 GMT 29.234676 47.982746 0 157 9
2021-12-04 05:55:27 GMT 29.234701 47.982735 0 157 9
2021-12-04 05:55:17 GMT 29.235100 47.982536 0 154 9
2021-12-04 05:55:16 GMT 29.235123 47.982525 0 157 9
2021-12-04 05:55:15 GMT 29.235153 47.982506 0 157 9
2021-12-04 05:55:12 GMT 29.235260 47.982445 0 157 9
2021-12-04 05:55:11 GMT 29.235294 47.982433 0 157 9
2021-12-04 05:55:10 GMT 29.235340 47.982407 0 157 9
2021-12-04 05:55:09 GMT 29.235365 47.982399 0 157 9
2021-12-04 05:55:08 GMT 29.235489 47.982338 0 157 9
2021-12-04 05:55:06 GMT 29.235489 47.982338 0 157 8
2021-12-04 05:54:55 GMT 29.235855 47.982155 0 157 8
2021-12-04 05:54:53 GMT 29.235910 47.982128 0 157 8
2021-12-04 05:54:52 GMT 29.235992 47.982086 0 157 8
2021-12-04 05:54:39 GMT 29.236359 47.981892 0 157 8
2021-12-04 05:54:38 GMT 29.236387 47.981873 0 154 8
2021-12-04 05:54:28 GMT 29.236702 47.981720 0 151 7
2021-12-04 05:54:27 GMT 29.236725 47.981705 0 151 7
2021-12-04 05:54:26 GMT 29.236750 47.981697 0 151 7
2021-12-04 05:54:25 GMT 29.236771 47.981678 0 151 7
2021-12-04 05:54:23 GMT 29.236830 47.981655 0 149 6
2021-12-04 05:54:21 GMT 29.236855 47.981644 0 146 6
2021-12-04 05:54:20 GMT 29.236889 47.981628 0 146 6
2021-12-04 05:54:10 GMT 29.237167 47.981415 0 132 6
2021-12-04 05:54:08 GMT 29.237167 47.981415 0 132 6
2021-12-04 05:54:07 GMT 29.237183 47.981388 0 132 6
2021-12-04 05:54:06 GMT 29.237217 47.981361 0 132 7
2021-12-04 05:54:05 GMT 29.237228 47.981335 0 132 7
2021-12-04 05:53:59 GMT 29.237354 47.981228 0 120 7
2021-12-04 05:53:52 GMT 29.237514 47.981056 0 87 7
2021-12-04 05:53:45 GMT 29.237505 47.980770 0 67 9
2021-12-04 05:53:41 GMT 29.237459 47.980633 0 67 11
2021-12-04 05:53:40 GMT 29.237436 47.980595 0 67 11
2021-12-04 05:53:39 GMT 29.237389 47.980476 0 67 13
2021-12-04 05:53:35 GMT 29.237320 47.980255 0 67 15
2021-12-04 05:53:30 GMT 29.237181 47.979908 0 67 16
2021-12-04 05:53:22 GMT 29.236954 47.979301 0 67 15
2021-12-04 05:53:12 GMT 29.236679 47.978588 0 67 15
2021-12-04 05:53:11 GMT 29.236656 47.978512 0 67 15
2021-12-04 05:53:00 GMT 29.236401 47.977806 0 67 14
2021-12-04 05:52:50 GMT 29.236141 47.977112 0 67 13
2021-12-04 05:52:42 GMT 29.235958 47.976620 0 67 13
2021-12-04 05:52:41 GMT 29.235935 47.976582 0 67 13
2021-12-04 05:52:31 GMT 29.235706 47.975960 0 67 13
2021-12-04 05:52:19 GMT 29.235477 47.975300 0 67 13
2021-12-04 05:52:18 GMT 29.235443 47.975208 0 67 13
2021-12-04 05:52:17 GMT 29.235411 47.975140 0 67 12
2021-12-04 05:52:15 GMT 29.235365 47.975021 0 67 12
2021-12-04 05:52:14 GMT 29.235317 47.974903 0 67 12
2021-12-04 05:52:11 GMT 29.235283 47.974800 0 67 12
2021-12-04 05:52:10 GMT 29.235260 47.974731 0 67 12
2021-12-04 05:52:08 GMT 29.235212 47.974617 0 67 12
2021-12-04 05:52:07 GMT 29.235191 47.974564 0 67 11
2021-12-04 05:52:06 GMT 29.235168 47.974483 0 67 11
2021-12-04 05:52:05 GMT 29.235144 47.974426 0 67 11
2021-12-04 05:51:55 GMT 29.234962 47.973942 0 67 9
2021-12-04 05:51:54 GMT 29.234951 47.973900 0 67 9
2021-12-04 05:51:52 GMT 29.234928 47.973862 0 67 9
2021-12-04 05:51:51 GMT 29.234905 47.973808 0 67 8
2021-12-04 05:51:41 GMT 29.234756 47.973427 0 73 7
2021-12-04 05:51:38 GMT 29.234724 47.973324 0 75 7
2021-12-04 05:51:36 GMT 29.234711 47.973293 0 75 7
2021-12-04 05:51:35 GMT 29.234701 47.973270 0 78 7
2021-12-04 05:51:22 GMT 29.234608 47.972893 0 115 6
2021-12-04 05:51:15 GMT 29.234653 47.972649 0 143 6
2021-12-04 05:51:12 GMT 29.234690 47.972584 0 149 6
2021-12-04 05:51:11 GMT 29.234699 47.972553 0 151 6
2021-12-04 05:51:10 GMT 29.234724 47.972542 0 151 6
2021-12-04 05:51:09 GMT 29.234735 47.972530 0 154 6
2021-12-04 05:51:07 GMT 29.234768 47.972515 0 154 6
2021-12-04 05:50:56 GMT 29.235025 47.972382 0 149 6
2021-12-04 05:50:45 GMT 29.235317 47.972218 0 123 8
2021-12-04 05:50:42 GMT 29.235388 47.972164 0 109 8
2021-12-04 05:50:41 GMT 29.235443 47.972118 0 101 9
2021-12-04 05:50:40 GMT 29.235470 47.972084 0 98 9
2021-12-04 05:50:38 GMT 29.235512 47.972000 0 84 9
2021-12-04 05:50:37 GMT 29.235527 47.971951 0 78 9
2021-12-04 05:50:24 GMT 29.235329 47.971333 0 64 14
2021-12-04 05:50:15 GMT 29.235050 47.970615 0 64 15
2021-12-04 05:50:14 GMT 29.235020 47.970547 0 64 15
2021-12-04 05:50:13 GMT 29.234991 47.970482 0 64 15
2021-12-04 05:50:12 GMT 29.234934 47.970333 0 64 15
2021-12-04 05:50:10 GMT 29.234898 47.970268 0 64 14
2021-12-04 05:50:09 GMT 29.234875 47.970200 0 64 14
2021-12-04 05:50:08 GMT 29.234848 47.970139 0 64 14
2021-12-04 05:50:07 GMT 29.234814 47.970058 0 64 14
2021-12-04 05:50:04 GMT 29.234735 47.969849 0 64 13
2021-12-04 05:49:54 GMT 29.234505 47.969307 0 64 12
2021-12-04 05:49:44 GMT 29.234276 47.968739 0 64 11
2021-12-04 05:49:43 GMT 29.234253 47.968685 0 67 11
2021-12-04 05:49:42 GMT 29.234236 47.968639 0 67 11
2021-12-04 05:49:41 GMT 29.234213 47.968582 0 67 11
2021-12-04 05:49:29 GMT 29.233990 47.968025 0 90 10
2021-12-04 05:49:17 GMT 29.234058 47.967457 0 151 10
2021-12-04 05:49:06 GMT 29.234573 47.967171 0 154 17
2021-12-04 05:49:05 GMT 29.234665 47.967129 0 154 18
2021-12-04 05:49:02 GMT 29.234886 47.967010 0 154 18
2021-12-04 05:49:01 GMT 29.234974 47.966969 0 154 18
2021-12-04 05:49:00 GMT 29.235039 47.966927 0 154 18
2021-12-04 05:48:59 GMT 29.235111 47.966888 0 154 18
2021-12-04 05:48:57 GMT 29.235294 47.966793 0 154 18
2021-12-04 05:48:46 GMT 29.236027 47.966404 0 154 18
2021-12-04 05:48:45 GMT 29.236095 47.966373 0 154 18
2021-12-04 05:48:44 GMT 29.236176 47.966324 0 154 18
2021-12-04 05:48:42 GMT 29.236416 47.966202 0 154 18
2021-12-04 05:48:29 GMT 29.237240 47.965767 0 154 17
2021-12-04 05:48:28 GMT 29.237272 47.965744 0 154 17
2021-12-04 05:48:14 GMT 29.238308 47.965191 0 154 18
2021-12-04 05:48:09 GMT 29.238739 47.964962 0 154 18
2021-12-04 05:47:58 GMT 29.239506 47.964565 0 154 18
2021-12-04 05:47:57 GMT 29.239613 47.964504 0 154 18
2021-12-04 05:47:46 GMT 29.240379 47.964100 0 154 18
2021-12-04 05:47:35 GMT 29.241165 47.963680 0 154 18
2021-12-04 05:47:26 GMT 29.241871 47.963291 0 154 16
2021-12-04 05:47:25 GMT 29.241932 47.963257 0 154 16
2021-12-04 05:47:24 GMT 29.242012 47.963230 0 154 16
2021-12-04 05:47:21 GMT 29.242195 47.963131 0 154 15
2021-12-04 05:47:18 GMT 29.242378 47.963036 0 154 14
2021-12-04 05:47:17 GMT 29.242439 47.962997 0 154 14
2021-12-04 05:47:16 GMT 29.242458 47.962982 0 154 14
2021-12-04 05:47:05 GMT 29.243032 47.962688 0 154 12
2021-12-04 05:46:55 GMT 29.243534 47.962418 0 154 12
2021-12-04 05:46:52 GMT 29.243729 47.962307 0 154 12
2021-12-04 05:46:46 GMT 29.243946 47.962200 0 154 11
2021-12-04 05:46:35 GMT 29.244476 47.961918 0 154 11
2021-12-04 05:46:26 GMT 29.244896 47.961685 0 154 10
2021-12-04 05:46:21 GMT 29.245117 47.961582 0 154 10
2021-12-04 05:46:19 GMT 29.245163 47.961555 0 154 10
2021-12-04 05:46:18 GMT 29.245268 47.961491 0 154 10
2021-12-04 05:46:15 GMT 29.245331 47.961460 0 154 10
2021-12-04 05:46:10 GMT 29.245525 47.961357 0 154 10
2021-12-04 05:46:09 GMT 29.245560 47.961346 0 154 10
2021-12-04 05:46:08 GMT 29.245617 47.961304 0 154 10
2021-12-04 05:46:05 GMT 29.245838 47.961193 0 154 9
2021-12-04 05:46:02 GMT 29.245838 47.961193 0 154 9
2021-12-04 05:45:52 GMT 29.246223 47.960987 0 154 9
2021-12-04 05:45:50 GMT 29.246468 47.960857 0 154 9
2021-12-04 05:45:39 GMT 29.246670 47.960751 0 154 8
2021-12-04 05:45:29 GMT 29.247002 47.960564 0 154 8
2021-12-04 05:45:26 GMT 29.247095 47.960518 0 154 8
2021-12-04 05:45:11 GMT 29.247528 47.960285 0 154 7
2021-12-04 05:45:04 GMT 29.247711 47.960194 0 154 7
2021-12-04 05:45:00 GMT 29.247816 47.960140 0 154 6
2021-12-04 05:44:42 GMT 29.248213 47.959927 0 154 5
2021-12-04 05:44:40 GMT 29.248260 47.959904 0 154 5
2021-12-04 05:44:29 GMT 29.248432 47.959812 0 154 4
2021-12-04 05:44:27 GMT 29.248478 47.959785 0 154 4
2021-12-04 05:44:25 GMT 29.248501 47.959770 0 154 3
2021-12-04 05:44:24 GMT 29.248514 47.959766 0 154 3
2021-12-04 05:44:22 GMT 29.248537 47.959751 0 154 3
2021-12-04 05:44:20 GMT 29.248569 47.959732 0 154 3
2021-12-04 05:44:19 GMT 29.248573 47.959740 0 154 3
2021-12-04 05:42:56 GMT 29.248741 47.959641 0 154 0
2021-12-04 05:42:46 GMT 29.248735 47.959644 0 154 0
2021-12-04 05:42:28 GMT 29.248741 47.959641 0 154 0
2021-12-04 05:42:24 GMT 29.248735 47.959644 0 154 0
2021-12-04 05:42:13 GMT 29.248707 47.959667 0 154 2
2021-12-04 05:42:02 GMT 29.248638 47.959747 0 146 3
2021-12-04 05:41:54 GMT 29.248592 47.959824 0 140 3
2021-12-04 05:41:46 GMT 29.248573 47.959927 0 126 3
2021-12-04 05:41:44 GMT 29.248573 47.959942 0 126 3
2021-12-04 05:41:42 GMT 29.248581 47.959969 0 120 3
2021-12-04 05:41:31 GMT 29.248608 47.960114 0 101 3
2021-12-04 05:41:29 GMT 29.248615 47.960129 0 98 3
2021-12-04 05:41:19 GMT 29.248684 47.960247 0 81 3
2021-12-04 05:41:18 GMT 29.248690 47.960251 0 81 3
2021-12-04 05:41:16 GMT 29.248707 47.960274 0 75 3
2021-12-04 05:41:14 GMT 29.248730 47.960300 0 73 3
2021-12-04 05:41:12 GMT 29.248749 47.960304 0 70 3

Making use of Plane Finder data

You are free to use the raw flight data, aircraft information and images provided in this report for your own purposes provided the data is correctly attributed to Plane Finder. We ask that you please credit Plane Finder and link to planefinder.net in close proximity to the content.

Optionally one of the following logos (no smaller then 150x24px) can be used and must link to planefinder.net

Embedding the Plane Finder map

You are welcome to embed the Plane Finder playback map on your website to offer visitors a more interactive experience. We suggest using the following HTML code:

<iframe src="//planefinder.net/data/report/KU117-9K-AOH-7700-squawk-2021-12-04/map" width="800" height="600" seamless="seamless"></iframe>

Where our data comes from

Plane Finder has a global network of data feeds and antenna radars that receive data broadcast directly from aircraft. The primary technologies used are ADS-B and MLAT. We also show feeds from the FAA and a FLARM glider feed.

Click here to find out more about the Plane Finder network.

How we collect our data